<?xml version="1.0" encoding="UTF-8" standalone="no" ?>
<gpx xmlns="http://www.topografix.com/GPX/1/1" xmlns:xsi="http://www.w3.org/2001/XMLSchema-instance" xsi:schemaLocation="http://www.topografix.com/GPX/1/1 http://www.topografix.com/GPX/1/1/gpx.xsd" version="1.1" creator="VisuGPX - https://www.visugpx.com">
  <metadata>
    <name>Ambialet</name>
  </metadata>
  <trk>
    <name><![CDATA[2021-10-21_ambialet]]></name>
    <extensions>
      <line xmlns="http://www.topografix.com/GPX/gpx_style/0/2">
        <width>2</width>
      </line>
    </extensions>
    <trkseg>
      <trkpt lat="43.9446" lon="2.37745">
        <ele>206.7</ele>
        <time>2021-10-21T07:14:28.000Z</time>
      </trkpt>
      <trkpt lat="43.9446" lon="2.37745">
        <ele>206.8</ele>
        <time>2021-10-21T07:14:29.000Z</time>
      </trkpt>
      <trkpt lat="43.9446" lon="2.37745">
        <ele>206.9</ele>
        <time>2021-10-21T07:14:30.000Z</time>
      </trkpt>
      <trkpt lat="43.94457" lon="2.37736">
        <ele>208.6</ele>
        <time>2021-10-21T07:14:42.000Z</time>
      </trkpt>
      <trkpt lat="43.94457" lon="2.37737">
        <ele>208.5</ele>
        <time>2021-10-21T07:14:47.000Z</time>
      </trkpt>
      <trkpt lat="43.94459" lon="2.37741">
        <ele>208.2</ele>
        <time>2021-10-21T07:14:54.000Z</time>
      </trkpt>
      <trkpt lat="43.94459" lon="2.37741">
        <ele>208.1</ele>
        <time>2021-10-21T07:14:56.000Z</time>
      </trkpt>
      <trkpt lat="43.94459" lon="2.37741">
        <ele>208.1</ele>
        <time>2021-10-21T07:14:58.000Z</time>
      </trkpt>
      <trkpt lat="43.94459" lon="2.37741">
        <ele>208.1</ele>
        <time>2021-10-21T07:15:01.000Z</time>
      </trkpt>
      <trkpt lat="43.94459" lon="2.37741">
        <ele>208</ele>
        <time>2021-10-21T07:15:02.000Z</time>
      </trkpt>
      <trkpt lat="43.94459" lon="2.37741">
        <ele>207.9</ele>
        <time>2021-10-21T07:15:10.000Z</time>
      </trkpt>
      <trkpt lat="43.94459" lon="2.37741">
        <ele>207.9</ele>
        <time>2021-10-21T07:15:10.000Z</time>
      </trkpt>
      <trkpt lat="43.94461" lon="2.3774">
        <ele>208</ele>
        <time>2021-10-21T07:15:18.000Z</time>
      </trkpt>
      <trkpt lat="43.94461" lon="2.3774">
        <ele>208</ele>
        <time>2021-10-21T07:15:19.000Z</time>
      </trkpt>
      <trkpt lat="43.94461" lon="2.37741">
        <ele>207.9</ele>
        <time>2021-10-21T07:15:21.000Z</time>
      </trkpt>
      <trkpt lat="43.94461" lon="2.37741">
        <ele>207.5</ele>
        <time>2021-10-21T07:15:22.000Z</time>
      </trkpt>
      <trkpt lat="43.94461" lon="2.37741">
        <ele>207.2</ele>
        <time>2021-10-21T07:15:24.000Z</time>
      </trkpt>
      <trkpt lat="43.94461" lon="2.37741">
        <ele>207.2</ele>
        <time>2021-10-21T07:15:29.000Z</time>
      </trkpt>
      <trkpt lat="43.94456" lon="2.37737">
        <ele>207</ele>
        <time>2021-10-21T07:15:37.000Z</time>
      </trkpt>
      <trkpt lat="43.94456" lon="2.37737">
        <ele>207</ele>
        <time>2021-10-21T07:15:41.000Z</time>
      </trkpt>
      <trkpt lat="43.94456" lon="2.37737">
        <ele>207</ele>
        <time>2021-10-21T07:15:42.000Z</time>
      </trkpt>
      <trkpt lat="43.94456" lon="2.37737">
        <ele>206.9</ele>
        <time>2021-10-21T07:15:43.000Z</time>
      </trkpt>
      <trkpt lat="43.94456" lon="2.37737">
        <ele>206.9</ele>
        <time>2021-10-21T07:15:46.000Z</time>
      </trkpt>
      <trkpt lat="43.94456" lon="2.37737">
        <ele>207</ele>
        <time>2021-10-21T07:15:48.000Z</time>
      </trkpt>
      <trkpt lat="43.94456" lon="2.37737">
        <ele>207</ele>
        <time>2021-10-21T07:15:49.000Z</time>
      </trkpt>
      <trkpt lat="43.94456" lon="2.37736">
        <ele>207</ele>
        <time>2021-10-21T07:15:50.000Z</time>
      </trkpt>
      <trkpt lat="43.94456" lon="2.37736">
        <ele>207</ele>
        <time>2021-10-21T07:15:53.000Z</time>
      </trkpt>
      <trkpt lat="43.94456" lon="2.37736">
        <ele>207</ele>
        <time>2021-10-21T07:15:57.000Z</time>
      </trkpt>
      <trkpt lat="43.94456" lon="2.37736">
        <ele>207.1</ele>
        <time>2021-10-21T07:15:58.000Z</time>
      </trkpt>
      <trkpt lat="43.94456" lon="2.37736">
        <ele>207</ele>
        <time>2021-10-21T07:15:59.000Z</time>
      </trkpt>
      <trkpt lat="43.94456" lon="2.37737">
        <ele>206.8</ele>
        <time>2021-10-21T07:16:02.000Z</time>
      </trkpt>
      <trkpt lat="43.94456" lon="2.37737">
        <ele>206.8</ele>
        <time>2021-10-21T07:16:05.000Z</time>
      </trkpt>
      <trkpt lat="43.94456" lon="2.37738">
        <ele>206.7</ele>
        <time>2021-10-21T07:16:07.000Z</time>
      </trkpt>
      <trkpt lat="43.94457" lon="2.37738">
        <ele>206.6</ele>
        <time>2021-10-21T07:16:08.000Z</time>
      </trkpt>
      <trkpt lat="43.94456" lon="2.37739">
        <ele>206.3</ele>
        <time>2021-10-21T07:16:14.000Z</time>
      </trkpt>
      <trkpt lat="43.94456" lon="2.37739">
        <ele>206.3</ele>
        <time>2021-10-21T07:16:15.000Z</time>
      </trkpt>
      <trkpt lat="43.94456" lon="2.37739">
        <ele>206.4</ele>
        <time>2021-10-21T07:16:18.000Z</time>
      </trkpt>
      <trkpt lat="43.94456" lon="2.37739">
        <ele>206.5</ele>
        <time>2021-10-21T07:16:19.000Z</time>
      </trkpt>
      <trkpt lat="43.94456" lon="2.37739">
        <ele>206.8</ele>
        <time>2021-10-21T07:16:22.000Z</time>
      </trkpt>
      <trkpt lat="43.94455" lon="2.37739">
        <ele>206.9</ele>
        <time>2021-10-21T07:16:23.000Z</time>
      </trkpt>
      <trkpt lat="43.94455" lon="2.37739">
        <ele>207</ele>
        <time>2021-10-21T07:16:26.000Z</time>
      </trkpt>
      <trkpt lat="43.94455" lon="2.37739">
        <ele>207.1</ele>
        <time>2021-10-21T07:16:27.000Z</time>
      </trkpt>
      <trkpt lat="43.94455" lon="2.37739">
        <ele>207</ele>
        <time>2021-10-21T07:16:30.000Z</time>
      </trkpt>
      <trkpt lat="43.94455" lon="2.3774">
        <ele>207</ele>
        <time>2021-10-21T07:16:32.000Z</time>
      </trkpt>
      <trkpt lat="43.94455" lon="2.3774">
        <ele>207</ele>
        <time>2021-10-21T07:16:33.000Z</time>
      </trkpt>
      <trkpt lat="43.94455" lon="2.3774">
        <ele>206.9</ele>
        <time>2021-10-21T07:16:34.000Z</time>
      </trkpt>
      <trkpt lat="43.94455" lon="2.37741">
        <ele>206.8</ele>
        <time>2021-10-21T07:16:36.000Z</time>
      </trkpt>
      <trkpt lat="43.94455" lon="2.37741">
        <ele>206.8</ele>
        <time>2021-10-21T07:16:37.000Z</time>
      </trkpt>
      <trkpt lat="43.94455" lon="2.37741">
        <ele>206.8</ele>
        <time>2021-10-21T07:16:38.000Z</time>
      </trkpt>
      <trkpt lat="43.94455" lon="2.37741">
        <ele>206.8</ele>
        <time>2021-10-21T07:16:39.000Z</time>
      </trkpt>
      <trkpt lat="43.94455" lon="2.37746">
        <ele>207.3</ele>
        <time>2021-10-21T07:16:52.000Z</time>
      </trkpt>
      <trkpt lat="43.94455" lon="2.37746">
        <ele>207.3</ele>
        <time>2021-10-21T07:16:53.000Z</time>
      </trkpt>
      <trkpt lat="43.94455" lon="2.37747">
        <ele>207.1</ele>
        <time>2021-10-21T07:16:56.000Z</time>
      </trkpt>
      <trkpt lat="43.94456" lon="2.37747">
        <ele>207.1</ele>
        <time>2021-10-21T07:16:57.000Z</time>
      </trkpt>
      <trkpt lat="43.94455" lon="2.37746">
        <ele>207.6</ele>
        <time>2021-10-21T07:17:14.000Z</time>
      </trkpt>
      <trkpt lat="43.94454" lon="2.37746">
        <ele>207.7</ele>
        <time>2021-10-21T07:17:16.000Z</time>
      </trkpt>
      <trkpt lat="43.94454" lon="2.37746">
        <ele>207.7</ele>
        <time>2021-10-21T07:17:18.000Z</time>
      </trkpt>
      <trkpt lat="43.94454" lon="2.37747">
        <ele>207.8</ele>
        <time>2021-10-21T07:17:19.000Z</time>
      </trkpt>
      <trkpt lat="43.94455" lon="2.37747">
        <ele>207.7</ele>
        <time>2021-10-21T07:17:22.000Z</time>
      </trkpt>
      <trkpt lat="43.94455" lon="2.37746">
        <ele>207.9</ele>
        <time>2021-10-21T07:17:23.000Z</time>
      </trkpt>
      <trkpt lat="43.94455" lon="2.37746">
        <ele>208</ele>
        <time>2021-10-21T07:17:24.000Z</time>
      </trkpt>
      <trkpt lat="43.94456" lon="2.37747">
        <ele>208.1</ele>
        <time>2021-10-21T07:17:25.000Z</time>
      </trkpt>
      <trkpt lat="43.94458" lon="2.37745">
        <ele>208.1</ele>
        <time>2021-10-21T07:17:30.000Z</time>
      </trkpt>
      <trkpt lat="43.94459" lon="2.37744">
        <ele>208</ele>
        <time>2021-10-21T07:17:32.000Z</time>
      </trkpt>
      <trkpt lat="43.94459" lon="2.37743">
        <ele>208</ele>
        <time>2021-10-21T07:17:35.000Z</time>
      </trkpt>
      <trkpt lat="43.94458" lon="2.37743">
        <ele>208</ele>
        <time>2021-10-21T07:17:36.000Z</time>
      </trkpt>
      <trkpt lat="43.94459" lon="2.37741">
        <ele>207</ele>
        <time>2021-10-21T07:17:47.000Z</time>
      </trkpt>
      <trkpt lat="43.94458" lon="2.37741">
        <ele>207</ele>
        <time>2021-10-21T07:17:48.000Z</time>
      </trkpt>
      <trkpt lat="43.94457" lon="2.3774">
        <ele>205.9</ele>
        <time>2021-10-21T07:18:09.000Z</time>
      </trkpt>
      <trkpt lat="43.94458" lon="2.37741">
        <ele>205.8</ele>
        <time>2021-10-21T07:18:10.000Z</time>
      </trkpt>
      <trkpt lat="43.9446" lon="2.37744">
        <ele>205.3</ele>
        <time>2021-10-21T07:18:17.000Z</time>
      </trkpt>
      <trkpt lat="43.94459" lon="2.37745">
        <ele>205.3</ele>
        <time>2021-10-21T07:18:18.000Z</time>
      </trkpt>
      <trkpt lat="43.9446" lon="2.37746">
        <ele>205.4</ele>
        <time>2021-10-21T07:18:25.000Z</time>
      </trkpt>
      <trkpt lat="43.94459" lon="2.37746">
        <ele>205.4</ele>
        <time>2021-10-21T07:18:26.000Z</time>
      </trkpt>
      <trkpt lat="43.94459" lon="2.37745">
        <ele>205.5</ele>
        <time>2021-10-21T07:18:28.000Z</time>
      </trkpt>
      <trkpt lat="43.94459" lon="2.37745">
        <ele>205.5</ele>
        <time>2021-10-21T07:18:29.000Z</time>
      </trkpt>
      <trkpt lat="43.9446" lon="2.37741">
        <ele>205.1</ele>
        <time>2021-10-21T07:18:46.000Z</time>
      </trkpt>
      <trkpt lat="43.94461" lon="2.37741">
        <ele>205.2</ele>
        <time>2021-10-21T07:18:52.000Z</time>
      </trkpt>
      <trkpt lat="43.94461" lon="2.37745">
        <ele>204.7</ele>
        <time>2021-10-21T07:18:58.000Z</time>
      </trkpt>
      <trkpt lat="43.94461" lon="2.37746">
        <ele>204.6</ele>
        <time>2021-10-21T07:18:59.000Z</time>
      </trkpt>
      <trkpt lat="43.9447" lon="2.37751">
        <ele>204.2</ele>
        <time>2021-10-21T07:19:14.000Z</time>
      </trkpt>
      <trkpt lat="43.94475" lon="2.37762">
        <ele>203.1</ele>
        <time>2021-10-21T07:19:26.000Z</time>
      </trkpt>
      <trkpt lat="43.94482" lon="2.37772">
        <ele>203</ele>
        <time>2021-10-21T07:19:33.000Z</time>
      </trkpt>
      <trkpt lat="43.94487" lon="2.37783">
        <ele>203.9</ele>
        <time>2021-10-21T07:19:40.000Z</time>
      </trkpt>
      <trkpt lat="43.94495" lon="2.3779">
        <ele>204.2</ele>
        <time>2021-10-21T07:19:48.000Z</time>
      </trkpt>
      <trkpt lat="43.94501" lon="2.378">
        <ele>203.6</ele>
        <time>2021-10-21T07:20:00.000Z</time>
      </trkpt>
      <trkpt lat="43.94511" lon="2.37811">
        <ele>203.4</ele>
        <time>2021-10-21T07:20:12.000Z</time>
      </trkpt>
      <trkpt lat="43.94521" lon="2.37814">
        <ele>203</ele>
        <time>2021-10-21T07:20:15.000Z</time>
      </trkpt>
      <trkpt lat="43.94531" lon="2.37814">
        <ele>202.3</ele>
        <time>2021-10-21T07:20:19.000Z</time>
      </trkpt>
      <trkpt lat="43.94539" lon="2.37818">
        <ele>200.3</ele>
        <time>2021-10-21T07:20:26.000Z</time>
      </trkpt>
      <trkpt lat="43.94548" lon="2.37821">
        <ele>202.4</ele>
        <time>2021-10-21T07:20:34.000Z</time>
      </trkpt>
      <trkpt lat="43.94558" lon="2.37827">
        <ele>202.6</ele>
        <time>2021-10-21T07:20:43.000Z</time>
      </trkpt>
      <trkpt lat="43.94567" lon="2.3783">
        <ele>204.1</ele>
        <time>2021-10-21T07:20:51.000Z</time>
      </trkpt>
      <trkpt lat="43.94577" lon="2.37834">
        <ele>206.2</ele>
        <time>2021-10-21T07:21:02.000Z</time>
      </trkpt>
      <trkpt lat="43.94587" lon="2.37834">
        <ele>206.8</ele>
        <time>2021-10-21T07:21:09.000Z</time>
      </trkpt>
      <trkpt lat="43.94595" lon="2.37841">
        <ele>204.3</ele>
        <time>2021-10-21T07:21:15.000Z</time>
      </trkpt>
      <trkpt lat="43.94604" lon="2.37843">
        <ele>204.3</ele>
        <time>2021-10-21T07:21:24.000Z</time>
      </trkpt>
      <trkpt lat="43.94607" lon="2.37841">
        <ele>203.1</ele>
        <time>2021-10-21T07:21:32.000Z</time>
      </trkpt>
      <trkpt lat="43.94607" lon="2.37841">
        <ele>202.7</ele>
        <time>2021-10-21T07:21:33.000Z</time>
      </trkpt>
      <trkpt lat="43.94607" lon="2.37842">
        <ele>202.2</ele>
        <time>2021-10-21T07:21:36.000Z</time>
      </trkpt>
      <trkpt lat="43.94607" lon="2.37842">
        <ele>202.1</ele>
        <time>2021-10-21T07:21:37.000Z</time>
      </trkpt>
      <trkpt lat="43.94616" lon="2.37836">
        <ele>200.2</ele>
        <time>2021-10-21T07:21:51.000Z</time>
      </trkpt>
      <trkpt lat="43.94623" lon="2.37844">
        <ele>196.4</ele>
        <time>2021-10-21T07:22:13.000Z</time>
      </trkpt>
      <trkpt lat="43.94627" lon="2.37847">
        <ele>196.7</ele>
        <time>2021-10-21T07:22:19.000Z</time>
      </trkpt>
      <trkpt lat="43.94627" lon="2.37847">
        <ele>196.5</ele>
        <time>2021-10-21T07:22:20.000Z</time>
      </trkpt>
      <trkpt lat="43.94635" lon="2.37854">
        <ele>195.5</ele>
        <time>2021-10-21T07:22:34.000Z</time>
      </trkpt>
      <trkpt lat="43.94644" lon="2.37859">
        <ele>195.5</ele>
        <time>2021-10-21T07:22:44.000Z</time>
      </trkpt>
      <trkpt lat="43.94653" lon="2.37861">
        <ele>195.4</ele>
        <time>2021-10-21T07:22:53.000Z</time>
      </trkpt>
      <trkpt lat="43.94661" lon="2.37869">
        <ele>195.6</ele>
        <time>2021-10-21T07:23:08.000Z</time>
      </trkpt>
      <trkpt lat="43.94669" lon="2.37874">
        <ele>195.6</ele>
        <time>2021-10-21T07:23:30.000Z</time>
      </trkpt>
      <trkpt lat="43.94678" lon="2.37874">
        <ele>195.5</ele>
        <time>2021-10-21T07:23:43.000Z</time>
      </trkpt>
      <trkpt lat="43.94684" lon="2.37873">
        <ele>195.5</ele>
        <time>2021-10-21T07:23:55.000Z</time>
      </trkpt>
      <trkpt lat="43.94684" lon="2.37872">
        <ele>195.6</ele>
        <time>2021-10-21T07:23:56.000Z</time>
      </trkpt>
      <trkpt lat="43.94685" lon="2.37872">
        <ele>196</ele>
        <time>2021-10-21T07:23:59.000Z</time>
      </trkpt>
      <trkpt lat="43.94685" lon="2.37872">
        <ele>196</ele>
        <time>2021-10-21T07:24:00.000Z</time>
      </trkpt>
      <trkpt lat="43.94683" lon="2.37883">
        <ele>194.6</ele>
        <time>2021-10-21T07:24:12.000Z</time>
      </trkpt>
      <trkpt lat="43.94683" lon="2.37884">
        <ele>194.8</ele>
        <time>2021-10-21T07:24:14.000Z</time>
      </trkpt>
      <trkpt lat="43.94678" lon="2.37897">
        <ele>196.2</ele>
        <time>2021-10-21T07:24:30.000Z</time>
      </trkpt>
      <trkpt lat="43.94688" lon="2.37893">
        <ele>195.4</ele>
        <time>2021-10-21T07:24:52.000Z</time>
      </trkpt>
      <trkpt lat="43.94692" lon="2.37896">
        <ele>197.8</ele>
        <time>2021-10-21T07:25:00.000Z</time>
      </trkpt>
      <trkpt lat="43.94692" lon="2.37897">
        <ele>197.9</ele>
        <time>2021-10-21T07:25:01.000Z</time>
      </trkpt>
      <trkpt lat="43.94697" lon="2.37907">
        <ele>197.8</ele>
        <time>2021-10-21T07:25:16.000Z</time>
      </trkpt>
      <trkpt lat="43.94706" lon="2.3791">
        <ele>198.1</ele>
        <time>2021-10-21T07:25:24.000Z</time>
      </trkpt>
      <trkpt lat="43.94712" lon="2.37911">
        <ele>199.4</ele>
        <time>2021-10-21T07:25:36.000Z</time>
      </trkpt>
      <trkpt lat="43.94713" lon="2.37911">
        <ele>199.5</ele>
        <time>2021-10-21T07:25:37.000Z</time>
      </trkpt>
      <trkpt lat="43.94721" lon="2.37915">
        <ele>199.9</ele>
        <time>2021-10-21T07:25:46.000Z</time>
      </trkpt>
      <trkpt lat="43.94731" lon="2.37916">
        <ele>200.6</ele>
        <time>2021-10-21T07:26:05.000Z</time>
      </trkpt>
      <trkpt lat="43.9474" lon="2.37916">
        <ele>202.5</ele>
        <time>2021-10-21T07:26:12.000Z</time>
      </trkpt>
      <trkpt lat="43.94749" lon="2.37918">
        <ele>204.3</ele>
        <time>2021-10-21T07:26:19.000Z</time>
      </trkpt>
      <trkpt lat="43.94758" lon="2.37919">
        <ele>204.6</ele>
        <time>2021-10-21T07:26:30.000Z</time>
      </trkpt>
      <trkpt lat="43.94767" lon="2.37917">
        <ele>205.2</ele>
        <time>2021-10-21T07:26:38.000Z</time>
      </trkpt>
      <trkpt lat="43.94776" lon="2.37922">
        <ele>206.2</ele>
        <time>2021-10-21T07:26:45.000Z</time>
      </trkpt>
      <trkpt lat="43.94785" lon="2.37922">
        <ele>206.9</ele>
        <time>2021-10-21T07:26:54.000Z</time>
      </trkpt>
      <trkpt lat="43.94793" lon="2.3793">
        <ele>207.8</ele>
        <time>2021-10-21T07:27:08.000Z</time>
      </trkpt>
      <trkpt lat="43.94799" lon="2.37939">
        <ele>208.3</ele>
        <time>2021-10-21T07:27:27.000Z</time>
      </trkpt>
      <trkpt lat="43.94807" lon="2.37943">
        <ele>210.2</ele>
        <time>2021-10-21T07:27:39.000Z</time>
      </trkpt>
      <trkpt lat="43.94815" lon="2.37952">
        <ele>210.5</ele>
        <time>2021-10-21T07:27:56.000Z</time>
      </trkpt>
      <trkpt lat="43.94818" lon="2.3795">
        <ele>210.4</ele>
        <time>2021-10-21T07:27:59.000Z</time>
      </trkpt>
      <trkpt lat="43.94818" lon="2.3795">
        <ele>210.3</ele>
        <time>2021-10-21T07:28:00.000Z</time>
      </trkpt>
      <trkpt lat="43.94821" lon="2.37949">
        <ele>210.4</ele>
        <time>2021-10-21T07:28:07.000Z</time>
      </trkpt>
      <trkpt lat="43.94821" lon="2.37949">
        <ele>210.5</ele>
        <time>2021-10-21T07:28:08.000Z</time>
      </trkpt>
      <trkpt lat="43.94812" lon="2.3795">
        <ele>213.3</ele>
        <time>2021-10-21T07:28:31.000Z</time>
      </trkpt>
      <trkpt lat="43.94803" lon="2.37951">
        <ele>215.4</ele>
        <time>2021-10-21T07:28:43.000Z</time>
      </trkpt>
      <trkpt lat="43.94793" lon="2.3795">
        <ele>215</ele>
        <time>2021-10-21T07:28:58.000Z</time>
      </trkpt>
      <trkpt lat="43.94783" lon="2.37951">
        <ele>216</ele>
        <time>2021-10-21T07:29:10.000Z</time>
      </trkpt>
      <trkpt lat="43.94776" lon="2.37959">
        <ele>217.5</ele>
        <time>2021-10-21T07:29:21.000Z</time>
      </trkpt>
      <trkpt lat="43.94768" lon="2.37964">
        <ele>219.7</ele>
        <time>2021-10-21T07:29:41.000Z</time>
      </trkpt>
      <trkpt lat="43.94759" lon="2.37962">
        <ele>223.2</ele>
        <time>2021-10-21T07:29:56.000Z</time>
      </trkpt>
      <trkpt lat="43.9475" lon="2.37967">
        <ele>224.6</ele>
        <time>2021-10-21T07:30:12.000Z</time>
      </trkpt>
      <trkpt lat="43.94742" lon="2.37975">
        <ele>225.4</ele>
        <time>2021-10-21T07:30:24.000Z</time>
      </trkpt>
      <trkpt lat="43.94737" lon="2.37964">
        <ele>226</ele>
        <time>2021-10-21T07:30:45.000Z</time>
      </trkpt>
      <trkpt lat="43.94729" lon="2.37958">
        <ele>226.4</ele>
        <time>2021-10-21T07:30:59.000Z</time>
      </trkpt>
      <trkpt lat="43.94727" lon="2.37956">
        <ele>227.7</ele>
        <time>2021-10-21T07:31:09.000Z</time>
      </trkpt>
      <trkpt lat="43.94727" lon="2.37956">
        <ele>227.8</ele>
        <time>2021-10-21T07:31:10.000Z</time>
      </trkpt>
      <trkpt lat="43.94726" lon="2.37956">
        <ele>228</ele>
        <time>2021-10-21T07:31:14.000Z</time>
      </trkpt>
      <trkpt lat="43.94726" lon="2.37956">
        <ele>227.9</ele>
        <time>2021-10-21T07:31:23.000Z</time>
      </trkpt>
      <trkpt lat="43.94729" lon="2.37968">
        <ele>229</ele>
        <time>2021-10-21T07:31:39.000Z</time>
      </trkpt>
      <trkpt lat="43.94728" lon="2.3797">
        <ele>228.9</ele>
        <time>2021-10-21T07:31:42.000Z</time>
      </trkpt>
      <trkpt lat="43.94727" lon="2.3797">
        <ele>229</ele>
        <time>2021-10-21T07:31:43.000Z</time>
      </trkpt>
      <trkpt lat="43.94725" lon="2.37968">
        <ele>229.5</ele>
        <time>2021-10-21T07:31:49.000Z</time>
      </trkpt>
      <trkpt lat="43.94725" lon="2.37969">
        <ele>229.5</ele>
        <time>2021-10-21T07:31:50.000Z</time>
      </trkpt>
      <trkpt lat="43.94725" lon="2.37968">
        <ele>229.5</ele>
        <time>2021-10-21T07:31:53.000Z</time>
      </trkpt>
      <trkpt lat="43.94725" lon="2.37968">
        <ele>229.5</ele>
        <time>2021-10-21T07:31:54.000Z</time>
      </trkpt>
      <trkpt lat="43.94722" lon="2.37972">
        <ele>231.8</ele>
        <time>2021-10-21T07:32:20.000Z</time>
      </trkpt>
      <trkpt lat="43.94723" lon="2.37972">
        <ele>231.8</ele>
        <time>2021-10-21T07:32:21.000Z</time>
      </trkpt>
      <trkpt lat="43.94729" lon="2.37981">
        <ele>232.6</ele>
        <time>2021-10-21T07:32:32.000Z</time>
      </trkpt>
      <trkpt lat="43.94728" lon="2.3798">
        <ele>234.9</ele>
        <time>2021-10-21T07:32:44.000Z</time>
      </trkpt>
      <trkpt lat="43.94728" lon="2.3798">
        <ele>235</ele>
        <time>2021-10-21T07:32:45.000Z</time>
      </trkpt>
      <trkpt lat="43.94728" lon="2.3798">
        <ele>235.1</ele>
        <time>2021-10-21T07:32:46.000Z</time>
      </trkpt>
      <trkpt lat="43.94728" lon="2.3798">
        <ele>235.2</ele>
        <time>2021-10-21T07:32:47.000Z</time>
      </trkpt>
      <trkpt lat="43.94727" lon="2.3798">
        <ele>235.3</ele>
        <time>2021-10-21T07:32:49.000Z</time>
      </trkpt>
      <trkpt lat="43.94728" lon="2.3798">
        <ele>235.4</ele>
        <time>2021-10-21T07:32:51.000Z</time>
      </trkpt>
      <trkpt lat="43.94728" lon="2.37979">
        <ele>235.9</ele>
        <time>2021-10-21T07:32:56.000Z</time>
      </trkpt>
      <trkpt lat="43.94728" lon="2.37979">
        <ele>236.2</ele>
        <time>2021-10-21T07:32:58.000Z</time>
      </trkpt>
      <trkpt lat="43.94728" lon="2.37979">
        <ele>236.4</ele>
        <time>2021-10-21T07:33:01.000Z</time>
      </trkpt>
      <trkpt lat="43.94727" lon="2.37979">
        <ele>236.4</ele>
        <time>2021-10-21T07:33:06.000Z</time>
      </trkpt>
      <trkpt lat="43.94727" lon="2.37979">
        <ele>236.4</ele>
        <time>2021-10-21T07:33:07.000Z</time>
      </trkpt>
      <trkpt lat="43.94728" lon="2.37979">
        <ele>236.7</ele>
        <time>2021-10-21T07:33:12.000Z</time>
      </trkpt>
      <trkpt lat="43.94728" lon="2.37978">
        <ele>237.5</ele>
        <time>2021-10-21T07:33:16.000Z</time>
      </trkpt>
      <trkpt lat="43.94728" lon="2.37978">
        <ele>237.6</ele>
        <time>2021-10-21T07:33:17.000Z</time>
      </trkpt>
      <trkpt lat="43.94728" lon="2.37978">
        <ele>237.6</ele>
        <time>2021-10-21T07:33:18.000Z</time>
      </trkpt>
      <trkpt lat="43.94728" lon="2.37978">
        <ele>237.7</ele>
        <time>2021-10-21T07:33:25.000Z</time>
      </trkpt>
      <trkpt lat="43.94727" lon="2.37976">
        <ele>238.2</ele>
        <time>2021-10-21T07:33:37.000Z</time>
      </trkpt>
      <trkpt lat="43.94726" lon="2.37975">
        <ele>238.3</ele>
        <time>2021-10-21T07:33:39.000Z</time>
      </trkpt>
      <trkpt lat="43.94721" lon="2.37973">
        <ele>239.7</ele>
        <time>2021-10-21T07:33:53.000Z</time>
      </trkpt>
      <trkpt lat="43.94721" lon="2.37973">
        <ele>239.8</ele>
        <time>2021-10-21T07:33:54.000Z</time>
      </trkpt>
      <trkpt lat="43.9472" lon="2.37973">
        <ele>240.1</ele>
        <time>2021-10-21T07:33:58.000Z</time>
      </trkpt>
      <trkpt lat="43.9472" lon="2.37972">
        <ele>240.2</ele>
        <time>2021-10-21T07:33:59.000Z</time>
      </trkpt>
      <trkpt lat="43.9472" lon="2.37972">
        <ele>240.3</ele>
        <time>2021-10-21T07:34:00.000Z</time>
      </trkpt>
      <trkpt lat="43.9472" lon="2.37972">
        <ele>240.3</ele>
        <time>2021-10-21T07:34:01.000Z</time>
      </trkpt>
      <trkpt lat="43.9472" lon="2.37972">
        <ele>240.4</ele>
        <time>2021-10-21T07:34:02.000Z</time>
      </trkpt>
      <trkpt lat="43.9472" lon="2.37973">
        <ele>240.3</ele>
        <time>2021-10-21T07:34:03.000Z</time>
      </trkpt>
      <trkpt lat="43.94716" lon="2.37968">
        <ele>241.7</ele>
        <time>2021-10-21T07:34:17.000Z</time>
      </trkpt>
      <trkpt lat="43.94715" lon="2.37968">
        <ele>241.8</ele>
        <time>2021-10-21T07:34:18.000Z</time>
      </trkpt>
      <trkpt lat="43.94715" lon="2.37968">
        <ele>242</ele>
        <time>2021-10-21T07:34:21.000Z</time>
      </trkpt>
      <trkpt lat="43.94715" lon="2.37968">
        <ele>242.1</ele>
        <time>2021-10-21T07:34:24.000Z</time>
      </trkpt>
      <trkpt lat="43.94715" lon="2.37968">
        <ele>242.1</ele>
        <time>2021-10-21T07:34:25.000Z</time>
      </trkpt>
      <trkpt lat="43.94715" lon="2.37968">
        <ele>242.1</ele>
        <time>2021-10-21T07:34:42.000Z</time>
      </trkpt>
      <trkpt lat="43.94716" lon="2.3797">
        <ele>241.7</ele>
        <time>2021-10-21T07:34:46.000Z</time>
      </trkpt>
      <trkpt lat="43.94716" lon="2.3797">
        <ele>241.7</ele>
        <time>2021-10-21T07:34:47.000Z</time>
      </trkpt>
      <trkpt lat="43.94716" lon="2.3797">
        <ele>241.7</ele>
        <time>2021-10-21T07:34:48.000Z</time>
      </trkpt>
      <trkpt lat="43.94716" lon="2.3797">
        <ele>241.8</ele>
        <time>2021-10-21T07:34:52.000Z</time>
      </trkpt>
      <trkpt lat="43.94717" lon="2.3797">
        <ele>242.6</ele>
        <time>2021-10-21T07:34:54.000Z</time>
      </trkpt>
      <trkpt lat="43.94716" lon="2.3797">
        <ele>242.7</ele>
        <time>2021-10-21T07:34:56.000Z</time>
      </trkpt>
      <trkpt lat="43.94714" lon="2.37971">
        <ele>242.6</ele>
        <time>2021-10-21T07:35:05.000Z</time>
      </trkpt>
      <trkpt lat="43.94714" lon="2.37971">
        <ele>242.7</ele>
        <time>2021-10-21T07:35:06.000Z</time>
      </trkpt>
      <trkpt lat="43.94714" lon="2.37971">
        <ele>242.7</ele>
        <time>2021-10-21T07:35:07.000Z</time>
      </trkpt>
      <trkpt lat="43.94714" lon="2.37971">
        <ele>242.7</ele>
        <time>2021-10-21T07:35:10.000Z</time>
      </trkpt>
      <trkpt lat="43.94714" lon="2.37971">
        <ele>242.7</ele>
        <time>2021-10-21T07:35:11.000Z</time>
      </trkpt>
      <trkpt lat="43.94713" lon="2.37971">
        <ele>242.9</ele>
        <time>2021-10-21T07:35:25.000Z</time>
      </trkpt>
      <trkpt lat="43.94714" lon="2.37971">
        <ele>242.9</ele>
        <time>2021-10-21T07:35:27.000Z</time>
      </trkpt>
      <trkpt lat="43.94713" lon="2.37971">
        <ele>242.9</ele>
        <time>2021-10-21T07:35:28.000Z</time>
      </trkpt>
      <trkpt lat="43.94714" lon="2.37967">
        <ele>244</ele>
        <time>2021-10-21T07:35:37.000Z</time>
      </trkpt>
      <trkpt lat="43.94714" lon="2.37967">
        <ele>244.1</ele>
        <time>2021-10-21T07:35:40.000Z</time>
      </trkpt>
      <trkpt lat="43.94714" lon="2.37967">
        <ele>244.1</ele>
        <time>2021-10-21T07:35:41.000Z</time>
      </trkpt>
      <trkpt lat="43.94714" lon="2.37968">
        <ele>244.1</ele>
        <time>2021-10-21T07:35:42.000Z</time>
      </trkpt>
      <trkpt lat="43.94715" lon="2.37974">
        <ele>243.5</ele>
        <time>2021-10-21T07:35:54.000Z</time>
      </trkpt>
      <trkpt lat="43.94715" lon="2.37974">
        <ele>243.5</ele>
        <time>2021-10-21T07:35:55.000Z</time>
      </trkpt>
      <trkpt lat="43.94714" lon="2.37976">
        <ele>243.8</ele>
        <time>2021-10-21T07:36:02.000Z</time>
      </trkpt>
      <trkpt lat="43.94714" lon="2.37976">
        <ele>243.9</ele>
        <time>2021-10-21T07:36:03.000Z</time>
      </trkpt>
      <trkpt lat="43.94714" lon="2.37976">
        <ele>243.9</ele>
        <time>2021-10-21T07:36:04.000Z</time>
      </trkpt>
      <trkpt lat="43.94714" lon="2.37976">
        <ele>244</ele>
        <time>2021-10-21T07:36:05.000Z</time>
      </trkpt>
      <trkpt lat="43.94714" lon="2.37976">
        <ele>244</ele>
        <time>2021-10-21T07:36:08.000Z</time>
      </trkpt>
      <trkpt lat="43.94714" lon="2.37975">
        <ele>244.1</ele>
        <time>2021-10-21T07:36:10.000Z</time>
      </trkpt>
      <trkpt lat="43.94715" lon="2.37975">
        <ele>244.8</ele>
        <time>2021-10-21T07:36:13.000Z</time>
      </trkpt>
      <trkpt lat="43.94715" lon="2.37975">
        <ele>244.8</ele>
        <time>2021-10-21T07:36:15.000Z</time>
      </trkpt>
      <trkpt lat="43.94715" lon="2.37975">
        <ele>244.9</ele>
        <time>2021-10-21T07:36:17.000Z</time>
      </trkpt>
      <trkpt lat="43.94715" lon="2.37975">
        <ele>244.8</ele>
        <time>2021-10-21T07:36:18.000Z</time>
      </trkpt>
      <trkpt lat="43.94715" lon="2.37975">
        <ele>244.8</ele>
        <time>2021-10-21T07:36:19.000Z</time>
      </trkpt>
      <trkpt lat="43.94715" lon="2.37975">
        <ele>244.9</ele>
        <time>2021-10-21T07:36:21.000Z</time>
      </trkpt>
      <trkpt lat="43.94716" lon="2.37974">
        <ele>245.2</ele>
        <time>2021-10-21T07:36:28.000Z</time>
      </trkpt>
      <trkpt lat="43.94717" lon="2.37974">
        <ele>245.2</ele>
        <time>2021-10-21T07:36:30.000Z</time>
      </trkpt>
      <trkpt lat="43.94717" lon="2.37974">
        <ele>245.5</ele>
        <time>2021-10-21T07:36:36.000Z</time>
      </trkpt>
      <trkpt lat="43.94717" lon="2.37973">
        <ele>245.8</ele>
        <time>2021-10-21T07:36:41.000Z</time>
      </trkpt>
      <trkpt lat="43.94716" lon="2.37972">
        <ele>246.5</ele>
        <time>2021-10-21T07:36:48.000Z</time>
      </trkpt>
      <trkpt lat="43.94716" lon="2.37972">
        <ele>246.5</ele>
        <time>2021-10-21T07:36:54.000Z</time>
      </trkpt>
      <trkpt lat="43.94716" lon="2.37972">
        <ele>246.6</ele>
        <time>2021-10-21T07:36:55.000Z</time>
      </trkpt>
      <trkpt lat="43.94716" lon="2.37972">
        <ele>246.7</ele>
        <time>2021-10-21T07:36:56.000Z</time>
      </trkpt>
      <trkpt lat="43.94717" lon="2.37977">
        <ele>245.7</ele>
        <time>2021-10-21T07:37:10.000Z</time>
      </trkpt>
      <trkpt lat="43.94717" lon="2.37977">
        <ele>245.7</ele>
        <time>2021-10-21T07:37:12.000Z</time>
      </trkpt>
      <trkpt lat="43.94718" lon="2.37978">
        <ele>245.9</ele>
        <time>2021-10-21T07:37:17.000Z</time>
      </trkpt>
      <trkpt lat="43.94718" lon="2.37978">
        <ele>245.9</ele>
        <time>2021-10-21T07:37:18.000Z</time>
      </trkpt>
      <trkpt lat="43.94721" lon="2.37977">
        <ele>246</ele>
        <time>2021-10-21T07:37:26.000Z</time>
      </trkpt>
      <trkpt lat="43.94721" lon="2.37977">
        <ele>245.9</ele>
        <time>2021-10-21T07:37:30.000Z</time>
      </trkpt>
      <trkpt lat="43.94721" lon="2.37977">
        <ele>245.9</ele>
        <time>2021-10-21T07:37:31.000Z</time>
      </trkpt>
      <trkpt lat="43.94721" lon="2.37978">
        <ele>245.9</ele>
        <time>2021-10-21T07:37:32.000Z</time>
      </trkpt>
      <trkpt lat="43.94723" lon="2.37978">
        <ele>245.8</ele>
        <time>2021-10-21T07:37:42.000Z</time>
      </trkpt>
      <trkpt lat="43.94723" lon="2.37978">
        <ele>245.6</ele>
        <time>2021-10-21T07:37:44.000Z</time>
      </trkpt>
      <trkpt lat="43.94722" lon="2.37976">
        <ele>245.6</ele>
        <time>2021-10-21T07:37:50.000Z</time>
      </trkpt>
      <trkpt lat="43.94722" lon="2.37975">
        <ele>245.6</ele>
        <time>2021-10-21T07:37:51.000Z</time>
      </trkpt>
      <trkpt lat="43.94721" lon="2.37974">
        <ele>245.5</ele>
        <time>2021-10-21T07:37:54.000Z</time>
      </trkpt>
      <trkpt lat="43.94721" lon="2.37974">
        <ele>245.5</ele>
        <time>2021-10-21T07:37:55.000Z</time>
      </trkpt>
      <trkpt lat="43.9472" lon="2.37974">
        <ele>245.3</ele>
        <time>2021-10-21T07:37:58.000Z</time>
      </trkpt>
      <trkpt lat="43.9472" lon="2.37974">
        <ele>245.3</ele>
        <time>2021-10-21T07:37:59.000Z</time>
      </trkpt>
      <trkpt lat="43.9472" lon="2.37974">
        <ele>245.3</ele>
        <time>2021-10-21T07:38:01.000Z</time>
      </trkpt>
      <trkpt lat="43.9472" lon="2.37973">
        <ele>245.3</ele>
        <time>2021-10-21T07:38:04.000Z</time>
      </trkpt>
      <trkpt lat="43.94719" lon="2.37974">
        <ele>245.1</ele>
        <time>2021-10-21T07:38:08.000Z</time>
      </trkpt>
      <trkpt lat="43.94719" lon="2.37974">
        <ele>244.9</ele>
        <time>2021-10-21T07:38:09.000Z</time>
      </trkpt>
      <trkpt lat="43.94724" lon="2.37975">
        <ele>242</ele>
        <time>2021-10-21T07:38:31.000Z</time>
      </trkpt>
      <trkpt lat="43.94723" lon="2.37975">
        <ele>241.9</ele>
        <time>2021-10-21T07:38:32.000Z</time>
      </trkpt>
      <trkpt lat="43.94721" lon="2.37976">
        <ele>241.9</ele>
        <time>2021-10-21T07:38:42.000Z</time>
      </trkpt>
      <trkpt lat="43.94721" lon="2.37975">
        <ele>242</ele>
        <time>2021-10-21T07:38:43.000Z</time>
      </trkpt>
      <trkpt lat="43.94721" lon="2.37973">
        <ele>242.3</ele>
        <time>2021-10-21T07:38:58.000Z</time>
      </trkpt>
      <trkpt lat="43.94721" lon="2.37973">
        <ele>242.4</ele>
        <time>2021-10-21T07:39:01.000Z</time>
      </trkpt>
      <trkpt lat="43.94718" lon="2.37974">
        <ele>242.8</ele>
        <time>2021-10-21T07:39:14.000Z</time>
      </trkpt>
      <trkpt lat="43.94718" lon="2.37974">
        <ele>242.8</ele>
        <time>2021-10-21T07:39:15.000Z</time>
      </trkpt>
      <trkpt lat="43.94719" lon="2.37972">
        <ele>243.1</ele>
        <time>2021-10-21T07:39:27.000Z</time>
      </trkpt>
      <trkpt lat="43.94719" lon="2.37973">
        <ele>243</ele>
        <time>2021-10-21T07:39:28.000Z</time>
      </trkpt>
      <trkpt lat="43.94719" lon="2.37972">
        <ele>242.7</ele>
        <time>2021-10-21T07:39:34.000Z</time>
      </trkpt>
      <trkpt lat="43.94719" lon="2.37971">
        <ele>242.6</ele>
        <time>2021-10-21T07:39:35.000Z</time>
      </trkpt>
      <trkpt lat="43.94719" lon="2.37972">
        <ele>242.8</ele>
        <time>2021-10-21T07:39:37.000Z</time>
      </trkpt>
      <trkpt lat="43.94719" lon="2.37973">
        <ele>243.1</ele>
        <time>2021-10-21T07:39:38.000Z</time>
      </trkpt>
      <trkpt lat="43.94719" lon="2.37972">
        <ele>243.2</ele>
        <time>2021-10-21T07:39:40.000Z</time>
      </trkpt>
      <trkpt lat="43.9472" lon="2.37973">
        <ele>243.2</ele>
        <time>2021-10-21T07:39:42.000Z</time>
      </trkpt>
      <trkpt lat="43.94727" lon="2.37982">
        <ele>243.2</ele>
        <time>2021-10-21T07:40:02.000Z</time>
      </trkpt>
      <trkpt lat="43.94737" lon="2.37984">
        <ele>242.2</ele>
        <time>2021-10-21T07:40:17.000Z</time>
      </trkpt>
      <trkpt lat="43.94735" lon="2.3798">
        <ele>241</ele>
        <time>2021-10-21T07:40:29.000Z</time>
      </trkpt>
      <trkpt lat="43.94734" lon="2.3798">
        <ele>240.8</ele>
        <time>2021-10-21T07:40:30.000Z</time>
      </trkpt>
      <trkpt lat="43.94734" lon="2.37979">
        <ele>240.5</ele>
        <time>2021-10-21T07:40:31.000Z</time>
      </trkpt>
      <trkpt lat="43.94734" lon="2.37979">
        <ele>240.1</ele>
        <time>2021-10-21T07:40:33.000Z</time>
      </trkpt>
      <trkpt lat="43.94734" lon="2.37979">
        <ele>240.1</ele>
        <time>2021-10-21T07:40:34.000Z</time>
      </trkpt>
      <trkpt lat="43.94734" lon="2.37979">
        <ele>239.8</ele>
        <time>2021-10-21T07:40:36.000Z</time>
      </trkpt>
      <trkpt lat="43.94734" lon="2.37979">
        <ele>239.6</ele>
        <time>2021-10-21T07:40:37.000Z</time>
      </trkpt>
      <trkpt lat="43.94734" lon="2.37979">
        <ele>239.2</ele>
        <time>2021-10-21T07:40:39.000Z</time>
      </trkpt>
      <trkpt lat="43.94735" lon="2.37979">
        <ele>238.9</ele>
        <time>2021-10-21T07:40:41.000Z</time>
      </trkpt>
      <trkpt lat="43.94734" lon="2.37979">
        <ele>238.8</ele>
        <time>2021-10-21T07:40:42.000Z</time>
      </trkpt>
      <trkpt lat="43.94734" lon="2.37979">
        <ele>238.8</ele>
        <time>2021-10-21T07:40:43.000Z</time>
      </trkpt>
      <trkpt lat="43.94734" lon="2.37979">
        <ele>239</ele>
        <time>2021-10-21T07:40:48.000Z</time>
      </trkpt>
      <trkpt lat="43.94734" lon="2.37978">
        <ele>239.2</ele>
        <time>2021-10-21T07:40:50.000Z</time>
      </trkpt>
      <trkpt lat="43.94734" lon="2.37978">
        <ele>239.1</ele>
        <time>2021-10-21T07:40:51.000Z</time>
      </trkpt>
      <trkpt lat="43.94734" lon="2.37977">
        <ele>238.9</ele>
        <time>2021-10-21T07:40:58.000Z</time>
      </trkpt>
      <trkpt lat="43.94734" lon="2.37977">
        <ele>239</ele>
        <time>2021-10-21T07:40:59.000Z</time>
      </trkpt>
      <trkpt lat="43.94727" lon="2.37967">
        <ele>239</ele>
        <time>2021-10-21T07:41:14.000Z</time>
      </trkpt>
      <trkpt lat="43.94728" lon="2.37968">
        <ele>238.7</ele>
        <time>2021-10-21T07:41:22.000Z</time>
      </trkpt>
      <trkpt lat="43.94728" lon="2.37967">
        <ele>238.6</ele>
        <time>2021-10-21T07:41:23.000Z</time>
      </trkpt>
      <trkpt lat="43.94737" lon="2.37964">
        <ele>233.8</ele>
        <time>2021-10-21T07:42:09.000Z</time>
      </trkpt>
      <trkpt lat="43.9474" lon="2.37976">
        <ele>233.1</ele>
        <time>2021-10-21T07:42:20.000Z</time>
      </trkpt>
      <trkpt lat="43.94748" lon="2.37968">
        <ele>232.6</ele>
        <time>2021-10-21T07:42:33.000Z</time>
      </trkpt>
      <trkpt lat="43.94752" lon="2.37963">
        <ele>231.1</ele>
        <time>2021-10-21T07:42:46.000Z</time>
      </trkpt>
      <trkpt lat="43.94752" lon="2.37963">
        <ele>231.2</ele>
        <time>2021-10-21T07:42:47.000Z</time>
      </trkpt>
      <trkpt lat="43.94761" lon="2.3796">
        <ele>231.2</ele>
        <time>2021-10-21T07:43:00.000Z</time>
      </trkpt>
      <trkpt lat="43.94771" lon="2.37961">
        <ele>230</ele>
        <time>2021-10-21T07:43:25.000Z</time>
      </trkpt>
      <trkpt lat="43.94778" lon="2.37963">
        <ele>229.7</ele>
        <time>2021-10-21T07:43:37.000Z</time>
      </trkpt>
      <trkpt lat="43.94778" lon="2.37962">
        <ele>229.6</ele>
        <time>2021-10-21T07:43:38.000Z</time>
      </trkpt>
      <trkpt lat="43.94787" lon="2.37968">
        <ele>229.8</ele>
        <time>2021-10-21T07:43:53.000Z</time>
      </trkpt>
      <trkpt lat="43.94795" lon="2.37971">
        <ele>230.1</ele>
        <time>2021-10-21T07:44:06.000Z</time>
      </trkpt>
      <trkpt lat="43.94804" lon="2.37976">
        <ele>230.6</ele>
        <time>2021-10-21T07:44:21.000Z</time>
      </trkpt>
      <trkpt lat="43.94813" lon="2.37981">
        <ele>231.6</ele>
        <time>2021-10-21T07:44:33.000Z</time>
      </trkpt>
      <trkpt lat="43.94821" lon="2.37984">
        <ele>233.4</ele>
        <time>2021-10-21T07:44:47.000Z</time>
      </trkpt>
      <trkpt lat="43.94831" lon="2.37986">
        <ele>235.5</ele>
        <time>2021-10-21T07:45:00.000Z</time>
      </trkpt>
      <trkpt lat="43.94841" lon="2.37988">
        <ele>235.1</ele>
        <time>2021-10-21T07:45:13.000Z</time>
      </trkpt>
      <trkpt lat="43.9485" lon="2.37991">
        <ele>235.9</ele>
        <time>2021-10-21T07:45:27.000Z</time>
      </trkpt>
      <trkpt lat="43.94855" lon="2.37994">
        <ele>236</ele>
        <time>2021-10-21T07:45:34.000Z</time>
      </trkpt>
      <trkpt lat="43.94855" lon="2.37994">
        <ele>235.8</ele>
        <time>2021-10-21T07:45:35.000Z</time>
      </trkpt>
      <trkpt lat="43.94856" lon="2.37995">
        <ele>235.5</ele>
        <time>2021-10-21T07:45:39.000Z</time>
      </trkpt>
      <trkpt lat="43.94857" lon="2.37995">
        <ele>235.4</ele>
        <time>2021-10-21T07:45:40.000Z</time>
      </trkpt>
      <trkpt lat="43.94866" lon="2.37998">
        <ele>236.3</ele>
        <time>2021-10-21T07:45:58.000Z</time>
      </trkpt>
      <trkpt lat="43.94875" lon="2.37999">
        <ele>236.3</ele>
        <time>2021-10-21T07:46:07.000Z</time>
      </trkpt>
      <trkpt lat="43.94884" lon="2.37995">
        <ele>237.6</ele>
        <time>2021-10-21T07:46:17.000Z</time>
      </trkpt>
      <trkpt lat="43.94888" lon="2.3799">
        <ele>243.3</ele>
        <time>2021-10-21T07:46:28.000Z</time>
      </trkpt>
      <trkpt lat="43.94889" lon="2.37991">
        <ele>243.6</ele>
        <time>2021-10-21T07:46:29.000Z</time>
      </trkpt>
      <trkpt lat="43.94897" lon="2.37996">
        <ele>245.4</ele>
        <time>2021-10-21T07:46:47.000Z</time>
      </trkpt>
      <trkpt lat="43.94906" lon="2.37999">
        <ele>247.4</ele>
        <time>2021-10-21T07:46:59.000Z</time>
      </trkpt>
      <trkpt lat="43.94913" lon="2.38007">
        <ele>248.3</ele>
        <time>2021-10-21T07:47:18.000Z</time>
      </trkpt>
      <trkpt lat="43.94923" lon="2.38011">
        <ele>250.2</ele>
        <time>2021-10-21T07:47:30.000Z</time>
      </trkpt>
      <trkpt lat="43.94932" lon="2.38008">
        <ele>255.6</ele>
        <time>2021-10-21T07:47:49.000Z</time>
      </trkpt>
      <trkpt lat="43.94936" lon="2.38005">
        <ele>257.6</ele>
        <time>2021-10-21T07:47:57.000Z</time>
      </trkpt>
      <trkpt lat="43.94936" lon="2.38005">
        <ele>257.9</ele>
        <time>2021-10-21T07:47:59.000Z</time>
      </trkpt>
      <trkpt lat="43.94936" lon="2.38005">
        <ele>258</ele>
        <time>2021-10-21T07:48:00.000Z</time>
      </trkpt>
      <trkpt lat="43.94936" lon="2.38004">
        <ele>258.2</ele>
        <time>2021-10-21T07:48:02.000Z</time>
      </trkpt>
      <trkpt lat="43.94939" lon="2.38005">
        <ele>259.8</ele>
        <time>2021-10-21T07:48:12.000Z</time>
      </trkpt>
      <trkpt lat="43.94939" lon="2.38005">
        <ele>259.8</ele>
        <time>2021-10-21T07:48:14.000Z</time>
      </trkpt>
      <trkpt lat="43.94934" lon="2.38017">
        <ele>259.8</ele>
        <time>2021-10-21T07:48:28.000Z</time>
      </trkpt>
      <trkpt lat="43.94928" lon="2.38027">
        <ele>260.4</ele>
        <time>2021-10-21T07:48:48.000Z</time>
      </trkpt>
      <trkpt lat="43.94919" lon="2.38029">
        <ele>261.6</ele>
        <time>2021-10-21T07:49:02.000Z</time>
      </trkpt>
      <trkpt lat="43.94919" lon="2.3803">
        <ele>261.8</ele>
        <time>2021-10-21T07:49:06.000Z</time>
      </trkpt>
      <trkpt lat="43.94919" lon="2.3803">
        <ele>261.9</ele>
        <time>2021-10-21T07:49:08.000Z</time>
      </trkpt>
      <trkpt lat="43.94909" lon="2.38029">
        <ele>262.9</ele>
        <time>2021-10-21T07:49:23.000Z</time>
      </trkpt>
      <trkpt lat="43.94913" lon="2.3804">
        <ele>266.2</ele>
        <time>2021-10-21T07:49:41.000Z</time>
      </trkpt>
      <trkpt lat="43.94921" lon="2.38047">
        <ele>269.8</ele>
        <time>2021-10-21T07:49:59.000Z</time>
      </trkpt>
      <trkpt lat="43.94927" lon="2.3805">
        <ele>271.4</ele>
        <time>2021-10-21T07:50:09.000Z</time>
      </trkpt>
      <trkpt lat="43.94927" lon="2.3805">
        <ele>271.4</ele>
        <time>2021-10-21T07:50:10.000Z</time>
      </trkpt>
      <trkpt lat="43.94936" lon="2.38049">
        <ele>273.5</ele>
        <time>2021-10-21T07:50:25.000Z</time>
      </trkpt>
      <trkpt lat="43.94941" lon="2.38048">
        <ele>275.2</ele>
        <time>2021-10-21T07:50:34.000Z</time>
      </trkpt>
      <trkpt lat="43.94942" lon="2.38047">
        <ele>275.3</ele>
        <time>2021-10-21T07:50:36.000Z</time>
      </trkpt>
      <trkpt lat="43.94942" lon="2.38047">
        <ele>275.5</ele>
        <time>2021-10-21T07:50:39.000Z</time>
      </trkpt>
      <trkpt lat="43.94942" lon="2.38047">
        <ele>275.6</ele>
        <time>2021-10-21T07:50:40.000Z</time>
      </trkpt>
      <trkpt lat="43.9495" lon="2.38041">
        <ele>278.1</ele>
        <time>2021-10-21T07:50:56.000Z</time>
      </trkpt>
      <trkpt lat="43.94959" lon="2.38043">
        <ele>280.5</ele>
        <time>2021-10-21T07:51:11.000Z</time>
      </trkpt>
      <trkpt lat="43.94968" lon="2.38049">
        <ele>281.6</ele>
        <time>2021-10-21T07:51:25.000Z</time>
      </trkpt>
      <trkpt lat="43.94977" lon="2.38053">
        <ele>284</ele>
        <time>2021-10-21T07:51:40.000Z</time>
      </trkpt>
      <trkpt lat="43.94984" lon="2.38053">
        <ele>286.3</ele>
        <time>2021-10-21T07:51:50.000Z</time>
      </trkpt>
      <trkpt lat="43.94984" lon="2.38053">
        <ele>286.4</ele>
        <time>2021-10-21T07:51:51.000Z</time>
      </trkpt>
      <trkpt lat="43.94993" lon="2.38058">
        <ele>289.2</ele>
        <time>2021-10-21T07:52:02.000Z</time>
      </trkpt>
      <trkpt lat="43.94995" lon="2.38061">
        <ele>290.5</ele>
        <time>2021-10-21T07:52:08.000Z</time>
      </trkpt>
      <trkpt lat="43.94995" lon="2.38061">
        <ele>290.7</ele>
        <time>2021-10-21T07:52:09.000Z</time>
      </trkpt>
      <trkpt lat="43.94992" lon="2.38058">
        <ele>291.3</ele>
        <time>2021-10-21T07:52:20.000Z</time>
      </trkpt>
      <trkpt lat="43.94993" lon="2.38058">
        <ele>291.5</ele>
        <time>2021-10-21T07:52:22.000Z</time>
      </trkpt>
      <trkpt lat="43.94993" lon="2.38058">
        <ele>291.7</ele>
        <time>2021-10-21T07:52:23.000Z</time>
      </trkpt>
      <trkpt lat="43.94992" lon="2.38057">
        <ele>291.8</ele>
        <time>2021-10-21T07:52:25.000Z</time>
      </trkpt>
      <trkpt lat="43.94986" lon="2.38056">
        <ele>291.6</ele>
        <time>2021-10-21T07:52:42.000Z</time>
      </trkpt>
      <trkpt lat="43.94985" lon="2.38056">
        <ele>291.6</ele>
        <time>2021-10-21T07:52:43.000Z</time>
      </trkpt>
      <trkpt lat="43.94976" lon="2.38053">
        <ele>292.4</ele>
        <time>2021-10-21T07:52:53.000Z</time>
      </trkpt>
      <trkpt lat="43.94966" lon="2.38049">
        <ele>292.3</ele>
        <time>2021-10-21T07:53:04.000Z</time>
      </trkpt>
      <trkpt lat="43.94957" lon="2.38047">
        <ele>291.8</ele>
        <time>2021-10-21T07:53:14.000Z</time>
      </trkpt>
      <trkpt lat="43.94947" lon="2.38053">
        <ele>292.5</ele>
        <time>2021-10-21T07:53:23.000Z</time>
      </trkpt>
      <trkpt lat="43.94943" lon="2.38056">
        <ele>294.8</ele>
        <time>2021-10-21T07:53:30.000Z</time>
      </trkpt>
      <trkpt lat="43.94943" lon="2.38056">
        <ele>294.9</ele>
        <time>2021-10-21T07:53:31.000Z</time>
      </trkpt>
      <trkpt lat="43.94943" lon="2.38057">
        <ele>295</ele>
        <time>2021-10-21T07:53:33.000Z</time>
      </trkpt>
      <trkpt lat="43.94943" lon="2.38057">
        <ele>295</ele>
        <time>2021-10-21T07:53:34.000Z</time>
      </trkpt>
      <trkpt lat="43.94943" lon="2.38057">
        <ele>294.6</ele>
        <time>2021-10-21T07:53:37.000Z</time>
      </trkpt>
      <trkpt lat="43.94943" lon="2.38055">
        <ele>294.4</ele>
        <time>2021-10-21T07:53:38.000Z</time>
      </trkpt>
      <trkpt lat="43.94945" lon="2.3805">
        <ele>293.3</ele>
        <time>2021-10-21T07:53:43.000Z</time>
      </trkpt>
      <trkpt lat="43.94945" lon="2.3805">
        <ele>293.3</ele>
        <time>2021-10-21T07:53:48.000Z</time>
      </trkpt>
      <trkpt lat="43.94945" lon="2.3805">
        <ele>293.3</ele>
        <time>2021-10-21T07:53:49.000Z</time>
      </trkpt>
      <trkpt lat="43.94945" lon="2.3805">
        <ele>293.2</ele>
        <time>2021-10-21T07:53:51.000Z</time>
      </trkpt>
      <trkpt lat="43.94945" lon="2.3805">
        <ele>293.2</ele>
        <time>2021-10-21T07:53:52.000Z</time>
      </trkpt>
      <trkpt lat="43.94945" lon="2.3805">
        <ele>293.2</ele>
        <time>2021-10-21T07:54:03.000Z</time>
      </trkpt>
      <trkpt lat="43.94945" lon="2.3805">
        <ele>293.2</ele>
        <time>2021-10-21T07:54:04.000Z</time>
      </trkpt>
      <trkpt lat="43.94945" lon="2.3805">
        <ele>293.1</ele>
        <time>2021-10-21T07:54:06.000Z</time>
      </trkpt>
      <trkpt lat="43.94945" lon="2.3805">
        <ele>293.1</ele>
        <time>2021-10-21T07:54:07.000Z</time>
      </trkpt>
      <trkpt lat="43.94945" lon="2.38051">
        <ele>293</ele>
        <time>2021-10-21T07:54:22.000Z</time>
      </trkpt>
      <trkpt lat="43.94945" lon="2.38051">
        <ele>292.9</ele>
        <time>2021-10-21T07:54:23.000Z</time>
      </trkpt>
      <trkpt lat="43.94946" lon="2.38051">
        <ele>292.8</ele>
        <time>2021-10-21T07:54:26.000Z</time>
      </trkpt>
      <trkpt lat="43.94946" lon="2.3805">
        <ele>292.4</ele>
        <time>2021-10-21T07:54:32.000Z</time>
      </trkpt>
      <trkpt lat="43.94946" lon="2.3805">
        <ele>292.4</ele>
        <time>2021-10-21T07:54:33.000Z</time>
      </trkpt>
      <trkpt lat="43.94946" lon="2.3805">
        <ele>292.4</ele>
        <time>2021-10-21T07:54:34.000Z</time>
      </trkpt>
      <trkpt lat="43.94946" lon="2.38051">
        <ele>292.6</ele>
        <time>2021-10-21T07:54:35.000Z</time>
      </trkpt>
      <trkpt lat="43.94947" lon="2.38056">
        <ele>291.9</ele>
        <time>2021-10-21T07:54:50.000Z</time>
      </trkpt>
      <trkpt lat="43.94947" lon="2.38056">
        <ele>291.8</ele>
        <time>2021-10-21T07:54:54.000Z</time>
      </trkpt>
      <trkpt lat="43.94947" lon="2.38056">
        <ele>291.7</ele>
        <time>2021-10-21T07:54:56.000Z</time>
      </trkpt>
      <trkpt lat="43.94948" lon="2.38056">
        <ele>291.8</ele>
        <time>2021-10-21T07:55:00.000Z</time>
      </trkpt>
      <trkpt lat="43.94947" lon="2.38056">
        <ele>291.7</ele>
        <time>2021-10-21T07:55:02.000Z</time>
      </trkpt>
      <trkpt lat="43.94948" lon="2.38056">
        <ele>291.7</ele>
        <time>2021-10-21T07:55:08.000Z</time>
      </trkpt>
      <trkpt lat="43.94948" lon="2.38056">
        <ele>291.7</ele>
        <time>2021-10-21T07:55:09.000Z</time>
      </trkpt>
      <trkpt lat="43.94948" lon="2.38056">
        <ele>291.6</ele>
        <time>2021-10-21T07:55:10.000Z</time>
      </trkpt>
      <trkpt lat="43.94947" lon="2.38055">
        <ele>292.2</ele>
        <time>2021-10-21T07:55:14.000Z</time>
      </trkpt>
      <trkpt lat="43.94947" lon="2.38054">
        <ele>292.3</ele>
        <time>2021-10-21T07:55:16.000Z</time>
      </trkpt>
      <trkpt lat="43.94947" lon="2.38054">
        <ele>292.3</ele>
        <time>2021-10-21T07:55:17.000Z</time>
      </trkpt>
      <trkpt lat="43.94947" lon="2.38054">
        <ele>292.3</ele>
        <time>2021-10-21T07:55:27.000Z</time>
      </trkpt>
      <trkpt lat="43.94948" lon="2.38053">
        <ele>292.1</ele>
        <time>2021-10-21T07:55:30.000Z</time>
      </trkpt>
      <trkpt lat="43.94948" lon="2.38053">
        <ele>292.1</ele>
        <time>2021-10-21T07:55:32.000Z</time>
      </trkpt>
      <trkpt lat="43.94948" lon="2.38053">
        <ele>292.1</ele>
        <time>2021-10-21T07:55:33.000Z</time>
      </trkpt>
      <trkpt lat="43.94948" lon="2.38053">
        <ele>292</ele>
        <time>2021-10-21T07:55:35.000Z</time>
      </trkpt>
      <trkpt lat="43.94948" lon="2.38053">
        <ele>291.8</ele>
        <time>2021-10-21T07:55:36.000Z</time>
      </trkpt>
      <trkpt lat="43.94948" lon="2.38053">
        <ele>291.6</ele>
        <time>2021-10-21T07:55:37.000Z</time>
      </trkpt>
      <trkpt lat="43.94947" lon="2.38053">
        <ele>291.5</ele>
        <time>2021-10-21T07:55:42.000Z</time>
      </trkpt>
      <trkpt lat="43.94948" lon="2.38053">
        <ele>291.6</ele>
        <time>2021-10-21T07:55:43.000Z</time>
      </trkpt>
      <trkpt lat="43.94948" lon="2.38051">
        <ele>291.9</ele>
        <time>2021-10-21T07:55:50.000Z</time>
      </trkpt>
      <trkpt lat="43.94948" lon="2.38051">
        <ele>291.9</ele>
        <time>2021-10-21T07:55:51.000Z</time>
      </trkpt>
      <trkpt lat="43.94948" lon="2.38051">
        <ele>291.9</ele>
        <time>2021-10-21T07:55:52.000Z</time>
      </trkpt>
      <trkpt lat="43.94948" lon="2.3805">
        <ele>291.9</ele>
        <time>2021-10-21T07:55:53.000Z</time>
      </trkpt>
      <trkpt lat="43.94948" lon="2.3805">
        <ele>291.9</ele>
        <time>2021-10-21T07:55:54.000Z</time>
      </trkpt>
      <trkpt lat="43.94948" lon="2.38049">
        <ele>292.1</ele>
        <time>2021-10-21T07:56:01.000Z</time>
      </trkpt>
      <trkpt lat="43.94951" lon="2.38061">
        <ele>291.1</ele>
        <time>2021-10-21T07:56:11.000Z</time>
      </trkpt>
      <trkpt lat="43.94955" lon="2.38073">
        <ele>291.7</ele>
        <time>2021-10-21T07:56:29.000Z</time>
      </trkpt>
      <trkpt lat="43.94954" lon="2.38074">
        <ele>291.9</ele>
        <time>2021-10-21T07:56:32.000Z</time>
      </trkpt>
      <trkpt lat="43.94955" lon="2.38074">
        <ele>292</ele>
        <time>2021-10-21T07:56:34.000Z</time>
      </trkpt>
      <trkpt lat="43.94954" lon="2.38076">
        <ele>292.3</ele>
        <time>2021-10-21T07:56:41.000Z</time>
      </trkpt>
      <trkpt lat="43.94954" lon="2.38078">
        <ele>292.3</ele>
        <time>2021-10-21T07:56:42.000Z</time>
      </trkpt>
      <trkpt lat="43.9494" lon="2.38098">
        <ele>291.3</ele>
        <time>2021-10-21T07:57:11.000Z</time>
      </trkpt>
      <trkpt lat="43.94954" lon="2.38079">
        <ele>291.3</ele>
        <time>2021-10-21T08:00:03.000Z</time>
      </trkpt>
      <trkpt lat="43.94951" lon="2.38087">
        <ele>290.3</ele>
        <time>2021-10-21T08:00:04.000Z</time>
      </trkpt>
      <trkpt lat="43.94946" lon="2.38076">
        <ele>300.2</ele>
        <time>2021-10-21T08:00:16.000Z</time>
      </trkpt>
      <trkpt lat="43.94941" lon="2.38088">
        <ele>294.3</ele>
        <time>2021-10-21T08:00:28.000Z</time>
      </trkpt>
      <trkpt lat="43.94937" lon="2.38099">
        <ele>295.2</ele>
        <time>2021-10-21T08:00:41.000Z</time>
      </trkpt>
      <trkpt lat="43.94935" lon="2.38111">
        <ele>293.9</ele>
        <time>2021-10-21T08:01:02.000Z</time>
      </trkpt>
      <trkpt lat="43.94934" lon="2.38111">
        <ele>294</ele>
        <time>2021-10-21T08:01:09.000Z</time>
      </trkpt>
      <trkpt lat="43.94934" lon="2.38111">
        <ele>293.9</ele>
        <time>2021-10-21T08:01:10.000Z</time>
      </trkpt>
      <trkpt lat="43.94935" lon="2.38103">
        <ele>293.7</ele>
        <time>2021-10-21T08:01:20.000Z</time>
      </trkpt>
      <trkpt lat="43.94935" lon="2.38103">
        <ele>293.7</ele>
        <time>2021-10-21T08:01:21.000Z</time>
      </trkpt>
      <trkpt lat="43.94936" lon="2.38102">
        <ele>293.9</ele>
        <time>2021-10-21T08:01:31.000Z</time>
      </trkpt>
      <trkpt lat="43.94937" lon="2.38102">
        <ele>293.8</ele>
        <time>2021-10-21T08:01:32.000Z</time>
      </trkpt>
      <trkpt lat="43.94935" lon="2.38102">
        <ele>293.4</ele>
        <time>2021-10-21T08:01:39.000Z</time>
      </trkpt>
      <trkpt lat="43.94935" lon="2.38102">
        <ele>293.4</ele>
        <time>2021-10-21T08:01:42.000Z</time>
      </trkpt>
      <trkpt lat="43.94937" lon="2.38102">
        <ele>294.6</ele>
        <time>2021-10-21T08:01:53.000Z</time>
      </trkpt>
      <trkpt lat="43.94937" lon="2.38102">
        <ele>294.7</ele>
        <time>2021-10-21T08:01:54.000Z</time>
      </trkpt>
      <trkpt lat="43.94936" lon="2.38101">
        <ele>294.7</ele>
        <time>2021-10-21T08:02:00.000Z</time>
      </trkpt>
      <trkpt lat="43.94935" lon="2.38102">
        <ele>294.8</ele>
        <time>2021-10-21T08:02:01.000Z</time>
      </trkpt>
      <trkpt lat="43.94935" lon="2.38102">
        <ele>294.6</ele>
        <time>2021-10-21T08:02:05.000Z</time>
      </trkpt>
      <trkpt lat="43.94935" lon="2.38102">
        <ele>294.6</ele>
        <time>2021-10-21T08:02:08.000Z</time>
      </trkpt>
      <trkpt lat="43.94936" lon="2.38104">
        <ele>295.3</ele>
        <time>2021-10-21T08:02:15.000Z</time>
      </trkpt>
      <trkpt lat="43.94937" lon="2.38104">
        <ele>295.4</ele>
        <time>2021-10-21T08:02:16.000Z</time>
      </trkpt>
      <trkpt lat="43.94937" lon="2.38104">
        <ele>295.4</ele>
        <time>2021-10-21T08:02:18.000Z</time>
      </trkpt>
      <trkpt lat="43.94937" lon="2.38104">
        <ele>295.4</ele>
        <time>2021-10-21T08:02:19.000Z</time>
      </trkpt>
      <trkpt lat="43.94937" lon="2.38104">
        <ele>295.4</ele>
        <time>2021-10-21T08:02:21.000Z</time>
      </trkpt>
      <trkpt lat="43.94937" lon="2.38104">
        <ele>295.4</ele>
        <time>2021-10-21T08:02:24.000Z</time>
      </trkpt>
      <trkpt lat="43.94937" lon="2.38104">
        <ele>295.5</ele>
        <time>2021-10-21T08:02:25.000Z</time>
      </trkpt>
      <trkpt lat="43.94937" lon="2.38105">
        <ele>295.5</ele>
        <time>2021-10-21T08:02:26.000Z</time>
      </trkpt>
      <trkpt lat="43.94937" lon="2.38105">
        <ele>295.5</ele>
        <time>2021-10-21T08:02:27.000Z</time>
      </trkpt>
      <trkpt lat="43.94937" lon="2.38104">
        <ele>295.4</ele>
        <time>2021-10-21T08:02:28.000Z</time>
      </trkpt>
      <trkpt lat="43.94937" lon="2.38104">
        <ele>295.2</ele>
        <time>2021-10-21T08:02:30.000Z</time>
      </trkpt>
      <trkpt lat="43.94938" lon="2.38104">
        <ele>295.2</ele>
        <time>2021-10-21T08:02:31.000Z</time>
      </trkpt>
      <trkpt lat="43.94937" lon="2.38104">
        <ele>295.2</ele>
        <time>2021-10-21T08:02:33.000Z</time>
      </trkpt>
      <trkpt lat="43.94937" lon="2.38103">
        <ele>295.3</ele>
        <time>2021-10-21T08:02:34.000Z</time>
      </trkpt>
      <trkpt lat="43.94937" lon="2.38101">
        <ele>295.4</ele>
        <time>2021-10-21T08:02:39.000Z</time>
      </trkpt>
      <trkpt lat="43.94936" lon="2.38101">
        <ele>295.4</ele>
        <time>2021-10-21T08:02:45.000Z</time>
      </trkpt>
      <trkpt lat="43.94934" lon="2.38102">
        <ele>295.3</ele>
        <time>2021-10-21T08:02:50.000Z</time>
      </trkpt>
      <trkpt lat="43.94934" lon="2.38102">
        <ele>295.5</ele>
        <time>2021-10-21T08:02:51.000Z</time>
      </trkpt>
      <trkpt lat="43.94935" lon="2.38102">
        <ele>295.4</ele>
        <time>2021-10-21T08:02:53.000Z</time>
      </trkpt>
      <trkpt lat="43.94935" lon="2.38102">
        <ele>295.6</ele>
        <time>2021-10-21T08:02:59.000Z</time>
      </trkpt>
      <trkpt lat="43.94935" lon="2.38102">
        <ele>295.7</ele>
        <time>2021-10-21T08:03:00.000Z</time>
      </trkpt>
      <trkpt lat="43.94935" lon="2.38101">
        <ele>295.7</ele>
        <time>2021-10-21T08:03:04.000Z</time>
      </trkpt>
      <trkpt lat="43.94941" lon="2.38092">
        <ele>296</ele>
        <time>2021-10-21T08:03:15.000Z</time>
      </trkpt>
      <trkpt lat="43.94941" lon="2.38104">
        <ele>295.6</ele>
        <time>2021-10-21T08:03:26.000Z</time>
      </trkpt>
      <trkpt lat="43.94941" lon="2.38117">
        <ele>294.5</ele>
        <time>2021-10-21T08:03:37.000Z</time>
      </trkpt>
      <trkpt lat="43.94942" lon="2.38119">
        <ele>294.2</ele>
        <time>2021-10-21T08:03:40.000Z</time>
      </trkpt>
      <trkpt lat="43.94942" lon="2.38119">
        <ele>294</ele>
        <time>2021-10-21T08:03:44.000Z</time>
      </trkpt>
      <trkpt lat="43.94942" lon="2.38119">
        <ele>294</ele>
        <time>2021-10-21T08:03:45.000Z</time>
      </trkpt>
      <trkpt lat="43.94941" lon="2.38118">
        <ele>294</ele>
        <time>2021-10-21T08:03:50.000Z</time>
      </trkpt>
      <trkpt lat="43.94941" lon="2.38118">
        <ele>294</ele>
        <time>2021-10-21T08:03:51.000Z</time>
      </trkpt>
      <trkpt lat="43.94941" lon="2.38118">
        <ele>294</ele>
        <time>2021-10-21T08:03:53.000Z</time>
      </trkpt>
      <trkpt lat="43.94941" lon="2.38118">
        <ele>294</ele>
        <time>2021-10-21T08:03:54.000Z</time>
      </trkpt>
      <trkpt lat="43.94941" lon="2.38117">
        <ele>294.1</ele>
        <time>2021-10-21T08:03:58.000Z</time>
      </trkpt>
      <trkpt lat="43.9494" lon="2.38107">
        <ele>293.3</ele>
        <time>2021-10-21T08:04:16.000Z</time>
      </trkpt>
      <trkpt lat="43.9494" lon="2.38105">
        <ele>293.4</ele>
        <time>2021-10-21T08:04:20.000Z</time>
      </trkpt>
      <trkpt lat="43.94944" lon="2.38093">
        <ele>293.1</ele>
        <time>2021-10-21T08:04:32.000Z</time>
      </trkpt>
      <trkpt lat="43.94945" lon="2.3808">
        <ele>294.5</ele>
        <time>2021-10-21T08:04:44.000Z</time>
      </trkpt>
      <trkpt lat="43.94945" lon="2.38078">
        <ele>294.1</ele>
        <time>2021-10-21T08:04:51.000Z</time>
      </trkpt>
      <trkpt lat="43.94945" lon="2.38077">
        <ele>294.2</ele>
        <time>2021-10-21T08:05:02.000Z</time>
      </trkpt>
      <trkpt lat="43.9495" lon="2.38073">
        <ele>293.8</ele>
        <time>2021-10-21T08:05:13.000Z</time>
      </trkpt>
      <trkpt lat="43.94951" lon="2.38073">
        <ele>293.7</ele>
        <time>2021-10-21T08:05:19.000Z</time>
      </trkpt>
      <trkpt lat="43.94951" lon="2.3806">
        <ele>293.6</ele>
        <time>2021-10-21T08:05:35.000Z</time>
      </trkpt>
      <trkpt lat="43.94952" lon="2.38047">
        <ele>292.5</ele>
        <time>2021-10-21T08:05:49.000Z</time>
      </trkpt>
      <trkpt lat="43.94952" lon="2.38046">
        <ele>292.4</ele>
        <time>2021-10-21T08:05:51.000Z</time>
      </trkpt>
      <trkpt lat="43.94952" lon="2.38046">
        <ele>292.4</ele>
        <time>2021-10-21T08:05:52.000Z</time>
      </trkpt>
      <trkpt lat="43.94952" lon="2.38046">
        <ele>292.4</ele>
        <time>2021-10-21T08:05:53.000Z</time>
      </trkpt>
      <trkpt lat="43.94952" lon="2.38046">
        <ele>292.3</ele>
        <time>2021-10-21T08:05:57.000Z</time>
      </trkpt>
      <trkpt lat="43.94961" lon="2.38051">
        <ele>291.3</ele>
        <time>2021-10-21T08:06:05.000Z</time>
      </trkpt>
      <trkpt lat="43.94969" lon="2.38057">
        <ele>291.2</ele>
        <time>2021-10-21T08:06:13.000Z</time>
      </trkpt>
      <trkpt lat="43.94978" lon="2.38057">
        <ele>290.6</ele>
        <time>2021-10-21T08:06:22.000Z</time>
      </trkpt>
      <trkpt lat="43.94988" lon="2.38059">
        <ele>290.5</ele>
        <time>2021-10-21T08:06:32.000Z</time>
      </trkpt>
      <trkpt lat="43.94998" lon="2.38061">
        <ele>291.1</ele>
        <time>2021-10-21T08:06:45.000Z</time>
      </trkpt>
      <trkpt lat="43.95007" lon="2.38063">
        <ele>291.7</ele>
        <time>2021-10-21T08:06:54.000Z</time>
      </trkpt>
      <trkpt lat="43.95016" lon="2.38067">
        <ele>292.1</ele>
        <time>2021-10-21T08:07:01.000Z</time>
      </trkpt>
      <trkpt lat="43.95026" lon="2.3807">
        <ele>292.5</ele>
        <time>2021-10-21T08:07:11.000Z</time>
      </trkpt>
      <trkpt lat="43.95035" lon="2.38076">
        <ele>292.7</ele>
        <time>2021-10-21T08:07:20.000Z</time>
      </trkpt>
      <trkpt lat="43.95033" lon="2.38085">
        <ele>291.8</ele>
        <time>2021-10-21T08:07:32.000Z</time>
      </trkpt>
      <trkpt lat="43.95034" lon="2.38085">
        <ele>291.8</ele>
        <time>2021-10-21T08:07:47.000Z</time>
      </trkpt>
      <trkpt lat="43.95034" lon="2.38085">
        <ele>291.8</ele>
        <time>2021-10-21T08:07:48.000Z</time>
      </trkpt>
      <trkpt lat="43.95033" lon="2.38086">
        <ele>292.1</ele>
        <time>2021-10-21T08:08:04.000Z</time>
      </trkpt>
      <trkpt lat="43.95034" lon="2.38086">
        <ele>292.4</ele>
        <time>2021-10-21T08:08:07.000Z</time>
      </trkpt>
      <trkpt lat="43.95034" lon="2.38086">
        <ele>292.5</ele>
        <time>2021-10-21T08:08:14.000Z</time>
      </trkpt>
      <trkpt lat="43.95034" lon="2.38086">
        <ele>292.4</ele>
        <time>2021-10-21T08:08:15.000Z</time>
      </trkpt>
      <trkpt lat="43.95034" lon="2.38086">
        <ele>292.5</ele>
        <time>2021-10-21T08:08:17.000Z</time>
      </trkpt>
      <trkpt lat="43.95034" lon="2.38086">
        <ele>292.5</ele>
        <time>2021-10-21T08:08:19.000Z</time>
      </trkpt>
      <trkpt lat="43.95034" lon="2.38086">
        <ele>292.4</ele>
        <time>2021-10-21T08:08:20.000Z</time>
      </trkpt>
      <trkpt lat="43.95034" lon="2.38086">
        <ele>292.6</ele>
        <time>2021-10-21T08:08:22.000Z</time>
      </trkpt>
      <trkpt lat="43.95034" lon="2.38086">
        <ele>292.6</ele>
        <time>2021-10-21T08:08:23.000Z</time>
      </trkpt>
      <trkpt lat="43.95035" lon="2.38091">
        <ele>292.6</ele>
        <time>2021-10-21T08:08:33.000Z</time>
      </trkpt>
      <trkpt lat="43.95034" lon="2.3809">
        <ele>292.5</ele>
        <time>2021-10-21T08:08:34.000Z</time>
      </trkpt>
      <trkpt lat="43.95033" lon="2.38089">
        <ele>293</ele>
        <time>2021-10-21T08:08:38.000Z</time>
      </trkpt>
      <trkpt lat="43.95033" lon="2.38089">
        <ele>292.9</ele>
        <time>2021-10-21T08:08:39.000Z</time>
      </trkpt>
      <trkpt lat="43.95037" lon="2.38078">
        <ele>292.8</ele>
        <time>2021-10-21T08:08:51.000Z</time>
      </trkpt>
      <trkpt lat="43.95034" lon="2.38073">
        <ele>291.6</ele>
        <time>2021-10-21T08:09:02.000Z</time>
      </trkpt>
      <trkpt lat="43.95034" lon="2.38073">
        <ele>291.6</ele>
        <time>2021-10-21T08:09:03.000Z</time>
      </trkpt>
      <trkpt lat="43.95025" lon="2.38074">
        <ele>291.6</ele>
        <time>2021-10-21T08:09:14.000Z</time>
      </trkpt>
      <trkpt lat="43.95016" lon="2.3807">
        <ele>291.5</ele>
        <time>2021-10-21T08:09:22.000Z</time>
      </trkpt>
      <trkpt lat="43.95007" lon="2.38064">
        <ele>291.2</ele>
        <time>2021-10-21T08:09:28.000Z</time>
      </trkpt>
      <trkpt lat="43.94998" lon="2.3806">
        <ele>291.1</ele>
        <time>2021-10-21T08:09:37.000Z</time>
      </trkpt>
      <trkpt lat="43.9499" lon="2.38054">
        <ele>291.2</ele>
        <time>2021-10-21T08:09:47.000Z</time>
      </trkpt>
      <trkpt lat="43.94981" lon="2.38049">
        <ele>291</ele>
        <time>2021-10-21T08:09:57.000Z</time>
      </trkpt>
      <trkpt lat="43.9498" lon="2.38049">
        <ele>290.9</ele>
        <time>2021-10-21T08:10:02.000Z</time>
      </trkpt>
      <trkpt lat="43.9498" lon="2.38049">
        <ele>291</ele>
        <time>2021-10-21T08:10:04.000Z</time>
      </trkpt>
      <trkpt lat="43.94971" lon="2.38044">
        <ele>290</ele>
        <time>2021-10-21T08:10:16.000Z</time>
      </trkpt>
      <trkpt lat="43.94964" lon="2.38035">
        <ele>289.9</ele>
        <time>2021-10-21T08:10:26.000Z</time>
      </trkpt>
      <trkpt lat="43.94955" lon="2.38032">
        <ele>289.4</ele>
        <time>2021-10-21T08:10:35.000Z</time>
      </trkpt>
      <trkpt lat="43.94946" lon="2.38037">
        <ele>288.1</ele>
        <time>2021-10-21T08:10:47.000Z</time>
      </trkpt>
      <trkpt lat="43.94938" lon="2.38042">
        <ele>286.5</ele>
        <time>2021-10-21T08:10:58.000Z</time>
      </trkpt>
      <trkpt lat="43.94929" lon="2.38044">
        <ele>285.2</ele>
        <time>2021-10-21T08:11:12.000Z</time>
      </trkpt>
      <trkpt lat="43.9492" lon="2.38044">
        <ele>284.1</ele>
        <time>2021-10-21T08:11:23.000Z</time>
      </trkpt>
      <trkpt lat="43.94918" lon="2.38043">
        <ele>283.6</ele>
        <time>2021-10-21T08:11:28.000Z</time>
      </trkpt>
      <trkpt lat="43.94917" lon="2.38042">
        <ele>283.6</ele>
        <time>2021-10-21T08:11:29.000Z</time>
      </trkpt>
      <trkpt lat="43.94908" lon="2.38037">
        <ele>281.3</ele>
        <time>2021-10-21T08:11:49.000Z</time>
      </trkpt>
      <trkpt lat="43.949" lon="2.38033">
        <ele>278.4</ele>
        <time>2021-10-21T08:12:03.000Z</time>
      </trkpt>
      <trkpt lat="43.94908" lon="2.38026">
        <ele>274.7</ele>
        <time>2021-10-21T08:12:16.000Z</time>
      </trkpt>
      <trkpt lat="43.94917" lon="2.38024">
        <ele>271.9</ele>
        <time>2021-10-21T08:12:29.000Z</time>
      </trkpt>
      <trkpt lat="43.94924" lon="2.38015">
        <ele>270.2</ele>
        <time>2021-10-21T08:12:49.000Z</time>
      </trkpt>
      <trkpt lat="43.94932" lon="2.38007">
        <ele>268.1</ele>
        <time>2021-10-21T08:13:03.000Z</time>
      </trkpt>
      <trkpt lat="43.94927" lon="2.38004">
        <ele>264.4</ele>
        <time>2021-10-21T08:13:31.000Z</time>
      </trkpt>
      <trkpt lat="43.94927" lon="2.38004">
        <ele>264.3</ele>
        <time>2021-10-21T08:13:32.000Z</time>
      </trkpt>
      <trkpt lat="43.94923" lon="2.38004">
        <ele>263.9</ele>
        <time>2021-10-21T08:13:41.000Z</time>
      </trkpt>
      <trkpt lat="43.94922" lon="2.38004">
        <ele>263.9</ele>
        <time>2021-10-21T08:13:49.000Z</time>
      </trkpt>
      <trkpt lat="43.94914" lon="2.37999">
        <ele>263.1</ele>
        <time>2021-10-21T08:14:00.000Z</time>
      </trkpt>
      <trkpt lat="43.94905" lon="2.37994">
        <ele>261.5</ele>
        <time>2021-10-21T08:14:11.000Z</time>
      </trkpt>
      <trkpt lat="43.94895" lon="2.37989">
        <ele>259.7</ele>
        <time>2021-10-21T08:14:21.000Z</time>
      </trkpt>
      <trkpt lat="43.94887" lon="2.37984">
        <ele>257.8</ele>
        <time>2021-10-21T08:14:32.000Z</time>
      </trkpt>
      <trkpt lat="43.94877" lon="2.37983">
        <ele>255.7</ele>
        <time>2021-10-21T08:14:44.000Z</time>
      </trkpt>
      <trkpt lat="43.94868" lon="2.37988">
        <ele>255</ele>
        <time>2021-10-21T08:14:53.000Z</time>
      </trkpt>
      <trkpt lat="43.94858" lon="2.37988">
        <ele>254.2</ele>
        <time>2021-10-21T08:15:02.000Z</time>
      </trkpt>
      <trkpt lat="43.94849" lon="2.37984">
        <ele>252.4</ele>
        <time>2021-10-21T08:15:14.000Z</time>
      </trkpt>
      <trkpt lat="43.9484" lon="2.3798">
        <ele>251.6</ele>
        <time>2021-10-21T08:15:23.000Z</time>
      </trkpt>
      <trkpt lat="43.9483" lon="2.3798">
        <ele>250</ele>
        <time>2021-10-21T08:15:34.000Z</time>
      </trkpt>
      <trkpt lat="43.9482" lon="2.37979">
        <ele>249.1</ele>
        <time>2021-10-21T08:15:43.000Z</time>
      </trkpt>
      <trkpt lat="43.94811" lon="2.37976">
        <ele>245</ele>
        <time>2021-10-21T08:15:59.000Z</time>
      </trkpt>
      <trkpt lat="43.94802" lon="2.37972">
        <ele>240.9</ele>
        <time>2021-10-21T08:16:22.000Z</time>
      </trkpt>
      <trkpt lat="43.94793" lon="2.37967">
        <ele>238.5</ele>
        <time>2021-10-21T08:16:38.000Z</time>
      </trkpt>
      <trkpt lat="43.94784" lon="2.37965">
        <ele>237.3</ele>
        <time>2021-10-21T08:16:52.000Z</time>
      </trkpt>
      <trkpt lat="43.94775" lon="2.37963">
        <ele>235.5</ele>
        <time>2021-10-21T08:17:07.000Z</time>
      </trkpt>
      <trkpt lat="43.94766" lon="2.37959">
        <ele>233.2</ele>
        <time>2021-10-21T08:17:21.000Z</time>
      </trkpt>
      <trkpt lat="43.94774" lon="2.37952">
        <ele>231.2</ele>
        <time>2021-10-21T08:17:35.000Z</time>
      </trkpt>
      <trkpt lat="43.94783" lon="2.37948">
        <ele>229</ele>
        <time>2021-10-21T08:17:45.000Z</time>
      </trkpt>
      <trkpt lat="43.94792" lon="2.37942">
        <ele>228.1</ele>
        <time>2021-10-21T08:17:55.000Z</time>
      </trkpt>
      <trkpt lat="43.94793" lon="2.37941">
        <ele>228.2</ele>
        <time>2021-10-21T08:17:58.000Z</time>
      </trkpt>
      <trkpt lat="43.94794" lon="2.37941">
        <ele>228.2</ele>
        <time>2021-10-21T08:17:59.000Z</time>
      </trkpt>
      <trkpt lat="43.94803" lon="2.37943">
        <ele>227.9</ele>
        <time>2021-10-21T08:18:06.000Z</time>
      </trkpt>
      <trkpt lat="43.94812" lon="2.37946">
        <ele>227.3</ele>
        <time>2021-10-21T08:18:14.000Z</time>
      </trkpt>
      <trkpt lat="43.9482" lon="2.3794">
        <ele>224.6</ele>
        <time>2021-10-21T08:18:32.000Z</time>
      </trkpt>
      <trkpt lat="43.94811" lon="2.37938">
        <ele>222.3</ele>
        <time>2021-10-21T08:18:55.000Z</time>
      </trkpt>
      <trkpt lat="43.94802" lon="2.37933">
        <ele>221</ele>
        <time>2021-10-21T08:19:01.000Z</time>
      </trkpt>
      <trkpt lat="43.94793" lon="2.37937">
        <ele>220.3</ele>
        <time>2021-10-21T08:19:10.000Z</time>
      </trkpt>
      <trkpt lat="43.94785" lon="2.37931">
        <ele>219.9</ele>
        <time>2021-10-21T08:19:24.000Z</time>
      </trkpt>
      <trkpt lat="43.94778" lon="2.37923">
        <ele>220</ele>
        <time>2021-10-21T08:19:33.000Z</time>
      </trkpt>
      <trkpt lat="43.94768" lon="2.37921">
        <ele>219.8</ele>
        <time>2021-10-21T08:19:40.000Z</time>
      </trkpt>
      <trkpt lat="43.94764" lon="2.37908">
        <ele>217.7</ele>
        <time>2021-10-21T08:19:47.000Z</time>
      </trkpt>
      <trkpt lat="43.94759" lon="2.37897">
        <ele>213.5</ele>
        <time>2021-10-21T08:20:01.000Z</time>
      </trkpt>
      <trkpt lat="43.9475" lon="2.37893">
        <ele>211.6</ele>
        <time>2021-10-21T08:20:10.000Z</time>
      </trkpt>
      <trkpt lat="43.94741" lon="2.37889">
        <ele>211.1</ele>
        <time>2021-10-21T08:20:19.000Z</time>
      </trkpt>
      <trkpt lat="43.94731" lon="2.37885">
        <ele>210.4</ele>
        <time>2021-10-21T08:20:28.000Z</time>
      </trkpt>
      <trkpt lat="43.94727" lon="2.37872">
        <ele>208.9</ele>
        <time>2021-10-21T08:20:38.000Z</time>
      </trkpt>
      <trkpt lat="43.94726" lon="2.37859">
        <ele>207.1</ele>
        <time>2021-10-21T08:20:48.000Z</time>
      </trkpt>
      <trkpt lat="43.94717" lon="2.37855">
        <ele>203.6</ele>
        <time>2021-10-21T08:20:59.000Z</time>
      </trkpt>
      <trkpt lat="43.94707" lon="2.3786">
        <ele>203.7</ele>
        <time>2021-10-21T08:21:14.000Z</time>
      </trkpt>
      <trkpt lat="43.94698" lon="2.37863">
        <ele>203.9</ele>
        <time>2021-10-21T08:21:22.000Z</time>
      </trkpt>
      <trkpt lat="43.94693" lon="2.37863">
        <ele>203.7</ele>
        <time>2021-10-21T08:21:33.000Z</time>
      </trkpt>
      <trkpt lat="43.94693" lon="2.37864">
        <ele>203.7</ele>
        <time>2021-10-21T08:21:36.000Z</time>
      </trkpt>
      <trkpt lat="43.94692" lon="2.37863">
        <ele>203.6</ele>
        <time>2021-10-21T08:21:39.000Z</time>
      </trkpt>
      <trkpt lat="43.94692" lon="2.37863">
        <ele>203.6</ele>
        <time>2021-10-21T08:21:42.000Z</time>
      </trkpt>
      <trkpt lat="43.94692" lon="2.37863">
        <ele>203.6</ele>
        <time>2021-10-21T08:21:44.000Z</time>
      </trkpt>
      <trkpt lat="43.94692" lon="2.37863">
        <ele>203.6</ele>
        <time>2021-10-21T08:21:47.000Z</time>
      </trkpt>
      <trkpt lat="43.94692" lon="2.37863">
        <ele>203.6</ele>
        <time>2021-10-21T08:21:48.000Z</time>
      </trkpt>
      <trkpt lat="43.94692" lon="2.37863">
        <ele>203.5</ele>
        <time>2021-10-21T08:21:55.000Z</time>
      </trkpt>
      <trkpt lat="43.94692" lon="2.37863">
        <ele>203.5</ele>
        <time>2021-10-21T08:21:56.000Z</time>
      </trkpt>
      <trkpt lat="43.94692" lon="2.37863">
        <ele>203.4</ele>
        <time>2021-10-21T08:21:57.000Z</time>
      </trkpt>
      <trkpt lat="43.94692" lon="2.37865">
        <ele>203.3</ele>
        <time>2021-10-21T08:22:00.000Z</time>
      </trkpt>
      <trkpt lat="43.94692" lon="2.37865">
        <ele>203.1</ele>
        <time>2021-10-21T08:22:02.000Z</time>
      </trkpt>
      <trkpt lat="43.94693" lon="2.37866">
        <ele>202.8</ele>
        <time>2021-10-21T08:22:06.000Z</time>
      </trkpt>
      <trkpt lat="43.94693" lon="2.37867">
        <ele>202.5</ele>
        <time>2021-10-21T08:22:07.000Z</time>
      </trkpt>
      <trkpt lat="43.94693" lon="2.37868">
        <ele>202.5</ele>
        <time>2021-10-21T08:22:10.000Z</time>
      </trkpt>
      <trkpt lat="43.94693" lon="2.37869">
        <ele>202.6</ele>
        <time>2021-10-21T08:22:11.000Z</time>
      </trkpt>
      <trkpt lat="43.94694" lon="2.37867">
        <ele>202.5</ele>
        <time>2021-10-21T08:22:15.000Z</time>
      </trkpt>
      <trkpt lat="43.94693" lon="2.37867">
        <ele>202.4</ele>
        <time>2021-10-21T08:22:22.000Z</time>
      </trkpt>
      <trkpt lat="43.94691" lon="2.3787">
        <ele>202.3</ele>
        <time>2021-10-21T08:22:30.000Z</time>
      </trkpt>
      <trkpt lat="43.94692" lon="2.3787">
        <ele>202.1</ele>
        <time>2021-10-21T08:22:36.000Z</time>
      </trkpt>
      <trkpt lat="43.94692" lon="2.3787">
        <ele>201.6</ele>
        <time>2021-10-21T08:22:38.000Z</time>
      </trkpt>
      <trkpt lat="43.94692" lon="2.3787">
        <ele>201.5</ele>
        <time>2021-10-21T08:22:40.000Z</time>
      </trkpt>
      <trkpt lat="43.94693" lon="2.37871">
        <ele>200.8</ele>
        <time>2021-10-21T08:22:46.000Z</time>
      </trkpt>
      <trkpt lat="43.94692" lon="2.37871">
        <ele>200.8</ele>
        <time>2021-10-21T08:22:49.000Z</time>
      </trkpt>
      <trkpt lat="43.94687" lon="2.37868">
        <ele>202.6</ele>
        <time>2021-10-21T08:23:05.000Z</time>
      </trkpt>
      <trkpt lat="43.94687" lon="2.37868">
        <ele>202.7</ele>
        <time>2021-10-21T08:23:06.000Z</time>
      </trkpt>
      <trkpt lat="43.94687" lon="2.37868">
        <ele>202.9</ele>
        <time>2021-10-21T08:23:08.000Z</time>
      </trkpt>
      <trkpt lat="43.94688" lon="2.37868">
        <ele>202.8</ele>
        <time>2021-10-21T08:23:09.000Z</time>
      </trkpt>
      <trkpt lat="43.94688" lon="2.37869">
        <ele>202.1</ele>
        <time>2021-10-21T08:23:12.000Z</time>
      </trkpt>
      <trkpt lat="43.94688" lon="2.37869">
        <ele>201.7</ele>
        <time>2021-10-21T08:23:17.000Z</time>
      </trkpt>
      <trkpt lat="43.94688" lon="2.37871">
        <ele>202.6</ele>
        <time>2021-10-21T08:23:26.000Z</time>
      </trkpt>
      <trkpt lat="43.94688" lon="2.3787">
        <ele>202.6</ele>
        <time>2021-10-21T08:23:27.000Z</time>
      </trkpt>
      <trkpt lat="43.94687" lon="2.37871">
        <ele>202.8</ele>
        <time>2021-10-21T08:23:29.000Z</time>
      </trkpt>
      <trkpt lat="43.94687" lon="2.37871">
        <ele>202.9</ele>
        <time>2021-10-21T08:23:30.000Z</time>
      </trkpt>
      <trkpt lat="43.94696" lon="2.3787">
        <ele>202.3</ele>
        <time>2021-10-21T08:23:52.000Z</time>
      </trkpt>
      <trkpt lat="43.94696" lon="2.3787">
        <ele>202.4</ele>
        <time>2021-10-21T08:23:53.000Z</time>
      </trkpt>
      <trkpt lat="43.94697" lon="2.3787">
        <ele>202.5</ele>
        <time>2021-10-21T08:23:54.000Z</time>
      </trkpt>
      <trkpt lat="43.94693" lon="2.37871">
        <ele>202</ele>
        <time>2021-10-21T08:24:07.000Z</time>
      </trkpt>
      <trkpt lat="43.94693" lon="2.37871">
        <ele>202</ele>
        <time>2021-10-21T08:24:08.000Z</time>
      </trkpt>
      <trkpt lat="43.94693" lon="2.37871">
        <ele>202</ele>
        <time>2021-10-21T08:24:09.000Z</time>
      </trkpt>
      <trkpt lat="43.94693" lon="2.37871">
        <ele>201.9</ele>
        <time>2021-10-21T08:24:10.000Z</time>
      </trkpt>
      <trkpt lat="43.94693" lon="2.37871">
        <ele>201.8</ele>
        <time>2021-10-21T08:24:11.000Z</time>
      </trkpt>
      <trkpt lat="43.94693" lon="2.37871">
        <ele>201.9</ele>
        <time>2021-10-21T08:24:13.000Z</time>
      </trkpt>
      <trkpt lat="43.94692" lon="2.37871">
        <ele>201.9</ele>
        <time>2021-10-21T08:24:15.000Z</time>
      </trkpt>
      <trkpt lat="43.94693" lon="2.37871">
        <ele>201.9</ele>
        <time>2021-10-21T08:24:16.000Z</time>
      </trkpt>
      <trkpt lat="43.94693" lon="2.37871">
        <ele>202</ele>
        <time>2021-10-21T08:24:17.000Z</time>
      </trkpt>
      <trkpt lat="43.94693" lon="2.37871">
        <ele>201.9</ele>
        <time>2021-10-21T08:24:26.000Z</time>
      </trkpt>
      <trkpt lat="43.94691" lon="2.3787">
        <ele>201.6</ele>
        <time>2021-10-21T08:24:38.000Z</time>
      </trkpt>
      <trkpt lat="43.94691" lon="2.37871">
        <ele>201.5</ele>
        <time>2021-10-21T08:24:39.000Z</time>
      </trkpt>
      <trkpt lat="43.94691" lon="2.37871">
        <ele>201.4</ele>
        <time>2021-10-21T08:24:40.000Z</time>
      </trkpt>
      <trkpt lat="43.94692" lon="2.37872">
        <ele>201.5</ele>
        <time>2021-10-21T08:24:47.000Z</time>
      </trkpt>
      <trkpt lat="43.9469" lon="2.37872">
        <ele>202.4</ele>
        <time>2021-10-21T08:24:54.000Z</time>
      </trkpt>
      <trkpt lat="43.9469" lon="2.37871">
        <ele>202.4</ele>
        <time>2021-10-21T08:24:55.000Z</time>
      </trkpt>
      <trkpt lat="43.94687" lon="2.3787">
        <ele>202.3</ele>
        <time>2021-10-21T08:25:06.000Z</time>
      </trkpt>
      <trkpt lat="43.94687" lon="2.37869">
        <ele>202.1</ele>
        <time>2021-10-21T08:25:09.000Z</time>
      </trkpt>
      <trkpt lat="43.94686" lon="2.37869">
        <ele>202</ele>
        <time>2021-10-21T08:25:11.000Z</time>
      </trkpt>
      <trkpt lat="43.94686" lon="2.37869">
        <ele>202</ele>
        <time>2021-10-21T08:25:12.000Z</time>
      </trkpt>
      <trkpt lat="43.94686" lon="2.37869">
        <ele>202.1</ele>
        <time>2021-10-21T08:25:13.000Z</time>
      </trkpt>
      <trkpt lat="43.94686" lon="2.3787">
        <ele>202.2</ele>
        <time>2021-10-21T08:25:16.000Z</time>
      </trkpt>
      <trkpt lat="43.94685" lon="2.37869">
        <ele>202.5</ele>
        <time>2021-10-21T08:25:21.000Z</time>
      </trkpt>
      <trkpt lat="43.94686" lon="2.37869">
        <ele>202.4</ele>
        <time>2021-10-21T08:25:37.000Z</time>
      </trkpt>
      <trkpt lat="43.94685" lon="2.37869">
        <ele>202.2</ele>
        <time>2021-10-21T08:25:43.000Z</time>
      </trkpt>
      <trkpt lat="43.94685" lon="2.37868">
        <ele>202.3</ele>
        <time>2021-10-21T08:25:48.000Z</time>
      </trkpt>
      <trkpt lat="43.94685" lon="2.37868">
        <ele>202.9</ele>
        <time>2021-10-21T08:25:52.000Z</time>
      </trkpt>
      <trkpt lat="43.94685" lon="2.37868">
        <ele>202.9</ele>
        <time>2021-10-21T08:25:53.000Z</time>
      </trkpt>
      <trkpt lat="43.94683" lon="2.37871">
        <ele>204.3</ele>
        <time>2021-10-21T08:26:00.000Z</time>
      </trkpt>
      <trkpt lat="43.94684" lon="2.37871">
        <ele>204.3</ele>
        <time>2021-10-21T08:26:02.000Z</time>
      </trkpt>
      <trkpt lat="43.94684" lon="2.3787">
        <ele>204.2</ele>
        <time>2021-10-21T08:26:03.000Z</time>
      </trkpt>
      <trkpt lat="43.94684" lon="2.3787">
        <ele>204.1</ele>
        <time>2021-10-21T08:26:04.000Z</time>
      </trkpt>
      <trkpt lat="43.94684" lon="2.3787">
        <ele>203.9</ele>
        <time>2021-10-21T08:26:05.000Z</time>
      </trkpt>
      <trkpt lat="43.94684" lon="2.37871">
        <ele>203.8</ele>
        <time>2021-10-21T08:26:06.000Z</time>
      </trkpt>
      <trkpt lat="43.94694" lon="2.37869">
        <ele>200.8</ele>
        <time>2021-10-21T08:26:15.000Z</time>
      </trkpt>
      <trkpt lat="43.94701" lon="2.37862">
        <ele>199.9</ele>
        <time>2021-10-21T08:26:21.000Z</time>
      </trkpt>
      <trkpt lat="43.94709" lon="2.37854">
        <ele>199.7</ele>
        <time>2021-10-21T08:26:30.000Z</time>
      </trkpt>
      <trkpt lat="43.94717" lon="2.37846">
        <ele>200</ele>
        <time>2021-10-21T08:26:38.000Z</time>
      </trkpt>
      <trkpt lat="43.94723" lon="2.37837">
        <ele>199.6</ele>
        <time>2021-10-21T08:26:45.000Z</time>
      </trkpt>
      <trkpt lat="43.94714" lon="2.37842">
        <ele>195.8</ele>
        <time>2021-10-21T08:27:17.000Z</time>
      </trkpt>
      <trkpt lat="43.94707" lon="2.37833">
        <ele>195.2</ele>
        <time>2021-10-21T08:27:39.000Z</time>
      </trkpt>
      <trkpt lat="43.94707" lon="2.37833">
        <ele>195.3</ele>
        <time>2021-10-21T08:27:41.000Z</time>
      </trkpt>
      <trkpt lat="43.94707" lon="2.37833">
        <ele>195.3</ele>
        <time>2021-10-21T08:27:43.000Z</time>
      </trkpt>
      <trkpt lat="43.94711" lon="2.37845">
        <ele>192.7</ele>
        <time>2021-10-21T08:27:51.000Z</time>
      </trkpt>
      <trkpt lat="43.94719" lon="2.37854">
        <ele>189.5</ele>
        <time>2021-10-21T08:27:55.000Z</time>
      </trkpt>
      <trkpt lat="43.9471" lon="2.37844">
        <ele>188.5</ele>
        <time>2021-10-21T08:28:07.000Z</time>
      </trkpt>
      <trkpt lat="43.94709" lon="2.37841">
        <ele>187.3</ele>
        <time>2021-10-21T08:28:14.000Z</time>
      </trkpt>
      <trkpt lat="43.94709" lon="2.37841">
        <ele>187.6</ele>
        <time>2021-10-21T08:28:57.000Z</time>
      </trkpt>
      <trkpt lat="43.94709" lon="2.37839">
        <ele>189.1</ele>
        <time>2021-10-21T08:29:06.000Z</time>
      </trkpt>
      <trkpt lat="43.94709" lon="2.37839">
        <ele>189.3</ele>
        <time>2021-10-21T08:29:08.000Z</time>
      </trkpt>
      <trkpt lat="43.94709" lon="2.37851">
        <ele>190.5</ele>
        <time>2021-10-21T08:29:16.000Z</time>
      </trkpt>
      <trkpt lat="43.94709" lon="2.37865">
        <ele>192.3</ele>
        <time>2021-10-21T08:29:28.000Z</time>
      </trkpt>
      <trkpt lat="43.94701" lon="2.37872">
        <ele>194.2</ele>
        <time>2021-10-21T08:29:39.000Z</time>
      </trkpt>
      <trkpt lat="43.94694" lon="2.37879">
        <ele>195</ele>
        <time>2021-10-21T08:29:47.000Z</time>
      </trkpt>
      <trkpt lat="43.94686" lon="2.37888">
        <ele>194.8</ele>
        <time>2021-10-21T08:29:58.000Z</time>
      </trkpt>
      <trkpt lat="43.9468" lon="2.37898">
        <ele>195.1</ele>
        <time>2021-10-21T08:30:07.000Z</time>
      </trkpt>
      <trkpt lat="43.94673" lon="2.37906">
        <ele>195.7</ele>
        <time>2021-10-21T08:30:17.000Z</time>
      </trkpt>
      <trkpt lat="43.9467" lon="2.3791">
        <ele>195.4</ele>
        <time>2021-10-21T08:30:28.000Z</time>
      </trkpt>
      <trkpt lat="43.9467" lon="2.3791">
        <ele>195.4</ele>
        <time>2021-10-21T08:30:29.000Z</time>
      </trkpt>
      <trkpt lat="43.94664" lon="2.37922">
        <ele>195.1</ele>
        <time>2021-10-21T08:30:46.000Z</time>
      </trkpt>
      <trkpt lat="43.94659" lon="2.37926">
        <ele>196.5</ele>
        <time>2021-10-21T08:30:53.000Z</time>
      </trkpt>
      <trkpt lat="43.94659" lon="2.37926">
        <ele>196.6</ele>
        <time>2021-10-21T08:30:55.000Z</time>
      </trkpt>
      <trkpt lat="43.94662" lon="2.37921">
        <ele>196.5</ele>
        <time>2021-10-21T08:31:07.000Z</time>
      </trkpt>
      <trkpt lat="43.94662" lon="2.37922">
        <ele>196.4</ele>
        <time>2021-10-21T08:31:08.000Z</time>
      </trkpt>
      <trkpt lat="43.94663" lon="2.37923">
        <ele>196.6</ele>
        <time>2021-10-21T08:31:15.000Z</time>
      </trkpt>
      <trkpt lat="43.94662" lon="2.37924">
        <ele>197</ele>
        <time>2021-10-21T08:31:18.000Z</time>
      </trkpt>
      <trkpt lat="43.94662" lon="2.37924">
        <ele>197.4</ele>
        <time>2021-10-21T08:31:20.000Z</time>
      </trkpt>
      <trkpt lat="43.94662" lon="2.37924">
        <ele>197.3</ele>
        <time>2021-10-21T08:31:26.000Z</time>
      </trkpt>
      <trkpt lat="43.94666" lon="2.37917">
        <ele>196.3</ele>
        <time>2021-10-21T08:31:48.000Z</time>
      </trkpt>
      <trkpt lat="43.94666" lon="2.37917">
        <ele>196.3</ele>
        <time>2021-10-21T08:31:59.000Z</time>
      </trkpt>
      <trkpt lat="43.94668" lon="2.3791">
        <ele>195.9</ele>
        <time>2021-10-21T08:32:08.000Z</time>
      </trkpt>
      <trkpt lat="43.94668" lon="2.37909">
        <ele>195.9</ele>
        <time>2021-10-21T08:32:31.000Z</time>
      </trkpt>
      <trkpt lat="43.94668" lon="2.37909">
        <ele>195.9</ele>
        <time>2021-10-21T08:32:32.000Z</time>
      </trkpt>
      <trkpt lat="43.94668" lon="2.37908">
        <ele>195.8</ele>
        <time>2021-10-21T08:32:33.000Z</time>
      </trkpt>
      <trkpt lat="43.94669" lon="2.37907">
        <ele>196</ele>
        <time>2021-10-21T08:32:37.000Z</time>
      </trkpt>
      <trkpt lat="43.9467" lon="2.37907">
        <ele>196.2</ele>
        <time>2021-10-21T08:32:38.000Z</time>
      </trkpt>
      <trkpt lat="43.9467" lon="2.37907">
        <ele>196.3</ele>
        <time>2021-10-21T08:32:43.000Z</time>
      </trkpt>
      <trkpt lat="43.9467" lon="2.37907">
        <ele>196.4</ele>
        <time>2021-10-21T08:32:45.000Z</time>
      </trkpt>
      <trkpt lat="43.9467" lon="2.37907">
        <ele>196.4</ele>
        <time>2021-10-21T08:32:46.000Z</time>
      </trkpt>
      <trkpt lat="43.9467" lon="2.37907">
        <ele>196.4</ele>
        <time>2021-10-21T08:32:48.000Z</time>
      </trkpt>
      <trkpt lat="43.94669" lon="2.37907">
        <ele>196.9</ele>
        <time>2021-10-21T08:32:53.000Z</time>
      </trkpt>
      <trkpt lat="43.94669" lon="2.37907">
        <ele>197.2</ele>
        <time>2021-10-21T08:33:03.000Z</time>
      </trkpt>
      <trkpt lat="43.94671" lon="2.37905">
        <ele>198.1</ele>
        <time>2021-10-21T08:33:20.000Z</time>
      </trkpt>
      <trkpt lat="43.9467" lon="2.37904">
        <ele>198.2</ele>
        <time>2021-10-21T08:33:21.000Z</time>
      </trkpt>
      <trkpt lat="43.94672" lon="2.37904">
        <ele>198.4</ele>
        <time>2021-10-21T08:33:26.000Z</time>
      </trkpt>
      <trkpt lat="43.94671" lon="2.37904">
        <ele>198.3</ele>
        <time>2021-10-21T08:33:27.000Z</time>
      </trkpt>
      <trkpt lat="43.94666" lon="2.37915">
        <ele>197.3</ele>
        <time>2021-10-21T08:33:40.000Z</time>
      </trkpt>
      <trkpt lat="43.94663" lon="2.37916">
        <ele>196.2</ele>
        <time>2021-10-21T08:33:53.000Z</time>
      </trkpt>
      <trkpt lat="43.94662" lon="2.37916">
        <ele>196</ele>
        <time>2021-10-21T08:33:54.000Z</time>
      </trkpt>
      <trkpt lat="43.94662" lon="2.37916">
        <ele>195.9</ele>
        <time>2021-10-21T08:34:02.000Z</time>
      </trkpt>
      <trkpt lat="43.94662" lon="2.37915">
        <ele>196</ele>
        <time>2021-10-21T08:34:03.000Z</time>
      </trkpt>
      <trkpt lat="43.94665" lon="2.37905">
        <ele>195.5</ele>
        <time>2021-10-21T08:34:13.000Z</time>
      </trkpt>
      <trkpt lat="43.94665" lon="2.37905">
        <ele>195.6</ele>
        <time>2021-10-21T08:34:14.000Z</time>
      </trkpt>
      <trkpt lat="43.94671" lon="2.37906">
        <ele>196.2</ele>
        <time>2021-10-21T08:34:23.000Z</time>
      </trkpt>
      <trkpt lat="43.94673" lon="2.37907">
        <ele>196.2</ele>
        <time>2021-10-21T08:34:24.000Z</time>
      </trkpt>
      <trkpt lat="43.94673" lon="2.37908">
        <ele>196.7</ele>
        <time>2021-10-21T08:34:40.000Z</time>
      </trkpt>
      <trkpt lat="43.94673" lon="2.37908">
        <ele>196.7</ele>
        <time>2021-10-21T08:34:42.000Z</time>
      </trkpt>
      <trkpt lat="43.94673" lon="2.37906">
        <ele>196.8</ele>
        <time>2021-10-21T08:34:46.000Z</time>
      </trkpt>
      <trkpt lat="43.94673" lon="2.37906">
        <ele>196.8</ele>
        <time>2021-10-21T08:34:47.000Z</time>
      </trkpt>
      <trkpt lat="43.94673" lon="2.37906">
        <ele>197.1</ele>
        <time>2021-10-21T08:34:49.000Z</time>
      </trkpt>
      <trkpt lat="43.94673" lon="2.37906">
        <ele>197.1</ele>
        <time>2021-10-21T08:34:50.000Z</time>
      </trkpt>
      <trkpt lat="43.94666" lon="2.37912">
        <ele>195.5</ele>
        <time>2021-10-21T08:35:01.000Z</time>
      </trkpt>
      <trkpt lat="43.94666" lon="2.37912">
        <ele>195.5</ele>
        <time>2021-10-21T08:35:05.000Z</time>
      </trkpt>
      <trkpt lat="43.94667" lon="2.37913">
        <ele>195.8</ele>
        <time>2021-10-21T08:35:08.000Z</time>
      </trkpt>
      <trkpt lat="43.94667" lon="2.37913">
        <ele>195.8</ele>
        <time>2021-10-21T08:35:09.000Z</time>
      </trkpt>
      <trkpt lat="43.94666" lon="2.37914">
        <ele>195.2</ele>
        <time>2021-10-21T08:35:13.000Z</time>
      </trkpt>
      <trkpt lat="43.94667" lon="2.37914">
        <ele>195.1</ele>
        <time>2021-10-21T08:35:22.000Z</time>
      </trkpt>
      <trkpt lat="43.94667" lon="2.37914">
        <ele>195.1</ele>
        <time>2021-10-21T08:35:24.000Z</time>
      </trkpt>
      <trkpt lat="43.94667" lon="2.37914">
        <ele>194.9</ele>
        <time>2021-10-21T08:35:35.000Z</time>
      </trkpt>
      <trkpt lat="43.94667" lon="2.37914">
        <ele>194.9</ele>
        <time>2021-10-21T08:35:37.000Z</time>
      </trkpt>
      <trkpt lat="43.94667" lon="2.37914">
        <ele>194.9</ele>
        <time>2021-10-21T08:35:38.000Z</time>
      </trkpt>
      <trkpt lat="43.94667" lon="2.37914">
        <ele>194.9</ele>
        <time>2021-10-21T08:35:39.000Z</time>
      </trkpt>
      <trkpt lat="43.94667" lon="2.37914">
        <ele>194.8</ele>
        <time>2021-10-21T08:35:47.000Z</time>
      </trkpt>
      <trkpt lat="43.94667" lon="2.37915">
        <ele>194.8</ele>
        <time>2021-10-21T08:35:48.000Z</time>
      </trkpt>
      <trkpt lat="43.94667" lon="2.37915">
        <ele>194.8</ele>
        <time>2021-10-21T08:35:54.000Z</time>
      </trkpt>
      <trkpt lat="43.94668" lon="2.37915">
        <ele>194.8</ele>
        <time>2021-10-21T08:35:56.000Z</time>
      </trkpt>
      <trkpt lat="43.94668" lon="2.37915">
        <ele>194.8</ele>
        <time>2021-10-21T08:36:04.000Z</time>
      </trkpt>
      <trkpt lat="43.94668" lon="2.37915">
        <ele>194.9</ele>
        <time>2021-10-21T08:36:05.000Z</time>
      </trkpt>
      <trkpt lat="43.94668" lon="2.37915">
        <ele>194.9</ele>
        <time>2021-10-21T08:36:06.000Z</time>
      </trkpt>
      <trkpt lat="43.94668" lon="2.37915">
        <ele>194.9</ele>
        <time>2021-10-21T08:36:07.000Z</time>
      </trkpt>
      <trkpt lat="43.94668" lon="2.37914">
        <ele>194.9</ele>
        <time>2021-10-21T08:36:09.000Z</time>
      </trkpt>
      <trkpt lat="43.94668" lon="2.37914">
        <ele>194.7</ele>
        <time>2021-10-21T08:36:13.000Z</time>
      </trkpt>
      <trkpt lat="43.94668" lon="2.37914">
        <ele>194.8</ele>
        <time>2021-10-21T08:36:14.000Z</time>
      </trkpt>
      <trkpt lat="43.94668" lon="2.37914">
        <ele>194.8</ele>
        <time>2021-10-21T08:36:15.000Z</time>
      </trkpt>
      <trkpt lat="43.94668" lon="2.37915">
        <ele>194.9</ele>
        <time>2021-10-21T08:36:16.000Z</time>
      </trkpt>
      <trkpt lat="43.94668" lon="2.37915">
        <ele>194.9</ele>
        <time>2021-10-21T08:36:17.000Z</time>
      </trkpt>
      <trkpt lat="43.94668" lon="2.37915">
        <ele>194.8</ele>
        <time>2021-10-21T08:36:20.000Z</time>
      </trkpt>
      <trkpt lat="43.94668" lon="2.37914">
        <ele>194.8</ele>
        <time>2021-10-21T08:36:21.000Z</time>
      </trkpt>
      <trkpt lat="43.94668" lon="2.37914">
        <ele>194.9</ele>
        <time>2021-10-21T08:36:23.000Z</time>
      </trkpt>
      <trkpt lat="43.94669" lon="2.37913">
        <ele>194.6</ele>
        <time>2021-10-21T08:36:30.000Z</time>
      </trkpt>
      <trkpt lat="43.9467" lon="2.37912">
        <ele>194.6</ele>
        <time>2021-10-21T08:36:36.000Z</time>
      </trkpt>
      <trkpt lat="43.9467" lon="2.37911">
        <ele>195</ele>
        <time>2021-10-21T08:36:42.000Z</time>
      </trkpt>
      <trkpt lat="43.9467" lon="2.37911">
        <ele>195</ele>
        <time>2021-10-21T08:36:43.000Z</time>
      </trkpt>
      <trkpt lat="43.94668" lon="2.37914">
        <ele>195.1</ele>
        <time>2021-10-21T08:36:52.000Z</time>
      </trkpt>
      <trkpt lat="43.94668" lon="2.37914">
        <ele>195.2</ele>
        <time>2021-10-21T08:37:19.000Z</time>
      </trkpt>
      <trkpt lat="43.94668" lon="2.37914">
        <ele>195.2</ele>
        <time>2021-10-21T08:37:20.000Z</time>
      </trkpt>
      <trkpt lat="43.94668" lon="2.37914">
        <ele>195.2</ele>
        <time>2021-10-21T08:37:22.000Z</time>
      </trkpt>
      <trkpt lat="43.94667" lon="2.37914">
        <ele>195.2</ele>
        <time>2021-10-21T08:37:24.000Z</time>
      </trkpt>
      <trkpt lat="43.94667" lon="2.37914">
        <ele>195.1</ele>
        <time>2021-10-21T08:39:09.000Z</time>
      </trkpt>
      <trkpt lat="43.94667" lon="2.37915">
        <ele>195.2</ele>
        <time>2021-10-21T08:39:12.000Z</time>
      </trkpt>
      <trkpt lat="43.94667" lon="2.37915">
        <ele>195.2</ele>
        <time>2021-10-21T08:39:13.000Z</time>
      </trkpt>
      <trkpt lat="43.94667" lon="2.37914">
        <ele>195.4</ele>
        <time>2021-10-21T08:39:16.000Z</time>
      </trkpt>
      <trkpt lat="43.94666" lon="2.37914">
        <ele>195.3</ele>
        <time>2021-10-21T08:39:17.000Z</time>
      </trkpt>
      <trkpt lat="43.94666" lon="2.37914">
        <ele>195.3</ele>
        <time>2021-10-21T08:39:18.000Z</time>
      </trkpt>
      <trkpt lat="43.94666" lon="2.37914">
        <ele>195.3</ele>
        <time>2021-10-21T08:39:19.000Z</time>
      </trkpt>
      <trkpt lat="43.94667" lon="2.37914">
        <ele>195.3</ele>
        <time>2021-10-21T08:39:21.000Z</time>
      </trkpt>
      <trkpt lat="43.94667" lon="2.37914">
        <ele>195.2</ele>
        <time>2021-10-21T08:39:22.000Z</time>
      </trkpt>
      <trkpt lat="43.94667" lon="2.37915">
        <ele>195.3</ele>
        <time>2021-10-21T08:39:26.000Z</time>
      </trkpt>
      <trkpt lat="43.94667" lon="2.37915">
        <ele>195.3</ele>
        <time>2021-10-21T08:39:27.000Z</time>
      </trkpt>
      <trkpt lat="43.94667" lon="2.37914">
        <ele>195.3</ele>
        <time>2021-10-21T08:39:30.000Z</time>
      </trkpt>
      <trkpt lat="43.94666" lon="2.37915">
        <ele>195.3</ele>
        <time>2021-10-21T08:39:31.000Z</time>
      </trkpt>
      <trkpt lat="43.94667" lon="2.37915">
        <ele>195.3</ele>
        <time>2021-10-21T08:39:35.000Z</time>
      </trkpt>
      <trkpt lat="43.94667" lon="2.37914">
        <ele>195.4</ele>
        <time>2021-10-21T08:39:36.000Z</time>
      </trkpt>
      <trkpt lat="43.94668" lon="2.37914">
        <ele>195.5</ele>
        <time>2021-10-21T08:39:39.000Z</time>
      </trkpt>
      <trkpt lat="43.94667" lon="2.37913">
        <ele>195.6</ele>
        <time>2021-10-21T08:39:40.000Z</time>
      </trkpt>
      <trkpt lat="43.94668" lon="2.37913">
        <ele>195.6</ele>
        <time>2021-10-21T08:39:43.000Z</time>
      </trkpt>
      <trkpt lat="43.94668" lon="2.37913">
        <ele>195.5</ele>
        <time>2021-10-21T08:39:44.000Z</time>
      </trkpt>
      <trkpt lat="43.94668" lon="2.37913">
        <ele>195.3</ele>
        <time>2021-10-21T08:39:47.000Z</time>
      </trkpt>
      <trkpt lat="43.94668" lon="2.37912">
        <ele>195.5</ele>
        <time>2021-10-21T08:39:48.000Z</time>
      </trkpt>
      <trkpt lat="43.94668" lon="2.37912">
        <ele>195.5</ele>
        <time>2021-10-21T08:39:49.000Z</time>
      </trkpt>
      <trkpt lat="43.94668" lon="2.37913">
        <ele>195.6</ele>
        <time>2021-10-21T08:39:52.000Z</time>
      </trkpt>
      <trkpt lat="43.94668" lon="2.37913">
        <ele>195.6</ele>
        <time>2021-10-21T08:39:53.000Z</time>
      </trkpt>
      <trkpt lat="43.94668" lon="2.37912">
        <ele>195.7</ele>
        <time>2021-10-21T08:40:04.000Z</time>
      </trkpt>
      <trkpt lat="43.94668" lon="2.37912">
        <ele>195.6</ele>
        <time>2021-10-21T08:40:05.000Z</time>
      </trkpt>
      <trkpt lat="43.94668" lon="2.37913">
        <ele>195.6</ele>
        <time>2021-10-21T08:40:07.000Z</time>
      </trkpt>
      <trkpt lat="43.94661" lon="2.37922">
        <ele>194.2</ele>
        <time>2021-10-21T08:40:24.000Z</time>
      </trkpt>
      <trkpt lat="43.94661" lon="2.37924">
        <ele>193.9</ele>
        <time>2021-10-21T08:40:26.000Z</time>
      </trkpt>
      <trkpt lat="43.94661" lon="2.37924">
        <ele>193.7</ele>
        <time>2021-10-21T08:40:27.000Z</time>
      </trkpt>
      <trkpt lat="43.94654" lon="2.37934">
        <ele>193.5</ele>
        <time>2021-10-21T08:40:36.000Z</time>
      </trkpt>
      <trkpt lat="43.94649" lon="2.37945">
        <ele>193.8</ele>
        <time>2021-10-21T08:40:44.000Z</time>
      </trkpt>
      <trkpt lat="43.94643" lon="2.37956">
        <ele>194.1</ele>
        <time>2021-10-21T08:40:53.000Z</time>
      </trkpt>
      <trkpt lat="43.94639" lon="2.37963">
        <ele>194.2</ele>
        <time>2021-10-21T08:41:02.000Z</time>
      </trkpt>
      <trkpt lat="43.94639" lon="2.37963">
        <ele>194.3</ele>
        <time>2021-10-21T08:41:04.000Z</time>
      </trkpt>
      <trkpt lat="43.94635" lon="2.37968">
        <ele>194.5</ele>
        <time>2021-10-21T08:41:11.000Z</time>
      </trkpt>
      <trkpt lat="43.94635" lon="2.37968">
        <ele>194.6</ele>
        <time>2021-10-21T08:41:16.000Z</time>
      </trkpt>
      <trkpt lat="43.94629" lon="2.37979">
        <ele>194.1</ele>
        <time>2021-10-21T08:41:25.000Z</time>
      </trkpt>
      <trkpt lat="43.94623" lon="2.37989">
        <ele>193.9</ele>
        <time>2021-10-21T08:41:34.000Z</time>
      </trkpt>
      <trkpt lat="43.94618" lon="2.37999">
        <ele>194.2</ele>
        <time>2021-10-21T08:41:43.000Z</time>
      </trkpt>
      <trkpt lat="43.94617" lon="2.38002">
        <ele>194.6</ele>
        <time>2021-10-21T08:41:47.000Z</time>
      </trkpt>
      <trkpt lat="43.94617" lon="2.38002">
        <ele>194.5</ele>
        <time>2021-10-21T08:41:54.000Z</time>
      </trkpt>
      <trkpt lat="43.94617" lon="2.38003">
        <ele>195</ele>
        <time>2021-10-21T08:41:59.000Z</time>
      </trkpt>
      <trkpt lat="43.94617" lon="2.38003">
        <ele>195.1</ele>
        <time>2021-10-21T08:42:01.000Z</time>
      </trkpt>
      <trkpt lat="43.94617" lon="2.38003">
        <ele>195.1</ele>
        <time>2021-10-21T08:42:02.000Z</time>
      </trkpt>
      <trkpt lat="43.94617" lon="2.38003">
        <ele>195.1</ele>
        <time>2021-10-21T08:42:04.000Z</time>
      </trkpt>
      <trkpt lat="43.94617" lon="2.38003">
        <ele>195</ele>
        <time>2021-10-21T08:42:05.000Z</time>
      </trkpt>
      <trkpt lat="43.94616" lon="2.38004">
        <ele>194.9</ele>
        <time>2021-10-21T08:42:06.000Z</time>
      </trkpt>
      <trkpt lat="43.94614" lon="2.38008">
        <ele>195.5</ele>
        <time>2021-10-21T08:42:13.000Z</time>
      </trkpt>
      <trkpt lat="43.94614" lon="2.38009">
        <ele>195.4</ele>
        <time>2021-10-21T08:42:14.000Z</time>
      </trkpt>
      <trkpt lat="43.94609" lon="2.38015">
        <ele>195.5</ele>
        <time>2021-10-21T08:42:25.000Z</time>
      </trkpt>
      <trkpt lat="43.94609" lon="2.38015">
        <ele>195.7</ele>
        <time>2021-10-21T08:42:27.000Z</time>
      </trkpt>
      <trkpt lat="43.94603" lon="2.38024">
        <ele>197.1</ele>
        <time>2021-10-21T08:42:40.000Z</time>
      </trkpt>
      <trkpt lat="43.94603" lon="2.38024">
        <ele>197.2</ele>
        <time>2021-10-21T08:42:52.000Z</time>
      </trkpt>
      <trkpt lat="43.94598" lon="2.38036">
        <ele>197.1</ele>
        <time>2021-10-21T08:43:01.000Z</time>
      </trkpt>
      <trkpt lat="43.94596" lon="2.38041">
        <ele>197.7</ele>
        <time>2021-10-21T08:43:11.000Z</time>
      </trkpt>
      <trkpt lat="43.94596" lon="2.3804">
        <ele>197.7</ele>
        <time>2021-10-21T08:43:12.000Z</time>
      </trkpt>
      <trkpt lat="43.94596" lon="2.3804">
        <ele>197.7</ele>
        <time>2021-10-21T08:43:13.000Z</time>
      </trkpt>
      <trkpt lat="43.94596" lon="2.3804">
        <ele>197.7</ele>
        <time>2021-10-21T08:43:15.000Z</time>
      </trkpt>
      <trkpt lat="43.94594" lon="2.38034">
        <ele>198.4</ele>
        <time>2021-10-21T08:43:25.000Z</time>
      </trkpt>
      <trkpt lat="43.94594" lon="2.38034">
        <ele>198.4</ele>
        <time>2021-10-21T08:43:27.000Z</time>
      </trkpt>
      <trkpt lat="43.94594" lon="2.38034">
        <ele>198.4</ele>
        <time>2021-10-21T08:43:28.000Z</time>
      </trkpt>
      <trkpt lat="43.94594" lon="2.38033">
        <ele>198.3</ele>
        <time>2021-10-21T08:43:30.000Z</time>
      </trkpt>
      <trkpt lat="43.94594" lon="2.38033">
        <ele>198.4</ele>
        <time>2021-10-21T08:43:33.000Z</time>
      </trkpt>
      <trkpt lat="43.94594" lon="2.38033">
        <ele>198.4</ele>
        <time>2021-10-21T08:43:41.000Z</time>
      </trkpt>
      <trkpt lat="43.94594" lon="2.38035">
        <ele>198.3</ele>
        <time>2021-10-21T08:43:44.000Z</time>
      </trkpt>
      <trkpt lat="43.94594" lon="2.38035">
        <ele>198.2</ele>
        <time>2021-10-21T08:43:45.000Z</time>
      </trkpt>
      <trkpt lat="43.94589" lon="2.38046">
        <ele>197.7</ele>
        <time>2021-10-21T08:43:58.000Z</time>
      </trkpt>
      <trkpt lat="43.94588" lon="2.38046">
        <ele>197.8</ele>
        <time>2021-10-21T08:44:02.000Z</time>
      </trkpt>
      <trkpt lat="43.94588" lon="2.38046">
        <ele>197.9</ele>
        <time>2021-10-21T08:44:03.000Z</time>
      </trkpt>
      <trkpt lat="43.94579" lon="2.38052">
        <ele>198</ele>
        <time>2021-10-21T08:44:13.000Z</time>
      </trkpt>
      <trkpt lat="43.9457" lon="2.38055">
        <ele>198.9</ele>
        <time>2021-10-21T08:44:22.000Z</time>
      </trkpt>
      <trkpt lat="43.94561" lon="2.38055">
        <ele>199.8</ele>
        <time>2021-10-21T08:44:31.000Z</time>
      </trkpt>
      <trkpt lat="43.94551" lon="2.38058">
        <ele>200.6</ele>
        <time>2021-10-21T08:44:40.000Z</time>
      </trkpt>
      <trkpt lat="43.94549" lon="2.3806">
        <ele>200.9</ele>
        <time>2021-10-21T08:44:47.000Z</time>
      </trkpt>
      <trkpt lat="43.9455" lon="2.3806">
        <ele>200.9</ele>
        <time>2021-10-21T08:44:51.000Z</time>
      </trkpt>
      <trkpt lat="43.94544" lon="2.38071">
        <ele>201.8</ele>
        <time>2021-10-21T08:45:08.000Z</time>
      </trkpt>
      <trkpt lat="43.94538" lon="2.38081">
        <ele>201.8</ele>
        <time>2021-10-21T08:45:17.000Z</time>
      </trkpt>
      <trkpt lat="43.94533" lon="2.38092">
        <ele>202.4</ele>
        <time>2021-10-21T08:45:24.000Z</time>
      </trkpt>
      <trkpt lat="43.94526" lon="2.38102">
        <ele>203</ele>
        <time>2021-10-21T08:45:35.000Z</time>
      </trkpt>
      <trkpt lat="43.94526" lon="2.38101">
        <ele>202.9</ele>
        <time>2021-10-21T08:45:37.000Z</time>
      </trkpt>
      <trkpt lat="43.94526" lon="2.38102">
        <ele>202.9</ele>
        <time>2021-10-21T08:45:39.000Z</time>
      </trkpt>
      <trkpt lat="43.94532" lon="2.38092">
        <ele>203.6</ele>
        <time>2021-10-21T08:45:49.000Z</time>
      </trkpt>
      <trkpt lat="43.94535" lon="2.3808">
        <ele>203.3</ele>
        <time>2021-10-21T08:45:59.000Z</time>
      </trkpt>
      <trkpt lat="43.94542" lon="2.38072">
        <ele>203.6</ele>
        <time>2021-10-21T08:46:08.000Z</time>
      </trkpt>
      <trkpt lat="43.94548" lon="2.38062">
        <ele>203.8</ele>
        <time>2021-10-21T08:46:18.000Z</time>
      </trkpt>
      <trkpt lat="43.94541" lon="2.38055">
        <ele>203.7</ele>
        <time>2021-10-21T08:46:27.000Z</time>
      </trkpt>
      <trkpt lat="43.94531" lon="2.38054">
        <ele>204</ele>
        <time>2021-10-21T08:46:37.000Z</time>
      </trkpt>
      <trkpt lat="43.94521" lon="2.38053">
        <ele>204.1</ele>
        <time>2021-10-21T08:46:46.000Z</time>
      </trkpt>
      <trkpt lat="43.94512" lon="2.38052">
        <ele>204.8</ele>
        <time>2021-10-21T08:46:55.000Z</time>
      </trkpt>
      <trkpt lat="43.94503" lon="2.38051">
        <ele>204.8</ele>
        <time>2021-10-21T08:47:03.000Z</time>
      </trkpt>
      <trkpt lat="43.94493" lon="2.38052">
        <ele>205.3</ele>
        <time>2021-10-21T08:47:12.000Z</time>
      </trkpt>
      <trkpt lat="43.94484" lon="2.38057">
        <ele>205.8</ele>
        <time>2021-10-21T08:47:22.000Z</time>
      </trkpt>
      <trkpt lat="43.94475" lon="2.38063">
        <ele>206.5</ele>
        <time>2021-10-21T08:47:31.000Z</time>
      </trkpt>
      <trkpt lat="43.94468" lon="2.3807">
        <ele>207</ele>
        <time>2021-10-21T08:47:39.000Z</time>
      </trkpt>
      <trkpt lat="43.9446" lon="2.38078">
        <ele>207.7</ele>
        <time>2021-10-21T08:47:48.000Z</time>
      </trkpt>
      <trkpt lat="43.94452" lon="2.38085">
        <ele>208.6</ele>
        <time>2021-10-21T08:47:57.000Z</time>
      </trkpt>
      <trkpt lat="43.94444" lon="2.38093">
        <ele>208.9</ele>
        <time>2021-10-21T08:48:06.000Z</time>
      </trkpt>
      <trkpt lat="43.94437" lon="2.38102">
        <ele>208.8</ele>
        <time>2021-10-21T08:48:18.000Z</time>
      </trkpt>
      <trkpt lat="43.94435" lon="2.38115">
        <ele>209.3</ele>
        <time>2021-10-21T08:48:29.000Z</time>
      </trkpt>
      <trkpt lat="43.9443" lon="2.38127">
        <ele>209.8</ele>
        <time>2021-10-21T08:48:41.000Z</time>
      </trkpt>
      <trkpt lat="43.94426" lon="2.38134">
        <ele>210.7</ele>
        <time>2021-10-21T08:48:53.000Z</time>
      </trkpt>
      <trkpt lat="43.94426" lon="2.38134">
        <ele>210.6</ele>
        <time>2021-10-21T08:48:54.000Z</time>
      </trkpt>
      <trkpt lat="43.94421" lon="2.38146">
        <ele>211.4</ele>
        <time>2021-10-21T08:49:08.000Z</time>
      </trkpt>
      <trkpt lat="43.9442" lon="2.38158">
        <ele>212.6</ele>
        <time>2021-10-21T08:49:21.000Z</time>
      </trkpt>
      <trkpt lat="43.94419" lon="2.38172">
        <ele>214.4</ele>
        <time>2021-10-21T08:49:35.000Z</time>
      </trkpt>
      <trkpt lat="43.94414" lon="2.38183">
        <ele>215.7</ele>
        <time>2021-10-21T08:49:47.000Z</time>
      </trkpt>
      <trkpt lat="43.94413" lon="2.38196">
        <ele>218</ele>
        <time>2021-10-21T08:50:04.000Z</time>
      </trkpt>
      <trkpt lat="43.94409" lon="2.38208">
        <ele>220</ele>
        <time>2021-10-21T08:50:17.000Z</time>
      </trkpt>
      <trkpt lat="43.94407" lon="2.38221">
        <ele>221.6</ele>
        <time>2021-10-21T08:50:29.000Z</time>
      </trkpt>
      <trkpt lat="43.9441" lon="2.38233">
        <ele>222.8</ele>
        <time>2021-10-21T08:50:41.000Z</time>
      </trkpt>
      <trkpt lat="43.94416" lon="2.38243">
        <ele>224.8</ele>
        <time>2021-10-21T08:50:55.000Z</time>
      </trkpt>
      <trkpt lat="43.94422" lon="2.38253">
        <ele>225.9</ele>
        <time>2021-10-21T08:51:11.000Z</time>
      </trkpt>
      <trkpt lat="43.94429" lon="2.38262">
        <ele>227.1</ele>
        <time>2021-10-21T08:51:22.000Z</time>
      </trkpt>
      <trkpt lat="43.94434" lon="2.38272">
        <ele>228.7</ele>
        <time>2021-10-21T08:51:33.000Z</time>
      </trkpt>
      <trkpt lat="43.94439" lon="2.38279">
        <ele>230.6</ele>
        <time>2021-10-21T08:51:48.000Z</time>
      </trkpt>
      <trkpt lat="43.94439" lon="2.38279">
        <ele>230.7</ele>
        <time>2021-10-21T08:51:49.000Z</time>
      </trkpt>
      <trkpt lat="43.94445" lon="2.3829">
        <ele>231.2</ele>
        <time>2021-10-21T08:52:00.000Z</time>
      </trkpt>
      <trkpt lat="43.9445" lon="2.38301">
        <ele>230.7</ele>
        <time>2021-10-21T08:52:09.000Z</time>
      </trkpt>
      <trkpt lat="43.94455" lon="2.38312">
        <ele>232.4</ele>
        <time>2021-10-21T08:52:19.000Z</time>
      </trkpt>
      <trkpt lat="43.94461" lon="2.38323">
        <ele>234.7</ele>
        <time>2021-10-21T08:52:35.000Z</time>
      </trkpt>
      <trkpt lat="43.94465" lon="2.38335">
        <ele>235.9</ele>
        <time>2021-10-21T08:52:44.000Z</time>
      </trkpt>
      <trkpt lat="43.94472" lon="2.38345">
        <ele>238.6</ele>
        <time>2021-10-21T08:52:55.000Z</time>
      </trkpt>
      <trkpt lat="43.94479" lon="2.38352">
        <ele>238.8</ele>
        <time>2021-10-21T08:53:07.000Z</time>
      </trkpt>
      <trkpt lat="43.94486" lon="2.3836">
        <ele>240</ele>
        <time>2021-10-21T08:53:18.000Z</time>
      </trkpt>
      <trkpt lat="43.94492" lon="2.3837">
        <ele>241.3</ele>
        <time>2021-10-21T08:53:28.000Z</time>
      </trkpt>
      <trkpt lat="43.94483" lon="2.38367">
        <ele>243.3</ele>
        <time>2021-10-21T08:53:58.000Z</time>
      </trkpt>
      <trkpt lat="43.94474" lon="2.38363">
        <ele>244.4</ele>
        <time>2021-10-21T08:54:09.000Z</time>
      </trkpt>
      <trkpt lat="43.94465" lon="2.38357">
        <ele>245.5</ele>
        <time>2021-10-21T08:54:19.000Z</time>
      </trkpt>
      <trkpt lat="43.94456" lon="2.38357">
        <ele>246.6</ele>
        <time>2021-10-21T08:54:27.000Z</time>
      </trkpt>
      <trkpt lat="43.94448" lon="2.38361">
        <ele>248.2</ele>
        <time>2021-10-21T08:54:36.000Z</time>
      </trkpt>
      <trkpt lat="43.94443" lon="2.38373">
        <ele>249.3</ele>
        <time>2021-10-21T08:54:50.000Z</time>
      </trkpt>
      <trkpt lat="43.94438" lon="2.38384">
        <ele>250.3</ele>
        <time>2021-10-21T08:54:59.000Z</time>
      </trkpt>
      <trkpt lat="43.94434" lon="2.38396">
        <ele>251.1</ele>
        <time>2021-10-21T08:55:08.000Z</time>
      </trkpt>
      <trkpt lat="43.94437" lon="2.3841">
        <ele>251.5</ele>
        <time>2021-10-21T08:55:18.000Z</time>
      </trkpt>
      <trkpt lat="43.94444" lon="2.3842">
        <ele>252.7</ele>
        <time>2021-10-21T08:55:29.000Z</time>
      </trkpt>
      <trkpt lat="43.94449" lon="2.38431">
        <ele>252.9</ele>
        <time>2021-10-21T08:55:39.000Z</time>
      </trkpt>
      <trkpt lat="43.94454" lon="2.38442">
        <ele>252.3</ele>
        <time>2021-10-21T08:55:47.000Z</time>
      </trkpt>
      <trkpt lat="43.94458" lon="2.38454">
        <ele>252.9</ele>
        <time>2021-10-21T08:55:57.000Z</time>
      </trkpt>
      <trkpt lat="43.94464" lon="2.38465">
        <ele>254.4</ele>
        <time>2021-10-21T08:56:06.000Z</time>
      </trkpt>
      <trkpt lat="43.9447" lon="2.38475">
        <ele>256.5</ele>
        <time>2021-10-21T08:56:16.000Z</time>
      </trkpt>
      <trkpt lat="43.94477" lon="2.38483">
        <ele>258.1</ele>
        <time>2021-10-21T08:56:28.000Z</time>
      </trkpt>
      <trkpt lat="43.94485" lon="2.38489">
        <ele>259.6</ele>
        <time>2021-10-21T08:56:37.000Z</time>
      </trkpt>
      <trkpt lat="43.94491" lon="2.38498">
        <ele>260.9</ele>
        <time>2021-10-21T08:56:48.000Z</time>
      </trkpt>
      <trkpt lat="43.945" lon="2.38503">
        <ele>261.3</ele>
        <time>2021-10-21T08:57:00.000Z</time>
      </trkpt>
      <trkpt lat="43.94509" lon="2.38509">
        <ele>261.5</ele>
        <time>2021-10-21T08:57:11.000Z</time>
      </trkpt>
      <trkpt lat="43.94515" lon="2.38519">
        <ele>262.4</ele>
        <time>2021-10-21T08:57:24.000Z</time>
      </trkpt>
      <trkpt lat="43.94523" lon="2.38526">
        <ele>263.7</ele>
        <time>2021-10-21T08:57:35.000Z</time>
      </trkpt>
      <trkpt lat="43.94529" lon="2.38535">
        <ele>265.7</ele>
        <time>2021-10-21T08:57:53.000Z</time>
      </trkpt>
      <trkpt lat="43.94537" lon="2.38542">
        <ele>267.4</ele>
        <time>2021-10-21T08:58:06.000Z</time>
      </trkpt>
      <trkpt lat="43.94545" lon="2.38548">
        <ele>268.6</ele>
        <time>2021-10-21T08:58:16.000Z</time>
      </trkpt>
      <trkpt lat="43.94554" lon="2.38552">
        <ele>271.3</ele>
        <time>2021-10-21T08:58:29.000Z</time>
      </trkpt>
      <trkpt lat="43.94562" lon="2.38558">
        <ele>272.7</ele>
        <time>2021-10-21T08:58:39.000Z</time>
      </trkpt>
      <trkpt lat="43.9457" lon="2.38564">
        <ele>272.5</ele>
        <time>2021-10-21T08:58:48.000Z</time>
      </trkpt>
      <trkpt lat="43.94578" lon="2.3857">
        <ele>272.9</ele>
        <time>2021-10-21T08:58:58.000Z</time>
      </trkpt>
      <trkpt lat="43.94585" lon="2.3858">
        <ele>272.6</ele>
        <time>2021-10-21T08:59:09.000Z</time>
      </trkpt>
      <trkpt lat="43.9459" lon="2.3859">
        <ele>271.9</ele>
        <time>2021-10-21T08:59:19.000Z</time>
      </trkpt>
      <trkpt lat="43.94596" lon="2.38601">
        <ele>272.4</ele>
        <time>2021-10-21T08:59:29.000Z</time>
      </trkpt>
      <trkpt lat="43.946" lon="2.38614">
        <ele>272.8</ele>
        <time>2021-10-21T08:59:39.000Z</time>
      </trkpt>
      <trkpt lat="43.94605" lon="2.38624">
        <ele>273.6</ele>
        <time>2021-10-21T08:59:50.000Z</time>
      </trkpt>
      <trkpt lat="43.94611" lon="2.38635">
        <ele>274.3</ele>
        <time>2021-10-21T09:00:00.000Z</time>
      </trkpt>
      <trkpt lat="43.9462" lon="2.38642">
        <ele>275.1</ele>
        <time>2021-10-21T09:00:11.000Z</time>
      </trkpt>
      <trkpt lat="43.94626" lon="2.38651">
        <ele>276.5</ele>
        <time>2021-10-21T09:00:21.000Z</time>
      </trkpt>
      <trkpt lat="43.94635" lon="2.38656">
        <ele>279</ele>
        <time>2021-10-21T09:00:36.000Z</time>
      </trkpt>
      <trkpt lat="43.94638" lon="2.38659">
        <ele>280.3</ele>
        <time>2021-10-21T09:00:43.000Z</time>
      </trkpt>
      <trkpt lat="43.94638" lon="2.3866">
        <ele>280.4</ele>
        <time>2021-10-21T09:00:44.000Z</time>
      </trkpt>
      <trkpt lat="43.94643" lon="2.3867">
        <ele>282.7</ele>
        <time>2021-10-21T09:01:00.000Z</time>
      </trkpt>
      <trkpt lat="43.94649" lon="2.3868">
        <ele>283.2</ele>
        <time>2021-10-21T09:01:13.000Z</time>
      </trkpt>
      <trkpt lat="43.94654" lon="2.38692">
        <ele>284.7</ele>
        <time>2021-10-21T09:01:26.000Z</time>
      </trkpt>
      <trkpt lat="43.94654" lon="2.38692">
        <ele>285.3</ele>
        <time>2021-10-21T09:01:29.000Z</time>
      </trkpt>
      <trkpt lat="43.94654" lon="2.38693">
        <ele>285.5</ele>
        <time>2021-10-21T09:01:31.000Z</time>
      </trkpt>
      <trkpt lat="43.94657" lon="2.38705">
        <ele>287.4</ele>
        <time>2021-10-21T09:01:43.000Z</time>
      </trkpt>
      <trkpt lat="43.94659" lon="2.38713">
        <ele>289.6</ele>
        <time>2021-10-21T09:01:54.000Z</time>
      </trkpt>
      <trkpt lat="43.94659" lon="2.38713">
        <ele>289.8</ele>
        <time>2021-10-21T09:01:58.000Z</time>
      </trkpt>
      <trkpt lat="43.94661" lon="2.38715">
        <ele>290.9</ele>
        <time>2021-10-21T09:02:04.000Z</time>
      </trkpt>
      <trkpt lat="43.94661" lon="2.38715">
        <ele>291</ele>
        <time>2021-10-21T09:02:05.000Z</time>
      </trkpt>
      <trkpt lat="43.94661" lon="2.38715">
        <ele>291</ele>
        <time>2021-10-21T09:02:06.000Z</time>
      </trkpt>
      <trkpt lat="43.94661" lon="2.38715">
        <ele>291.1</ele>
        <time>2021-10-21T09:02:11.000Z</time>
      </trkpt>
      <trkpt lat="43.94661" lon="2.38715">
        <ele>291.1</ele>
        <time>2021-10-21T09:02:12.000Z</time>
      </trkpt>
      <trkpt lat="43.94661" lon="2.38715">
        <ele>291.1</ele>
        <time>2021-10-21T09:02:32.000Z</time>
      </trkpt>
      <trkpt lat="43.94662" lon="2.38715">
        <ele>291.2</ele>
        <time>2021-10-21T09:02:36.000Z</time>
      </trkpt>
      <trkpt lat="43.94662" lon="2.38715">
        <ele>291.3</ele>
        <time>2021-10-21T09:02:41.000Z</time>
      </trkpt>
      <trkpt lat="43.94666" lon="2.38717">
        <ele>292.1</ele>
        <time>2021-10-21T09:02:52.000Z</time>
      </trkpt>
      <trkpt lat="43.94666" lon="2.38717">
        <ele>292</ele>
        <time>2021-10-21T09:03:00.000Z</time>
      </trkpt>
      <trkpt lat="43.94675" lon="2.38722">
        <ele>292</ele>
        <time>2021-10-21T09:03:10.000Z</time>
      </trkpt>
      <trkpt lat="43.94683" lon="2.3873">
        <ele>292.5</ele>
        <time>2021-10-21T09:03:22.000Z</time>
      </trkpt>
      <trkpt lat="43.9469" lon="2.38738">
        <ele>292.5</ele>
        <time>2021-10-21T09:03:33.000Z</time>
      </trkpt>
      <trkpt lat="43.94696" lon="2.38747">
        <ele>293.3</ele>
        <time>2021-10-21T09:03:43.000Z</time>
      </trkpt>
      <trkpt lat="43.947" lon="2.38759">
        <ele>293.9</ele>
        <time>2021-10-21T09:03:54.000Z</time>
      </trkpt>
      <trkpt lat="43.94705" lon="2.3877">
        <ele>294.8</ele>
        <time>2021-10-21T09:04:04.000Z</time>
      </trkpt>
      <trkpt lat="43.94709" lon="2.38783">
        <ele>297.3</ele>
        <time>2021-10-21T09:04:17.000Z</time>
      </trkpt>
      <trkpt lat="43.94712" lon="2.38795">
        <ele>298.8</ele>
        <time>2021-10-21T09:04:28.000Z</time>
      </trkpt>
      <trkpt lat="43.94712" lon="2.38808">
        <ele>300.1</ele>
        <time>2021-10-21T09:04:39.000Z</time>
      </trkpt>
      <trkpt lat="43.94711" lon="2.38821">
        <ele>302.6</ele>
        <time>2021-10-21T09:04:51.000Z</time>
      </trkpt>
      <trkpt lat="43.94711" lon="2.38834">
        <ele>304.9</ele>
        <time>2021-10-21T09:05:04.000Z</time>
      </trkpt>
      <trkpt lat="43.94713" lon="2.38847">
        <ele>305.1</ele>
        <time>2021-10-21T09:05:17.000Z</time>
      </trkpt>
      <trkpt lat="43.94714" lon="2.3886">
        <ele>305.2</ele>
        <time>2021-10-21T09:05:30.000Z</time>
      </trkpt>
      <trkpt lat="43.94714" lon="2.38873">
        <ele>307.1</ele>
        <time>2021-10-21T09:05:44.000Z</time>
      </trkpt>
      <trkpt lat="43.94716" lon="2.38886">
        <ele>310.1</ele>
        <time>2021-10-21T09:05:59.000Z</time>
      </trkpt>
      <trkpt lat="43.94715" lon="2.38894">
        <ele>312.1</ele>
        <time>2021-10-21T09:06:09.000Z</time>
      </trkpt>
      <trkpt lat="43.94716" lon="2.38895">
        <ele>312.2</ele>
        <time>2021-10-21T09:06:11.000Z</time>
      </trkpt>
      <trkpt lat="43.9472" lon="2.38907">
        <ele>313</ele>
        <time>2021-10-21T09:06:23.000Z</time>
      </trkpt>
      <trkpt lat="43.94724" lon="2.38918">
        <ele>314.8</ele>
        <time>2021-10-21T09:06:35.000Z</time>
      </trkpt>
      <trkpt lat="43.94728" lon="2.38931">
        <ele>315.4</ele>
        <time>2021-10-21T09:06:54.000Z</time>
      </trkpt>
      <trkpt lat="43.94734" lon="2.3894">
        <ele>316.6</ele>
        <time>2021-10-21T09:07:06.000Z</time>
      </trkpt>
      <trkpt lat="43.94739" lon="2.38952">
        <ele>317.6</ele>
        <time>2021-10-21T09:07:18.000Z</time>
      </trkpt>
      <trkpt lat="43.94741" lon="2.38964">
        <ele>318.4</ele>
        <time>2021-10-21T09:07:29.000Z</time>
      </trkpt>
      <trkpt lat="43.94743" lon="2.38977">
        <ele>320.5</ele>
        <time>2021-10-21T09:07:41.000Z</time>
      </trkpt>
      <trkpt lat="43.94741" lon="2.3899">
        <ele>322</ele>
        <time>2021-10-21T09:07:57.000Z</time>
      </trkpt>
      <trkpt lat="43.94742" lon="2.39004">
        <ele>322.6</ele>
        <time>2021-10-21T09:08:06.000Z</time>
      </trkpt>
      <trkpt lat="43.94744" lon="2.39017">
        <ele>323.8</ele>
        <time>2021-10-21T09:08:15.000Z</time>
      </trkpt>
      <trkpt lat="43.94746" lon="2.39027">
        <ele>324.8</ele>
        <time>2021-10-21T09:08:26.000Z</time>
      </trkpt>
      <trkpt lat="43.94746" lon="2.39027">
        <ele>324.7</ele>
        <time>2021-10-21T09:08:27.000Z</time>
      </trkpt>
      <trkpt lat="43.94751" lon="2.3904">
        <ele>324.8</ele>
        <time>2021-10-21T09:08:38.000Z</time>
      </trkpt>
      <trkpt lat="43.94756" lon="2.39051">
        <ele>324.3</ele>
        <time>2021-10-21T09:08:45.000Z</time>
      </trkpt>
      <trkpt lat="43.94759" lon="2.39064">
        <ele>324.7</ele>
        <time>2021-10-21T09:08:53.000Z</time>
      </trkpt>
      <trkpt lat="43.94762" lon="2.39077">
        <ele>325.4</ele>
        <time>2021-10-21T09:09:03.000Z</time>
      </trkpt>
      <trkpt lat="43.94763" lon="2.39091">
        <ele>326.2</ele>
        <time>2021-10-21T09:09:14.000Z</time>
      </trkpt>
      <trkpt lat="43.94766" lon="2.39103">
        <ele>327.1</ele>
        <time>2021-10-21T09:09:26.000Z</time>
      </trkpt>
      <trkpt lat="43.9477" lon="2.39115">
        <ele>328</ele>
        <time>2021-10-21T09:09:36.000Z</time>
      </trkpt>
      <trkpt lat="43.9477" lon="2.39116">
        <ele>328</ele>
        <time>2021-10-21T09:09:39.000Z</time>
      </trkpt>
      <trkpt lat="43.9477" lon="2.39117">
        <ele>328.1</ele>
        <time>2021-10-21T09:09:40.000Z</time>
      </trkpt>
      <trkpt lat="43.94773" lon="2.39129">
        <ele>328.9</ele>
        <time>2021-10-21T09:09:51.000Z</time>
      </trkpt>
      <trkpt lat="43.94776" lon="2.39141">
        <ele>329.6</ele>
        <time>2021-10-21T09:10:01.000Z</time>
      </trkpt>
      <trkpt lat="43.94779" lon="2.39154">
        <ele>331.5</ele>
        <time>2021-10-21T09:10:12.000Z</time>
      </trkpt>
      <trkpt lat="43.94779" lon="2.39153">
        <ele>331.6</ele>
        <time>2021-10-21T09:10:14.000Z</time>
      </trkpt>
      <trkpt lat="43.94779" lon="2.39154">
        <ele>331.7</ele>
        <time>2021-10-21T09:10:15.000Z</time>
      </trkpt>
      <trkpt lat="43.94783" lon="2.39166">
        <ele>332.4</ele>
        <time>2021-10-21T09:10:25.000Z</time>
      </trkpt>
      <trkpt lat="43.94785" lon="2.3918">
        <ele>333.6</ele>
        <time>2021-10-21T09:10:35.000Z</time>
      </trkpt>
      <trkpt lat="43.94785" lon="2.39193">
        <ele>334.2</ele>
        <time>2021-10-21T09:10:46.000Z</time>
      </trkpt>
      <trkpt lat="43.94785" lon="2.39206">
        <ele>336.1</ele>
        <time>2021-10-21T09:10:57.000Z</time>
      </trkpt>
      <trkpt lat="43.94786" lon="2.3922">
        <ele>336.5</ele>
        <time>2021-10-21T09:11:07.000Z</time>
      </trkpt>
      <trkpt lat="43.94787" lon="2.39232">
        <ele>337.7</ele>
        <time>2021-10-21T09:11:19.000Z</time>
      </trkpt>
      <trkpt lat="43.94788" lon="2.39238">
        <ele>338.9</ele>
        <time>2021-10-21T09:11:27.000Z</time>
      </trkpt>
      <trkpt lat="43.94788" lon="2.39238">
        <ele>338.9</ele>
        <time>2021-10-21T09:11:28.000Z</time>
      </trkpt>
      <trkpt lat="43.9479" lon="2.39251">
        <ele>340.6</ele>
        <time>2021-10-21T09:11:42.000Z</time>
      </trkpt>
      <trkpt lat="43.94794" lon="2.39263">
        <ele>340.7</ele>
        <time>2021-10-21T09:11:54.000Z</time>
      </trkpt>
      <trkpt lat="43.94798" lon="2.39274">
        <ele>342.5</ele>
        <time>2021-10-21T09:12:05.000Z</time>
      </trkpt>
      <trkpt lat="43.94802" lon="2.39286">
        <ele>343.8</ele>
        <time>2021-10-21T09:12:18.000Z</time>
      </trkpt>
      <trkpt lat="43.94805" lon="2.39297">
        <ele>345.2</ele>
        <time>2021-10-21T09:12:31.000Z</time>
      </trkpt>
      <trkpt lat="43.94807" lon="2.39304">
        <ele>346.4</ele>
        <time>2021-10-21T09:12:43.000Z</time>
      </trkpt>
      <trkpt lat="43.94807" lon="2.39304">
        <ele>346.5</ele>
        <time>2021-10-21T09:12:44.000Z</time>
      </trkpt>
      <trkpt lat="43.94811" lon="2.39313">
        <ele>348.2</ele>
        <time>2021-10-21T09:12:56.000Z</time>
      </trkpt>
      <trkpt lat="43.94811" lon="2.39314">
        <ele>348.3</ele>
        <time>2021-10-21T09:12:58.000Z</time>
      </trkpt>
      <trkpt lat="43.94814" lon="2.39326">
        <ele>350.2</ele>
        <time>2021-10-21T09:13:12.000Z</time>
      </trkpt>
      <trkpt lat="43.94817" lon="2.39331">
        <ele>350.2</ele>
        <time>2021-10-21T09:13:23.000Z</time>
      </trkpt>
      <trkpt lat="43.94817" lon="2.39331">
        <ele>350.2</ele>
        <time>2021-10-21T09:13:27.000Z</time>
      </trkpt>
      <trkpt lat="43.9482" lon="2.39344">
        <ele>351</ele>
        <time>2021-10-21T09:13:39.000Z</time>
      </trkpt>
      <trkpt lat="43.94822" lon="2.39357">
        <ele>351.8</ele>
        <time>2021-10-21T09:13:51.000Z</time>
      </trkpt>
      <trkpt lat="43.94827" lon="2.39368">
        <ele>353</ele>
        <time>2021-10-21T09:14:02.000Z</time>
      </trkpt>
      <trkpt lat="43.94832" lon="2.39379">
        <ele>354.9</ele>
        <time>2021-10-21T09:14:14.000Z</time>
      </trkpt>
      <trkpt lat="43.94838" lon="2.39389">
        <ele>355.4</ele>
        <time>2021-10-21T09:14:26.000Z</time>
      </trkpt>
      <trkpt lat="43.94846" lon="2.39395">
        <ele>355.8</ele>
        <time>2021-10-21T09:14:36.000Z</time>
      </trkpt>
      <trkpt lat="43.94854" lon="2.39402">
        <ele>356.6</ele>
        <time>2021-10-21T09:14:47.000Z</time>
      </trkpt>
      <trkpt lat="43.94861" lon="2.39409">
        <ele>356.6</ele>
        <time>2021-10-21T09:14:59.000Z</time>
      </trkpt>
      <trkpt lat="43.9487" lon="2.39413">
        <ele>359.9</ele>
        <time>2021-10-21T09:15:14.000Z</time>
      </trkpt>
      <trkpt lat="43.94874" lon="2.39415">
        <ele>361</ele>
        <time>2021-10-21T09:15:23.000Z</time>
      </trkpt>
      <trkpt lat="43.94874" lon="2.39415">
        <ele>361.2</ele>
        <time>2021-10-21T09:15:27.000Z</time>
      </trkpt>
      <trkpt lat="43.94874" lon="2.39415">
        <ele>361.2</ele>
        <time>2021-10-21T09:15:29.000Z</time>
      </trkpt>
      <trkpt lat="43.94874" lon="2.39415">
        <ele>361.2</ele>
        <time>2021-10-21T09:15:37.000Z</time>
      </trkpt>
      <trkpt lat="43.94874" lon="2.39415">
        <ele>361.2</ele>
        <time>2021-10-21T09:15:38.000Z</time>
      </trkpt>
      <trkpt lat="43.94874" lon="2.39415">
        <ele>361.3</ele>
        <time>2021-10-21T09:15:45.000Z</time>
      </trkpt>
      <trkpt lat="43.94874" lon="2.39415">
        <ele>361.3</ele>
        <time>2021-10-21T09:15:46.000Z</time>
      </trkpt>
      <trkpt lat="43.94874" lon="2.39415">
        <ele>361.2</ele>
        <time>2021-10-21T09:15:51.000Z</time>
      </trkpt>
      <trkpt lat="43.94874" lon="2.39415">
        <ele>361.3</ele>
        <time>2021-10-21T09:15:53.000Z</time>
      </trkpt>
      <trkpt lat="43.94875" lon="2.39415">
        <ele>361.4</ele>
        <time>2021-10-21T09:15:55.000Z</time>
      </trkpt>
      <trkpt lat="43.94875" lon="2.39415">
        <ele>361.5</ele>
        <time>2021-10-21T09:15:56.000Z</time>
      </trkpt>
      <trkpt lat="43.94875" lon="2.39415">
        <ele>361.6</ele>
        <time>2021-10-21T09:15:57.000Z</time>
      </trkpt>
      <trkpt lat="43.94875" lon="2.39415">
        <ele>361.5</ele>
        <time>2021-10-21T09:15:58.000Z</time>
      </trkpt>
      <trkpt lat="43.94875" lon="2.39415">
        <ele>361.4</ele>
        <time>2021-10-21T09:16:04.000Z</time>
      </trkpt>
      <trkpt lat="43.94875" lon="2.39415">
        <ele>361.4</ele>
        <time>2021-10-21T09:16:05.000Z</time>
      </trkpt>
      <trkpt lat="43.94875" lon="2.39416">
        <ele>361.7</ele>
        <time>2021-10-21T09:16:24.000Z</time>
      </trkpt>
      <trkpt lat="43.94876" lon="2.39417">
        <ele>361.7</ele>
        <time>2021-10-21T09:16:29.000Z</time>
      </trkpt>
      <trkpt lat="43.94876" lon="2.39417">
        <ele>361.9</ele>
        <time>2021-10-21T09:16:44.000Z</time>
      </trkpt>
      <trkpt lat="43.94876" lon="2.39417">
        <ele>361.9</ele>
        <time>2021-10-21T09:16:45.000Z</time>
      </trkpt>
      <trkpt lat="43.94876" lon="2.39417">
        <ele>361.9</ele>
        <time>2021-10-21T09:17:03.000Z</time>
      </trkpt>
      <trkpt lat="43.94876" lon="2.39417">
        <ele>361.9</ele>
        <time>2021-10-21T09:17:04.000Z</time>
      </trkpt>
      <trkpt lat="43.94876" lon="2.39417">
        <ele>361.9</ele>
        <time>2021-10-21T09:17:11.000Z</time>
      </trkpt>
      <trkpt lat="43.94876" lon="2.39417">
        <ele>362</ele>
        <time>2021-10-21T09:17:12.000Z</time>
      </trkpt>
      <trkpt lat="43.94876" lon="2.39416">
        <ele>362.3</ele>
        <time>2021-10-21T09:18:30.000Z</time>
      </trkpt>
      <trkpt lat="43.94878" lon="2.39417">
        <ele>362.4</ele>
        <time>2021-10-21T09:18:35.000Z</time>
      </trkpt>
      <trkpt lat="43.94878" lon="2.39417">
        <ele>362.4</ele>
        <time>2021-10-21T09:18:39.000Z</time>
      </trkpt>
      <trkpt lat="43.94878" lon="2.39418">
        <ele>362.4</ele>
        <time>2021-10-21T09:18:41.000Z</time>
      </trkpt>
      <trkpt lat="43.94878" lon="2.39418">
        <ele>362.6</ele>
        <time>2021-10-21T09:18:45.000Z</time>
      </trkpt>
      <trkpt lat="43.94879" lon="2.39418">
        <ele>362.7</ele>
        <time>2021-10-21T09:18:47.000Z</time>
      </trkpt>
      <trkpt lat="43.94879" lon="2.39418">
        <ele>362.6</ele>
        <time>2021-10-21T09:18:49.000Z</time>
      </trkpt>
      <trkpt lat="43.94879" lon="2.39418">
        <ele>362.5</ele>
        <time>2021-10-21T09:18:51.000Z</time>
      </trkpt>
      <trkpt lat="43.94879" lon="2.39418">
        <ele>362.5</ele>
        <time>2021-10-21T09:19:04.000Z</time>
      </trkpt>
      <trkpt lat="43.94886" lon="2.39427">
        <ele>363.5</ele>
        <time>2021-10-21T09:19:17.000Z</time>
      </trkpt>
      <trkpt lat="43.9489" lon="2.39439">
        <ele>364.4</ele>
        <time>2021-10-21T09:19:29.000Z</time>
      </trkpt>
      <trkpt lat="43.94891" lon="2.39452">
        <ele>365.3</ele>
        <time>2021-10-21T09:19:40.000Z</time>
      </trkpt>
      <trkpt lat="43.94892" lon="2.39465">
        <ele>366.3</ele>
        <time>2021-10-21T09:19:52.000Z</time>
      </trkpt>
      <trkpt lat="43.94892" lon="2.39478">
        <ele>368.2</ele>
        <time>2021-10-21T09:20:04.000Z</time>
      </trkpt>
      <trkpt lat="43.94891" lon="2.39492">
        <ele>369.5</ele>
        <time>2021-10-21T09:20:16.000Z</time>
      </trkpt>
      <trkpt lat="43.94892" lon="2.39505">
        <ele>370.1</ele>
        <time>2021-10-21T09:20:26.000Z</time>
      </trkpt>
      <trkpt lat="43.9489" lon="2.39518">
        <ele>371</ele>
        <time>2021-10-21T09:20:37.000Z</time>
      </trkpt>
      <trkpt lat="43.94888" lon="2.39531">
        <ele>372</ele>
        <time>2021-10-21T09:20:50.000Z</time>
      </trkpt>
      <trkpt lat="43.94886" lon="2.39544">
        <ele>372.9</ele>
        <time>2021-10-21T09:21:01.000Z</time>
      </trkpt>
      <trkpt lat="43.94885" lon="2.39557">
        <ele>373.9</ele>
        <time>2021-10-21T09:21:13.000Z</time>
      </trkpt>
      <trkpt lat="43.94883" lon="2.3957">
        <ele>375.7</ele>
        <time>2021-10-21T09:21:25.000Z</time>
      </trkpt>
      <trkpt lat="43.94881" lon="2.39584">
        <ele>377.9</ele>
        <time>2021-10-21T09:21:36.000Z</time>
      </trkpt>
      <trkpt lat="43.9488" lon="2.39596">
        <ele>380</ele>
        <time>2021-10-21T09:21:47.000Z</time>
      </trkpt>
      <trkpt lat="43.94878" lon="2.39609">
        <ele>381.2</ele>
        <time>2021-10-21T09:22:00.000Z</time>
      </trkpt>
      <trkpt lat="43.94879" lon="2.39622">
        <ele>381.9</ele>
        <time>2021-10-21T09:22:13.000Z</time>
      </trkpt>
      <trkpt lat="43.94883" lon="2.39635">
        <ele>384</ele>
        <time>2021-10-21T09:22:25.000Z</time>
      </trkpt>
      <trkpt lat="43.94874" lon="2.39636">
        <ele>385.7</ele>
        <time>2021-10-21T09:22:57.000Z</time>
      </trkpt>
      <trkpt lat="43.94867" lon="2.39627">
        <ele>387.4</ele>
        <time>2021-10-21T09:23:09.000Z</time>
      </trkpt>
      <trkpt lat="43.94858" lon="2.39625">
        <ele>388.8</ele>
        <time>2021-10-21T09:23:22.000Z</time>
      </trkpt>
      <trkpt lat="43.94857" lon="2.39638">
        <ele>388.9</ele>
        <time>2021-10-21T09:23:34.000Z</time>
      </trkpt>
      <trkpt lat="43.9486" lon="2.39651">
        <ele>390.8</ele>
        <time>2021-10-21T09:23:45.000Z</time>
      </trkpt>
      <trkpt lat="43.94862" lon="2.39663">
        <ele>392.6</ele>
        <time>2021-10-21T09:23:56.000Z</time>
      </trkpt>
      <trkpt lat="43.94865" lon="2.39676">
        <ele>394.7</ele>
        <time>2021-10-21T09:24:09.000Z</time>
      </trkpt>
      <trkpt lat="43.94866" lon="2.39689">
        <ele>396.4</ele>
        <time>2021-10-21T09:24:23.000Z</time>
      </trkpt>
      <trkpt lat="43.94866" lon="2.39702">
        <ele>398.9</ele>
        <time>2021-10-21T09:24:38.000Z</time>
      </trkpt>
      <trkpt lat="43.94867" lon="2.39715">
        <ele>401.3</ele>
        <time>2021-10-21T09:24:51.000Z</time>
      </trkpt>
      <trkpt lat="43.9487" lon="2.39727">
        <ele>403.7</ele>
        <time>2021-10-21T09:25:03.000Z</time>
      </trkpt>
      <trkpt lat="43.94871" lon="2.39729">
        <ele>403.9</ele>
        <time>2021-10-21T09:25:08.000Z</time>
      </trkpt>
      <trkpt lat="43.94871" lon="2.39729">
        <ele>404</ele>
        <time>2021-10-21T09:25:09.000Z</time>
      </trkpt>
      <trkpt lat="43.94875" lon="2.39741">
        <ele>406.3</ele>
        <time>2021-10-21T09:25:21.000Z</time>
      </trkpt>
      <trkpt lat="43.94879" lon="2.39753">
        <ele>408.2</ele>
        <time>2021-10-21T09:25:33.000Z</time>
      </trkpt>
      <trkpt lat="43.94883" lon="2.39765">
        <ele>408</ele>
        <time>2021-10-21T09:25:47.000Z</time>
      </trkpt>
      <trkpt lat="43.94884" lon="2.39778">
        <ele>409.2</ele>
        <time>2021-10-21T09:25:57.000Z</time>
      </trkpt>
      <trkpt lat="43.94887" lon="2.39789">
        <ele>411.3</ele>
        <time>2021-10-21T09:26:10.000Z</time>
      </trkpt>
      <trkpt lat="43.94891" lon="2.39801">
        <ele>412</ele>
        <time>2021-10-21T09:26:23.000Z</time>
      </trkpt>
      <trkpt lat="43.94895" lon="2.39813">
        <ele>413.1</ele>
        <time>2021-10-21T09:26:34.000Z</time>
      </trkpt>
      <trkpt lat="43.94898" lon="2.39826">
        <ele>414.1</ele>
        <time>2021-10-21T09:26:44.000Z</time>
      </trkpt>
      <trkpt lat="43.94903" lon="2.39837">
        <ele>415.2</ele>
        <time>2021-10-21T09:26:54.000Z</time>
      </trkpt>
      <trkpt lat="43.94908" lon="2.39849">
        <ele>415.4</ele>
        <time>2021-10-21T09:27:07.000Z</time>
      </trkpt>
      <trkpt lat="43.94912" lon="2.39861">
        <ele>417.4</ele>
        <time>2021-10-21T09:27:18.000Z</time>
      </trkpt>
      <trkpt lat="43.94913" lon="2.39864">
        <ele>418.4</ele>
        <time>2021-10-21T09:27:24.000Z</time>
      </trkpt>
      <trkpt lat="43.94913" lon="2.39865">
        <ele>418.5</ele>
        <time>2021-10-21T09:27:25.000Z</time>
      </trkpt>
      <trkpt lat="43.94915" lon="2.39878">
        <ele>419.6</ele>
        <time>2021-10-21T09:27:33.000Z</time>
      </trkpt>
      <trkpt lat="43.94917" lon="2.39891">
        <ele>420.6</ele>
        <time>2021-10-21T09:27:42.000Z</time>
      </trkpt>
      <trkpt lat="43.94917" lon="2.39904">
        <ele>421</ele>
        <time>2021-10-21T09:27:51.000Z</time>
      </trkpt>
      <trkpt lat="43.94914" lon="2.39916">
        <ele>420.5</ele>
        <time>2021-10-21T09:28:01.000Z</time>
      </trkpt>
      <trkpt lat="43.94913" lon="2.39929">
        <ele>420.5</ele>
        <time>2021-10-21T09:28:09.000Z</time>
      </trkpt>
      <trkpt lat="43.9491" lon="2.39942">
        <ele>421</ele>
        <time>2021-10-21T09:28:17.000Z</time>
      </trkpt>
      <trkpt lat="43.9491" lon="2.39955">
        <ele>421.9</ele>
        <time>2021-10-21T09:28:27.000Z</time>
      </trkpt>
      <trkpt lat="43.94908" lon="2.39968">
        <ele>423.1</ele>
        <time>2021-10-21T09:28:37.000Z</time>
      </trkpt>
      <trkpt lat="43.94908" lon="2.39968">
        <ele>423</ele>
        <time>2021-10-21T09:28:39.000Z</time>
      </trkpt>
      <trkpt lat="43.94908" lon="2.39968">
        <ele>423</ele>
        <time>2021-10-21T09:28:40.000Z</time>
      </trkpt>
      <trkpt lat="43.94907" lon="2.39981">
        <ele>423.8</ele>
        <time>2021-10-21T09:28:52.000Z</time>
      </trkpt>
      <trkpt lat="43.94906" lon="2.39993">
        <ele>424.3</ele>
        <time>2021-10-21T09:29:01.000Z</time>
      </trkpt>
      <trkpt lat="43.94905" lon="2.40006">
        <ele>424.6</ele>
        <time>2021-10-21T09:29:11.000Z</time>
      </trkpt>
      <trkpt lat="43.94905" lon="2.4002">
        <ele>425.7</ele>
        <time>2021-10-21T09:29:23.000Z</time>
      </trkpt>
      <trkpt lat="43.94904" lon="2.40033">
        <ele>427.8</ele>
        <time>2021-10-21T09:29:34.000Z</time>
      </trkpt>
      <trkpt lat="43.94906" lon="2.40046">
        <ele>427.9</ele>
        <time>2021-10-21T09:29:48.000Z</time>
      </trkpt>
      <trkpt lat="43.94905" lon="2.40059">
        <ele>428</ele>
        <time>2021-10-21T09:29:59.000Z</time>
      </trkpt>
      <trkpt lat="43.94905" lon="2.4006">
        <ele>428.3</ele>
        <time>2021-10-21T09:30:02.000Z</time>
      </trkpt>
      <trkpt lat="43.94904" lon="2.4006">
        <ele>428.3</ele>
        <time>2021-10-21T09:30:03.000Z</time>
      </trkpt>
      <trkpt lat="43.94904" lon="2.4006">
        <ele>428.3</ele>
        <time>2021-10-21T09:30:04.000Z</time>
      </trkpt>
      <trkpt lat="43.94904" lon="2.4006">
        <ele>428.5</ele>
        <time>2021-10-21T09:30:09.000Z</time>
      </trkpt>
      <trkpt lat="43.94905" lon="2.4006">
        <ele>428.5</ele>
        <time>2021-10-21T09:30:11.000Z</time>
      </trkpt>
      <trkpt lat="43.94904" lon="2.4006">
        <ele>428.5</ele>
        <time>2021-10-21T09:30:22.000Z</time>
      </trkpt>
      <trkpt lat="43.94904" lon="2.40061">
        <ele>428.6</ele>
        <time>2021-10-21T09:30:25.000Z</time>
      </trkpt>
      <trkpt lat="43.94904" lon="2.40062">
        <ele>428.8</ele>
        <time>2021-10-21T09:30:33.000Z</time>
      </trkpt>
      <trkpt lat="43.94904" lon="2.40062">
        <ele>428.9</ele>
        <time>2021-10-21T09:30:34.000Z</time>
      </trkpt>
      <trkpt lat="43.94904" lon="2.40062">
        <ele>428.9</ele>
        <time>2021-10-21T09:30:37.000Z</time>
      </trkpt>
      <trkpt lat="43.94904" lon="2.40062">
        <ele>429.1</ele>
        <time>2021-10-21T09:30:39.000Z</time>
      </trkpt>
      <trkpt lat="43.94904" lon="2.40062">
        <ele>429.2</ele>
        <time>2021-10-21T09:30:41.000Z</time>
      </trkpt>
      <trkpt lat="43.94904" lon="2.40062">
        <ele>429.2</ele>
        <time>2021-10-21T09:30:42.000Z</time>
      </trkpt>
      <trkpt lat="43.94904" lon="2.40062">
        <ele>429.2</ele>
        <time>2021-10-21T09:30:43.000Z</time>
      </trkpt>
      <trkpt lat="43.94904" lon="2.40062">
        <ele>429.1</ele>
        <time>2021-10-21T09:30:45.000Z</time>
      </trkpt>
      <trkpt lat="43.94904" lon="2.40062">
        <ele>429.2</ele>
        <time>2021-10-21T09:30:48.000Z</time>
      </trkpt>
      <trkpt lat="43.94904" lon="2.40062">
        <ele>429.4</ele>
        <time>2021-10-21T09:30:51.000Z</time>
      </trkpt>
      <trkpt lat="43.94904" lon="2.40061">
        <ele>429.4</ele>
        <time>2021-10-21T09:30:58.000Z</time>
      </trkpt>
      <trkpt lat="43.94904" lon="2.40059">
        <ele>428.7</ele>
        <time>2021-10-21T09:31:02.000Z</time>
      </trkpt>
      <trkpt lat="43.94904" lon="2.4006">
        <ele>428.8</ele>
        <time>2021-10-21T09:31:08.000Z</time>
      </trkpt>
      <trkpt lat="43.94904" lon="2.4006">
        <ele>429</ele>
        <time>2021-10-21T09:31:11.000Z</time>
      </trkpt>
      <trkpt lat="43.94904" lon="2.4006">
        <ele>429.2</ele>
        <time>2021-10-21T09:31:15.000Z</time>
      </trkpt>
      <trkpt lat="43.94905" lon="2.4006">
        <ele>429.3</ele>
        <time>2021-10-21T09:31:19.000Z</time>
      </trkpt>
      <trkpt lat="43.94905" lon="2.40061">
        <ele>429.3</ele>
        <time>2021-10-21T09:31:35.000Z</time>
      </trkpt>
      <trkpt lat="43.94905" lon="2.40061">
        <ele>429.3</ele>
        <time>2021-10-21T09:31:36.000Z</time>
      </trkpt>
      <trkpt lat="43.94905" lon="2.40061">
        <ele>429.2</ele>
        <time>2021-10-21T09:31:44.000Z</time>
      </trkpt>
      <trkpt lat="43.94905" lon="2.40061">
        <ele>429.2</ele>
        <time>2021-10-21T09:31:45.000Z</time>
      </trkpt>
      <trkpt lat="43.94904" lon="2.40061">
        <ele>429.1</ele>
        <time>2021-10-21T09:32:18.000Z</time>
      </trkpt>
      <trkpt lat="43.94904" lon="2.40061">
        <ele>429.1</ele>
        <time>2021-10-21T09:32:19.000Z</time>
      </trkpt>
      <trkpt lat="43.94904" lon="2.40061">
        <ele>429.3</ele>
        <time>2021-10-21T09:33:12.000Z</time>
      </trkpt>
      <trkpt lat="43.94904" lon="2.40061">
        <ele>429.3</ele>
        <time>2021-10-21T09:33:13.000Z</time>
      </trkpt>
      <trkpt lat="43.94904" lon="2.40061">
        <ele>429.3</ele>
        <time>2021-10-21T09:33:14.000Z</time>
      </trkpt>
      <trkpt lat="43.94904" lon="2.40061">
        <ele>429.3</ele>
        <time>2021-10-21T09:33:16.000Z</time>
      </trkpt>
      <trkpt lat="43.94904" lon="2.40061">
        <ele>429.3</ele>
        <time>2021-10-21T09:33:19.000Z</time>
      </trkpt>
      <trkpt lat="43.94904" lon="2.40061">
        <ele>429.3</ele>
        <time>2021-10-21T09:33:20.000Z</time>
      </trkpt>
      <trkpt lat="43.94904" lon="2.40061">
        <ele>429.4</ele>
        <time>2021-10-21T09:34:03.000Z</time>
      </trkpt>
      <trkpt lat="43.94904" lon="2.40061">
        <ele>429.4</ele>
        <time>2021-10-21T09:34:04.000Z</time>
      </trkpt>
      <trkpt lat="43.94903" lon="2.40062">
        <ele>429.7</ele>
        <time>2021-10-21T09:34:20.000Z</time>
      </trkpt>
      <trkpt lat="43.94904" lon="2.40062">
        <ele>429.8</ele>
        <time>2021-10-21T09:34:22.000Z</time>
      </trkpt>
      <trkpt lat="43.94903" lon="2.40062">
        <ele>429.9</ele>
        <time>2021-10-21T09:34:35.000Z</time>
      </trkpt>
      <trkpt lat="43.94903" lon="2.40062">
        <ele>429.9</ele>
        <time>2021-10-21T09:34:38.000Z</time>
      </trkpt>
      <trkpt lat="43.94904" lon="2.40063">
        <ele>429.9</ele>
        <time>2021-10-21T09:34:49.000Z</time>
      </trkpt>
      <trkpt lat="43.94903" lon="2.40063">
        <ele>429.9</ele>
        <time>2021-10-21T09:34:52.000Z</time>
      </trkpt>
      <trkpt lat="43.94904" lon="2.40063">
        <ele>430.1</ele>
        <time>2021-10-21T09:35:28.000Z</time>
      </trkpt>
      <trkpt lat="43.94904" lon="2.40063">
        <ele>430.1</ele>
        <time>2021-10-21T09:35:29.000Z</time>
      </trkpt>
      <trkpt lat="43.94904" lon="2.40064">
        <ele>430.2</ele>
        <time>2021-10-21T09:35:33.000Z</time>
      </trkpt>
      <trkpt lat="43.94913" lon="2.40069">
        <ele>429.9</ele>
        <time>2021-10-21T09:35:48.000Z</time>
      </trkpt>
      <trkpt lat="43.94921" lon="2.40077">
        <ele>429.1</ele>
        <time>2021-10-21T09:35:57.000Z</time>
      </trkpt>
      <trkpt lat="43.94928" lon="2.40085">
        <ele>428.5</ele>
        <time>2021-10-21T09:36:05.000Z</time>
      </trkpt>
      <trkpt lat="43.94936" lon="2.40092">
        <ele>428</ele>
        <time>2021-10-21T09:36:13.000Z</time>
      </trkpt>
      <trkpt lat="43.94945" lon="2.40099">
        <ele>427.2</ele>
        <time>2021-10-21T09:36:21.000Z</time>
      </trkpt>
      <trkpt lat="43.94953" lon="2.40106">
        <ele>426.5</ele>
        <time>2021-10-21T09:36:29.000Z</time>
      </trkpt>
      <trkpt lat="43.94962" lon="2.40113">
        <ele>427.3</ele>
        <time>2021-10-21T09:36:37.000Z</time>
      </trkpt>
      <trkpt lat="43.94969" lon="2.4012">
        <ele>427.4</ele>
        <time>2021-10-21T09:36:45.000Z</time>
      </trkpt>
      <trkpt lat="43.94976" lon="2.40129">
        <ele>427.3</ele>
        <time>2021-10-21T09:36:53.000Z</time>
      </trkpt>
      <trkpt lat="43.94982" lon="2.40139">
        <ele>427.3</ele>
        <time>2021-10-21T09:37:03.000Z</time>
      </trkpt>
      <trkpt lat="43.94986" lon="2.40151">
        <ele>427</ele>
        <time>2021-10-21T09:37:11.000Z</time>
      </trkpt>
      <trkpt lat="43.94992" lon="2.40161">
        <ele>427.1</ele>
        <time>2021-10-21T09:37:19.000Z</time>
      </trkpt>
      <trkpt lat="43.94996" lon="2.40173">
        <ele>426.7</ele>
        <time>2021-10-21T09:37:28.000Z</time>
      </trkpt>
      <trkpt lat="43.94999" lon="2.40184">
        <ele>427.2</ele>
        <time>2021-10-21T09:37:37.000Z</time>
      </trkpt>
      <trkpt lat="43.95003" lon="2.40197">
        <ele>428.3</ele>
        <time>2021-10-21T09:37:46.000Z</time>
      </trkpt>
      <trkpt lat="43.95008" lon="2.40209">
        <ele>429</ele>
        <time>2021-10-21T09:37:55.000Z</time>
      </trkpt>
      <trkpt lat="43.95012" lon="2.40221">
        <ele>429.6</ele>
        <time>2021-10-21T09:38:04.000Z</time>
      </trkpt>
      <trkpt lat="43.95017" lon="2.40233">
        <ele>429.8</ele>
        <time>2021-10-21T09:38:12.000Z</time>
      </trkpt>
      <trkpt lat="43.95024" lon="2.40242">
        <ele>430</ele>
        <time>2021-10-21T09:38:21.000Z</time>
      </trkpt>
      <trkpt lat="43.95031" lon="2.40252">
        <ele>430.5</ele>
        <time>2021-10-21T09:38:29.000Z</time>
      </trkpt>
      <trkpt lat="43.95037" lon="2.40262">
        <ele>431.1</ele>
        <time>2021-10-21T09:38:37.000Z</time>
      </trkpt>
      <trkpt lat="43.95043" lon="2.40272">
        <ele>431.8</ele>
        <time>2021-10-21T09:38:45.000Z</time>
      </trkpt>
      <trkpt lat="43.9505" lon="2.40281">
        <ele>432.6</ele>
        <time>2021-10-21T09:38:54.000Z</time>
      </trkpt>
      <trkpt lat="43.95056" lon="2.40291">
        <ele>432.6</ele>
        <time>2021-10-21T09:39:03.000Z</time>
      </trkpt>
      <trkpt lat="43.95062" lon="2.40302">
        <ele>432.4</ele>
        <time>2021-10-21T09:39:12.000Z</time>
      </trkpt>
      <trkpt lat="43.95069" lon="2.40311">
        <ele>431.9</ele>
        <time>2021-10-21T09:39:21.000Z</time>
      </trkpt>
      <trkpt lat="43.95075" lon="2.40322">
        <ele>431.5</ele>
        <time>2021-10-21T09:39:30.000Z</time>
      </trkpt>
      <trkpt lat="43.95082" lon="2.40331">
        <ele>432.2</ele>
        <time>2021-10-21T09:39:39.000Z</time>
      </trkpt>
      <trkpt lat="43.95087" lon="2.40341">
        <ele>432.5</ele>
        <time>2021-10-21T09:39:48.000Z</time>
      </trkpt>
      <trkpt lat="43.95093" lon="2.40352">
        <ele>432.6</ele>
        <time>2021-10-21T09:39:57.000Z</time>
      </trkpt>
      <trkpt lat="43.951" lon="2.4036">
        <ele>432.7</ele>
        <time>2021-10-21T09:40:06.000Z</time>
      </trkpt>
      <trkpt lat="43.95107" lon="2.40369">
        <ele>432.8</ele>
        <time>2021-10-21T09:40:15.000Z</time>
      </trkpt>
      <trkpt lat="43.95116" lon="2.40376">
        <ele>432.4</ele>
        <time>2021-10-21T09:40:23.000Z</time>
      </trkpt>
      <trkpt lat="43.95124" lon="2.4038">
        <ele>432.4</ele>
        <time>2021-10-21T09:40:32.000Z</time>
      </trkpt>
      <trkpt lat="43.95134" lon="2.40384">
        <ele>432.6</ele>
        <time>2021-10-21T09:40:41.000Z</time>
      </trkpt>
      <trkpt lat="43.95142" lon="2.40387">
        <ele>431.8</ele>
        <time>2021-10-21T09:40:49.000Z</time>
      </trkpt>
      <trkpt lat="43.95152" lon="2.4039">
        <ele>431.5</ele>
        <time>2021-10-21T09:40:58.000Z</time>
      </trkpt>
      <trkpt lat="43.95162" lon="2.40392">
        <ele>431.2</ele>
        <time>2021-10-21T09:41:07.000Z</time>
      </trkpt>
      <trkpt lat="43.95171" lon="2.40395">
        <ele>431</ele>
        <time>2021-10-21T09:41:15.000Z</time>
      </trkpt>
      <trkpt lat="43.95181" lon="2.40397">
        <ele>430.6</ele>
        <time>2021-10-21T09:41:24.000Z</time>
      </trkpt>
      <trkpt lat="43.9519" lon="2.40399">
        <ele>431</ele>
        <time>2021-10-21T09:41:33.000Z</time>
      </trkpt>
      <trkpt lat="43.952" lon="2.40401">
        <ele>430.7</ele>
        <time>2021-10-21T09:41:42.000Z</time>
      </trkpt>
      <trkpt lat="43.95211" lon="2.40401">
        <ele>431.7</ele>
        <time>2021-10-21T09:41:51.000Z</time>
      </trkpt>
      <trkpt lat="43.9522" lon="2.40402">
        <ele>432.6</ele>
        <time>2021-10-21T09:42:00.000Z</time>
      </trkpt>
      <trkpt lat="43.9523" lon="2.40405">
        <ele>432.9</ele>
        <time>2021-10-21T09:42:08.000Z</time>
      </trkpt>
      <trkpt lat="43.95239" lon="2.40408">
        <ele>433.1</ele>
        <time>2021-10-21T09:42:16.000Z</time>
      </trkpt>
      <trkpt lat="43.95248" lon="2.40413">
        <ele>433.9</ele>
        <time>2021-10-21T09:42:25.000Z</time>
      </trkpt>
      <trkpt lat="43.95256" lon="2.4042">
        <ele>433.5</ele>
        <time>2021-10-21T09:42:31.000Z</time>
      </trkpt>
      <trkpt lat="43.95263" lon="2.40428">
        <ele>433</ele>
        <time>2021-10-21T09:42:38.000Z</time>
      </trkpt>
      <trkpt lat="43.95271" lon="2.40435">
        <ele>432</ele>
        <time>2021-10-21T09:42:47.000Z</time>
      </trkpt>
      <trkpt lat="43.95279" lon="2.40443">
        <ele>431.5</ele>
        <time>2021-10-21T09:42:56.000Z</time>
      </trkpt>
      <trkpt lat="43.95287" lon="2.4045">
        <ele>431.5</ele>
        <time>2021-10-21T09:43:05.000Z</time>
      </trkpt>
      <trkpt lat="43.95292" lon="2.40461">
        <ele>431.2</ele>
        <time>2021-10-21T09:43:13.000Z</time>
      </trkpt>
      <trkpt lat="43.95296" lon="2.40474">
        <ele>430.4</ele>
        <time>2021-10-21T09:43:21.000Z</time>
      </trkpt>
      <trkpt lat="43.95304" lon="2.4048">
        <ele>431.6</ele>
        <time>2021-10-21T09:43:27.000Z</time>
      </trkpt>
      <trkpt lat="43.95313" lon="2.40485">
        <ele>432.1</ele>
        <time>2021-10-21T09:43:36.000Z</time>
      </trkpt>
      <trkpt lat="43.95322" lon="2.40488">
        <ele>432.3</ele>
        <time>2021-10-21T09:43:45.000Z</time>
      </trkpt>
      <trkpt lat="43.95331" lon="2.40495">
        <ele>432.8</ele>
        <time>2021-10-21T09:43:53.000Z</time>
      </trkpt>
      <trkpt lat="43.9534" lon="2.40499">
        <ele>432.1</ele>
        <time>2021-10-21T09:44:01.000Z</time>
      </trkpt>
      <trkpt lat="43.95348" lon="2.40506">
        <ele>432.1</ele>
        <time>2021-10-21T09:44:10.000Z</time>
      </trkpt>
      <trkpt lat="43.95356" lon="2.40511">
        <ele>432.3</ele>
        <time>2021-10-21T09:44:18.000Z</time>
      </trkpt>
      <trkpt lat="43.95366" lon="2.40515">
        <ele>432.1</ele>
        <time>2021-10-21T09:44:27.000Z</time>
      </trkpt>
      <trkpt lat="43.95376" lon="2.40519">
        <ele>432</ele>
        <time>2021-10-21T09:44:36.000Z</time>
      </trkpt>
      <trkpt lat="43.95384" lon="2.40522">
        <ele>431</ele>
        <time>2021-10-21T09:44:45.000Z</time>
      </trkpt>
      <trkpt lat="43.95394" lon="2.40525">
        <ele>429.6</ele>
        <time>2021-10-21T09:44:55.000Z</time>
      </trkpt>
      <trkpt lat="43.95403" lon="2.40528">
        <ele>429.7</ele>
        <time>2021-10-21T09:45:03.000Z</time>
      </trkpt>
      <trkpt lat="43.95412" lon="2.4053">
        <ele>430.7</ele>
        <time>2021-10-21T09:45:11.000Z</time>
      </trkpt>
      <trkpt lat="43.95421" lon="2.40532">
        <ele>431.5</ele>
        <time>2021-10-21T09:45:19.000Z</time>
      </trkpt>
      <trkpt lat="43.9543" lon="2.40535">
        <ele>433</ele>
        <time>2021-10-21T09:45:28.000Z</time>
      </trkpt>
      <trkpt lat="43.9544" lon="2.40538">
        <ele>434.1</ele>
        <time>2021-10-21T09:45:38.000Z</time>
      </trkpt>
      <trkpt lat="43.95448" lon="2.40541">
        <ele>435</ele>
        <time>2021-10-21T09:45:48.000Z</time>
      </trkpt>
      <trkpt lat="43.95458" lon="2.40543">
        <ele>436.2</ele>
        <time>2021-10-21T09:45:58.000Z</time>
      </trkpt>
      <trkpt lat="43.95467" lon="2.40547">
        <ele>436.8</ele>
        <time>2021-10-21T09:46:08.000Z</time>
      </trkpt>
      <trkpt lat="43.95476" lon="2.40549">
        <ele>437.7</ele>
        <time>2021-10-21T09:46:16.000Z</time>
      </trkpt>
      <trkpt lat="43.95481" lon="2.4055">
        <ele>438.4</ele>
        <time>2021-10-21T09:46:24.000Z</time>
      </trkpt>
      <trkpt lat="43.95481" lon="2.4055">
        <ele>438.6</ele>
        <time>2021-10-21T09:46:28.000Z</time>
      </trkpt>
      <trkpt lat="43.95481" lon="2.4055">
        <ele>438.6</ele>
        <time>2021-10-21T09:46:29.000Z</time>
      </trkpt>
      <trkpt lat="43.95482" lon="2.4055">
        <ele>438.6</ele>
        <time>2021-10-21T09:46:34.000Z</time>
      </trkpt>
      <trkpt lat="43.95481" lon="2.4055">
        <ele>438.6</ele>
        <time>2021-10-21T09:46:36.000Z</time>
      </trkpt>
      <trkpt lat="43.95482" lon="2.4055">
        <ele>438.6</ele>
        <time>2021-10-21T09:46:37.000Z</time>
      </trkpt>
      <trkpt lat="43.95482" lon="2.4055">
        <ele>438.6</ele>
        <time>2021-10-21T09:46:38.000Z</time>
      </trkpt>
      <trkpt lat="43.95482" lon="2.4055">
        <ele>438.4</ele>
        <time>2021-10-21T09:48:23.000Z</time>
      </trkpt>
      <trkpt lat="43.95482" lon="2.4055">
        <ele>438.3</ele>
        <time>2021-10-21T09:48:24.000Z</time>
      </trkpt>
      <trkpt lat="43.95482" lon="2.4055">
        <ele>438.1</ele>
        <time>2021-10-21T09:48:26.000Z</time>
      </trkpt>
      <trkpt lat="43.95482" lon="2.4055">
        <ele>438.1</ele>
        <time>2021-10-21T09:48:27.000Z</time>
      </trkpt>
      <trkpt lat="43.95482" lon="2.4055">
        <ele>438.1</ele>
        <time>2021-10-21T09:48:45.000Z</time>
      </trkpt>
      <trkpt lat="43.95482" lon="2.4055">
        <ele>438.1</ele>
        <time>2021-10-21T09:48:46.000Z</time>
      </trkpt>
      <trkpt lat="43.95482" lon="2.4055">
        <ele>438.1</ele>
        <time>2021-10-21T09:49:53.000Z</time>
      </trkpt>
      <trkpt lat="43.95482" lon="2.4055">
        <ele>438</ele>
        <time>2021-10-21T09:49:54.000Z</time>
      </trkpt>
      <trkpt lat="43.95482" lon="2.40551">
        <ele>438.2</ele>
        <time>2021-10-21T09:50:37.000Z</time>
      </trkpt>
      <trkpt lat="43.95482" lon="2.40552">
        <ele>438.2</ele>
        <time>2021-10-21T09:50:41.000Z</time>
      </trkpt>
      <trkpt lat="43.95482" lon="2.40552">
        <ele>438.1</ele>
        <time>2021-10-21T09:50:49.000Z</time>
      </trkpt>
      <trkpt lat="43.95482" lon="2.40552">
        <ele>438.1</ele>
        <time>2021-10-21T09:50:50.000Z</time>
      </trkpt>
      <trkpt lat="43.95482" lon="2.40553">
        <ele>438.2</ele>
        <time>2021-10-21T09:50:55.000Z</time>
      </trkpt>
      <trkpt lat="43.95492" lon="2.40553">
        <ele>436.8</ele>
        <time>2021-10-21T09:51:06.000Z</time>
      </trkpt>
      <trkpt lat="43.95501" lon="2.40555">
        <ele>438</ele>
        <time>2021-10-21T09:51:16.000Z</time>
      </trkpt>
      <trkpt lat="43.9551" lon="2.40557">
        <ele>438.3</ele>
        <time>2021-10-21T09:51:25.000Z</time>
      </trkpt>
      <trkpt lat="43.95519" lon="2.4056">
        <ele>438.7</ele>
        <time>2021-10-21T09:51:33.000Z</time>
      </trkpt>
      <trkpt lat="43.95528" lon="2.40562">
        <ele>438.8</ele>
        <time>2021-10-21T09:51:41.000Z</time>
      </trkpt>
      <trkpt lat="43.95538" lon="2.40563">
        <ele>439.1</ele>
        <time>2021-10-21T09:51:51.000Z</time>
      </trkpt>
      <trkpt lat="43.95547" lon="2.40567">
        <ele>439</ele>
        <time>2021-10-21T09:51:59.000Z</time>
      </trkpt>
      <trkpt lat="43.95556" lon="2.40571">
        <ele>438.2</ele>
        <time>2021-10-21T09:52:08.000Z</time>
      </trkpt>
      <trkpt lat="43.95566" lon="2.40573">
        <ele>438.1</ele>
        <time>2021-10-21T09:52:15.000Z</time>
      </trkpt>
      <trkpt lat="43.95574" lon="2.40581">
        <ele>438.3</ele>
        <time>2021-10-21T09:52:22.000Z</time>
      </trkpt>
      <trkpt lat="43.95583" lon="2.40584">
        <ele>438.2</ele>
        <time>2021-10-21T09:52:29.000Z</time>
      </trkpt>
      <trkpt lat="43.95592" lon="2.40585">
        <ele>437.2</ele>
        <time>2021-10-21T09:52:38.000Z</time>
      </trkpt>
      <trkpt lat="43.95602" lon="2.40588">
        <ele>437.1</ele>
        <time>2021-10-21T09:52:46.000Z</time>
      </trkpt>
      <trkpt lat="43.9561" lon="2.40593">
        <ele>437.3</ele>
        <time>2021-10-21T09:52:54.000Z</time>
      </trkpt>
      <trkpt lat="43.9562" lon="2.40597">
        <ele>437.2</ele>
        <time>2021-10-21T09:53:03.000Z</time>
      </trkpt>
      <trkpt lat="43.95629" lon="2.40603">
        <ele>437</ele>
        <time>2021-10-21T09:53:11.000Z</time>
      </trkpt>
      <trkpt lat="43.95638" lon="2.40606">
        <ele>436.3</ele>
        <time>2021-10-21T09:53:21.000Z</time>
      </trkpt>
      <trkpt lat="43.95648" lon="2.4061">
        <ele>436.3</ele>
        <time>2021-10-21T09:53:30.000Z</time>
      </trkpt>
      <trkpt lat="43.95657" lon="2.40615">
        <ele>435.9</ele>
        <time>2021-10-21T09:53:39.000Z</time>
      </trkpt>
      <trkpt lat="43.95658" lon="2.40621">
        <ele>435.8</ele>
        <time>2021-10-21T09:53:54.000Z</time>
      </trkpt>
      <trkpt lat="43.95658" lon="2.40621">
        <ele>435.6</ele>
        <time>2021-10-21T09:54:18.000Z</time>
      </trkpt>
      <trkpt lat="43.95658" lon="2.40621">
        <ele>435.6</ele>
        <time>2021-10-21T09:54:19.000Z</time>
      </trkpt>
      <trkpt lat="43.95658" lon="2.40621">
        <ele>435.6</ele>
        <time>2021-10-21T09:54:26.000Z</time>
      </trkpt>
      <trkpt lat="43.95658" lon="2.40621">
        <ele>435.7</ele>
        <time>2021-10-21T09:54:28.000Z</time>
      </trkpt>
      <trkpt lat="43.95658" lon="2.40622">
        <ele>435.7</ele>
        <time>2021-10-21T09:54:29.000Z</time>
      </trkpt>
      <trkpt lat="43.95659" lon="2.40625">
        <ele>435.5</ele>
        <time>2021-10-21T09:54:36.000Z</time>
      </trkpt>
      <trkpt lat="43.95659" lon="2.40625">
        <ele>435.4</ele>
        <time>2021-10-21T09:54:37.000Z</time>
      </trkpt>
      <trkpt lat="43.95659" lon="2.40624">
        <ele>435</ele>
        <time>2021-10-21T09:54:40.000Z</time>
      </trkpt>
      <trkpt lat="43.95659" lon="2.40624">
        <ele>434.9</ele>
        <time>2021-10-21T09:54:41.000Z</time>
      </trkpt>
      <trkpt lat="43.9565" lon="2.40623">
        <ele>434.2</ele>
        <time>2021-10-21T09:54:51.000Z</time>
      </trkpt>
      <trkpt lat="43.95641" lon="2.4062">
        <ele>434.2</ele>
        <time>2021-10-21T09:54:59.000Z</time>
      </trkpt>
      <trkpt lat="43.95632" lon="2.40619">
        <ele>433.4</ele>
        <time>2021-10-21T09:55:08.000Z</time>
      </trkpt>
      <trkpt lat="43.95622" lon="2.40617">
        <ele>432.5</ele>
        <time>2021-10-21T09:55:16.000Z</time>
      </trkpt>
      <trkpt lat="43.95612" lon="2.40617">
        <ele>431.9</ele>
        <time>2021-10-21T09:55:23.000Z</time>
      </trkpt>
      <trkpt lat="43.95601" lon="2.40616">
        <ele>431.9</ele>
        <time>2021-10-21T09:55:31.000Z</time>
      </trkpt>
      <trkpt lat="43.95591" lon="2.40615">
        <ele>431</ele>
        <time>2021-10-21T09:55:39.000Z</time>
      </trkpt>
      <trkpt lat="43.95582" lon="2.40615">
        <ele>430.6</ele>
        <time>2021-10-21T09:55:47.000Z</time>
      </trkpt>
      <trkpt lat="43.95573" lon="2.40617">
        <ele>430.5</ele>
        <time>2021-10-21T09:55:54.000Z</time>
      </trkpt>
      <trkpt lat="43.95563" lon="2.40619">
        <ele>429</ele>
        <time>2021-10-21T09:56:02.000Z</time>
      </trkpt>
      <trkpt lat="43.95553" lon="2.40623">
        <ele>428.2</ele>
        <time>2021-10-21T09:56:10.000Z</time>
      </trkpt>
      <trkpt lat="43.95545" lon="2.40627">
        <ele>427.8</ele>
        <time>2021-10-21T09:56:18.000Z</time>
      </trkpt>
      <trkpt lat="43.95536" lon="2.40632">
        <ele>426.9</ele>
        <time>2021-10-21T09:56:26.000Z</time>
      </trkpt>
      <trkpt lat="43.95527" lon="2.40636">
        <ele>426.3</ele>
        <time>2021-10-21T09:56:34.000Z</time>
      </trkpt>
      <trkpt lat="43.95518" lon="2.40641">
        <ele>426</ele>
        <time>2021-10-21T09:56:42.000Z</time>
      </trkpt>
      <trkpt lat="43.95509" lon="2.40645">
        <ele>425.5</ele>
        <time>2021-10-21T09:56:50.000Z</time>
      </trkpt>
      <trkpt lat="43.955" lon="2.4065">
        <ele>425.9</ele>
        <time>2021-10-21T09:56:58.000Z</time>
      </trkpt>
      <trkpt lat="43.95491" lon="2.40654">
        <ele>425.7</ele>
        <time>2021-10-21T09:57:06.000Z</time>
      </trkpt>
      <trkpt lat="43.95481" lon="2.40655">
        <ele>424.3</ele>
        <time>2021-10-21T09:57:14.000Z</time>
      </trkpt>
      <trkpt lat="43.95472" lon="2.40652">
        <ele>423.8</ele>
        <time>2021-10-21T09:57:22.000Z</time>
      </trkpt>
      <trkpt lat="43.95463" lon="2.40648">
        <ele>423</ele>
        <time>2021-10-21T09:57:30.000Z</time>
      </trkpt>
      <trkpt lat="43.95456" lon="2.40641">
        <ele>422.6</ele>
        <time>2021-10-21T09:57:38.000Z</time>
      </trkpt>
      <trkpt lat="43.9545" lon="2.4063">
        <ele>421</ele>
        <time>2021-10-21T09:57:47.000Z</time>
      </trkpt>
      <trkpt lat="43.95444" lon="2.4062">
        <ele>420.1</ele>
        <time>2021-10-21T09:57:55.000Z</time>
      </trkpt>
      <trkpt lat="43.95439" lon="2.40609">
        <ele>419.2</ele>
        <time>2021-10-21T09:58:03.000Z</time>
      </trkpt>
      <trkpt lat="43.95432" lon="2.406">
        <ele>418.8</ele>
        <time>2021-10-21T09:58:11.000Z</time>
      </trkpt>
      <trkpt lat="43.95425" lon="2.40591">
        <ele>419</ele>
        <time>2021-10-21T09:58:18.000Z</time>
      </trkpt>
      <trkpt lat="43.95416" lon="2.40584">
        <ele>418.5</ele>
        <time>2021-10-21T09:58:26.000Z</time>
      </trkpt>
      <trkpt lat="43.95406" lon="2.40579">
        <ele>418.9</ele>
        <time>2021-10-21T09:58:34.000Z</time>
      </trkpt>
      <trkpt lat="43.95397" lon="2.40576">
        <ele>418.2</ele>
        <time>2021-10-21T09:58:42.000Z</time>
      </trkpt>
      <trkpt lat="43.95388" lon="2.40578">
        <ele>418</ele>
        <time>2021-10-21T09:58:49.000Z</time>
      </trkpt>
      <trkpt lat="43.95378" lon="2.40582">
        <ele>417.1</ele>
        <time>2021-10-21T09:58:57.000Z</time>
      </trkpt>
      <trkpt lat="43.95369" lon="2.40586">
        <ele>416.6</ele>
        <time>2021-10-21T09:59:05.000Z</time>
      </trkpt>
      <trkpt lat="43.9536" lon="2.40588">
        <ele>416</ele>
        <time>2021-10-21T09:59:14.000Z</time>
      </trkpt>
      <trkpt lat="43.95351" lon="2.40586">
        <ele>414.7</ele>
        <time>2021-10-21T09:59:23.000Z</time>
      </trkpt>
      <trkpt lat="43.95341" lon="2.40583">
        <ele>414.2</ele>
        <time>2021-10-21T09:59:32.000Z</time>
      </trkpt>
      <trkpt lat="43.95332" lon="2.40583">
        <ele>413.9</ele>
        <time>2021-10-21T09:59:41.000Z</time>
      </trkpt>
      <trkpt lat="43.95323" lon="2.40586">
        <ele>413.9</ele>
        <time>2021-10-21T09:59:47.000Z</time>
      </trkpt>
      <trkpt lat="43.95315" lon="2.40594">
        <ele>413.5</ele>
        <time>2021-10-21T09:59:54.000Z</time>
      </trkpt>
      <trkpt lat="43.95307" lon="2.40603">
        <ele>413.5</ele>
        <time>2021-10-21T10:00:01.000Z</time>
      </trkpt>
      <trkpt lat="43.95299" lon="2.40608">
        <ele>412.7</ele>
        <time>2021-10-21T10:00:10.000Z</time>
      </trkpt>
      <trkpt lat="43.9529" lon="2.4061">
        <ele>410</ele>
        <time>2021-10-21T10:00:18.000Z</time>
      </trkpt>
      <trkpt lat="43.95281" lon="2.40605">
        <ele>407.8</ele>
        <time>2021-10-21T10:00:26.000Z</time>
      </trkpt>
      <trkpt lat="43.95274" lon="2.40597">
        <ele>406.3</ele>
        <time>2021-10-21T10:00:34.000Z</time>
      </trkpt>
      <trkpt lat="43.95265" lon="2.4059">
        <ele>405.5</ele>
        <time>2021-10-21T10:00:42.000Z</time>
      </trkpt>
      <trkpt lat="43.95257" lon="2.40584">
        <ele>405.6</ele>
        <time>2021-10-21T10:00:50.000Z</time>
      </trkpt>
      <trkpt lat="43.95249" lon="2.40577">
        <ele>405.4</ele>
        <time>2021-10-21T10:00:59.000Z</time>
      </trkpt>
      <trkpt lat="43.95241" lon="2.4057">
        <ele>405.5</ele>
        <time>2021-10-21T10:01:07.000Z</time>
      </trkpt>
      <trkpt lat="43.95232" lon="2.40564">
        <ele>405.9</ele>
        <time>2021-10-21T10:01:14.000Z</time>
      </trkpt>
      <trkpt lat="43.95224" lon="2.40557">
        <ele>406.1</ele>
        <time>2021-10-21T10:01:21.000Z</time>
      </trkpt>
      <trkpt lat="43.95218" lon="2.40547">
        <ele>406.2</ele>
        <time>2021-10-21T10:01:29.000Z</time>
      </trkpt>
      <trkpt lat="43.95212" lon="2.40537">
        <ele>406.3</ele>
        <time>2021-10-21T10:01:36.000Z</time>
      </trkpt>
      <trkpt lat="43.95206" lon="2.40527">
        <ele>407</ele>
        <time>2021-10-21T10:01:43.000Z</time>
      </trkpt>
      <trkpt lat="43.95198" lon="2.40519">
        <ele>408.4</ele>
        <time>2021-10-21T10:01:51.000Z</time>
      </trkpt>
      <trkpt lat="43.95189" lon="2.40515">
        <ele>408.1</ele>
        <time>2021-10-21T10:02:00.000Z</time>
      </trkpt>
      <trkpt lat="43.9518" lon="2.40515">
        <ele>407.5</ele>
        <time>2021-10-21T10:02:07.000Z</time>
      </trkpt>
      <trkpt lat="43.95171" lon="2.40519">
        <ele>407.1</ele>
        <time>2021-10-21T10:02:15.000Z</time>
      </trkpt>
      <trkpt lat="43.95162" lon="2.40524">
        <ele>406.8</ele>
        <time>2021-10-21T10:02:24.000Z</time>
      </trkpt>
      <trkpt lat="43.95153" lon="2.40528">
        <ele>404.4</ele>
        <time>2021-10-21T10:02:35.000Z</time>
      </trkpt>
      <trkpt lat="43.95144" lon="2.40531">
        <ele>402.4</ele>
        <time>2021-10-21T10:02:46.000Z</time>
      </trkpt>
      <trkpt lat="43.95139" lon="2.4053">
        <ele>401.9</ele>
        <time>2021-10-21T10:02:54.000Z</time>
      </trkpt>
      <trkpt lat="43.95139" lon="2.40529">
        <ele>401.8</ele>
        <time>2021-10-21T10:03:02.000Z</time>
      </trkpt>
      <trkpt lat="43.9513" lon="2.40524">
        <ele>401</ele>
        <time>2021-10-21T10:03:10.000Z</time>
      </trkpt>
      <trkpt lat="43.95121" lon="2.4052">
        <ele>398.6</ele>
        <time>2021-10-21T10:03:19.000Z</time>
      </trkpt>
      <trkpt lat="43.95114" lon="2.40513">
        <ele>397.6</ele>
        <time>2021-10-21T10:03:26.000Z</time>
      </trkpt>
      <trkpt lat="43.95106" lon="2.40507">
        <ele>396.8</ele>
        <time>2021-10-21T10:03:33.000Z</time>
      </trkpt>
      <trkpt lat="43.95097" lon="2.40499">
        <ele>396.4</ele>
        <time>2021-10-21T10:03:41.000Z</time>
      </trkpt>
      <trkpt lat="43.95089" lon="2.40493">
        <ele>396</ele>
        <time>2021-10-21T10:03:48.000Z</time>
      </trkpt>
      <trkpt lat="43.9508" lon="2.40486">
        <ele>394.9</ele>
        <time>2021-10-21T10:03:56.000Z</time>
      </trkpt>
      <trkpt lat="43.95072" lon="2.4048">
        <ele>392.2</ele>
        <time>2021-10-21T10:04:04.000Z</time>
      </trkpt>
      <trkpt lat="43.95065" lon="2.40473">
        <ele>390.2</ele>
        <time>2021-10-21T10:04:12.000Z</time>
      </trkpt>
      <trkpt lat="43.95058" lon="2.40464">
        <ele>389.4</ele>
        <time>2021-10-21T10:04:20.000Z</time>
      </trkpt>
      <trkpt lat="43.9505" lon="2.40454">
        <ele>389.3</ele>
        <time>2021-10-21T10:04:28.000Z</time>
      </trkpt>
      <trkpt lat="43.95043" lon="2.40444">
        <ele>389.1</ele>
        <time>2021-10-21T10:04:36.000Z</time>
      </trkpt>
      <trkpt lat="43.95036" lon="2.40435">
        <ele>388.6</ele>
        <time>2021-10-21T10:04:43.000Z</time>
      </trkpt>
      <trkpt lat="43.95028" lon="2.40425">
        <ele>387.6</ele>
        <time>2021-10-21T10:04:51.000Z</time>
      </trkpt>
      <trkpt lat="43.95021" lon="2.40416">
        <ele>386.3</ele>
        <time>2021-10-21T10:04:59.000Z</time>
      </trkpt>
      <trkpt lat="43.95015" lon="2.40407">
        <ele>385.8</ele>
        <time>2021-10-21T10:05:06.000Z</time>
      </trkpt>
      <trkpt lat="43.95008" lon="2.40397">
        <ele>386.1</ele>
        <time>2021-10-21T10:05:13.000Z</time>
      </trkpt>
      <trkpt lat="43.95002" lon="2.40387">
        <ele>385.4</ele>
        <time>2021-10-21T10:05:21.000Z</time>
      </trkpt>
      <trkpt lat="43.94994" lon="2.40379">
        <ele>384.7</ele>
        <time>2021-10-21T10:05:28.000Z</time>
      </trkpt>
      <trkpt lat="43.94985" lon="2.40374">
        <ele>384.1</ele>
        <time>2021-10-21T10:05:35.000Z</time>
      </trkpt>
      <trkpt lat="43.94976" lon="2.4037">
        <ele>383</ele>
        <time>2021-10-21T10:05:43.000Z</time>
      </trkpt>
      <trkpt lat="43.94968" lon="2.40364">
        <ele>382.6</ele>
        <time>2021-10-21T10:05:50.000Z</time>
      </trkpt>
      <trkpt lat="43.9496" lon="2.40356">
        <ele>382.3</ele>
        <time>2021-10-21T10:05:57.000Z</time>
      </trkpt>
      <trkpt lat="43.94953" lon="2.40347">
        <ele>381.5</ele>
        <time>2021-10-21T10:06:04.000Z</time>
      </trkpt>
      <trkpt lat="43.94946" lon="2.40337">
        <ele>380.4</ele>
        <time>2021-10-21T10:06:12.000Z</time>
      </trkpt>
      <trkpt lat="43.94938" lon="2.40328">
        <ele>378.9</ele>
        <time>2021-10-21T10:06:20.000Z</time>
      </trkpt>
      <trkpt lat="43.9493" lon="2.40321">
        <ele>379</ele>
        <time>2021-10-21T10:06:27.000Z</time>
      </trkpt>
      <trkpt lat="43.94924" lon="2.40312">
        <ele>377.9</ele>
        <time>2021-10-21T10:06:35.000Z</time>
      </trkpt>
      <trkpt lat="43.94916" lon="2.40304">
        <ele>377.1</ele>
        <time>2021-10-21T10:06:43.000Z</time>
      </trkpt>
      <trkpt lat="43.94908" lon="2.40296">
        <ele>377.1</ele>
        <time>2021-10-21T10:06:49.000Z</time>
      </trkpt>
      <trkpt lat="43.94903" lon="2.40285">
        <ele>375.1</ele>
        <time>2021-10-21T10:06:57.000Z</time>
      </trkpt>
      <trkpt lat="43.94896" lon="2.40275">
        <ele>373.9</ele>
        <time>2021-10-21T10:07:05.000Z</time>
      </trkpt>
      <trkpt lat="43.94889" lon="2.40267">
        <ele>374</ele>
        <time>2021-10-21T10:07:12.000Z</time>
      </trkpt>
      <trkpt lat="43.94879" lon="2.40264">
        <ele>373.1</ele>
        <time>2021-10-21T10:07:20.000Z</time>
      </trkpt>
      <trkpt lat="43.94869" lon="2.40266">
        <ele>372.3</ele>
        <time>2021-10-21T10:07:28.000Z</time>
      </trkpt>
      <trkpt lat="43.9486" lon="2.40269">
        <ele>371.8</ele>
        <time>2021-10-21T10:07:36.000Z</time>
      </trkpt>
      <trkpt lat="43.9485" lon="2.40273">
        <ele>370.9</ele>
        <time>2021-10-21T10:07:44.000Z</time>
      </trkpt>
      <trkpt lat="43.94841" lon="2.40277">
        <ele>369.4</ele>
        <time>2021-10-21T10:07:52.000Z</time>
      </trkpt>
      <trkpt lat="43.94832" lon="2.40283">
        <ele>368.4</ele>
        <time>2021-10-21T10:08:01.000Z</time>
      </trkpt>
      <trkpt lat="43.94823" lon="2.4029">
        <ele>367.4</ele>
        <time>2021-10-21T10:08:09.000Z</time>
      </trkpt>
      <trkpt lat="43.94814" lon="2.40295">
        <ele>366.9</ele>
        <time>2021-10-21T10:08:17.000Z</time>
      </trkpt>
      <trkpt lat="43.94805" lon="2.403">
        <ele>367.4</ele>
        <time>2021-10-21T10:08:24.000Z</time>
      </trkpt>
      <trkpt lat="43.94796" lon="2.40305">
        <ele>366.8</ele>
        <time>2021-10-21T10:08:32.000Z</time>
      </trkpt>
      <trkpt lat="43.94787" lon="2.40311">
        <ele>365.4</ele>
        <time>2021-10-21T10:08:41.000Z</time>
      </trkpt>
      <trkpt lat="43.94778" lon="2.40315">
        <ele>363.9</ele>
        <time>2021-10-21T10:08:48.000Z</time>
      </trkpt>
      <trkpt lat="43.9477" lon="2.40319">
        <ele>362.9</ele>
        <time>2021-10-21T10:08:55.000Z</time>
      </trkpt>
      <trkpt lat="43.94761" lon="2.40325">
        <ele>361.8</ele>
        <time>2021-10-21T10:09:03.000Z</time>
      </trkpt>
      <trkpt lat="43.94754" lon="2.4033">
        <ele>361.2</ele>
        <time>2021-10-21T10:09:12.000Z</time>
      </trkpt>
      <trkpt lat="43.94753" lon="2.4033">
        <ele>361.2</ele>
        <time>2021-10-21T10:09:13.000Z</time>
      </trkpt>
      <trkpt lat="43.94745" lon="2.40337">
        <ele>361.4</ele>
        <time>2021-10-21T10:09:21.000Z</time>
      </trkpt>
      <trkpt lat="43.94736" lon="2.40343">
        <ele>360.9</ele>
        <time>2021-10-21T10:09:28.000Z</time>
      </trkpt>
      <trkpt lat="43.94728" lon="2.4035">
        <ele>360.6</ele>
        <time>2021-10-21T10:09:35.000Z</time>
      </trkpt>
      <trkpt lat="43.9472" lon="2.40357">
        <ele>359.5</ele>
        <time>2021-10-21T10:09:42.000Z</time>
      </trkpt>
      <trkpt lat="43.94712" lon="2.40365">
        <ele>358.5</ele>
        <time>2021-10-21T10:09:50.000Z</time>
      </trkpt>
      <trkpt lat="43.94703" lon="2.40371">
        <ele>356.2</ele>
        <time>2021-10-21T10:09:58.000Z</time>
      </trkpt>
      <trkpt lat="43.94694" lon="2.40378">
        <ele>353.9</ele>
        <time>2021-10-21T10:10:07.000Z</time>
      </trkpt>
      <trkpt lat="43.94686" lon="2.40384">
        <ele>351.8</ele>
        <time>2021-10-21T10:10:17.000Z</time>
      </trkpt>
      <trkpt lat="43.94676" lon="2.40387">
        <ele>350</ele>
        <time>2021-10-21T10:10:26.000Z</time>
      </trkpt>
      <trkpt lat="43.94667" lon="2.40391">
        <ele>349.2</ele>
        <time>2021-10-21T10:10:34.000Z</time>
      </trkpt>
      <trkpt lat="43.94658" lon="2.40392">
        <ele>346.6</ele>
        <time>2021-10-21T10:10:43.000Z</time>
      </trkpt>
      <trkpt lat="43.94648" lon="2.4039">
        <ele>343.8</ele>
        <time>2021-10-21T10:10:52.000Z</time>
      </trkpt>
      <trkpt lat="43.9464" lon="2.40386">
        <ele>342.5</ele>
        <time>2021-10-21T10:11:00.000Z</time>
      </trkpt>
      <trkpt lat="43.94631" lon="2.4038">
        <ele>340.7</ele>
        <time>2021-10-21T10:11:08.000Z</time>
      </trkpt>
      <trkpt lat="43.94624" lon="2.40372">
        <ele>338.8</ele>
        <time>2021-10-21T10:11:16.000Z</time>
      </trkpt>
      <trkpt lat="43.94619" lon="2.4036">
        <ele>337.6</ele>
        <time>2021-10-21T10:11:24.000Z</time>
      </trkpt>
      <trkpt lat="43.94614" lon="2.4035">
        <ele>337.4</ele>
        <time>2021-10-21T10:11:31.000Z</time>
      </trkpt>
      <trkpt lat="43.94609" lon="2.40339">
        <ele>336.9</ele>
        <time>2021-10-21T10:11:38.000Z</time>
      </trkpt>
      <trkpt lat="43.94604" lon="2.40329">
        <ele>337</ele>
        <time>2021-10-21T10:11:45.000Z</time>
      </trkpt>
      <trkpt lat="43.94597" lon="2.40318">
        <ele>336.8</ele>
        <time>2021-10-21T10:11:52.000Z</time>
      </trkpt>
      <trkpt lat="43.9459" lon="2.40308">
        <ele>336.6</ele>
        <time>2021-10-21T10:12:00.000Z</time>
      </trkpt>
      <trkpt lat="43.94582" lon="2.403">
        <ele>337.1</ele>
        <time>2021-10-21T10:12:07.000Z</time>
      </trkpt>
      <trkpt lat="43.94574" lon="2.40293">
        <ele>336.1</ele>
        <time>2021-10-21T10:12:16.000Z</time>
      </trkpt>
      <trkpt lat="43.94567" lon="2.40285">
        <ele>335.5</ele>
        <time>2021-10-21T10:12:24.000Z</time>
      </trkpt>
      <trkpt lat="43.94559" lon="2.40277">
        <ele>334.5</ele>
        <time>2021-10-21T10:12:32.000Z</time>
      </trkpt>
      <trkpt lat="43.94551" lon="2.40271">
        <ele>334.5</ele>
        <time>2021-10-21T10:12:39.000Z</time>
      </trkpt>
      <trkpt lat="43.94543" lon="2.40263">
        <ele>334.4</ele>
        <time>2021-10-21T10:12:48.000Z</time>
      </trkpt>
      <trkpt lat="43.94535" lon="2.40255">
        <ele>333.9</ele>
        <time>2021-10-21T10:12:57.000Z</time>
      </trkpt>
      <trkpt lat="43.94527" lon="2.40248">
        <ele>333.1</ele>
        <time>2021-10-21T10:13:04.000Z</time>
      </trkpt>
      <trkpt lat="43.94519" lon="2.40241">
        <ele>332.9</ele>
        <time>2021-10-21T10:13:11.000Z</time>
      </trkpt>
      <trkpt lat="43.94512" lon="2.40234">
        <ele>331.7</ele>
        <time>2021-10-21T10:13:19.000Z</time>
      </trkpt>
      <trkpt lat="43.94504" lon="2.40226">
        <ele>330.5</ele>
        <time>2021-10-21T10:13:26.000Z</time>
      </trkpt>
      <trkpt lat="43.94496" lon="2.4022">
        <ele>330.4</ele>
        <time>2021-10-21T10:13:33.000Z</time>
      </trkpt>
      <trkpt lat="43.94487" lon="2.40216">
        <ele>329.8</ele>
        <time>2021-10-21T10:13:41.000Z</time>
      </trkpt>
      <trkpt lat="43.94477" lon="2.40214">
        <ele>328.8</ele>
        <time>2021-10-21T10:13:49.000Z</time>
      </trkpt>
      <trkpt lat="43.94467" lon="2.40214">
        <ele>328.3</ele>
        <time>2021-10-21T10:13:57.000Z</time>
      </trkpt>
      <trkpt lat="43.94458" lon="2.40214">
        <ele>326.6</ele>
        <time>2021-10-21T10:14:05.000Z</time>
      </trkpt>
      <trkpt lat="43.94449" lon="2.40215">
        <ele>326.2</ele>
        <time>2021-10-21T10:14:13.000Z</time>
      </trkpt>
      <trkpt lat="43.9444" lon="2.40219">
        <ele>325.6</ele>
        <time>2021-10-21T10:14:21.000Z</time>
      </trkpt>
      <trkpt lat="43.9443" lon="2.4022">
        <ele>324.1</ele>
        <time>2021-10-21T10:14:30.000Z</time>
      </trkpt>
      <trkpt lat="43.94421" lon="2.40222">
        <ele>323.1</ele>
        <time>2021-10-21T10:14:37.000Z</time>
      </trkpt>
      <trkpt lat="43.94411" lon="2.40222">
        <ele>322</ele>
        <time>2021-10-21T10:14:45.000Z</time>
      </trkpt>
      <trkpt lat="43.94402" lon="2.40222">
        <ele>320.2</ele>
        <time>2021-10-21T10:14:55.000Z</time>
      </trkpt>
      <trkpt lat="43.94393" lon="2.40218">
        <ele>319.4</ele>
        <time>2021-10-21T10:15:03.000Z</time>
      </trkpt>
      <trkpt lat="43.94383" lon="2.40212">
        <ele>318.1</ele>
        <time>2021-10-21T10:15:11.000Z</time>
      </trkpt>
      <trkpt lat="43.94376" lon="2.40206">
        <ele>317.3</ele>
        <time>2021-10-21T10:15:20.000Z</time>
      </trkpt>
      <trkpt lat="43.94377" lon="2.40206">
        <ele>317.1</ele>
        <time>2021-10-21T10:15:22.000Z</time>
      </trkpt>
      <trkpt lat="43.94369" lon="2.40199">
        <ele>315.5</ele>
        <time>2021-10-21T10:15:31.000Z</time>
      </trkpt>
      <trkpt lat="43.9436" lon="2.40194">
        <ele>314.8</ele>
        <time>2021-10-21T10:15:38.000Z</time>
      </trkpt>
      <trkpt lat="43.94355" lon="2.40204">
        <ele>312.8</ele>
        <time>2021-10-21T10:15:47.000Z</time>
      </trkpt>
      <trkpt lat="43.94361" lon="2.40215">
        <ele>310.4</ele>
        <time>2021-10-21T10:15:54.000Z</time>
      </trkpt>
      <trkpt lat="43.94369" lon="2.40223">
        <ele>309.5</ele>
        <time>2021-10-21T10:16:02.000Z</time>
      </trkpt>
      <trkpt lat="43.94377" lon="2.4023">
        <ele>309.4</ele>
        <time>2021-10-21T10:16:11.000Z</time>
      </trkpt>
      <trkpt lat="43.94385" lon="2.40237">
        <ele>309.5</ele>
        <time>2021-10-21T10:16:19.000Z</time>
      </trkpt>
      <trkpt lat="43.94392" lon="2.40245">
        <ele>308.9</ele>
        <time>2021-10-21T10:16:27.000Z</time>
      </trkpt>
      <trkpt lat="43.944" lon="2.40252">
        <ele>308.4</ele>
        <time>2021-10-21T10:16:35.000Z</time>
      </trkpt>
      <trkpt lat="43.94408" lon="2.4026">
        <ele>307.5</ele>
        <time>2021-10-21T10:16:43.000Z</time>
      </trkpt>
      <trkpt lat="43.94417" lon="2.40266">
        <ele>306</ele>
        <time>2021-10-21T10:16:51.000Z</time>
      </trkpt>
      <trkpt lat="43.94425" lon="2.40274">
        <ele>304.9</ele>
        <time>2021-10-21T10:16:59.000Z</time>
      </trkpt>
      <trkpt lat="43.94432" lon="2.40283">
        <ele>304.4</ele>
        <time>2021-10-21T10:17:07.000Z</time>
      </trkpt>
      <trkpt lat="43.94439" lon="2.40292">
        <ele>303.4</ele>
        <time>2021-10-21T10:17:17.000Z</time>
      </trkpt>
      <trkpt lat="43.94446" lon="2.40301">
        <ele>301.5</ele>
        <time>2021-10-21T10:17:26.000Z</time>
      </trkpt>
      <trkpt lat="43.94453" lon="2.4031">
        <ele>299.6</ele>
        <time>2021-10-21T10:17:35.000Z</time>
      </trkpt>
      <trkpt lat="43.9446" lon="2.40319">
        <ele>298.7</ele>
        <time>2021-10-21T10:17:44.000Z</time>
      </trkpt>
      <trkpt lat="43.94468" lon="2.40328">
        <ele>296.8</ele>
        <time>2021-10-21T10:17:54.000Z</time>
      </trkpt>
      <trkpt lat="43.94474" lon="2.40337">
        <ele>296.2</ele>
        <time>2021-10-21T10:18:03.000Z</time>
      </trkpt>
      <trkpt lat="43.94481" lon="2.40345">
        <ele>295.8</ele>
        <time>2021-10-21T10:18:11.000Z</time>
      </trkpt>
      <trkpt lat="43.94489" lon="2.40354">
        <ele>294.9</ele>
        <time>2021-10-21T10:18:20.000Z</time>
      </trkpt>
      <trkpt lat="43.94496" lon="2.40362">
        <ele>293.9</ele>
        <time>2021-10-21T10:18:28.000Z</time>
      </trkpt>
      <trkpt lat="43.94503" lon="2.40371">
        <ele>293.4</ele>
        <time>2021-10-21T10:18:37.000Z</time>
      </trkpt>
      <trkpt lat="43.9451" lon="2.4038">
        <ele>292.6</ele>
        <time>2021-10-21T10:18:45.000Z</time>
      </trkpt>
      <trkpt lat="43.94517" lon="2.40388">
        <ele>291.3</ele>
        <time>2021-10-21T10:18:53.000Z</time>
      </trkpt>
      <trkpt lat="43.94523" lon="2.40397">
        <ele>290.8</ele>
        <time>2021-10-21T10:19:01.000Z</time>
      </trkpt>
      <trkpt lat="43.9453" lon="2.40405">
        <ele>290.7</ele>
        <time>2021-10-21T10:19:09.000Z</time>
      </trkpt>
      <trkpt lat="43.94529" lon="2.40418">
        <ele>289.2</ele>
        <time>2021-10-21T10:19:18.000Z</time>
      </trkpt>
      <trkpt lat="43.94524" lon="2.40429">
        <ele>286.5</ele>
        <time>2021-10-21T10:19:26.000Z</time>
      </trkpt>
      <trkpt lat="43.94525" lon="2.40442">
        <ele>284.4</ele>
        <time>2021-10-21T10:19:41.000Z</time>
      </trkpt>
      <trkpt lat="43.94526" lon="2.40443">
        <ele>284.4</ele>
        <time>2021-10-21T10:19:46.000Z</time>
      </trkpt>
      <trkpt lat="43.94527" lon="2.40444">
        <ele>284.5</ele>
        <time>2021-10-21T10:19:53.000Z</time>
      </trkpt>
      <trkpt lat="43.94527" lon="2.40444">
        <ele>284.5</ele>
        <time>2021-10-21T10:19:54.000Z</time>
      </trkpt>
      <trkpt lat="43.94527" lon="2.40443">
        <ele>284.3</ele>
        <time>2021-10-21T10:20:03.000Z</time>
      </trkpt>
      <trkpt lat="43.94527" lon="2.40443">
        <ele>284.2</ele>
        <time>2021-10-21T10:20:04.000Z</time>
      </trkpt>
      <trkpt lat="43.94527" lon="2.40443">
        <ele>284.2</ele>
        <time>2021-10-21T10:20:06.000Z</time>
      </trkpt>
      <trkpt lat="43.94528" lon="2.40442">
        <ele>283.7</ele>
        <time>2021-10-21T10:20:10.000Z</time>
      </trkpt>
      <trkpt lat="43.94527" lon="2.40443">
        <ele>283.6</ele>
        <time>2021-10-21T10:20:16.000Z</time>
      </trkpt>
      <trkpt lat="43.94518" lon="2.40445">
        <ele>281.3</ele>
        <time>2021-10-21T10:20:25.000Z</time>
      </trkpt>
      <trkpt lat="43.94509" lon="2.40449">
        <ele>279</ele>
        <time>2021-10-21T10:20:33.000Z</time>
      </trkpt>
      <trkpt lat="43.945" lon="2.40456">
        <ele>276.7</ele>
        <time>2021-10-21T10:20:41.000Z</time>
      </trkpt>
      <trkpt lat="43.94492" lon="2.40462">
        <ele>275.4</ele>
        <time>2021-10-21T10:20:48.000Z</time>
      </trkpt>
      <trkpt lat="43.94483" lon="2.40468">
        <ele>273.9</ele>
        <time>2021-10-21T10:20:56.000Z</time>
      </trkpt>
      <trkpt lat="43.94474" lon="2.40471">
        <ele>272.8</ele>
        <time>2021-10-21T10:21:04.000Z</time>
      </trkpt>
      <trkpt lat="43.94464" lon="2.40471">
        <ele>271.3</ele>
        <time>2021-10-21T10:21:12.000Z</time>
      </trkpt>
      <trkpt lat="43.94455" lon="2.40468">
        <ele>271.2</ele>
        <time>2021-10-21T10:21:19.000Z</time>
      </trkpt>
      <trkpt lat="43.94446" lon="2.40462">
        <ele>270.8</ele>
        <time>2021-10-21T10:21:27.000Z</time>
      </trkpt>
      <trkpt lat="43.94438" lon="2.40455">
        <ele>270.2</ele>
        <time>2021-10-21T10:21:34.000Z</time>
      </trkpt>
      <trkpt lat="43.94431" lon="2.40447">
        <ele>270</ele>
        <time>2021-10-21T10:21:41.000Z</time>
      </trkpt>
      <trkpt lat="43.94423" lon="2.40438">
        <ele>269.5</ele>
        <time>2021-10-21T10:21:49.000Z</time>
      </trkpt>
      <trkpt lat="43.94416" lon="2.40428">
        <ele>268.9</ele>
        <time>2021-10-21T10:21:57.000Z</time>
      </trkpt>
      <trkpt lat="43.94411" lon="2.40418">
        <ele>268.6</ele>
        <time>2021-10-21T10:22:04.000Z</time>
      </trkpt>
      <trkpt lat="43.94405" lon="2.40407">
        <ele>268</ele>
        <time>2021-10-21T10:22:13.000Z</time>
      </trkpt>
      <trkpt lat="43.94399" lon="2.40397">
        <ele>266.9</ele>
        <time>2021-10-21T10:22:21.000Z</time>
      </trkpt>
      <trkpt lat="43.94391" lon="2.40388">
        <ele>266.7</ele>
        <time>2021-10-21T10:22:29.000Z</time>
      </trkpt>
      <trkpt lat="43.94383" lon="2.40382">
        <ele>266.5</ele>
        <time>2021-10-21T10:22:37.000Z</time>
      </trkpt>
      <trkpt lat="43.94374" lon="2.40376">
        <ele>265</ele>
        <time>2021-10-21T10:22:46.000Z</time>
      </trkpt>
      <trkpt lat="43.94365" lon="2.40373">
        <ele>264.1</ele>
        <time>2021-10-21T10:22:54.000Z</time>
      </trkpt>
      <trkpt lat="43.94355" lon="2.4037">
        <ele>262.8</ele>
        <time>2021-10-21T10:23:02.000Z</time>
      </trkpt>
      <trkpt lat="43.94346" lon="2.40367">
        <ele>261.8</ele>
        <time>2021-10-21T10:23:10.000Z</time>
      </trkpt>
      <trkpt lat="43.94337" lon="2.40365">
        <ele>261.1</ele>
        <time>2021-10-21T10:23:18.000Z</time>
      </trkpt>
      <trkpt lat="43.94328" lon="2.40362">
        <ele>260.6</ele>
        <time>2021-10-21T10:23:25.000Z</time>
      </trkpt>
      <trkpt lat="43.94319" lon="2.40357">
        <ele>259.9</ele>
        <time>2021-10-21T10:23:32.000Z</time>
      </trkpt>
      <trkpt lat="43.94311" lon="2.4035">
        <ele>259.6</ele>
        <time>2021-10-21T10:23:39.000Z</time>
      </trkpt>
      <trkpt lat="43.94303" lon="2.40342">
        <ele>259.4</ele>
        <time>2021-10-21T10:23:46.000Z</time>
      </trkpt>
      <trkpt lat="43.94296" lon="2.40333">
        <ele>259.4</ele>
        <time>2021-10-21T10:23:53.000Z</time>
      </trkpt>
      <trkpt lat="43.94289" lon="2.40325">
        <ele>258.1</ele>
        <time>2021-10-21T10:24:01.000Z</time>
      </trkpt>
      <trkpt lat="43.94285" lon="2.40323">
        <ele>257.5</ele>
        <time>2021-10-21T10:24:09.000Z</time>
      </trkpt>
      <trkpt lat="43.94285" lon="2.40323">
        <ele>257.4</ele>
        <time>2021-10-21T10:24:27.000Z</time>
      </trkpt>
      <trkpt lat="43.94285" lon="2.40323">
        <ele>257.4</ele>
        <time>2021-10-21T10:24:28.000Z</time>
      </trkpt>
      <trkpt lat="43.94285" lon="2.40323">
        <ele>257.4</ele>
        <time>2021-10-21T10:24:29.000Z</time>
      </trkpt>
      <trkpt lat="43.94285" lon="2.40323">
        <ele>257.3</ele>
        <time>2021-10-21T10:24:30.000Z</time>
      </trkpt>
      <trkpt lat="43.94286" lon="2.40323">
        <ele>257.2</ele>
        <time>2021-10-21T10:24:31.000Z</time>
      </trkpt>
      <trkpt lat="43.94286" lon="2.40324">
        <ele>257.2</ele>
        <time>2021-10-21T10:24:34.000Z</time>
      </trkpt>
      <trkpt lat="43.94287" lon="2.40324">
        <ele>257</ele>
        <time>2021-10-21T10:24:37.000Z</time>
      </trkpt>
      <trkpt lat="43.94281" lon="2.40313">
        <ele>255.7</ele>
        <time>2021-10-21T10:24:48.000Z</time>
      </trkpt>
      <trkpt lat="43.94275" lon="2.40303">
        <ele>255.1</ele>
        <time>2021-10-21T10:24:56.000Z</time>
      </trkpt>
      <trkpt lat="43.94269" lon="2.40294">
        <ele>254.4</ele>
        <time>2021-10-21T10:25:03.000Z</time>
      </trkpt>
      <trkpt lat="43.94262" lon="2.40285">
        <ele>252.7</ele>
        <time>2021-10-21T10:25:11.000Z</time>
      </trkpt>
      <trkpt lat="43.94255" lon="2.40275">
        <ele>251.3</ele>
        <time>2021-10-21T10:25:19.000Z</time>
      </trkpt>
      <trkpt lat="43.94248" lon="2.40266">
        <ele>250.6</ele>
        <time>2021-10-21T10:25:27.000Z</time>
      </trkpt>
      <trkpt lat="43.94241" lon="2.40256">
        <ele>250.2</ele>
        <time>2021-10-21T10:25:35.000Z</time>
      </trkpt>
      <trkpt lat="43.94234" lon="2.40247">
        <ele>250.4</ele>
        <time>2021-10-21T10:25:43.000Z</time>
      </trkpt>
      <trkpt lat="43.94227" lon="2.40238">
        <ele>250.5</ele>
        <time>2021-10-21T10:25:51.000Z</time>
      </trkpt>
      <trkpt lat="43.9422" lon="2.4023">
        <ele>250.4</ele>
        <time>2021-10-21T10:25:58.000Z</time>
      </trkpt>
      <trkpt lat="43.94212" lon="2.40221">
        <ele>249.1</ele>
        <time>2021-10-21T10:26:06.000Z</time>
      </trkpt>
      <trkpt lat="43.94206" lon="2.40211">
        <ele>248.4</ele>
        <time>2021-10-21T10:26:14.000Z</time>
      </trkpt>
      <trkpt lat="43.94199" lon="2.40203">
        <ele>247.8</ele>
        <time>2021-10-21T10:26:22.000Z</time>
      </trkpt>
      <trkpt lat="43.94192" lon="2.40194">
        <ele>246.5</ele>
        <time>2021-10-21T10:26:31.000Z</time>
      </trkpt>
      <trkpt lat="43.94185" lon="2.40185">
        <ele>245.5</ele>
        <time>2021-10-21T10:26:39.000Z</time>
      </trkpt>
      <trkpt lat="43.94178" lon="2.40177">
        <ele>244.8</ele>
        <time>2021-10-21T10:26:47.000Z</time>
      </trkpt>
      <trkpt lat="43.94171" lon="2.40168">
        <ele>244.3</ele>
        <time>2021-10-21T10:26:55.000Z</time>
      </trkpt>
      <trkpt lat="43.94163" lon="2.40161">
        <ele>244</ele>
        <time>2021-10-21T10:27:05.000Z</time>
      </trkpt>
      <trkpt lat="43.94154" lon="2.40154">
        <ele>243.3</ele>
        <time>2021-10-21T10:27:14.000Z</time>
      </trkpt>
      <trkpt lat="43.94146" lon="2.40149">
        <ele>242.7</ele>
        <time>2021-10-21T10:27:22.000Z</time>
      </trkpt>
      <trkpt lat="43.94137" lon="2.40142">
        <ele>242.7</ele>
        <time>2021-10-21T10:27:30.000Z</time>
      </trkpt>
      <trkpt lat="43.94127" lon="2.4014">
        <ele>242.7</ele>
        <time>2021-10-21T10:27:37.000Z</time>
      </trkpt>
      <trkpt lat="43.94118" lon="2.40135">
        <ele>243.1</ele>
        <time>2021-10-21T10:27:45.000Z</time>
      </trkpt>
      <trkpt lat="43.94109" lon="2.40129">
        <ele>242.1</ele>
        <time>2021-10-21T10:27:54.000Z</time>
      </trkpt>
      <trkpt lat="43.941" lon="2.40124">
        <ele>241.3</ele>
        <time>2021-10-21T10:28:02.000Z</time>
      </trkpt>
      <trkpt lat="43.94091" lon="2.40119">
        <ele>240.2</ele>
        <time>2021-10-21T10:28:11.000Z</time>
      </trkpt>
      <trkpt lat="43.94082" lon="2.40115">
        <ele>239.8</ele>
        <time>2021-10-21T10:28:19.000Z</time>
      </trkpt>
      <trkpt lat="43.94073" lon="2.40109">
        <ele>239.5</ele>
        <time>2021-10-21T10:28:27.000Z</time>
      </trkpt>
      <trkpt lat="43.94063" lon="2.40104">
        <ele>238.8</ele>
        <time>2021-10-21T10:28:35.000Z</time>
      </trkpt>
      <trkpt lat="43.94056" lon="2.40097">
        <ele>238.4</ele>
        <time>2021-10-21T10:28:42.000Z</time>
      </trkpt>
      <trkpt lat="43.94049" lon="2.40089">
        <ele>237.5</ele>
        <time>2021-10-21T10:28:49.000Z</time>
      </trkpt>
      <trkpt lat="43.94043" lon="2.40079">
        <ele>237</ele>
        <time>2021-10-21T10:28:56.000Z</time>
      </trkpt>
      <trkpt lat="43.94041" lon="2.40066">
        <ele>236.1</ele>
        <time>2021-10-21T10:29:04.000Z</time>
      </trkpt>
      <trkpt lat="43.94046" lon="2.40054">
        <ele>235.6</ele>
        <time>2021-10-21T10:29:11.000Z</time>
      </trkpt>
      <trkpt lat="43.94055" lon="2.40048">
        <ele>234.5</ele>
        <time>2021-10-21T10:29:21.000Z</time>
      </trkpt>
      <trkpt lat="43.94064" lon="2.40048">
        <ele>234.3</ele>
        <time>2021-10-21T10:29:29.000Z</time>
      </trkpt>
      <trkpt lat="43.94074" lon="2.40049">
        <ele>233.4</ele>
        <time>2021-10-21T10:29:36.000Z</time>
      </trkpt>
      <trkpt lat="43.94083" lon="2.40051">
        <ele>232.4</ele>
        <time>2021-10-21T10:29:43.000Z</time>
      </trkpt>
      <trkpt lat="43.94092" lon="2.40051">
        <ele>231.5</ele>
        <time>2021-10-21T10:29:50.000Z</time>
      </trkpt>
      <trkpt lat="43.94102" lon="2.40051">
        <ele>230.1</ele>
        <time>2021-10-21T10:29:58.000Z</time>
      </trkpt>
      <trkpt lat="43.94112" lon="2.40051">
        <ele>229.9</ele>
        <time>2021-10-21T10:30:06.000Z</time>
      </trkpt>
      <trkpt lat="43.94122" lon="2.40048">
        <ele>229.8</ele>
        <time>2021-10-21T10:30:15.000Z</time>
      </trkpt>
      <trkpt lat="43.94131" lon="2.40046">
        <ele>230.1</ele>
        <time>2021-10-21T10:30:22.000Z</time>
      </trkpt>
      <trkpt lat="43.94141" lon="2.40046">
        <ele>229.5</ele>
        <time>2021-10-21T10:30:29.000Z</time>
      </trkpt>
      <trkpt lat="43.9415" lon="2.40045">
        <ele>229.4</ele>
        <time>2021-10-21T10:30:36.000Z</time>
      </trkpt>
      <trkpt lat="43.9416" lon="2.40045">
        <ele>229.5</ele>
        <time>2021-10-21T10:30:44.000Z</time>
      </trkpt>
      <trkpt lat="43.94169" lon="2.40047">
        <ele>228.7</ele>
        <time>2021-10-21T10:30:52.000Z</time>
      </trkpt>
      <trkpt lat="43.94179" lon="2.40049">
        <ele>228.6</ele>
        <time>2021-10-21T10:31:00.000Z</time>
      </trkpt>
      <trkpt lat="43.94188" lon="2.40045">
        <ele>228.2</ele>
        <time>2021-10-21T10:31:07.000Z</time>
      </trkpt>
      <trkpt lat="43.94191" lon="2.40039">
        <ele>227.4</ele>
        <time>2021-10-21T10:31:14.000Z</time>
      </trkpt>
      <trkpt lat="43.94192" lon="2.40038">
        <ele>227.2</ele>
        <time>2021-10-21T10:31:16.000Z</time>
      </trkpt>
      <trkpt lat="43.94199" lon="2.4003">
        <ele>227.2</ele>
        <time>2021-10-21T10:31:23.000Z</time>
      </trkpt>
      <trkpt lat="43.94207" lon="2.40024">
        <ele>226.6</ele>
        <time>2021-10-21T10:31:30.000Z</time>
      </trkpt>
      <trkpt lat="43.94216" lon="2.40021">
        <ele>226.2</ele>
        <time>2021-10-21T10:31:37.000Z</time>
      </trkpt>
      <trkpt lat="43.94225" lon="2.4002">
        <ele>225.6</ele>
        <time>2021-10-21T10:31:44.000Z</time>
      </trkpt>
      <trkpt lat="43.94235" lon="2.40018">
        <ele>225.9</ele>
        <time>2021-10-21T10:31:51.000Z</time>
      </trkpt>
      <trkpt lat="43.94235" lon="2.40005">
        <ele>223.7</ele>
        <time>2021-10-21T10:32:01.000Z</time>
      </trkpt>
      <trkpt lat="43.94225" lon="2.40004">
        <ele>221.7</ele>
        <time>2021-10-21T10:32:07.000Z</time>
      </trkpt>
      <trkpt lat="43.94216" lon="2.40005">
        <ele>221.1</ele>
        <time>2021-10-21T10:32:14.000Z</time>
      </trkpt>
      <trkpt lat="43.94206" lon="2.40007">
        <ele>221.1</ele>
        <time>2021-10-21T10:32:21.000Z</time>
      </trkpt>
      <trkpt lat="43.94197" lon="2.40007">
        <ele>220.3</ele>
        <time>2021-10-21T10:32:28.000Z</time>
      </trkpt>
      <trkpt lat="43.94188" lon="2.4">
        <ele>219.1</ele>
        <time>2021-10-21T10:32:37.000Z</time>
      </trkpt>
      <trkpt lat="43.94189" lon="2.39987">
        <ele>218</ele>
        <time>2021-10-21T10:32:49.000Z</time>
      </trkpt>
      <trkpt lat="43.94194" lon="2.39975">
        <ele>217.4</ele>
        <time>2021-10-21T10:32:58.000Z</time>
      </trkpt>
      <trkpt lat="43.94198" lon="2.39963">
        <ele>217.4</ele>
        <time>2021-10-21T10:33:06.000Z</time>
      </trkpt>
      <trkpt lat="43.94202" lon="2.3995">
        <ele>218.4</ele>
        <time>2021-10-21T10:33:15.000Z</time>
      </trkpt>
      <trkpt lat="43.94204" lon="2.39937">
        <ele>218.9</ele>
        <time>2021-10-21T10:33:24.000Z</time>
      </trkpt>
      <trkpt lat="43.94209" lon="2.39926">
        <ele>219.2</ele>
        <time>2021-10-21T10:33:32.000Z</time>
      </trkpt>
      <trkpt lat="43.94214" lon="2.39915">
        <ele>218.8</ele>
        <time>2021-10-21T10:33:42.000Z</time>
      </trkpt>
      <trkpt lat="43.94217" lon="2.39903">
        <ele>217.7</ele>
        <time>2021-10-21T10:33:51.000Z</time>
      </trkpt>
      <trkpt lat="43.94223" lon="2.39892">
        <ele>218.4</ele>
        <time>2021-10-21T10:34:02.000Z</time>
      </trkpt>
      <trkpt lat="43.94225" lon="2.39888">
        <ele>218.5</ele>
        <time>2021-10-21T10:34:07.000Z</time>
      </trkpt>
      <trkpt lat="43.94226" lon="2.39888">
        <ele>218.4</ele>
        <time>2021-10-21T10:34:11.000Z</time>
      </trkpt>
      <trkpt lat="43.9423" lon="2.39877">
        <ele>218.1</ele>
        <time>2021-10-21T10:34:20.000Z</time>
      </trkpt>
      <trkpt lat="43.94234" lon="2.39865">
        <ele>218.5</ele>
        <time>2021-10-21T10:34:27.000Z</time>
      </trkpt>
      <trkpt lat="43.94236" lon="2.39852">
        <ele>218.5</ele>
        <time>2021-10-21T10:34:35.000Z</time>
      </trkpt>
      <trkpt lat="43.94241" lon="2.39841">
        <ele>218.9</ele>
        <time>2021-10-21T10:34:45.000Z</time>
      </trkpt>
      <trkpt lat="43.94245" lon="2.39829">
        <ele>219.1</ele>
        <time>2021-10-21T10:34:55.000Z</time>
      </trkpt>
      <trkpt lat="43.94249" lon="2.39816">
        <ele>218.4</ele>
        <time>2021-10-21T10:35:04.000Z</time>
      </trkpt>
      <trkpt lat="43.94254" lon="2.39804">
        <ele>218.1</ele>
        <time>2021-10-21T10:35:13.000Z</time>
      </trkpt>
      <trkpt lat="43.94258" lon="2.39793">
        <ele>218.6</ele>
        <time>2021-10-21T10:35:21.000Z</time>
      </trkpt>
      <trkpt lat="43.94264" lon="2.39783">
        <ele>218.7</ele>
        <time>2021-10-21T10:35:32.000Z</time>
      </trkpt>
      <trkpt lat="43.94269" lon="2.39771">
        <ele>219.2</ele>
        <time>2021-10-21T10:35:41.000Z</time>
      </trkpt>
      <trkpt lat="43.94273" lon="2.39758">
        <ele>220.5</ele>
        <time>2021-10-21T10:35:52.000Z</time>
      </trkpt>
      <trkpt lat="43.94278" lon="2.39747">
        <ele>220.5</ele>
        <time>2021-10-21T10:36:01.000Z</time>
      </trkpt>
      <trkpt lat="43.94283" lon="2.39735">
        <ele>220.5</ele>
        <time>2021-10-21T10:36:10.000Z</time>
      </trkpt>
      <trkpt lat="43.94289" lon="2.39725">
        <ele>219.8</ele>
        <time>2021-10-21T10:36:19.000Z</time>
      </trkpt>
      <trkpt lat="43.94293" lon="2.39714">
        <ele>219.4</ele>
        <time>2021-10-21T10:36:27.000Z</time>
      </trkpt>
      <trkpt lat="43.94299" lon="2.39703">
        <ele>219.7</ele>
        <time>2021-10-21T10:36:35.000Z</time>
      </trkpt>
      <trkpt lat="43.94301" lon="2.39699">
        <ele>220.1</ele>
        <time>2021-10-21T10:36:41.000Z</time>
      </trkpt>
      <trkpt lat="43.94302" lon="2.39699">
        <ele>220</ele>
        <time>2021-10-21T10:36:42.000Z</time>
      </trkpt>
      <trkpt lat="43.94301" lon="2.397">
        <ele>219.7</ele>
        <time>2021-10-21T10:36:44.000Z</time>
      </trkpt>
      <trkpt lat="43.94302" lon="2.397">
        <ele>219.7</ele>
        <time>2021-10-21T10:36:45.000Z</time>
      </trkpt>
      <trkpt lat="43.94295" lon="2.39709">
        <ele>219</ele>
        <time>2021-10-21T10:36:58.000Z</time>
      </trkpt>
      <trkpt lat="43.94289" lon="2.39719">
        <ele>219</ele>
        <time>2021-10-21T10:37:06.000Z</time>
      </trkpt>
      <trkpt lat="43.94283" lon="2.39728">
        <ele>218.3</ele>
        <time>2021-10-21T10:37:15.000Z</time>
      </trkpt>
      <trkpt lat="43.94283" lon="2.39727">
        <ele>218.3</ele>
        <time>2021-10-21T10:37:16.000Z</time>
      </trkpt>
      <trkpt lat="43.94283" lon="2.39727">
        <ele>218.3</ele>
        <time>2021-10-21T10:37:17.000Z</time>
      </trkpt>
      <trkpt lat="43.94283" lon="2.39728">
        <ele>218.3</ele>
        <time>2021-10-21T10:37:21.000Z</time>
      </trkpt>
      <trkpt lat="43.94282" lon="2.3973">
        <ele>217.8</ele>
        <time>2021-10-21T10:37:26.000Z</time>
      </trkpt>
      <trkpt lat="43.94282" lon="2.3973">
        <ele>217.6</ele>
        <time>2021-10-21T10:37:27.000Z</time>
      </trkpt>
      <trkpt lat="43.94284" lon="2.39729">
        <ele>217.8</ele>
        <time>2021-10-21T10:37:32.000Z</time>
      </trkpt>
      <trkpt lat="43.94284" lon="2.39729">
        <ele>217.8</ele>
        <time>2021-10-21T10:37:35.000Z</time>
      </trkpt>
      <trkpt lat="43.94284" lon="2.39729">
        <ele>217.8</ele>
        <time>2021-10-21T10:37:36.000Z</time>
      </trkpt>
      <trkpt lat="43.94284" lon="2.39729">
        <ele>217.8</ele>
        <time>2021-10-21T10:37:40.000Z</time>
      </trkpt>
      <trkpt lat="43.94284" lon="2.39729">
        <ele>217.7</ele>
        <time>2021-10-21T10:37:41.000Z</time>
      </trkpt>
      <trkpt lat="43.94285" lon="2.39728">
        <ele>217.6</ele>
        <time>2021-10-21T10:37:42.000Z</time>
      </trkpt>
      <trkpt lat="43.94292" lon="2.39719">
        <ele>217.4</ele>
        <time>2021-10-21T10:37:51.000Z</time>
      </trkpt>
      <trkpt lat="43.94297" lon="2.39708">
        <ele>217.6</ele>
        <time>2021-10-21T10:38:00.000Z</time>
      </trkpt>
      <trkpt lat="43.94304" lon="2.39698">
        <ele>217.6</ele>
        <time>2021-10-21T10:38:09.000Z</time>
      </trkpt>
      <trkpt lat="43.94311" lon="2.3969">
        <ele>217</ele>
        <time>2021-10-21T10:38:17.000Z</time>
      </trkpt>
      <trkpt lat="43.9432" lon="2.39685">
        <ele>217</ele>
        <time>2021-10-21T10:38:26.000Z</time>
      </trkpt>
      <trkpt lat="43.94329" lon="2.39683">
        <ele>216.6</ele>
        <time>2021-10-21T10:38:33.000Z</time>
      </trkpt>
      <trkpt lat="43.9434" lon="2.39682">
        <ele>216.5</ele>
        <time>2021-10-21T10:38:40.000Z</time>
      </trkpt>
      <trkpt lat="43.9435" lon="2.39683">
        <ele>216.8</ele>
        <time>2021-10-21T10:38:47.000Z</time>
      </trkpt>
      <trkpt lat="43.94359" lon="2.39688">
        <ele>215.5</ele>
        <time>2021-10-21T10:38:57.000Z</time>
      </trkpt>
      <trkpt lat="43.94366" lon="2.39697">
        <ele>214.1</ele>
        <time>2021-10-21T10:39:07.000Z</time>
      </trkpt>
      <trkpt lat="43.94367" lon="2.39699">
        <ele>213.7</ele>
        <time>2021-10-21T10:39:10.000Z</time>
      </trkpt>
      <trkpt lat="43.94367" lon="2.39699">
        <ele>213.5</ele>
        <time>2021-10-21T10:39:11.000Z</time>
      </trkpt>
      <trkpt lat="43.94367" lon="2.39714">
        <ele>212.7</ele>
        <time>2021-10-21T10:39:20.000Z</time>
      </trkpt>
      <trkpt lat="43.94365" lon="2.39727">
        <ele>211.9</ele>
        <time>2021-10-21T10:39:28.000Z</time>
      </trkpt>
      <trkpt lat="43.9436" lon="2.39733">
        <ele>211.1</ele>
        <time>2021-10-21T10:39:36.000Z</time>
      </trkpt>
      <trkpt lat="43.94359" lon="2.39733">
        <ele>211.1</ele>
        <time>2021-10-21T10:39:37.000Z</time>
      </trkpt>
      <trkpt lat="43.94351" lon="2.3974">
        <ele>211.2</ele>
        <time>2021-10-21T10:39:43.000Z</time>
      </trkpt>
      <trkpt lat="43.94342" lon="2.39745">
        <ele>210.5</ele>
        <time>2021-10-21T10:39:51.000Z</time>
      </trkpt>
      <trkpt lat="43.94334" lon="2.39751">
        <ele>211.6</ele>
        <time>2021-10-21T10:40:01.000Z</time>
      </trkpt>
      <trkpt lat="43.94326" lon="2.39759">
        <ele>211.2</ele>
        <time>2021-10-21T10:40:12.000Z</time>
      </trkpt>
      <trkpt lat="43.94317" lon="2.39764">
        <ele>210.8</ele>
        <time>2021-10-21T10:40:19.000Z</time>
      </trkpt>
      <trkpt lat="43.94307" lon="2.39766">
        <ele>210.9</ele>
        <time>2021-10-21T10:40:26.000Z</time>
      </trkpt>
      <trkpt lat="43.94299" lon="2.39771">
        <ele>210.8</ele>
        <time>2021-10-21T10:40:34.000Z</time>
      </trkpt>
      <trkpt lat="43.94291" lon="2.39778">
        <ele>211</ele>
        <time>2021-10-21T10:40:42.000Z</time>
      </trkpt>
      <trkpt lat="43.94283" lon="2.39786">
        <ele>209.9</ele>
        <time>2021-10-21T10:40:51.000Z</time>
      </trkpt>
      <trkpt lat="43.94276" lon="2.39794">
        <ele>209.4</ele>
        <time>2021-10-21T10:41:04.000Z</time>
      </trkpt>
      <trkpt lat="43.94278" lon="2.398">
        <ele>208.7</ele>
        <time>2021-10-21T10:41:15.000Z</time>
      </trkpt>
      <trkpt lat="43.94278" lon="2.398">
        <ele>208.9</ele>
        <time>2021-10-21T10:41:16.000Z</time>
      </trkpt>
      <trkpt lat="43.94287" lon="2.39804">
        <ele>208.8</ele>
        <time>2021-10-21T10:41:24.000Z</time>
      </trkpt>
      <trkpt lat="43.94288" lon="2.39817">
        <ele>208.3</ele>
        <time>2021-10-21T10:41:33.000Z</time>
      </trkpt>
      <trkpt lat="43.94291" lon="2.39823">
        <ele>208.3</ele>
        <time>2021-10-21T10:41:44.000Z</time>
      </trkpt>
      <trkpt lat="43.94291" lon="2.39823">
        <ele>208.3</ele>
        <time>2021-10-21T10:41:47.000Z</time>
      </trkpt>
      <trkpt lat="43.94291" lon="2.39824">
        <ele>208.2</ele>
        <time>2021-10-21T10:41:48.000Z</time>
      </trkpt>
      <trkpt lat="43.94291" lon="2.39822">
        <ele>207.5</ele>
        <time>2021-10-21T10:41:50.000Z</time>
      </trkpt>
      <trkpt lat="43.94293" lon="2.39819">
        <ele>206.1</ele>
        <time>2021-10-21T10:42:01.000Z</time>
      </trkpt>
      <trkpt lat="43.94292" lon="2.39819">
        <ele>206.1</ele>
        <time>2021-10-21T10:42:04.000Z</time>
      </trkpt>
      <trkpt lat="43.9429" lon="2.3982">
        <ele>206.8</ele>
        <time>2021-10-21T10:42:14.000Z</time>
      </trkpt>
      <trkpt lat="43.9429" lon="2.3982">
        <ele>207.1</ele>
        <time>2021-10-21T10:42:28.000Z</time>
      </trkpt>
      <trkpt lat="43.9429" lon="2.3982">
        <ele>207.2</ele>
        <time>2021-10-21T10:42:29.000Z</time>
      </trkpt>
      <trkpt lat="43.9429" lon="2.3982">
        <ele>207</ele>
        <time>2021-10-21T10:42:30.000Z</time>
      </trkpt>
      <trkpt lat="43.94291" lon="2.39819">
        <ele>206.7</ele>
        <time>2021-10-21T10:42:32.000Z</time>
      </trkpt>
      <trkpt lat="43.94291" lon="2.39819">
        <ele>206.5</ele>
        <time>2021-10-21T10:42:46.000Z</time>
      </trkpt>
      <trkpt lat="43.94291" lon="2.39819">
        <ele>206.5</ele>
        <time>2021-10-21T10:42:47.000Z</time>
      </trkpt>
      <trkpt lat="43.94291" lon="2.39819">
        <ele>206.4</ele>
        <time>2021-10-21T10:42:57.000Z</time>
      </trkpt>
      <trkpt lat="43.94291" lon="2.39819">
        <ele>206.4</ele>
        <time>2021-10-21T10:42:58.000Z</time>
      </trkpt>
      <trkpt lat="43.94291" lon="2.39819">
        <ele>206.5</ele>
        <time>2021-10-21T10:43:11.000Z</time>
      </trkpt>
      <trkpt lat="43.94291" lon="2.39819">
        <ele>206.5</ele>
        <time>2021-10-21T10:43:12.000Z</time>
      </trkpt>
      <trkpt lat="43.94291" lon="2.39819">
        <ele>206.4</ele>
        <time>2021-10-21T10:43:42.000Z</time>
      </trkpt>
      <trkpt lat="43.94291" lon="2.39819">
        <ele>206.4</ele>
        <time>2021-10-21T10:43:43.000Z</time>
      </trkpt>
      <trkpt lat="43.94291" lon="2.39819">
        <ele>206.6</ele>
        <time>2021-10-21T10:43:44.000Z</time>
      </trkpt>
      <trkpt lat="43.94291" lon="2.39819">
        <ele>206.4</ele>
        <time>2021-10-21T10:43:46.000Z</time>
      </trkpt>
      <trkpt lat="43.94292" lon="2.39819">
        <ele>206.2</ele>
        <time>2021-10-21T10:43:48.000Z</time>
      </trkpt>
      <trkpt lat="43.94292" lon="2.39818">
        <ele>205.9</ele>
        <time>2021-10-21T10:43:50.000Z</time>
      </trkpt>
      <trkpt lat="43.94292" lon="2.39818">
        <ele>205.8</ele>
        <time>2021-10-21T10:44:05.000Z</time>
      </trkpt>
      <trkpt lat="43.94292" lon="2.39818">
        <ele>205.8</ele>
        <time>2021-10-21T10:44:06.000Z</time>
      </trkpt>
      <trkpt lat="43.94292" lon="2.39818">
        <ele>205.5</ele>
        <time>2021-10-21T10:46:50.000Z</time>
      </trkpt>
      <trkpt lat="43.94292" lon="2.39818">
        <ele>205.5</ele>
        <time>2021-10-21T10:46:51.000Z</time>
      </trkpt>
      <trkpt lat="43.94292" lon="2.39818">
        <ele>205.4</ele>
        <time>2021-10-21T10:47:40.000Z</time>
      </trkpt>
      <trkpt lat="43.94292" lon="2.39818">
        <ele>205.4</ele>
        <time>2021-10-21T10:47:41.000Z</time>
      </trkpt>
      <trkpt lat="43.94292" lon="2.39817">
        <ele>205.2</ele>
        <time>2021-10-21T10:48:41.000Z</time>
      </trkpt>
      <trkpt lat="43.94292" lon="2.39817">
        <ele>205.2</ele>
        <time>2021-10-21T10:48:42.000Z</time>
      </trkpt>
      <trkpt lat="43.94292" lon="2.39817">
        <ele>205</ele>
        <time>2021-10-21T10:50:13.000Z</time>
      </trkpt>
      <trkpt lat="43.94292" lon="2.39817">
        <ele>205</ele>
        <time>2021-10-21T10:50:14.000Z</time>
      </trkpt>
      <trkpt lat="43.94293" lon="2.39817">
        <ele>204.8</ele>
        <time>2021-10-21T10:52:19.000Z</time>
      </trkpt>
      <trkpt lat="43.94293" lon="2.39817">
        <ele>204.8</ele>
        <time>2021-10-21T10:52:20.000Z</time>
      </trkpt>
      <trkpt lat="43.94293" lon="2.39817">
        <ele>204.5</ele>
        <time>2021-10-21T10:56:47.000Z</time>
      </trkpt>
      <trkpt lat="43.94293" lon="2.39817">
        <ele>204.5</ele>
        <time>2021-10-21T10:56:48.000Z</time>
      </trkpt>
      <trkpt lat="43.94293" lon="2.39817">
        <ele>204.4</ele>
        <time>2021-10-21T11:00:22.000Z</time>
      </trkpt>
      <trkpt lat="43.94293" lon="2.39817">
        <ele>204.4</ele>
        <time>2021-10-21T11:00:23.000Z</time>
      </trkpt>
      <trkpt lat="43.94293" lon="2.39817">
        <ele>204.3</ele>
        <time>2021-10-21T11:02:35.000Z</time>
      </trkpt>
      <trkpt lat="43.94293" lon="2.39817">
        <ele>204.3</ele>
        <time>2021-10-21T11:02:36.000Z</time>
      </trkpt>
      <trkpt lat="43.94293" lon="2.39817">
        <ele>204.2</ele>
        <time>2021-10-21T11:04:41.000Z</time>
      </trkpt>
      <trkpt lat="43.94293" lon="2.39817">
        <ele>204.1</ele>
        <time>2021-10-21T11:04:42.000Z</time>
      </trkpt>
      <trkpt lat="43.94292" lon="2.39817">
        <ele>203.6</ele>
        <time>2021-10-21T11:09:04.000Z</time>
      </trkpt>
      <trkpt lat="43.94292" lon="2.39816">
        <ele>203.4</ele>
        <time>2021-10-21T11:09:09.000Z</time>
      </trkpt>
      <trkpt lat="43.94292" lon="2.39816">
        <ele>203.4</ele>
        <time>2021-10-21T11:09:12.000Z</time>
      </trkpt>
      <trkpt lat="43.94292" lon="2.39817">
        <ele>203.5</ele>
        <time>2021-10-21T11:09:14.000Z</time>
      </trkpt>
      <trkpt lat="43.94292" lon="2.39816">
        <ele>203.5</ele>
        <time>2021-10-21T11:09:16.000Z</time>
      </trkpt>
      <trkpt lat="43.94292" lon="2.39816">
        <ele>203.5</ele>
        <time>2021-10-21T11:09:18.000Z</time>
      </trkpt>
      <trkpt lat="43.94292" lon="2.39816">
        <ele>203.5</ele>
        <time>2021-10-21T11:09:19.000Z</time>
      </trkpt>
      <trkpt lat="43.94292" lon="2.39816">
        <ele>203.5</ele>
        <time>2021-10-21T11:09:21.000Z</time>
      </trkpt>
      <trkpt lat="43.94292" lon="2.39816">
        <ele>203.5</ele>
        <time>2021-10-21T11:09:22.000Z</time>
      </trkpt>
      <trkpt lat="43.94292" lon="2.39816">
        <ele>203.1</ele>
        <time>2021-10-21T11:09:30.000Z</time>
      </trkpt>
      <trkpt lat="43.94292" lon="2.39816">
        <ele>203.2</ele>
        <time>2021-10-21T11:09:37.000Z</time>
      </trkpt>
      <trkpt lat="43.94292" lon="2.39816">
        <ele>202.9</ele>
        <time>2021-10-21T11:09:40.000Z</time>
      </trkpt>
      <trkpt lat="43.94292" lon="2.39816">
        <ele>202.8</ele>
        <time>2021-10-21T11:09:52.000Z</time>
      </trkpt>
      <trkpt lat="43.94292" lon="2.39816">
        <ele>202.9</ele>
        <time>2021-10-21T11:09:54.000Z</time>
      </trkpt>
      <trkpt lat="43.94292" lon="2.39816">
        <ele>203</ele>
        <time>2021-10-21T11:09:55.000Z</time>
      </trkpt>
      <trkpt lat="43.94293" lon="2.39814">
        <ele>203.1</ele>
        <time>2021-10-21T11:10:02.000Z</time>
      </trkpt>
      <trkpt lat="43.94293" lon="2.39813">
        <ele>203.1</ele>
        <time>2021-10-21T11:10:16.000Z</time>
      </trkpt>
      <trkpt lat="43.94294" lon="2.39812">
        <ele>203.2</ele>
        <time>2021-10-21T11:10:19.000Z</time>
      </trkpt>
      <trkpt lat="43.94294" lon="2.39812">
        <ele>203.3</ele>
        <time>2021-10-21T11:10:20.000Z</time>
      </trkpt>
      <trkpt lat="43.94295" lon="2.39811">
        <ele>203.4</ele>
        <time>2021-10-21T11:10:24.000Z</time>
      </trkpt>
      <trkpt lat="43.94295" lon="2.39811">
        <ele>203.4</ele>
        <time>2021-10-21T11:10:40.000Z</time>
      </trkpt>
      <trkpt lat="43.94295" lon="2.39811">
        <ele>203.4</ele>
        <time>2021-10-21T11:10:41.000Z</time>
      </trkpt>
      <trkpt lat="43.94295" lon="2.39811">
        <ele>203.3</ele>
        <time>2021-10-21T11:11:13.000Z</time>
      </trkpt>
      <trkpt lat="43.94295" lon="2.39811">
        <ele>203.3</ele>
        <time>2021-10-21T11:11:14.000Z</time>
      </trkpt>
      <trkpt lat="43.94295" lon="2.39811">
        <ele>203.2</ele>
        <time>2021-10-21T11:11:31.000Z</time>
      </trkpt>
      <trkpt lat="43.94295" lon="2.39811">
        <ele>203.2</ele>
        <time>2021-10-21T11:11:32.000Z</time>
      </trkpt>
      <trkpt lat="43.94294" lon="2.39812">
        <ele>203.1</ele>
        <time>2021-10-21T11:11:50.000Z</time>
      </trkpt>
      <trkpt lat="43.94294" lon="2.39812">
        <ele>203.1</ele>
        <time>2021-10-21T11:11:51.000Z</time>
      </trkpt>
      <trkpt lat="43.94295" lon="2.39812">
        <ele>203.2</ele>
        <time>2021-10-21T11:12:04.000Z</time>
      </trkpt>
      <trkpt lat="43.94295" lon="2.39812">
        <ele>203.2</ele>
        <time>2021-10-21T11:12:05.000Z</time>
      </trkpt>
      <trkpt lat="43.94295" lon="2.39812">
        <ele>203.3</ele>
        <time>2021-10-21T11:12:06.000Z</time>
      </trkpt>
      <trkpt lat="43.94295" lon="2.39812">
        <ele>203.3</ele>
        <time>2021-10-21T11:12:07.000Z</time>
      </trkpt>
      <trkpt lat="43.94295" lon="2.39812">
        <ele>203.3</ele>
        <time>2021-10-21T11:12:34.000Z</time>
      </trkpt>
      <trkpt lat="43.94295" lon="2.39812">
        <ele>203.3</ele>
        <time>2021-10-21T11:12:35.000Z</time>
      </trkpt>
      <trkpt lat="43.94294" lon="2.39812">
        <ele>203.2</ele>
        <time>2021-10-21T11:12:55.000Z</time>
      </trkpt>
      <trkpt lat="43.94294" lon="2.39812">
        <ele>203.1</ele>
        <time>2021-10-21T11:12:57.000Z</time>
      </trkpt>
      <trkpt lat="43.94294" lon="2.39812">
        <ele>203.1</ele>
        <time>2021-10-21T11:13:01.000Z</time>
      </trkpt>
      <trkpt lat="43.94295" lon="2.39812">
        <ele>203.2</ele>
        <time>2021-10-21T11:13:03.000Z</time>
      </trkpt>
      <trkpt lat="43.94295" lon="2.39812">
        <ele>203.2</ele>
        <time>2021-10-21T11:13:09.000Z</time>
      </trkpt>
      <trkpt lat="43.94295" lon="2.39812">
        <ele>203.2</ele>
        <time>2021-10-21T11:13:10.000Z</time>
      </trkpt>
      <trkpt lat="43.94295" lon="2.39812">
        <ele>203.3</ele>
        <time>2021-10-21T11:13:22.000Z</time>
      </trkpt>
      <trkpt lat="43.94295" lon="2.39813">
        <ele>202.9</ele>
        <time>2021-10-21T11:13:25.000Z</time>
      </trkpt>
      <trkpt lat="43.94295" lon="2.39813">
        <ele>202.8</ele>
        <time>2021-10-21T11:13:28.000Z</time>
      </trkpt>
      <trkpt lat="43.94296" lon="2.39813">
        <ele>201.5</ele>
        <time>2021-10-21T11:13:32.000Z</time>
      </trkpt>
      <trkpt lat="43.94296" lon="2.39813">
        <ele>201.5</ele>
        <time>2021-10-21T11:13:58.000Z</time>
      </trkpt>
      <trkpt lat="43.94296" lon="2.39813">
        <ele>201.5</ele>
        <time>2021-10-21T11:13:59.000Z</time>
      </trkpt>
      <trkpt lat="43.94296" lon="2.39813">
        <ele>201.4</ele>
        <time>2021-10-21T11:14:46.000Z</time>
      </trkpt>
      <trkpt lat="43.94296" lon="2.39814">
        <ele>201.4</ele>
        <time>2021-10-21T11:14:47.000Z</time>
      </trkpt>
      <trkpt lat="43.94296" lon="2.39814">
        <ele>201.3</ele>
        <time>2021-10-21T11:15:24.000Z</time>
      </trkpt>
      <trkpt lat="43.94296" lon="2.39814">
        <ele>201.3</ele>
        <time>2021-10-21T11:15:25.000Z</time>
      </trkpt>
      <trkpt lat="43.94296" lon="2.39814">
        <ele>201.2</ele>
        <time>2021-10-21T11:15:53.000Z</time>
      </trkpt>
      <trkpt lat="43.94295" lon="2.39815">
        <ele>200.9</ele>
        <time>2021-10-21T11:15:58.000Z</time>
      </trkpt>
      <trkpt lat="43.94295" lon="2.39815">
        <ele>201.1</ele>
        <time>2021-10-21T11:16:00.000Z</time>
      </trkpt>
      <trkpt lat="43.94295" lon="2.39815">
        <ele>201.1</ele>
        <time>2021-10-21T11:16:02.000Z</time>
      </trkpt>
      <trkpt lat="43.94295" lon="2.39816">
        <ele>201</ele>
        <time>2021-10-21T11:16:22.000Z</time>
      </trkpt>
      <trkpt lat="43.94295" lon="2.39816">
        <ele>201</ele>
        <time>2021-10-21T11:16:23.000Z</time>
      </trkpt>
      <trkpt lat="43.94295" lon="2.39816">
        <ele>201.1</ele>
        <time>2021-10-21T11:16:54.000Z</time>
      </trkpt>
      <trkpt lat="43.94295" lon="2.39816">
        <ele>201.2</ele>
        <time>2021-10-21T11:16:56.000Z</time>
      </trkpt>
      <trkpt lat="43.94295" lon="2.39815">
        <ele>201.3</ele>
        <time>2021-10-21T11:16:57.000Z</time>
      </trkpt>
      <trkpt lat="43.94294" lon="2.39815">
        <ele>201.3</ele>
        <time>2021-10-21T11:16:59.000Z</time>
      </trkpt>
      <trkpt lat="43.94294" lon="2.39815">
        <ele>201.3</ele>
        <time>2021-10-21T11:17:00.000Z</time>
      </trkpt>
      <trkpt lat="43.94294" lon="2.39814">
        <ele>202</ele>
        <time>2021-10-21T11:17:03.000Z</time>
      </trkpt>
      <trkpt lat="43.94294" lon="2.39814">
        <ele>202.1</ele>
        <time>2021-10-21T11:17:04.000Z</time>
      </trkpt>
      <trkpt lat="43.94291" lon="2.39815">
        <ele>201.9</ele>
        <time>2021-10-21T11:17:11.000Z</time>
      </trkpt>
      <trkpt lat="43.94291" lon="2.39815">
        <ele>201.8</ele>
        <time>2021-10-21T11:17:18.000Z</time>
      </trkpt>
      <trkpt lat="43.94291" lon="2.39814">
        <ele>201.8</ele>
        <time>2021-10-21T11:17:20.000Z</time>
      </trkpt>
      <trkpt lat="43.94291" lon="2.39814">
        <ele>201.8</ele>
        <time>2021-10-21T11:17:25.000Z</time>
      </trkpt>
      <trkpt lat="43.94291" lon="2.39814">
        <ele>201.9</ele>
        <time>2021-10-21T11:17:30.000Z</time>
      </trkpt>
      <trkpt lat="43.94291" lon="2.39814">
        <ele>201.9</ele>
        <time>2021-10-21T11:17:34.000Z</time>
      </trkpt>
      <trkpt lat="43.94291" lon="2.39814">
        <ele>201.9</ele>
        <time>2021-10-21T11:17:35.000Z</time>
      </trkpt>
      <trkpt lat="43.94291" lon="2.39813">
        <ele>202</ele>
        <time>2021-10-21T11:17:37.000Z</time>
      </trkpt>
      <trkpt lat="43.94291" lon="2.39813">
        <ele>202</ele>
        <time>2021-10-21T11:17:38.000Z</time>
      </trkpt>
      <trkpt lat="43.94291" lon="2.39814">
        <ele>202.1</ele>
        <time>2021-10-21T11:17:46.000Z</time>
      </trkpt>
      <trkpt lat="43.94292" lon="2.39814">
        <ele>202.3</ele>
        <time>2021-10-21T11:17:55.000Z</time>
      </trkpt>
      <trkpt lat="43.94292" lon="2.39815">
        <ele>202.6</ele>
        <time>2021-10-21T11:17:57.000Z</time>
      </trkpt>
      <trkpt lat="43.94292" lon="2.39815">
        <ele>202.7</ele>
        <time>2021-10-21T11:17:58.000Z</time>
      </trkpt>
      <trkpt lat="43.94292" lon="2.39814">
        <ele>202.8</ele>
        <time>2021-10-21T11:17:59.000Z</time>
      </trkpt>
      <trkpt lat="43.94292" lon="2.39814">
        <ele>203</ele>
        <time>2021-10-21T11:18:00.000Z</time>
      </trkpt>
      <trkpt lat="43.94292" lon="2.39814">
        <ele>203.1</ele>
        <time>2021-10-21T11:18:01.000Z</time>
      </trkpt>
      <trkpt lat="43.94293" lon="2.39814">
        <ele>203.6</ele>
        <time>2021-10-21T11:18:03.000Z</time>
      </trkpt>
      <trkpt lat="43.94293" lon="2.39814">
        <ele>203.8</ele>
        <time>2021-10-21T11:18:05.000Z</time>
      </trkpt>
      <trkpt lat="43.94293" lon="2.39814">
        <ele>204.1</ele>
        <time>2021-10-21T11:18:06.000Z</time>
      </trkpt>
      <trkpt lat="43.94293" lon="2.39813">
        <ele>204.3</ele>
        <time>2021-10-21T11:18:07.000Z</time>
      </trkpt>
      <trkpt lat="43.94293" lon="2.39813">
        <ele>204.9</ele>
        <time>2021-10-21T11:18:10.000Z</time>
      </trkpt>
      <trkpt lat="43.94293" lon="2.39813">
        <ele>205.2</ele>
        <time>2021-10-21T11:18:12.000Z</time>
      </trkpt>
      <trkpt lat="43.94293" lon="2.39813">
        <ele>205.9</ele>
        <time>2021-10-21T11:18:15.000Z</time>
      </trkpt>
      <trkpt lat="43.94293" lon="2.39813">
        <ele>206.2</ele>
        <time>2021-10-21T11:18:21.000Z</time>
      </trkpt>
      <trkpt lat="43.94293" lon="2.39813">
        <ele>206.2</ele>
        <time>2021-10-21T11:18:22.000Z</time>
      </trkpt>
      <trkpt lat="43.94293" lon="2.39813">
        <ele>206.1</ele>
        <time>2021-10-21T11:18:23.000Z</time>
      </trkpt>
      <trkpt lat="43.94293" lon="2.39813">
        <ele>206.1</ele>
        <time>2021-10-21T11:18:24.000Z</time>
      </trkpt>
      <trkpt lat="43.94292" lon="2.39813">
        <ele>206</ele>
        <time>2021-10-21T11:18:26.000Z</time>
      </trkpt>
      <trkpt lat="43.94289" lon="2.39802">
        <ele>208.3</ele>
        <time>2021-10-21T11:18:43.000Z</time>
      </trkpt>
      <trkpt lat="43.94289" lon="2.39801">
        <ele>208.5</ele>
        <time>2021-10-21T11:18:45.000Z</time>
      </trkpt>
      <trkpt lat="43.94289" lon="2.39801">
        <ele>208.7</ele>
        <time>2021-10-21T11:18:46.000Z</time>
      </trkpt>
      <trkpt lat="43.94289" lon="2.39801">
        <ele>209.7</ele>
        <time>2021-10-21T11:18:52.000Z</time>
      </trkpt>
      <trkpt lat="43.9429" lon="2.39801">
        <ele>209.9</ele>
        <time>2021-10-21T11:18:57.000Z</time>
      </trkpt>
      <trkpt lat="43.9429" lon="2.39801">
        <ele>210</ele>
        <time>2021-10-21T11:18:58.000Z</time>
      </trkpt>
      <trkpt lat="43.9429" lon="2.39801">
        <ele>210.1</ele>
        <time>2021-10-21T11:19:03.000Z</time>
      </trkpt>
      <trkpt lat="43.9429" lon="2.39801">
        <ele>210.1</ele>
        <time>2021-10-21T11:19:05.000Z</time>
      </trkpt>
      <trkpt lat="43.9429" lon="2.39801">
        <ele>210</ele>
        <time>2021-10-21T11:19:20.000Z</time>
      </trkpt>
      <trkpt lat="43.9429" lon="2.39801">
        <ele>209.9</ele>
        <time>2021-10-21T11:19:21.000Z</time>
      </trkpt>
      <trkpt lat="43.9429" lon="2.39801">
        <ele>209.8</ele>
        <time>2021-10-21T11:19:26.000Z</time>
      </trkpt>
      <trkpt lat="43.94289" lon="2.39803">
        <ele>209.4</ele>
        <time>2021-10-21T11:19:30.000Z</time>
      </trkpt>
      <trkpt lat="43.9429" lon="2.39803">
        <ele>209.5</ele>
        <time>2021-10-21T11:19:31.000Z</time>
      </trkpt>
      <trkpt lat="43.9429" lon="2.39803">
        <ele>209.5</ele>
        <time>2021-10-21T11:19:32.000Z</time>
      </trkpt>
      <trkpt lat="43.94289" lon="2.39803">
        <ele>209.5</ele>
        <time>2021-10-21T11:19:33.000Z</time>
      </trkpt>
      <trkpt lat="43.94291" lon="2.39801">
        <ele>210</ele>
        <time>2021-10-21T11:19:44.000Z</time>
      </trkpt>
      <trkpt lat="43.94292" lon="2.39801">
        <ele>209.9</ele>
        <time>2021-10-21T11:19:45.000Z</time>
      </trkpt>
      <trkpt lat="43.94292" lon="2.39801">
        <ele>209.8</ele>
        <time>2021-10-21T11:19:46.000Z</time>
      </trkpt>
      <trkpt lat="43.94292" lon="2.39802">
        <ele>209.9</ele>
        <time>2021-10-21T11:19:47.000Z</time>
      </trkpt>
      <trkpt lat="43.94293" lon="2.39803">
        <ele>210.5</ele>
        <time>2021-10-21T11:19:51.000Z</time>
      </trkpt>
      <trkpt lat="43.94293" lon="2.39803">
        <ele>210.6</ele>
        <time>2021-10-21T11:19:53.000Z</time>
      </trkpt>
      <trkpt lat="43.94293" lon="2.39803">
        <ele>210.7</ele>
        <time>2021-10-21T11:19:54.000Z</time>
      </trkpt>
      <trkpt lat="43.94293" lon="2.39803">
        <ele>210.8</ele>
        <time>2021-10-21T11:19:55.000Z</time>
      </trkpt>
      <trkpt lat="43.94291" lon="2.39803">
        <ele>211.1</ele>
        <time>2021-10-21T11:20:00.000Z</time>
      </trkpt>
      <trkpt lat="43.9429" lon="2.39803">
        <ele>211.2</ele>
        <time>2021-10-21T11:20:01.000Z</time>
      </trkpt>
      <trkpt lat="43.94281" lon="2.398">
        <ele>210.7</ele>
        <time>2021-10-21T11:20:12.000Z</time>
      </trkpt>
      <trkpt lat="43.94272" lon="2.39795">
        <ele>209.8</ele>
        <time>2021-10-21T11:20:25.000Z</time>
      </trkpt>
      <trkpt lat="43.94279" lon="2.39787">
        <ele>208.8</ele>
        <time>2021-10-21T11:20:42.000Z</time>
      </trkpt>
      <trkpt lat="43.94287" lon="2.3978">
        <ele>209</ele>
        <time>2021-10-21T11:20:54.000Z</time>
      </trkpt>
      <trkpt lat="43.94296" lon="2.39776">
        <ele>208.9</ele>
        <time>2021-10-21T11:21:02.000Z</time>
      </trkpt>
      <trkpt lat="43.94305" lon="2.39771">
        <ele>209.2</ele>
        <time>2021-10-21T11:21:10.000Z</time>
      </trkpt>
      <trkpt lat="43.94314" lon="2.39768">
        <ele>211.1</ele>
        <time>2021-10-21T11:21:19.000Z</time>
      </trkpt>
      <trkpt lat="43.94323" lon="2.39763">
        <ele>212.1</ele>
        <time>2021-10-21T11:21:30.000Z</time>
      </trkpt>
      <trkpt lat="43.94331" lon="2.39759">
        <ele>212.6</ele>
        <time>2021-10-21T11:21:39.000Z</time>
      </trkpt>
      <trkpt lat="43.9434" lon="2.39753">
        <ele>211.8</ele>
        <time>2021-10-21T11:21:46.000Z</time>
      </trkpt>
      <trkpt lat="43.94349" lon="2.39747">
        <ele>211.3</ele>
        <time>2021-10-21T11:21:55.000Z</time>
      </trkpt>
      <trkpt lat="43.94357" lon="2.39739">
        <ele>212</ele>
        <time>2021-10-21T11:22:05.000Z</time>
      </trkpt>
      <trkpt lat="43.94364" lon="2.39731">
        <ele>212.8</ele>
        <time>2021-10-21T11:22:17.000Z</time>
      </trkpt>
      <trkpt lat="43.9437" lon="2.3972">
        <ele>213.3</ele>
        <time>2021-10-21T11:22:26.000Z</time>
      </trkpt>
      <trkpt lat="43.94371" lon="2.39706">
        <ele>213.6</ele>
        <time>2021-10-21T11:22:37.000Z</time>
      </trkpt>
      <trkpt lat="43.94371" lon="2.39693">
        <ele>211.1</ele>
        <time>2021-10-21T11:22:47.000Z</time>
      </trkpt>
      <trkpt lat="43.9437" lon="2.3968">
        <ele>208.9</ele>
        <time>2021-10-21T11:22:57.000Z</time>
      </trkpt>
      <trkpt lat="43.94369" lon="2.39667">
        <ele>207.9</ele>
        <time>2021-10-21T11:23:04.000Z</time>
      </trkpt>
      <trkpt lat="43.9437" lon="2.39654">
        <ele>207.3</ele>
        <time>2021-10-21T11:23:14.000Z</time>
      </trkpt>
      <trkpt lat="43.94369" lon="2.3964">
        <ele>207.7</ele>
        <time>2021-10-21T11:23:24.000Z</time>
      </trkpt>
      <trkpt lat="43.94369" lon="2.39627">
        <ele>207.7</ele>
        <time>2021-10-21T11:23:33.000Z</time>
      </trkpt>
      <trkpt lat="43.94371" lon="2.39615">
        <ele>207.8</ele>
        <time>2021-10-21T11:23:43.000Z</time>
      </trkpt>
      <trkpt lat="43.94371" lon="2.39601">
        <ele>208</ele>
        <time>2021-10-21T11:23:54.000Z</time>
      </trkpt>
      <trkpt lat="43.94372" lon="2.39588">
        <ele>208.8</ele>
        <time>2021-10-21T11:24:05.000Z</time>
      </trkpt>
      <trkpt lat="43.94372" lon="2.39575">
        <ele>209.5</ele>
        <time>2021-10-21T11:24:15.000Z</time>
      </trkpt>
      <trkpt lat="43.94372" lon="2.39561">
        <ele>210.3</ele>
        <time>2021-10-21T11:24:25.000Z</time>
      </trkpt>
      <trkpt lat="43.94371" lon="2.39548">
        <ele>211.8</ele>
        <time>2021-10-21T11:24:34.000Z</time>
      </trkpt>
      <trkpt lat="43.94371" lon="2.39535">
        <ele>212.9</ele>
        <time>2021-10-21T11:24:44.000Z</time>
      </trkpt>
      <trkpt lat="43.94374" lon="2.39523">
        <ele>212.6</ele>
        <time>2021-10-21T11:24:54.000Z</time>
      </trkpt>
      <trkpt lat="43.94378" lon="2.39511">
        <ele>213</ele>
        <time>2021-10-21T11:25:03.000Z</time>
      </trkpt>
      <trkpt lat="43.94383" lon="2.39499">
        <ele>213.8</ele>
        <time>2021-10-21T11:25:12.000Z</time>
      </trkpt>
      <trkpt lat="43.94389" lon="2.39488">
        <ele>214</ele>
        <time>2021-10-21T11:25:22.000Z</time>
      </trkpt>
      <trkpt lat="43.94393" lon="2.39476">
        <ele>214.4</ele>
        <time>2021-10-21T11:25:32.000Z</time>
      </trkpt>
      <trkpt lat="43.94396" lon="2.39463">
        <ele>214.9</ele>
        <time>2021-10-21T11:25:41.000Z</time>
      </trkpt>
      <trkpt lat="43.94399" lon="2.3945">
        <ele>215.4</ele>
        <time>2021-10-21T11:25:50.000Z</time>
      </trkpt>
      <trkpt lat="43.94402" lon="2.39438">
        <ele>215.6</ele>
        <time>2021-10-21T11:25:59.000Z</time>
      </trkpt>
      <trkpt lat="43.94404" lon="2.39425">
        <ele>216.6</ele>
        <time>2021-10-21T11:26:11.000Z</time>
      </trkpt>
      <trkpt lat="43.94402" lon="2.39412">
        <ele>217.2</ele>
        <time>2021-10-21T11:26:20.000Z</time>
      </trkpt>
      <trkpt lat="43.94397" lon="2.394">
        <ele>218.8</ele>
        <time>2021-10-21T11:26:28.000Z</time>
      </trkpt>
      <trkpt lat="43.944" lon="2.39386">
        <ele>219</ele>
        <time>2021-10-21T11:26:36.000Z</time>
      </trkpt>
      <trkpt lat="43.94401" lon="2.39373">
        <ele>217</ele>
        <time>2021-10-21T11:26:45.000Z</time>
      </trkpt>
      <trkpt lat="43.94403" lon="2.39359">
        <ele>216.9</ele>
        <time>2021-10-21T11:26:55.000Z</time>
      </trkpt>
      <trkpt lat="43.94405" lon="2.39346">
        <ele>215.3</ele>
        <time>2021-10-21T11:27:04.000Z</time>
      </trkpt>
      <trkpt lat="43.94407" lon="2.39334">
        <ele>215.2</ele>
        <time>2021-10-21T11:27:12.000Z</time>
      </trkpt>
      <trkpt lat="43.94406" lon="2.39321">
        <ele>215.2</ele>
        <time>2021-10-21T11:27:22.000Z</time>
      </trkpt>
      <trkpt lat="43.94405" lon="2.39308">
        <ele>215.8</ele>
        <time>2021-10-21T11:27:32.000Z</time>
      </trkpt>
      <trkpt lat="43.94406" lon="2.39296">
        <ele>215.5</ele>
        <time>2021-10-21T11:27:41.000Z</time>
      </trkpt>
      <trkpt lat="43.94405" lon="2.39283">
        <ele>215.9</ele>
        <time>2021-10-21T11:27:50.000Z</time>
      </trkpt>
      <trkpt lat="43.94404" lon="2.39271">
        <ele>216</ele>
        <time>2021-10-21T11:28:00.000Z</time>
      </trkpt>
      <trkpt lat="43.94401" lon="2.39258">
        <ele>215.7</ele>
        <time>2021-10-21T11:28:11.000Z</time>
      </trkpt>
      <trkpt lat="43.94399" lon="2.39245">
        <ele>214.1</ele>
        <time>2021-10-21T11:28:19.000Z</time>
      </trkpt>
      <trkpt lat="43.94397" lon="2.39232">
        <ele>214.9</ele>
        <time>2021-10-21T11:28:27.000Z</time>
      </trkpt>
      <trkpt lat="43.94394" lon="2.39219">
        <ele>214.9</ele>
        <time>2021-10-21T11:28:35.000Z</time>
      </trkpt>
      <trkpt lat="43.94392" lon="2.39207">
        <ele>215.2</ele>
        <time>2021-10-21T11:28:43.000Z</time>
      </trkpt>
      <trkpt lat="43.94389" lon="2.39194">
        <ele>216</ele>
        <time>2021-10-21T11:28:51.000Z</time>
      </trkpt>
      <trkpt lat="43.94383" lon="2.39184">
        <ele>217.5</ele>
        <time>2021-10-21T11:29:02.000Z</time>
      </trkpt>
      <trkpt lat="43.94378" lon="2.39172">
        <ele>217.1</ele>
        <time>2021-10-21T11:29:12.000Z</time>
      </trkpt>
      <trkpt lat="43.94375" lon="2.39159">
        <ele>217.5</ele>
        <time>2021-10-21T11:29:21.000Z</time>
      </trkpt>
      <trkpt lat="43.94372" lon="2.39146">
        <ele>217.7</ele>
        <time>2021-10-21T11:29:31.000Z</time>
      </trkpt>
      <trkpt lat="43.94369" lon="2.39133">
        <ele>217.9</ele>
        <time>2021-10-21T11:29:40.000Z</time>
      </trkpt>
      <trkpt lat="43.94366" lon="2.39121">
        <ele>218</ele>
        <time>2021-10-21T11:29:49.000Z</time>
      </trkpt>
      <trkpt lat="43.94362" lon="2.39109">
        <ele>218.3</ele>
        <time>2021-10-21T11:29:57.000Z</time>
      </trkpt>
      <trkpt lat="43.94361" lon="2.39096">
        <ele>217.7</ele>
        <time>2021-10-21T11:30:05.000Z</time>
      </trkpt>
      <trkpt lat="43.94357" lon="2.39084">
        <ele>217.6</ele>
        <time>2021-10-21T11:30:14.000Z</time>
      </trkpt>
      <trkpt lat="43.94353" lon="2.39072">
        <ele>217.7</ele>
        <time>2021-10-21T11:30:22.000Z</time>
      </trkpt>
      <trkpt lat="43.9435" lon="2.39059">
        <ele>217.7</ele>
        <time>2021-10-21T11:30:30.000Z</time>
      </trkpt>
      <trkpt lat="43.94347" lon="2.39048">
        <ele>217.6</ele>
        <time>2021-10-21T11:30:38.000Z</time>
      </trkpt>
      <trkpt lat="43.94343" lon="2.39035">
        <ele>218.2</ele>
        <time>2021-10-21T11:30:46.000Z</time>
      </trkpt>
      <trkpt lat="43.9434" lon="2.39023">
        <ele>219.6</ele>
        <time>2021-10-21T11:30:54.000Z</time>
      </trkpt>
      <trkpt lat="43.94339" lon="2.3901">
        <ele>219.1</ele>
        <time>2021-10-21T11:31:04.000Z</time>
      </trkpt>
      <trkpt lat="43.94335" lon="2.38996">
        <ele>218.9</ele>
        <time>2021-10-21T11:31:13.000Z</time>
      </trkpt>
      <trkpt lat="43.94332" lon="2.38984">
        <ele>218.6</ele>
        <time>2021-10-21T11:31:21.000Z</time>
      </trkpt>
      <trkpt lat="43.94329" lon="2.38971">
        <ele>218.3</ele>
        <time>2021-10-21T11:31:29.000Z</time>
      </trkpt>
      <trkpt lat="43.94327" lon="2.38958">
        <ele>217.8</ele>
        <time>2021-10-21T11:31:37.000Z</time>
      </trkpt>
      <trkpt lat="43.94323" lon="2.38945">
        <ele>216.7</ele>
        <time>2021-10-21T11:31:50.000Z</time>
      </trkpt>
      <trkpt lat="43.9432" lon="2.38932">
        <ele>216.1</ele>
        <time>2021-10-21T11:31:57.000Z</time>
      </trkpt>
      <trkpt lat="43.94317" lon="2.3892">
        <ele>216.1</ele>
        <time>2021-10-21T11:32:04.000Z</time>
      </trkpt>
      <trkpt lat="43.94315" lon="2.38906">
        <ele>216.3</ele>
        <time>2021-10-21T11:32:12.000Z</time>
      </trkpt>
      <trkpt lat="43.94312" lon="2.38893">
        <ele>216.1</ele>
        <time>2021-10-21T11:32:20.000Z</time>
      </trkpt>
      <trkpt lat="43.9431" lon="2.3888">
        <ele>216.2</ele>
        <time>2021-10-21T11:32:29.000Z</time>
      </trkpt>
      <trkpt lat="43.94306" lon="2.38867">
        <ele>216.5</ele>
        <time>2021-10-21T11:32:37.000Z</time>
      </trkpt>
      <trkpt lat="43.94303" lon="2.38854">
        <ele>216.9</ele>
        <time>2021-10-21T11:32:45.000Z</time>
      </trkpt>
      <trkpt lat="43.943" lon="2.38842">
        <ele>217</ele>
        <time>2021-10-21T11:32:53.000Z</time>
      </trkpt>
      <trkpt lat="43.94297" lon="2.38829">
        <ele>217.1</ele>
        <time>2021-10-21T11:33:01.000Z</time>
      </trkpt>
      <trkpt lat="43.94293" lon="2.38817">
        <ele>217.4</ele>
        <time>2021-10-21T11:33:09.000Z</time>
      </trkpt>
      <trkpt lat="43.94289" lon="2.38805">
        <ele>217.7</ele>
        <time>2021-10-21T11:33:17.000Z</time>
      </trkpt>
      <trkpt lat="43.94285" lon="2.38793">
        <ele>218.2</ele>
        <time>2021-10-21T11:33:25.000Z</time>
      </trkpt>
      <trkpt lat="43.94281" lon="2.38781">
        <ele>218.5</ele>
        <time>2021-10-21T11:33:33.000Z</time>
      </trkpt>
      <trkpt lat="43.94277" lon="2.38769">
        <ele>217.8</ele>
        <time>2021-10-21T11:33:41.000Z</time>
      </trkpt>
      <trkpt lat="43.94272" lon="2.38757">
        <ele>217</ele>
        <time>2021-10-21T11:33:49.000Z</time>
      </trkpt>
      <trkpt lat="43.94267" lon="2.38746">
        <ele>216.5</ele>
        <time>2021-10-21T11:33:57.000Z</time>
      </trkpt>
      <trkpt lat="43.94262" lon="2.38735">
        <ele>216</ele>
        <time>2021-10-21T11:34:05.000Z</time>
      </trkpt>
      <trkpt lat="43.94257" lon="2.38724">
        <ele>216.4</ele>
        <time>2021-10-21T11:34:13.000Z</time>
      </trkpt>
      <trkpt lat="43.94251" lon="2.38714">
        <ele>216.1</ele>
        <time>2021-10-21T11:34:21.000Z</time>
      </trkpt>
      <trkpt lat="43.94245" lon="2.38704">
        <ele>215.5</ele>
        <time>2021-10-21T11:34:29.000Z</time>
      </trkpt>
      <trkpt lat="43.9424" lon="2.38693">
        <ele>215.6</ele>
        <time>2021-10-21T11:34:37.000Z</time>
      </trkpt>
      <trkpt lat="43.94233" lon="2.38683">
        <ele>215.7</ele>
        <time>2021-10-21T11:34:46.000Z</time>
      </trkpt>
      <trkpt lat="43.94227" lon="2.38673">
        <ele>215.5</ele>
        <time>2021-10-21T11:34:55.000Z</time>
      </trkpt>
      <trkpt lat="43.94221" lon="2.38663">
        <ele>215.6</ele>
        <time>2021-10-21T11:35:03.000Z</time>
      </trkpt>
      <trkpt lat="43.94215" lon="2.38652">
        <ele>215.7</ele>
        <time>2021-10-21T11:35:11.000Z</time>
      </trkpt>
      <trkpt lat="43.94209" lon="2.38642">
        <ele>215.6</ele>
        <time>2021-10-21T11:35:19.000Z</time>
      </trkpt>
      <trkpt lat="43.94203" lon="2.38631">
        <ele>215.4</ele>
        <time>2021-10-21T11:35:27.000Z</time>
      </trkpt>
      <trkpt lat="43.94198" lon="2.38619">
        <ele>215</ele>
        <time>2021-10-21T11:35:36.000Z</time>
      </trkpt>
      <trkpt lat="43.94192" lon="2.38608">
        <ele>214.1</ele>
        <time>2021-10-21T11:35:45.000Z</time>
      </trkpt>
      <trkpt lat="43.94186" lon="2.38599">
        <ele>214.7</ele>
        <time>2021-10-21T11:35:53.000Z</time>
      </trkpt>
      <trkpt lat="43.94179" lon="2.38589">
        <ele>214.6</ele>
        <time>2021-10-21T11:36:02.000Z</time>
      </trkpt>
      <trkpt lat="43.94174" lon="2.38578">
        <ele>214.8</ele>
        <time>2021-10-21T11:36:10.000Z</time>
      </trkpt>
      <trkpt lat="43.94169" lon="2.38568">
        <ele>214.6</ele>
        <time>2021-10-21T11:36:19.000Z</time>
      </trkpt>
      <trkpt lat="43.94166" lon="2.38555">
        <ele>215.2</ele>
        <time>2021-10-21T11:36:28.000Z</time>
      </trkpt>
      <trkpt lat="43.94162" lon="2.38543">
        <ele>215.7</ele>
        <time>2021-10-21T11:36:37.000Z</time>
      </trkpt>
      <trkpt lat="43.94159" lon="2.3853">
        <ele>215.7</ele>
        <time>2021-10-21T11:36:46.000Z</time>
      </trkpt>
      <trkpt lat="43.94154" lon="2.38519">
        <ele>216.6</ele>
        <time>2021-10-21T11:36:57.000Z</time>
      </trkpt>
      <trkpt lat="43.94154" lon="2.38518">
        <ele>216.4</ele>
        <time>2021-10-21T11:37:00.000Z</time>
      </trkpt>
      <trkpt lat="43.94154" lon="2.38519">
        <ele>216</ele>
        <time>2021-10-21T11:37:10.000Z</time>
      </trkpt>
      <trkpt lat="43.94153" lon="2.38518">
        <ele>215.8</ele>
        <time>2021-10-21T11:37:12.000Z</time>
      </trkpt>
      <trkpt lat="43.94154" lon="2.38519">
        <ele>215.8</ele>
        <time>2021-10-21T11:37:13.000Z</time>
      </trkpt>
      <trkpt lat="43.94154" lon="2.38518">
        <ele>215.7</ele>
        <time>2021-10-21T11:37:14.000Z</time>
      </trkpt>
      <trkpt lat="43.94153" lon="2.38518">
        <ele>215.6</ele>
        <time>2021-10-21T11:37:15.000Z</time>
      </trkpt>
      <trkpt lat="43.94153" lon="2.38518">
        <ele>215.5</ele>
        <time>2021-10-21T11:37:19.000Z</time>
      </trkpt>
      <trkpt lat="43.94153" lon="2.38517">
        <ele>215.5</ele>
        <time>2021-10-21T11:37:20.000Z</time>
      </trkpt>
      <trkpt lat="43.94152" lon="2.38517">
        <ele>215.3</ele>
        <time>2021-10-21T11:37:24.000Z</time>
      </trkpt>
      <trkpt lat="43.94152" lon="2.38517">
        <ele>215.3</ele>
        <time>2021-10-21T11:37:30.000Z</time>
      </trkpt>
      <trkpt lat="43.94152" lon="2.38517">
        <ele>215.4</ele>
        <time>2021-10-21T11:37:32.000Z</time>
      </trkpt>
      <trkpt lat="43.94152" lon="2.38517">
        <ele>215.6</ele>
        <time>2021-10-21T11:37:35.000Z</time>
      </trkpt>
      <trkpt lat="43.94152" lon="2.38517">
        <ele>215.6</ele>
        <time>2021-10-21T11:37:36.000Z</time>
      </trkpt>
      <trkpt lat="43.94152" lon="2.38517">
        <ele>215.4</ele>
        <time>2021-10-21T11:37:39.000Z</time>
      </trkpt>
      <trkpt lat="43.94152" lon="2.38518">
        <ele>215.2</ele>
        <time>2021-10-21T11:37:41.000Z</time>
      </trkpt>
      <trkpt lat="43.94153" lon="2.38518">
        <ele>215.1</ele>
        <time>2021-10-21T11:37:52.000Z</time>
      </trkpt>
      <trkpt lat="43.94153" lon="2.38518">
        <ele>215</ele>
        <time>2021-10-21T11:37:58.000Z</time>
      </trkpt>
      <trkpt lat="43.94153" lon="2.38519">
        <ele>215.2</ele>
        <time>2021-10-21T11:38:02.000Z</time>
      </trkpt>
      <trkpt lat="43.94153" lon="2.38519">
        <ele>215.5</ele>
        <time>2021-10-21T11:38:04.000Z</time>
      </trkpt>
      <trkpt lat="43.94153" lon="2.38519">
        <ele>215.8</ele>
        <time>2021-10-21T11:38:06.000Z</time>
      </trkpt>
      <trkpt lat="43.94153" lon="2.38519">
        <ele>215.8</ele>
        <time>2021-10-21T11:38:08.000Z</time>
      </trkpt>
      <trkpt lat="43.94153" lon="2.38519">
        <ele>215.9</ele>
        <time>2021-10-21T11:38:11.000Z</time>
      </trkpt>
      <trkpt lat="43.94153" lon="2.38519">
        <ele>215.9</ele>
        <time>2021-10-21T11:38:15.000Z</time>
      </trkpt>
      <trkpt lat="43.94153" lon="2.38519">
        <ele>215.9</ele>
        <time>2021-10-21T11:38:16.000Z</time>
      </trkpt>
      <trkpt lat="43.94153" lon="2.38519">
        <ele>215.9</ele>
        <time>2021-10-21T11:38:17.000Z</time>
      </trkpt>
      <trkpt lat="43.94153" lon="2.38519">
        <ele>215.9</ele>
        <time>2021-10-21T11:38:23.000Z</time>
      </trkpt>
      <trkpt lat="43.94153" lon="2.3852">
        <ele>215.9</ele>
        <time>2021-10-21T11:38:25.000Z</time>
      </trkpt>
      <trkpt lat="43.94153" lon="2.38519">
        <ele>215.6</ele>
        <time>2021-10-21T11:39:01.000Z</time>
      </trkpt>
      <trkpt lat="43.94153" lon="2.38518">
        <ele>215.1</ele>
        <time>2021-10-21T11:39:05.000Z</time>
      </trkpt>
      <trkpt lat="43.94153" lon="2.38518">
        <ele>215.1</ele>
        <time>2021-10-21T11:39:32.000Z</time>
      </trkpt>
      <trkpt lat="43.94143" lon="2.38517">
        <ele>214.7</ele>
        <time>2021-10-21T11:39:43.000Z</time>
      </trkpt>
      <trkpt lat="43.94139" lon="2.38529">
        <ele>214.6</ele>
        <time>2021-10-21T11:39:53.000Z</time>
      </trkpt>
      <trkpt lat="43.9414" lon="2.38532">
        <ele>214.6</ele>
        <time>2021-10-21T11:39:57.000Z</time>
      </trkpt>
      <trkpt lat="43.9414" lon="2.38533">
        <ele>214.6</ele>
        <time>2021-10-21T11:40:10.000Z</time>
      </trkpt>
      <trkpt lat="43.9413" lon="2.38535">
        <ele>215.2</ele>
        <time>2021-10-21T11:40:24.000Z</time>
      </trkpt>
      <trkpt lat="43.94123" lon="2.38528">
        <ele>214.9</ele>
        <time>2021-10-21T11:40:31.000Z</time>
      </trkpt>
      <trkpt lat="43.94115" lon="2.3852">
        <ele>214.7</ele>
        <time>2021-10-21T11:40:38.000Z</time>
      </trkpt>
      <trkpt lat="43.94106" lon="2.38514">
        <ele>213.9</ele>
        <time>2021-10-21T11:40:46.000Z</time>
      </trkpt>
      <trkpt lat="43.94097" lon="2.3851">
        <ele>214.1</ele>
        <time>2021-10-21T11:40:53.000Z</time>
      </trkpt>
      <trkpt lat="43.94087" lon="2.38508">
        <ele>214.6</ele>
        <time>2021-10-21T11:41:00.000Z</time>
      </trkpt>
      <trkpt lat="43.94077" lon="2.3851">
        <ele>214.5</ele>
        <time>2021-10-21T11:41:07.000Z</time>
      </trkpt>
      <trkpt lat="43.94068" lon="2.38513">
        <ele>213.4</ele>
        <time>2021-10-21T11:41:13.000Z</time>
      </trkpt>
      <trkpt lat="43.94059" lon="2.38516">
        <ele>213.2</ele>
        <time>2021-10-21T11:41:19.000Z</time>
      </trkpt>
      <trkpt lat="43.94051" lon="2.38524">
        <ele>212.8</ele>
        <time>2021-10-21T11:41:26.000Z</time>
      </trkpt>
      <trkpt lat="43.94042" lon="2.38529">
        <ele>212.7</ele>
        <time>2021-10-21T11:41:33.000Z</time>
      </trkpt>
      <trkpt lat="43.94033" lon="2.38533">
        <ele>212.6</ele>
        <time>2021-10-21T11:41:40.000Z</time>
      </trkpt>
      <trkpt lat="43.94025" lon="2.38538">
        <ele>212.5</ele>
        <time>2021-10-21T11:41:51.000Z</time>
      </trkpt>
      <trkpt lat="43.94021" lon="2.38544">
        <ele>212.3</ele>
        <time>2021-10-21T11:42:04.000Z</time>
      </trkpt>
      <trkpt lat="43.94021" lon="2.38544">
        <ele>211.9</ele>
        <time>2021-10-21T11:42:06.000Z</time>
      </trkpt>
      <trkpt lat="43.94023" lon="2.38543">
        <ele>210.3</ele>
        <time>2021-10-21T11:42:11.000Z</time>
      </trkpt>
      <trkpt lat="43.94023" lon="2.38543">
        <ele>210.1</ele>
        <time>2021-10-21T11:42:12.000Z</time>
      </trkpt>
      <trkpt lat="43.94024" lon="2.38543">
        <ele>209.1</ele>
        <time>2021-10-21T11:42:14.000Z</time>
      </trkpt>
      <trkpt lat="43.94024" lon="2.38543">
        <ele>209</ele>
        <time>2021-10-21T11:42:17.000Z</time>
      </trkpt>
      <trkpt lat="43.94024" lon="2.38544">
        <ele>209</ele>
        <time>2021-10-21T11:42:19.000Z</time>
      </trkpt>
      <trkpt lat="43.94024" lon="2.38544">
        <ele>209</ele>
        <time>2021-10-21T11:42:22.000Z</time>
      </trkpt>
      <trkpt lat="43.94024" lon="2.38544">
        <ele>208.9</ele>
        <time>2021-10-21T11:42:23.000Z</time>
      </trkpt>
      <trkpt lat="43.94024" lon="2.38544">
        <ele>208.8</ele>
        <time>2021-10-21T11:42:24.000Z</time>
      </trkpt>
      <trkpt lat="43.94025" lon="2.38544">
        <ele>208.5</ele>
        <time>2021-10-21T11:42:27.000Z</time>
      </trkpt>
      <trkpt lat="43.94024" lon="2.38545">
        <ele>207.9</ele>
        <time>2021-10-21T11:44:03.000Z</time>
      </trkpt>
      <trkpt lat="43.9402" lon="2.38555">
        <ele>209.5</ele>
        <time>2021-10-21T11:44:24.000Z</time>
      </trkpt>
      <trkpt lat="43.94011" lon="2.38562">
        <ele>210</ele>
        <time>2021-10-21T11:44:36.000Z</time>
      </trkpt>
      <trkpt lat="43.94003" lon="2.38569">
        <ele>210.2</ele>
        <time>2021-10-21T11:44:48.000Z</time>
      </trkpt>
      <trkpt lat="43.93996" lon="2.38578">
        <ele>210.8</ele>
        <time>2021-10-21T11:44:59.000Z</time>
      </trkpt>
      <trkpt lat="43.93989" lon="2.38585">
        <ele>211.7</ele>
        <time>2021-10-21T11:45:11.000Z</time>
      </trkpt>
      <trkpt lat="43.93981" lon="2.38595">
        <ele>212.1</ele>
        <time>2021-10-21T11:45:18.000Z</time>
      </trkpt>
      <trkpt lat="43.93974" lon="2.38602">
        <ele>214.1</ele>
        <time>2021-10-21T11:45:30.000Z</time>
      </trkpt>
      <trkpt lat="43.93965" lon="2.38604">
        <ele>214.5</ele>
        <time>2021-10-21T11:45:41.000Z</time>
      </trkpt>
      <trkpt lat="43.93955" lon="2.38601">
        <ele>216.2</ele>
        <time>2021-10-21T11:45:51.000Z</time>
      </trkpt>
      <trkpt lat="43.93946" lon="2.38596">
        <ele>216.1</ele>
        <time>2021-10-21T11:46:00.000Z</time>
      </trkpt>
      <trkpt lat="43.93937" lon="2.3859">
        <ele>217.2</ele>
        <time>2021-10-21T11:46:12.000Z</time>
      </trkpt>
      <trkpt lat="43.93928" lon="2.38586">
        <ele>220</ele>
        <time>2021-10-21T11:46:23.000Z</time>
      </trkpt>
      <trkpt lat="43.93919" lon="2.38583">
        <ele>222.4</ele>
        <time>2021-10-21T11:46:34.000Z</time>
      </trkpt>
      <trkpt lat="43.9391" lon="2.38582">
        <ele>224</ele>
        <time>2021-10-21T11:46:46.000Z</time>
      </trkpt>
      <trkpt lat="43.93902" lon="2.3858">
        <ele>224.9</ele>
        <time>2021-10-21T11:47:00.000Z</time>
      </trkpt>
      <trkpt lat="43.93901" lon="2.38579">
        <ele>225</ele>
        <time>2021-10-21T11:47:01.000Z</time>
      </trkpt>
      <trkpt lat="43.93892" lon="2.38579">
        <ele>226.7</ele>
        <time>2021-10-21T11:47:11.000Z</time>
      </trkpt>
      <trkpt lat="43.93882" lon="2.38577">
        <ele>227.8</ele>
        <time>2021-10-21T11:47:22.000Z</time>
      </trkpt>
      <trkpt lat="43.93878" lon="2.38574">
        <ele>229</ele>
        <time>2021-10-21T11:47:32.000Z</time>
      </trkpt>
      <trkpt lat="43.93879" lon="2.38574">
        <ele>229.1</ele>
        <time>2021-10-21T11:47:33.000Z</time>
      </trkpt>
      <trkpt lat="43.9387" lon="2.38569">
        <ele>229.6</ele>
        <time>2021-10-21T11:47:45.000Z</time>
      </trkpt>
      <trkpt lat="43.93862" lon="2.38565">
        <ele>230.5</ele>
        <time>2021-10-21T11:47:54.000Z</time>
      </trkpt>
      <trkpt lat="43.93852" lon="2.38562">
        <ele>232.1</ele>
        <time>2021-10-21T11:48:04.000Z</time>
      </trkpt>
      <trkpt lat="43.93844" lon="2.38555">
        <ele>234.5</ele>
        <time>2021-10-21T11:48:17.000Z</time>
      </trkpt>
      <trkpt lat="43.93835" lon="2.38549">
        <ele>235.2</ele>
        <time>2021-10-21T11:48:29.000Z</time>
      </trkpt>
      <trkpt lat="43.93827" lon="2.38545">
        <ele>236.4</ele>
        <time>2021-10-21T11:48:36.000Z</time>
      </trkpt>
      <trkpt lat="43.93818" lon="2.38539">
        <ele>238.3</ele>
        <time>2021-10-21T11:48:44.000Z</time>
      </trkpt>
      <trkpt lat="43.93811" lon="2.3853">
        <ele>240</ele>
        <time>2021-10-21T11:48:56.000Z</time>
      </trkpt>
      <trkpt lat="43.93802" lon="2.38525">
        <ele>241.1</ele>
        <time>2021-10-21T11:49:06.000Z</time>
      </trkpt>
      <trkpt lat="43.93792" lon="2.38525">
        <ele>242.5</ele>
        <time>2021-10-21T11:49:19.000Z</time>
      </trkpt>
      <trkpt lat="43.93783" lon="2.38523">
        <ele>243.6</ele>
        <time>2021-10-21T11:49:33.000Z</time>
      </trkpt>
      <trkpt lat="43.93774" lon="2.3852">
        <ele>246.5</ele>
        <time>2021-10-21T11:49:45.000Z</time>
      </trkpt>
      <trkpt lat="43.93766" lon="2.38514">
        <ele>248.8</ele>
        <time>2021-10-21T11:49:58.000Z</time>
      </trkpt>
      <trkpt lat="43.93758" lon="2.38507">
        <ele>250.1</ele>
        <time>2021-10-21T11:50:10.000Z</time>
      </trkpt>
      <trkpt lat="43.93751" lon="2.38499">
        <ele>251.5</ele>
        <time>2021-10-21T11:50:22.000Z</time>
      </trkpt>
      <trkpt lat="43.93743" lon="2.38492">
        <ele>253</ele>
        <time>2021-10-21T11:50:36.000Z</time>
      </trkpt>
      <trkpt lat="43.93735" lon="2.38484">
        <ele>255.9</ele>
        <time>2021-10-21T11:50:49.000Z</time>
      </trkpt>
      <trkpt lat="43.93727" lon="2.38478">
        <ele>257</ele>
        <time>2021-10-21T11:50:59.000Z</time>
      </trkpt>
      <trkpt lat="43.93718" lon="2.38476">
        <ele>257.5</ele>
        <time>2021-10-21T11:51:11.000Z</time>
      </trkpt>
      <trkpt lat="43.93709" lon="2.38476">
        <ele>258.4</ele>
        <time>2021-10-21T11:51:22.000Z</time>
      </trkpt>
      <trkpt lat="43.937" lon="2.38474">
        <ele>259.9</ele>
        <time>2021-10-21T11:51:34.000Z</time>
      </trkpt>
      <trkpt lat="43.9369" lon="2.38476">
        <ele>261.6</ele>
        <time>2021-10-21T11:51:47.000Z</time>
      </trkpt>
      <trkpt lat="43.93681" lon="2.38478">
        <ele>262.7</ele>
        <time>2021-10-21T11:52:01.000Z</time>
      </trkpt>
      <trkpt lat="43.93671" lon="2.38473">
        <ele>263.4</ele>
        <time>2021-10-21T11:52:13.000Z</time>
      </trkpt>
      <trkpt lat="43.93662" lon="2.3847">
        <ele>264.6</ele>
        <time>2021-10-21T11:52:24.000Z</time>
      </trkpt>
      <trkpt lat="43.93653" lon="2.38468">
        <ele>266.1</ele>
        <time>2021-10-21T11:52:39.000Z</time>
      </trkpt>
      <trkpt lat="43.93644" lon="2.38465">
        <ele>268.2</ele>
        <time>2021-10-21T11:52:55.000Z</time>
      </trkpt>
      <trkpt lat="43.93641" lon="2.38465">
        <ele>269.5</ele>
        <time>2021-10-21T11:53:02.000Z</time>
      </trkpt>
      <trkpt lat="43.9364" lon="2.38464">
        <ele>269.7</ele>
        <time>2021-10-21T11:53:03.000Z</time>
      </trkpt>
      <trkpt lat="43.93631" lon="2.38463">
        <ele>271.3</ele>
        <time>2021-10-21T11:53:17.000Z</time>
      </trkpt>
      <trkpt lat="43.93623" lon="2.38458">
        <ele>273.2</ele>
        <time>2021-10-21T11:53:31.000Z</time>
      </trkpt>
      <trkpt lat="43.93614" lon="2.3845">
        <ele>274.8</ele>
        <time>2021-10-21T11:53:45.000Z</time>
      </trkpt>
      <trkpt lat="43.93605" lon="2.38442">
        <ele>276.5</ele>
        <time>2021-10-21T11:53:55.000Z</time>
      </trkpt>
      <trkpt lat="43.93597" lon="2.38437">
        <ele>277.9</ele>
        <time>2021-10-21T11:54:07.000Z</time>
      </trkpt>
      <trkpt lat="43.93589" lon="2.3843">
        <ele>279.3</ele>
        <time>2021-10-21T11:54:19.000Z</time>
      </trkpt>
      <trkpt lat="43.93581" lon="2.38424">
        <ele>281.2</ele>
        <time>2021-10-21T11:54:30.000Z</time>
      </trkpt>
      <trkpt lat="43.93573" lon="2.38417">
        <ele>281.9</ele>
        <time>2021-10-21T11:54:43.000Z</time>
      </trkpt>
      <trkpt lat="43.93566" lon="2.38408">
        <ele>283.7</ele>
        <time>2021-10-21T11:54:54.000Z</time>
      </trkpt>
      <trkpt lat="43.93558" lon="2.38401">
        <ele>284.3</ele>
        <time>2021-10-21T11:55:04.000Z</time>
      </trkpt>
      <trkpt lat="43.9355" lon="2.38393">
        <ele>284.9</ele>
        <time>2021-10-21T11:55:17.000Z</time>
      </trkpt>
      <trkpt lat="43.93543" lon="2.38386">
        <ele>288.1</ele>
        <time>2021-10-21T11:55:30.000Z</time>
      </trkpt>
      <trkpt lat="43.93536" lon="2.38378">
        <ele>290</ele>
        <time>2021-10-21T11:55:42.000Z</time>
      </trkpt>
      <trkpt lat="43.9353" lon="2.38368">
        <ele>291.2</ele>
        <time>2021-10-21T11:55:53.000Z</time>
      </trkpt>
      <trkpt lat="43.93523" lon="2.38358">
        <ele>293.5</ele>
        <time>2021-10-21T11:56:07.000Z</time>
      </trkpt>
      <trkpt lat="43.93517" lon="2.38349">
        <ele>294.1</ele>
        <time>2021-10-21T11:56:18.000Z</time>
      </trkpt>
      <trkpt lat="43.93511" lon="2.38339">
        <ele>295.6</ele>
        <time>2021-10-21T11:56:35.000Z</time>
      </trkpt>
      <trkpt lat="43.93505" lon="2.3833">
        <ele>295.4</ele>
        <time>2021-10-21T11:56:51.000Z</time>
      </trkpt>
      <trkpt lat="43.93498" lon="2.38322">
        <ele>295.6</ele>
        <time>2021-10-21T11:57:00.000Z</time>
      </trkpt>
      <trkpt lat="43.93494" lon="2.38311">
        <ele>296</ele>
        <time>2021-10-21T11:57:24.000Z</time>
      </trkpt>
      <trkpt lat="43.93487" lon="2.38302">
        <ele>297.5</ele>
        <time>2021-10-21T11:57:37.000Z</time>
      </trkpt>
      <trkpt lat="43.93482" lon="2.38313">
        <ele>298.7</ele>
        <time>2021-10-21T11:57:58.000Z</time>
      </trkpt>
      <trkpt lat="43.9348" lon="2.38326">
        <ele>300.8</ele>
        <time>2021-10-21T11:58:10.000Z</time>
      </trkpt>
      <trkpt lat="43.93482" lon="2.38338">
        <ele>303.8</ele>
        <time>2021-10-21T11:58:24.000Z</time>
      </trkpt>
      <trkpt lat="43.93475" lon="2.38347">
        <ele>307</ele>
        <time>2021-10-21T11:58:36.000Z</time>
      </trkpt>
      <trkpt lat="43.93466" lon="2.38349">
        <ele>308.8</ele>
        <time>2021-10-21T11:58:53.000Z</time>
      </trkpt>
      <trkpt lat="43.93464" lon="2.38349">
        <ele>309.4</ele>
        <time>2021-10-21T11:58:56.000Z</time>
      </trkpt>
      <trkpt lat="43.93465" lon="2.38349">
        <ele>309.8</ele>
        <time>2021-10-21T11:58:58.000Z</time>
      </trkpt>
      <trkpt lat="43.93465" lon="2.38349">
        <ele>309.8</ele>
        <time>2021-10-21T11:58:59.000Z</time>
      </trkpt>
      <trkpt lat="43.93464" lon="2.38349">
        <ele>309.8</ele>
        <time>2021-10-21T11:59:01.000Z</time>
      </trkpt>
      <trkpt lat="43.93464" lon="2.38349">
        <ele>309.9</ele>
        <time>2021-10-21T11:59:02.000Z</time>
      </trkpt>
      <trkpt lat="43.93464" lon="2.38349">
        <ele>309.9</ele>
        <time>2021-10-21T11:59:03.000Z</time>
      </trkpt>
      <trkpt lat="43.93463" lon="2.38349">
        <ele>310.1</ele>
        <time>2021-10-21T11:59:07.000Z</time>
      </trkpt>
      <trkpt lat="43.93463" lon="2.38348">
        <ele>310</ele>
        <time>2021-10-21T11:59:08.000Z</time>
      </trkpt>
      <trkpt lat="43.93464" lon="2.38348">
        <ele>310</ele>
        <time>2021-10-21T11:59:10.000Z</time>
      </trkpt>
      <trkpt lat="43.93464" lon="2.38348">
        <ele>310</ele>
        <time>2021-10-21T11:59:12.000Z</time>
      </trkpt>
      <trkpt lat="43.93464" lon="2.38348">
        <ele>310</ele>
        <time>2021-10-21T11:59:13.000Z</time>
      </trkpt>
      <trkpt lat="43.93464" lon="2.38348">
        <ele>309.8</ele>
        <time>2021-10-21T11:59:18.000Z</time>
      </trkpt>
      <trkpt lat="43.93464" lon="2.38349">
        <ele>309.8</ele>
        <time>2021-10-21T11:59:20.000Z</time>
      </trkpt>
      <trkpt lat="43.93464" lon="2.38349">
        <ele>310.2</ele>
        <time>2021-10-21T11:59:35.000Z</time>
      </trkpt>
      <trkpt lat="43.93464" lon="2.38349">
        <ele>310.8</ele>
        <time>2021-10-21T11:59:39.000Z</time>
      </trkpt>
      <trkpt lat="43.93464" lon="2.38349">
        <ele>311</ele>
        <time>2021-10-21T11:59:41.000Z</time>
      </trkpt>
      <trkpt lat="43.93464" lon="2.38349">
        <ele>311</ele>
        <time>2021-10-21T11:59:42.000Z</time>
      </trkpt>
      <trkpt lat="43.93464" lon="2.38349">
        <ele>311.1</ele>
        <time>2021-10-21T11:59:57.000Z</time>
      </trkpt>
      <trkpt lat="43.93464" lon="2.38349">
        <ele>311.1</ele>
        <time>2021-10-21T11:59:58.000Z</time>
      </trkpt>
      <trkpt lat="43.93464" lon="2.38349">
        <ele>310.9</ele>
        <time>2021-10-21T12:00:11.000Z</time>
      </trkpt>
      <trkpt lat="43.93465" lon="2.38348">
        <ele>310.3</ele>
        <time>2021-10-21T12:00:14.000Z</time>
      </trkpt>
      <trkpt lat="43.93464" lon="2.38348">
        <ele>310.2</ele>
        <time>2021-10-21T12:00:25.000Z</time>
      </trkpt>
      <trkpt lat="43.93464" lon="2.38348">
        <ele>310.4</ele>
        <time>2021-10-21T12:00:29.000Z</time>
      </trkpt>
      <trkpt lat="43.93464" lon="2.38348">
        <ele>310.5</ele>
        <time>2021-10-21T12:00:31.000Z</time>
      </trkpt>
      <trkpt lat="43.93455" lon="2.38353">
        <ele>311.4</ele>
        <time>2021-10-21T12:00:51.000Z</time>
      </trkpt>
      <trkpt lat="43.93446" lon="2.38355">
        <ele>312.5</ele>
        <time>2021-10-21T12:01:07.000Z</time>
      </trkpt>
      <trkpt lat="43.93436" lon="2.38355">
        <ele>309.6</ele>
        <time>2021-10-21T12:01:19.000Z</time>
      </trkpt>
      <trkpt lat="43.93427" lon="2.38359">
        <ele>306.5</ele>
        <time>2021-10-21T12:01:34.000Z</time>
      </trkpt>
      <trkpt lat="43.93418" lon="2.38361">
        <ele>305.3</ele>
        <time>2021-10-21T12:01:46.000Z</time>
      </trkpt>
      <trkpt lat="43.93409" lon="2.38361">
        <ele>302.9</ele>
        <time>2021-10-21T12:01:59.000Z</time>
      </trkpt>
      <trkpt lat="43.934" lon="2.38356">
        <ele>302.3</ele>
        <time>2021-10-21T12:02:08.000Z</time>
      </trkpt>
      <trkpt lat="43.93397" lon="2.38354">
        <ele>301.2</ele>
        <time>2021-10-21T12:02:14.000Z</time>
      </trkpt>
      <trkpt lat="43.93397" lon="2.38354">
        <ele>301.2</ele>
        <time>2021-10-21T12:02:15.000Z</time>
      </trkpt>
      <trkpt lat="43.93397" lon="2.38354">
        <ele>301.2</ele>
        <time>2021-10-21T12:02:16.000Z</time>
      </trkpt>
      <trkpt lat="43.93397" lon="2.38354">
        <ele>301.1</ele>
        <time>2021-10-21T12:02:19.000Z</time>
      </trkpt>
      <trkpt lat="43.93388" lon="2.38353">
        <ele>301</ele>
        <time>2021-10-21T12:02:29.000Z</time>
      </trkpt>
      <trkpt lat="43.93384" lon="2.38353">
        <ele>300.6</ele>
        <time>2021-10-21T12:02:36.000Z</time>
      </trkpt>
      <trkpt lat="43.93384" lon="2.38353">
        <ele>300.6</ele>
        <time>2021-10-21T12:02:40.000Z</time>
      </trkpt>
      <trkpt lat="43.93384" lon="2.38353">
        <ele>300.6</ele>
        <time>2021-10-21T12:02:41.000Z</time>
      </trkpt>
      <trkpt lat="43.93384" lon="2.38353">
        <ele>300.5</ele>
        <time>2021-10-21T12:02:46.000Z</time>
      </trkpt>
      <trkpt lat="43.93378" lon="2.38353">
        <ele>300</ele>
        <time>2021-10-21T12:02:55.000Z</time>
      </trkpt>
      <trkpt lat="43.93378" lon="2.38353">
        <ele>299.8</ele>
        <time>2021-10-21T12:03:04.000Z</time>
      </trkpt>
      <trkpt lat="43.93368" lon="2.38353">
        <ele>299.2</ele>
        <time>2021-10-21T12:03:12.000Z</time>
      </trkpt>
      <trkpt lat="43.93363" lon="2.38351">
        <ele>297.9</ele>
        <time>2021-10-21T12:03:22.000Z</time>
      </trkpt>
      <trkpt lat="43.93363" lon="2.38351">
        <ele>297.2</ele>
        <time>2021-10-21T12:03:24.000Z</time>
      </trkpt>
      <trkpt lat="43.93354" lon="2.3835">
        <ele>292.3</ele>
        <time>2021-10-21T12:03:45.000Z</time>
      </trkpt>
      <trkpt lat="43.93345" lon="2.38352">
        <ele>292.5</ele>
        <time>2021-10-21T12:03:53.000Z</time>
      </trkpt>
      <trkpt lat="43.93335" lon="2.38353">
        <ele>292.7</ele>
        <time>2021-10-21T12:04:01.000Z</time>
      </trkpt>
      <trkpt lat="43.93326" lon="2.38352">
        <ele>292.9</ele>
        <time>2021-10-21T12:04:08.000Z</time>
      </trkpt>
      <trkpt lat="43.93318" lon="2.38347">
        <ele>292.9</ele>
        <time>2021-10-21T12:04:15.000Z</time>
      </trkpt>
      <trkpt lat="43.93311" lon="2.38339">
        <ele>292.6</ele>
        <time>2021-10-21T12:04:22.000Z</time>
      </trkpt>
      <trkpt lat="43.93303" lon="2.38331">
        <ele>292</ele>
        <time>2021-10-21T12:04:29.000Z</time>
      </trkpt>
      <trkpt lat="43.93294" lon="2.38327">
        <ele>290.7</ele>
        <time>2021-10-21T12:04:36.000Z</time>
      </trkpt>
      <trkpt lat="43.93285" lon="2.38324">
        <ele>290.6</ele>
        <time>2021-10-21T12:04:43.000Z</time>
      </trkpt>
      <trkpt lat="43.93276" lon="2.38321">
        <ele>290.7</ele>
        <time>2021-10-21T12:04:57.000Z</time>
      </trkpt>
      <trkpt lat="43.93265" lon="2.38319">
        <ele>289.8</ele>
        <time>2021-10-21T12:05:04.000Z</time>
      </trkpt>
      <trkpt lat="43.93255" lon="2.3832">
        <ele>288.9</ele>
        <time>2021-10-21T12:05:11.000Z</time>
      </trkpt>
      <trkpt lat="43.93246" lon="2.3832">
        <ele>288.4</ele>
        <time>2021-10-21T12:05:18.000Z</time>
      </trkpt>
      <trkpt lat="43.93236" lon="2.38321">
        <ele>287.9</ele>
        <time>2021-10-21T12:05:25.000Z</time>
      </trkpt>
      <trkpt lat="43.93226" lon="2.38322">
        <ele>287</ele>
        <time>2021-10-21T12:05:32.000Z</time>
      </trkpt>
      <trkpt lat="43.93217" lon="2.38323">
        <ele>285.9</ele>
        <time>2021-10-21T12:05:38.000Z</time>
      </trkpt>
      <trkpt lat="43.93207" lon="2.38323">
        <ele>285.5</ele>
        <time>2021-10-21T12:05:45.000Z</time>
      </trkpt>
      <trkpt lat="43.93198" lon="2.38326">
        <ele>284.9</ele>
        <time>2021-10-21T12:05:53.000Z</time>
      </trkpt>
      <trkpt lat="43.93188" lon="2.38327">
        <ele>284.6</ele>
        <time>2021-10-21T12:06:01.000Z</time>
      </trkpt>
      <trkpt lat="43.93178" lon="2.38328">
        <ele>284.1</ele>
        <time>2021-10-21T12:06:09.000Z</time>
      </trkpt>
      <trkpt lat="43.93169" lon="2.3833">
        <ele>283.6</ele>
        <time>2021-10-21T12:06:16.000Z</time>
      </trkpt>
      <trkpt lat="43.9316" lon="2.38331">
        <ele>283.4</ele>
        <time>2021-10-21T12:06:23.000Z</time>
      </trkpt>
      <trkpt lat="43.93151" lon="2.38331">
        <ele>283.5</ele>
        <time>2021-10-21T12:06:30.000Z</time>
      </trkpt>
      <trkpt lat="43.93142" lon="2.38327">
        <ele>283.1</ele>
        <time>2021-10-21T12:06:38.000Z</time>
      </trkpt>
      <trkpt lat="43.93135" lon="2.38316">
        <ele>282.9</ele>
        <time>2021-10-21T12:06:46.000Z</time>
      </trkpt>
      <trkpt lat="43.9313" lon="2.38304">
        <ele>283.2</ele>
        <time>2021-10-21T12:06:54.000Z</time>
      </trkpt>
      <trkpt lat="43.93125" lon="2.38293">
        <ele>283</ele>
        <time>2021-10-21T12:07:00.000Z</time>
      </trkpt>
      <trkpt lat="43.93123" lon="2.38279">
        <ele>282.9</ele>
        <time>2021-10-21T12:07:08.000Z</time>
      </trkpt>
      <trkpt lat="43.93124" lon="2.38266">
        <ele>283.3</ele>
        <time>2021-10-21T12:07:17.000Z</time>
      </trkpt>
      <trkpt lat="43.93129" lon="2.38254">
        <ele>283.5</ele>
        <time>2021-10-21T12:07:30.000Z</time>
      </trkpt>
      <trkpt lat="43.93128" lon="2.3824">
        <ele>283.3</ele>
        <time>2021-10-21T12:07:39.000Z</time>
      </trkpt>
      <trkpt lat="43.93126" lon="2.38228">
        <ele>283</ele>
        <time>2021-10-21T12:07:46.000Z</time>
      </trkpt>
      <trkpt lat="43.93124" lon="2.38215">
        <ele>282.5</ele>
        <time>2021-10-21T12:07:54.000Z</time>
      </trkpt>
      <trkpt lat="43.93123" lon="2.38202">
        <ele>282</ele>
        <time>2021-10-21T12:08:01.000Z</time>
      </trkpt>
      <trkpt lat="43.93122" lon="2.38189">
        <ele>280.1</ele>
        <time>2021-10-21T12:08:08.000Z</time>
      </trkpt>
      <trkpt lat="43.93121" lon="2.38176">
        <ele>279.2</ele>
        <time>2021-10-21T12:08:15.000Z</time>
      </trkpt>
      <trkpt lat="43.93121" lon="2.38163">
        <ele>279.3</ele>
        <time>2021-10-21T12:08:22.000Z</time>
      </trkpt>
      <trkpt lat="43.9312" lon="2.3815">
        <ele>278.6</ele>
        <time>2021-10-21T12:08:30.000Z</time>
      </trkpt>
      <trkpt lat="43.93119" lon="2.38137">
        <ele>278.1</ele>
        <time>2021-10-21T12:08:38.000Z</time>
      </trkpt>
      <trkpt lat="43.93119" lon="2.38124">
        <ele>277</ele>
        <time>2021-10-21T12:08:46.000Z</time>
      </trkpt>
      <trkpt lat="43.93119" lon="2.3811">
        <ele>276.1</ele>
        <time>2021-10-21T12:08:54.000Z</time>
      </trkpt>
      <trkpt lat="43.93118" lon="2.38097">
        <ele>275.8</ele>
        <time>2021-10-21T12:09:01.000Z</time>
      </trkpt>
      <trkpt lat="43.93116" lon="2.38084">
        <ele>275.7</ele>
        <time>2021-10-21T12:09:08.000Z</time>
      </trkpt>
      <trkpt lat="43.93115" lon="2.3807">
        <ele>275.5</ele>
        <time>2021-10-21T12:09:16.000Z</time>
      </trkpt>
      <trkpt lat="43.93114" lon="2.38056">
        <ele>275</ele>
        <time>2021-10-21T12:09:24.000Z</time>
      </trkpt>
      <trkpt lat="43.93112" lon="2.38043">
        <ele>273.8</ele>
        <time>2021-10-21T12:09:32.000Z</time>
      </trkpt>
      <trkpt lat="43.9311" lon="2.38031">
        <ele>273.2</ele>
        <time>2021-10-21T12:09:40.000Z</time>
      </trkpt>
      <trkpt lat="43.93107" lon="2.38017">
        <ele>272.6</ele>
        <time>2021-10-21T12:09:52.000Z</time>
      </trkpt>
      <trkpt lat="43.93104" lon="2.38005">
        <ele>271.3</ele>
        <time>2021-10-21T12:10:01.000Z</time>
      </trkpt>
      <trkpt lat="43.93101" lon="2.37992">
        <ele>270.4</ele>
        <time>2021-10-21T12:10:09.000Z</time>
      </trkpt>
      <trkpt lat="43.93098" lon="2.3798">
        <ele>270.2</ele>
        <time>2021-10-21T12:10:18.000Z</time>
      </trkpt>
      <trkpt lat="43.93096" lon="2.37966">
        <ele>269.7</ele>
        <time>2021-10-21T12:10:26.000Z</time>
      </trkpt>
      <trkpt lat="43.93094" lon="2.37953">
        <ele>269.6</ele>
        <time>2021-10-21T12:10:34.000Z</time>
      </trkpt>
      <trkpt lat="43.93094" lon="2.37946">
        <ele>269.4</ele>
        <time>2021-10-21T12:10:41.000Z</time>
      </trkpt>
      <trkpt lat="43.93094" lon="2.37946">
        <ele>269.2</ele>
        <time>2021-10-21T12:10:42.000Z</time>
      </trkpt>
      <trkpt lat="43.93093" lon="2.37932">
        <ele>269.4</ele>
        <time>2021-10-21T12:10:51.000Z</time>
      </trkpt>
      <trkpt lat="43.93092" lon="2.37919">
        <ele>269.4</ele>
        <time>2021-10-21T12:10:59.000Z</time>
      </trkpt>
      <trkpt lat="43.93092" lon="2.37907">
        <ele>268.6</ele>
        <time>2021-10-21T12:11:07.000Z</time>
      </trkpt>
      <trkpt lat="43.93092" lon="2.37893">
        <ele>267.9</ele>
        <time>2021-10-21T12:11:15.000Z</time>
      </trkpt>
      <trkpt lat="43.93091" lon="2.3788">
        <ele>268</ele>
        <time>2021-10-21T12:11:23.000Z</time>
      </trkpt>
      <trkpt lat="43.93088" lon="2.37867">
        <ele>267.7</ele>
        <time>2021-10-21T12:11:31.000Z</time>
      </trkpt>
      <trkpt lat="43.93085" lon="2.37855">
        <ele>267.2</ele>
        <time>2021-10-21T12:11:39.000Z</time>
      </trkpt>
      <trkpt lat="43.93081" lon="2.37843">
        <ele>267.2</ele>
        <time>2021-10-21T12:11:46.000Z</time>
      </trkpt>
      <trkpt lat="43.93076" lon="2.37831">
        <ele>267.5</ele>
        <time>2021-10-21T12:11:54.000Z</time>
      </trkpt>
      <trkpt lat="43.9307" lon="2.37822">
        <ele>267.8</ele>
        <time>2021-10-21T12:12:01.000Z</time>
      </trkpt>
      <trkpt lat="43.93063" lon="2.37813">
        <ele>267.7</ele>
        <time>2021-10-21T12:12:09.000Z</time>
      </trkpt>
      <trkpt lat="43.93055" lon="2.37806">
        <ele>268</ele>
        <time>2021-10-21T12:12:17.000Z</time>
      </trkpt>
      <trkpt lat="43.93047" lon="2.37801">
        <ele>268.3</ele>
        <time>2021-10-21T12:12:24.000Z</time>
      </trkpt>
      <trkpt lat="43.93037" lon="2.37798">
        <ele>269.4</ele>
        <time>2021-10-21T12:12:33.000Z</time>
      </trkpt>
      <trkpt lat="43.93028" lon="2.37796">
        <ele>270.2</ele>
        <time>2021-10-21T12:12:42.000Z</time>
      </trkpt>
      <trkpt lat="43.93019" lon="2.37794">
        <ele>270.8</ele>
        <time>2021-10-21T12:12:51.000Z</time>
      </trkpt>
      <trkpt lat="43.93009" lon="2.37795">
        <ele>269.9</ele>
        <time>2021-10-21T12:13:03.000Z</time>
      </trkpt>
      <trkpt lat="43.93" lon="2.37795">
        <ele>269.7</ele>
        <time>2021-10-21T12:13:11.000Z</time>
      </trkpt>
      <trkpt lat="43.9299" lon="2.37797">
        <ele>269.4</ele>
        <time>2021-10-21T12:13:20.000Z</time>
      </trkpt>
      <trkpt lat="43.92981" lon="2.378">
        <ele>269.6</ele>
        <time>2021-10-21T12:13:28.000Z</time>
      </trkpt>
      <trkpt lat="43.92977" lon="2.37802">
        <ele>269.6</ele>
        <time>2021-10-21T12:13:34.000Z</time>
      </trkpt>
      <trkpt lat="43.92977" lon="2.37803">
        <ele>269.7</ele>
        <time>2021-10-21T12:13:36.000Z</time>
      </trkpt>
      <trkpt lat="43.92977" lon="2.37804">
        <ele>270.4</ele>
        <time>2021-10-21T12:13:40.000Z</time>
      </trkpt>
      <trkpt lat="43.92977" lon="2.37804">
        <ele>270.3</ele>
        <time>2021-10-21T12:14:00.000Z</time>
      </trkpt>
      <trkpt lat="43.92977" lon="2.37804">
        <ele>270.2</ele>
        <time>2021-10-21T12:14:01.000Z</time>
      </trkpt>
      <trkpt lat="43.92977" lon="2.37804">
        <ele>270.2</ele>
        <time>2021-10-21T12:14:02.000Z</time>
      </trkpt>
      <trkpt lat="43.92977" lon="2.37804">
        <ele>270.3</ele>
        <time>2021-10-21T12:14:05.000Z</time>
      </trkpt>
      <trkpt lat="43.92977" lon="2.37804">
        <ele>270.3</ele>
        <time>2021-10-21T12:14:06.000Z</time>
      </trkpt>
      <trkpt lat="43.92967" lon="2.37807">
        <ele>269.8</ele>
        <time>2021-10-21T12:14:18.000Z</time>
      </trkpt>
      <trkpt lat="43.92957" lon="2.37805">
        <ele>269.9</ele>
        <time>2021-10-21T12:14:26.000Z</time>
      </trkpt>
      <trkpt lat="43.92947" lon="2.37804">
        <ele>270.3</ele>
        <time>2021-10-21T12:14:33.000Z</time>
      </trkpt>
      <trkpt lat="43.92938" lon="2.37802">
        <ele>270.2</ele>
        <time>2021-10-21T12:14:40.000Z</time>
      </trkpt>
      <trkpt lat="43.92929" lon="2.37799">
        <ele>270.2</ele>
        <time>2021-10-21T12:14:47.000Z</time>
      </trkpt>
      <trkpt lat="43.92919" lon="2.37797">
        <ele>270.6</ele>
        <time>2021-10-21T12:14:55.000Z</time>
      </trkpt>
      <trkpt lat="43.9291" lon="2.37793">
        <ele>270.5</ele>
        <time>2021-10-21T12:15:02.000Z</time>
      </trkpt>
      <trkpt lat="43.929" lon="2.3779">
        <ele>270</ele>
        <time>2021-10-21T12:15:09.000Z</time>
      </trkpt>
      <trkpt lat="43.92891" lon="2.37788">
        <ele>269.6</ele>
        <time>2021-10-21T12:15:16.000Z</time>
      </trkpt>
      <trkpt lat="43.92882" lon="2.37786">
        <ele>269.6</ele>
        <time>2021-10-21T12:15:23.000Z</time>
      </trkpt>
      <trkpt lat="43.92872" lon="2.37784">
        <ele>268.6</ele>
        <time>2021-10-21T12:15:31.000Z</time>
      </trkpt>
      <trkpt lat="43.92862" lon="2.37783">
        <ele>268.1</ele>
        <time>2021-10-21T12:15:38.000Z</time>
      </trkpt>
      <trkpt lat="43.92852" lon="2.37783">
        <ele>267.4</ele>
        <time>2021-10-21T12:15:45.000Z</time>
      </trkpt>
      <trkpt lat="43.92842" lon="2.37783">
        <ele>266.7</ele>
        <time>2021-10-21T12:15:52.000Z</time>
      </trkpt>
      <trkpt lat="43.92832" lon="2.37783">
        <ele>266.2</ele>
        <time>2021-10-21T12:15:59.000Z</time>
      </trkpt>
      <trkpt lat="43.92823" lon="2.37784">
        <ele>265.4</ele>
        <time>2021-10-21T12:16:06.000Z</time>
      </trkpt>
      <trkpt lat="43.92813" lon="2.37788">
        <ele>265.4</ele>
        <time>2021-10-21T12:16:13.000Z</time>
      </trkpt>
      <trkpt lat="43.92804" lon="2.37793">
        <ele>265.6</ele>
        <time>2021-10-21T12:16:20.000Z</time>
      </trkpt>
      <trkpt lat="43.92795" lon="2.378">
        <ele>265.5</ele>
        <time>2021-10-21T12:16:28.000Z</time>
      </trkpt>
      <trkpt lat="43.92786" lon="2.37803">
        <ele>265.6</ele>
        <time>2021-10-21T12:16:35.000Z</time>
      </trkpt>
      <trkpt lat="43.92777" lon="2.37802">
        <ele>264.9</ele>
        <time>2021-10-21T12:16:41.000Z</time>
      </trkpt>
      <trkpt lat="43.92767" lon="2.37802">
        <ele>264</ele>
        <time>2021-10-21T12:16:48.000Z</time>
      </trkpt>
      <trkpt lat="43.92758" lon="2.378">
        <ele>263.1</ele>
        <time>2021-10-21T12:16:56.000Z</time>
      </trkpt>
      <trkpt lat="43.92749" lon="2.37796">
        <ele>262.2</ele>
        <time>2021-10-21T12:17:03.000Z</time>
      </trkpt>
      <trkpt lat="43.92739" lon="2.37795">
        <ele>260.9</ele>
        <time>2021-10-21T12:17:10.000Z</time>
      </trkpt>
      <trkpt lat="43.9273" lon="2.37795">
        <ele>260.2</ele>
        <time>2021-10-21T12:17:17.000Z</time>
      </trkpt>
      <trkpt lat="43.9272" lon="2.37796">
        <ele>259.5</ele>
        <time>2021-10-21T12:17:24.000Z</time>
      </trkpt>
      <trkpt lat="43.92712" lon="2.37803">
        <ele>259</ele>
        <time>2021-10-21T12:17:32.000Z</time>
      </trkpt>
      <trkpt lat="43.92705" lon="2.37813">
        <ele>259.1</ele>
        <time>2021-10-21T12:17:39.000Z</time>
      </trkpt>
      <trkpt lat="43.92699" lon="2.37823">
        <ele>258.5</ele>
        <time>2021-10-21T12:17:46.000Z</time>
      </trkpt>
      <trkpt lat="43.92691" lon="2.3783">
        <ele>259.1</ele>
        <time>2021-10-21T12:17:53.000Z</time>
      </trkpt>
      <trkpt lat="43.92682" lon="2.37832">
        <ele>259.4</ele>
        <time>2021-10-21T12:18:00.000Z</time>
      </trkpt>
      <trkpt lat="43.92673" lon="2.37831">
        <ele>258.9</ele>
        <time>2021-10-21T12:18:07.000Z</time>
      </trkpt>
      <trkpt lat="43.92664" lon="2.37833">
        <ele>257.4</ele>
        <time>2021-10-21T12:18:15.000Z</time>
      </trkpt>
      <trkpt lat="43.92655" lon="2.3784">
        <ele>257.2</ele>
        <time>2021-10-21T12:18:23.000Z</time>
      </trkpt>
      <trkpt lat="43.92647" lon="2.37847">
        <ele>256.7</ele>
        <time>2021-10-21T12:18:31.000Z</time>
      </trkpt>
      <trkpt lat="43.92639" lon="2.37856">
        <ele>256</ele>
        <time>2021-10-21T12:18:39.000Z</time>
      </trkpt>
      <trkpt lat="43.92631" lon="2.37862">
        <ele>255.1</ele>
        <time>2021-10-21T12:18:47.000Z</time>
      </trkpt>
      <trkpt lat="43.92621" lon="2.37862">
        <ele>253.8</ele>
        <time>2021-10-21T12:18:55.000Z</time>
      </trkpt>
      <trkpt lat="43.92612" lon="2.37857">
        <ele>253</ele>
        <time>2021-10-21T12:19:02.000Z</time>
      </trkpt>
      <trkpt lat="43.92604" lon="2.37854">
        <ele>252.2</ele>
        <time>2021-10-21T12:19:11.000Z</time>
      </trkpt>
      <trkpt lat="43.92596" lon="2.37845">
        <ele>251.6</ele>
        <time>2021-10-21T12:19:20.000Z</time>
      </trkpt>
      <trkpt lat="43.92592" lon="2.37833">
        <ele>251.2</ele>
        <time>2021-10-21T12:19:26.000Z</time>
      </trkpt>
      <trkpt lat="43.92591" lon="2.3782">
        <ele>250.5</ele>
        <time>2021-10-21T12:19:33.000Z</time>
      </trkpt>
      <trkpt lat="43.92592" lon="2.37808">
        <ele>249.7</ele>
        <time>2021-10-21T12:19:40.000Z</time>
      </trkpt>
      <trkpt lat="43.92594" lon="2.37795">
        <ele>248.5</ele>
        <time>2021-10-21T12:19:47.000Z</time>
      </trkpt>
      <trkpt lat="43.92596" lon="2.37783">
        <ele>248.7</ele>
        <time>2021-10-21T12:19:55.000Z</time>
      </trkpt>
      <trkpt lat="43.926" lon="2.37772">
        <ele>247.9</ele>
        <time>2021-10-21T12:20:05.000Z</time>
      </trkpt>
      <trkpt lat="43.92605" lon="2.3776">
        <ele>248.3</ele>
        <time>2021-10-21T12:20:13.000Z</time>
      </trkpt>
      <trkpt lat="43.92613" lon="2.37753">
        <ele>247.9</ele>
        <time>2021-10-21T12:20:22.000Z</time>
      </trkpt>
      <trkpt lat="43.92623" lon="2.37754">
        <ele>248</ele>
        <time>2021-10-21T12:20:31.000Z</time>
      </trkpt>
      <trkpt lat="43.92632" lon="2.37754">
        <ele>248.1</ele>
        <time>2021-10-21T12:20:39.000Z</time>
      </trkpt>
      <trkpt lat="43.92641" lon="2.37751">
        <ele>247.8</ele>
        <time>2021-10-21T12:20:47.000Z</time>
      </trkpt>
      <trkpt lat="43.92651" lon="2.37749">
        <ele>247.9</ele>
        <time>2021-10-21T12:20:57.000Z</time>
      </trkpt>
      <trkpt lat="43.9266" lon="2.37747">
        <ele>246.8</ele>
        <time>2021-10-21T12:21:06.000Z</time>
      </trkpt>
      <trkpt lat="43.92668" lon="2.37741">
        <ele>246.8</ele>
        <time>2021-10-21T12:21:19.000Z</time>
      </trkpt>
      <trkpt lat="43.92677" lon="2.3774">
        <ele>246.5</ele>
        <time>2021-10-21T12:21:30.000Z</time>
      </trkpt>
      <trkpt lat="43.92687" lon="2.37738">
        <ele>246</ele>
        <time>2021-10-21T12:21:38.000Z</time>
      </trkpt>
      <trkpt lat="43.92695" lon="2.3773">
        <ele>245.2</ele>
        <time>2021-10-21T12:21:45.000Z</time>
      </trkpt>
      <trkpt lat="43.92701" lon="2.37718">
        <ele>243.8</ele>
        <time>2021-10-21T12:21:52.000Z</time>
      </trkpt>
      <trkpt lat="43.92705" lon="2.37707">
        <ele>242.7</ele>
        <time>2021-10-21T12:21:58.000Z</time>
      </trkpt>
      <trkpt lat="43.92709" lon="2.37695">
        <ele>242.3</ele>
        <time>2021-10-21T12:22:07.000Z</time>
      </trkpt>
      <trkpt lat="43.92716" lon="2.37684">
        <ele>243.6</ele>
        <time>2021-10-21T12:22:19.000Z</time>
      </trkpt>
      <trkpt lat="43.92726" lon="2.3768">
        <ele>244.4</ele>
        <time>2021-10-21T12:22:26.000Z</time>
      </trkpt>
      <trkpt lat="43.92733" lon="2.37673">
        <ele>246</ele>
        <time>2021-10-21T12:22:39.000Z</time>
      </trkpt>
      <trkpt lat="43.92737" lon="2.37671">
        <ele>246.3</ele>
        <time>2021-10-21T12:22:47.000Z</time>
      </trkpt>
      <trkpt lat="43.92737" lon="2.37671">
        <ele>246.1</ele>
        <time>2021-10-21T12:22:48.000Z</time>
      </trkpt>
      <trkpt lat="43.92745" lon="2.37664">
        <ele>246.3</ele>
        <time>2021-10-21T12:22:55.000Z</time>
      </trkpt>
      <trkpt lat="43.92755" lon="2.37664">
        <ele>246.6</ele>
        <time>2021-10-21T12:23:05.000Z</time>
      </trkpt>
      <trkpt lat="43.92764" lon="2.37663">
        <ele>247.9</ele>
        <time>2021-10-21T12:23:14.000Z</time>
      </trkpt>
      <trkpt lat="43.92773" lon="2.37665">
        <ele>249</ele>
        <time>2021-10-21T12:23:24.000Z</time>
      </trkpt>
      <trkpt lat="43.92782" lon="2.37661">
        <ele>249.3</ele>
        <time>2021-10-21T12:23:39.000Z</time>
      </trkpt>
      <trkpt lat="43.9279" lon="2.37654">
        <ele>248.6</ele>
        <time>2021-10-21T12:23:47.000Z</time>
      </trkpt>
      <trkpt lat="43.92792" lon="2.37641">
        <ele>247.7</ele>
        <time>2021-10-21T12:23:55.000Z</time>
      </trkpt>
      <trkpt lat="43.92794" lon="2.37629">
        <ele>246.7</ele>
        <time>2021-10-21T12:24:07.000Z</time>
      </trkpt>
      <trkpt lat="43.92801" lon="2.37619">
        <ele>246.7</ele>
        <time>2021-10-21T12:24:16.000Z</time>
      </trkpt>
      <trkpt lat="43.92807" lon="2.37609">
        <ele>247.7</ele>
        <time>2021-10-21T12:24:31.000Z</time>
      </trkpt>
      <trkpt lat="43.92814" lon="2.376">
        <ele>249</ele>
        <time>2021-10-21T12:24:43.000Z</time>
      </trkpt>
      <trkpt lat="43.92819" lon="2.37589">
        <ele>249.2</ele>
        <time>2021-10-21T12:24:55.000Z</time>
      </trkpt>
      <trkpt lat="43.92826" lon="2.37581">
        <ele>250.5</ele>
        <time>2021-10-21T12:25:06.000Z</time>
      </trkpt>
      <trkpt lat="43.92835" lon="2.37574">
        <ele>250.7</ele>
        <time>2021-10-21T12:25:17.000Z</time>
      </trkpt>
      <trkpt lat="43.92843" lon="2.37567">
        <ele>252.4</ele>
        <time>2021-10-21T12:25:28.000Z</time>
      </trkpt>
      <trkpt lat="43.92853" lon="2.37565">
        <ele>253.8</ele>
        <time>2021-10-21T12:25:42.000Z</time>
      </trkpt>
      <trkpt lat="43.92854" lon="2.37564">
        <ele>253.4</ele>
        <time>2021-10-21T12:25:46.000Z</time>
      </trkpt>
      <trkpt lat="43.92855" lon="2.37564">
        <ele>253.4</ele>
        <time>2021-10-21T12:25:47.000Z</time>
      </trkpt>
      <trkpt lat="43.92864" lon="2.37562">
        <ele>253.5</ele>
        <time>2021-10-21T12:25:59.000Z</time>
      </trkpt>
      <trkpt lat="43.92873" lon="2.37558">
        <ele>253.9</ele>
        <time>2021-10-21T12:26:08.000Z</time>
      </trkpt>
      <trkpt lat="43.92879" lon="2.37549">
        <ele>254.6</ele>
        <time>2021-10-21T12:26:20.000Z</time>
      </trkpt>
      <trkpt lat="43.92881" lon="2.37536">
        <ele>256</ele>
        <time>2021-10-21T12:26:34.000Z</time>
      </trkpt>
      <trkpt lat="43.92879" lon="2.37523">
        <ele>258.2</ele>
        <time>2021-10-21T12:26:47.000Z</time>
      </trkpt>
      <trkpt lat="43.92876" lon="2.37511">
        <ele>260.5</ele>
        <time>2021-10-21T12:26:58.000Z</time>
      </trkpt>
      <trkpt lat="43.92876" lon="2.37511">
        <ele>261.4</ele>
        <time>2021-10-21T12:27:03.000Z</time>
      </trkpt>
      <trkpt lat="43.92876" lon="2.37511">
        <ele>261.8</ele>
        <time>2021-10-21T12:27:04.000Z</time>
      </trkpt>
      <trkpt lat="43.92876" lon="2.37511">
        <ele>261.8</ele>
        <time>2021-10-21T12:27:06.000Z</time>
      </trkpt>
      <trkpt lat="43.92876" lon="2.37511">
        <ele>262</ele>
        <time>2021-10-21T12:27:11.000Z</time>
      </trkpt>
      <trkpt lat="43.92876" lon="2.37511">
        <ele>262.2</ele>
        <time>2021-10-21T12:27:13.000Z</time>
      </trkpt>
      <trkpt lat="43.92876" lon="2.37511">
        <ele>262.3</ele>
        <time>2021-10-21T12:27:14.000Z</time>
      </trkpt>
      <trkpt lat="43.92876" lon="2.37511">
        <ele>262.4</ele>
        <time>2021-10-21T12:27:15.000Z</time>
      </trkpt>
      <trkpt lat="43.92876" lon="2.37511">
        <ele>262.6</ele>
        <time>2021-10-21T12:27:17.000Z</time>
      </trkpt>
      <trkpt lat="43.92876" lon="2.37511">
        <ele>262.6</ele>
        <time>2021-10-21T12:27:19.000Z</time>
      </trkpt>
      <trkpt lat="43.92876" lon="2.37511">
        <ele>262.5</ele>
        <time>2021-10-21T12:27:34.000Z</time>
      </trkpt>
      <trkpt lat="43.92876" lon="2.37511">
        <ele>262.5</ele>
        <time>2021-10-21T12:27:37.000Z</time>
      </trkpt>
      <trkpt lat="43.92876" lon="2.37511">
        <ele>262.5</ele>
        <time>2021-10-21T12:27:41.000Z</time>
      </trkpt>
      <trkpt lat="43.92876" lon="2.37511">
        <ele>262.5</ele>
        <time>2021-10-21T12:27:42.000Z</time>
      </trkpt>
      <trkpt lat="43.92876" lon="2.37511">
        <ele>262.8</ele>
        <time>2021-10-21T12:27:57.000Z</time>
      </trkpt>
      <trkpt lat="43.92876" lon="2.37511">
        <ele>262.8</ele>
        <time>2021-10-21T12:27:59.000Z</time>
      </trkpt>
      <trkpt lat="43.92876" lon="2.37511">
        <ele>262.8</ele>
        <time>2021-10-21T12:28:09.000Z</time>
      </trkpt>
      <trkpt lat="43.92876" lon="2.37511">
        <ele>262.8</ele>
        <time>2021-10-21T12:28:10.000Z</time>
      </trkpt>
      <trkpt lat="43.92876" lon="2.37511">
        <ele>262.8</ele>
        <time>2021-10-21T12:28:11.000Z</time>
      </trkpt>
      <trkpt lat="43.92876" lon="2.37511">
        <ele>262.4</ele>
        <time>2021-10-21T12:28:16.000Z</time>
      </trkpt>
      <trkpt lat="43.92876" lon="2.37512">
        <ele>262.6</ele>
        <time>2021-10-21T12:28:17.000Z</time>
      </trkpt>
      <trkpt lat="43.92876" lon="2.37512">
        <ele>262.7</ele>
        <time>2021-10-21T12:28:18.000Z</time>
      </trkpt>
      <trkpt lat="43.92876" lon="2.37511">
        <ele>262.8</ele>
        <time>2021-10-21T12:28:19.000Z</time>
      </trkpt>
      <trkpt lat="43.92876" lon="2.37511">
        <ele>263</ele>
        <time>2021-10-21T12:28:21.000Z</time>
      </trkpt>
      <trkpt lat="43.92876" lon="2.37512">
        <ele>263.1</ele>
        <time>2021-10-21T12:28:22.000Z</time>
      </trkpt>
      <trkpt lat="43.92876" lon="2.37512">
        <ele>263.4</ele>
        <time>2021-10-21T12:28:23.000Z</time>
      </trkpt>
      <trkpt lat="43.92876" lon="2.37512">
        <ele>263.6</ele>
        <time>2021-10-21T12:28:24.000Z</time>
      </trkpt>
      <trkpt lat="43.92876" lon="2.37512">
        <ele>263.7</ele>
        <time>2021-10-21T12:28:25.000Z</time>
      </trkpt>
      <trkpt lat="43.92876" lon="2.37513">
        <ele>264</ele>
        <time>2021-10-21T12:28:31.000Z</time>
      </trkpt>
      <trkpt lat="43.9288" lon="2.37501">
        <ele>266.9</ele>
        <time>2021-10-21T12:28:47.000Z</time>
      </trkpt>
      <trkpt lat="43.9288" lon="2.37488">
        <ele>267.3</ele>
        <time>2021-10-21T12:28:55.000Z</time>
      </trkpt>
      <trkpt lat="43.92879" lon="2.37476">
        <ele>267.5</ele>
        <time>2021-10-21T12:29:04.000Z</time>
      </trkpt>
      <trkpt lat="43.92876" lon="2.37464">
        <ele>267.5</ele>
        <time>2021-10-21T12:29:15.000Z</time>
      </trkpt>
      <trkpt lat="43.92883" lon="2.37453">
        <ele>268</ele>
        <time>2021-10-21T12:29:24.000Z</time>
      </trkpt>
      <trkpt lat="43.9289" lon="2.37446">
        <ele>267.8</ele>
        <time>2021-10-21T12:29:30.000Z</time>
      </trkpt>
      <trkpt lat="43.92897" lon="2.37438">
        <ele>267.6</ele>
        <time>2021-10-21T12:29:38.000Z</time>
      </trkpt>
      <trkpt lat="43.92902" lon="2.37426">
        <ele>268</ele>
        <time>2021-10-21T12:29:47.000Z</time>
      </trkpt>
      <trkpt lat="43.92906" lon="2.37415">
        <ele>268.5</ele>
        <time>2021-10-21T12:29:57.000Z</time>
      </trkpt>
      <trkpt lat="43.92911" lon="2.37403">
        <ele>268.6</ele>
        <time>2021-10-21T12:30:05.000Z</time>
      </trkpt>
      <trkpt lat="43.92918" lon="2.37394">
        <ele>268.8</ele>
        <time>2021-10-21T12:30:12.000Z</time>
      </trkpt>
      <trkpt lat="43.92924" lon="2.37383">
        <ele>270</ele>
        <time>2021-10-21T12:30:22.000Z</time>
      </trkpt>
      <trkpt lat="43.92932" lon="2.37375">
        <ele>270.3</ele>
        <time>2021-10-21T12:30:32.000Z</time>
      </trkpt>
      <trkpt lat="43.92942" lon="2.3737">
        <ele>270.7</ele>
        <time>2021-10-21T12:30:40.000Z</time>
      </trkpt>
      <trkpt lat="43.9295" lon="2.37364">
        <ele>270.6</ele>
        <time>2021-10-21T12:30:50.000Z</time>
      </trkpt>
      <trkpt lat="43.92956" lon="2.37353">
        <ele>269.8</ele>
        <time>2021-10-21T12:30:59.000Z</time>
      </trkpt>
      <trkpt lat="43.92958" lon="2.3734">
        <ele>269</ele>
        <time>2021-10-21T12:31:09.000Z</time>
      </trkpt>
      <trkpt lat="43.92962" lon="2.37329">
        <ele>268.9</ele>
        <time>2021-10-21T12:31:18.000Z</time>
      </trkpt>
      <trkpt lat="43.92969" lon="2.37319">
        <ele>268.1</ele>
        <time>2021-10-21T12:31:30.000Z</time>
      </trkpt>
      <trkpt lat="43.92977" lon="2.37314">
        <ele>269.9</ele>
        <time>2021-10-21T12:31:42.000Z</time>
      </trkpt>
      <trkpt lat="43.92985" lon="2.37308">
        <ele>270.6</ele>
        <time>2021-10-21T12:31:49.000Z</time>
      </trkpt>
      <trkpt lat="43.92994" lon="2.37304">
        <ele>271.4</ele>
        <time>2021-10-21T12:31:59.000Z</time>
      </trkpt>
      <trkpt lat="43.93002" lon="2.37297">
        <ele>271.8</ele>
        <time>2021-10-21T12:32:06.000Z</time>
      </trkpt>
      <trkpt lat="43.93008" lon="2.37287">
        <ele>270.7</ele>
        <time>2021-10-21T12:32:15.000Z</time>
      </trkpt>
      <trkpt lat="43.93011" lon="2.37274">
        <ele>270.8</ele>
        <time>2021-10-21T12:32:25.000Z</time>
      </trkpt>
      <trkpt lat="43.93013" lon="2.37262">
        <ele>270.9</ele>
        <time>2021-10-21T12:32:34.000Z</time>
      </trkpt>
      <trkpt lat="43.93013" lon="2.3726">
        <ele>270.9</ele>
        <time>2021-10-21T12:32:36.000Z</time>
      </trkpt>
      <trkpt lat="43.93013" lon="2.37259">
        <ele>270.9</ele>
        <time>2021-10-21T12:32:37.000Z</time>
      </trkpt>
      <trkpt lat="43.93019" lon="2.37248">
        <ele>270.9</ele>
        <time>2021-10-21T12:32:48.000Z</time>
      </trkpt>
      <trkpt lat="43.93027" lon="2.37244">
        <ele>272</ele>
        <time>2021-10-21T12:33:03.000Z</time>
      </trkpt>
      <trkpt lat="43.93033" lon="2.37244">
        <ele>272.6</ele>
        <time>2021-10-21T12:33:12.000Z</time>
      </trkpt>
      <trkpt lat="43.93034" lon="2.37244">
        <ele>272.7</ele>
        <time>2021-10-21T12:33:14.000Z</time>
      </trkpt>
      <trkpt lat="43.93043" lon="2.37244">
        <ele>274.1</ele>
        <time>2021-10-21T12:33:23.000Z</time>
      </trkpt>
      <trkpt lat="43.93053" lon="2.37245">
        <ele>274.6</ele>
        <time>2021-10-21T12:33:32.000Z</time>
      </trkpt>
      <trkpt lat="43.93062" lon="2.37246">
        <ele>275.8</ele>
        <time>2021-10-21T12:33:39.000Z</time>
      </trkpt>
      <trkpt lat="43.93071" lon="2.37249">
        <ele>276.8</ele>
        <time>2021-10-21T12:33:49.000Z</time>
      </trkpt>
      <trkpt lat="43.93078" lon="2.37249">
        <ele>277.7</ele>
        <time>2021-10-21T12:33:59.000Z</time>
      </trkpt>
      <trkpt lat="43.93079" lon="2.37249">
        <ele>277.8</ele>
        <time>2021-10-21T12:34:00.000Z</time>
      </trkpt>
      <trkpt lat="43.93087" lon="2.37244">
        <ele>278.3</ele>
        <time>2021-10-21T12:34:10.000Z</time>
      </trkpt>
      <trkpt lat="43.93093" lon="2.37234">
        <ele>278.7</ele>
        <time>2021-10-21T12:34:18.000Z</time>
      </trkpt>
      <trkpt lat="43.93094" lon="2.37222">
        <ele>279</ele>
        <time>2021-10-21T12:34:28.000Z</time>
      </trkpt>
      <trkpt lat="43.93093" lon="2.37209">
        <ele>279.6</ele>
        <time>2021-10-21T12:34:38.000Z</time>
      </trkpt>
      <trkpt lat="43.9309" lon="2.37197">
        <ele>279.7</ele>
        <time>2021-10-21T12:34:47.000Z</time>
      </trkpt>
      <trkpt lat="43.93089" lon="2.37183">
        <ele>279.9</ele>
        <time>2021-10-21T12:34:55.000Z</time>
      </trkpt>
      <trkpt lat="43.93091" lon="2.3717">
        <ele>281</ele>
        <time>2021-10-21T12:35:02.000Z</time>
      </trkpt>
      <trkpt lat="43.93092" lon="2.37156">
        <ele>281.4</ele>
        <time>2021-10-21T12:35:10.000Z</time>
      </trkpt>
      <trkpt lat="43.93094" lon="2.37143">
        <ele>281.9</ele>
        <time>2021-10-21T12:35:19.000Z</time>
      </trkpt>
      <trkpt lat="43.93099" lon="2.37132">
        <ele>283</ele>
        <time>2021-10-21T12:35:30.000Z</time>
      </trkpt>
      <trkpt lat="43.93108" lon="2.37128">
        <ele>283.9</ele>
        <time>2021-10-21T12:35:39.000Z</time>
      </trkpt>
      <trkpt lat="43.93118" lon="2.37127">
        <ele>282.8</ele>
        <time>2021-10-21T12:35:47.000Z</time>
      </trkpt>
      <trkpt lat="43.93127" lon="2.37129">
        <ele>283.9</ele>
        <time>2021-10-21T12:35:57.000Z</time>
      </trkpt>
      <trkpt lat="43.93136" lon="2.37135">
        <ele>285.2</ele>
        <time>2021-10-21T12:36:09.000Z</time>
      </trkpt>
      <trkpt lat="43.93146" lon="2.37137">
        <ele>286.5</ele>
        <time>2021-10-21T12:36:21.000Z</time>
      </trkpt>
      <trkpt lat="43.93155" lon="2.37137">
        <ele>287.7</ele>
        <time>2021-10-21T12:36:30.000Z</time>
      </trkpt>
      <trkpt lat="43.93163" lon="2.3713">
        <ele>288.4</ele>
        <time>2021-10-21T12:36:41.000Z</time>
      </trkpt>
      <trkpt lat="43.93171" lon="2.37123">
        <ele>290</ele>
        <time>2021-10-21T12:36:51.000Z</time>
      </trkpt>
      <trkpt lat="43.9318" lon="2.37116">
        <ele>290.6</ele>
        <time>2021-10-21T12:36:59.000Z</time>
      </trkpt>
      <trkpt lat="43.93189" lon="2.37116">
        <ele>291.1</ele>
        <time>2021-10-21T12:37:09.000Z</time>
      </trkpt>
      <trkpt lat="43.93198" lon="2.37119">
        <ele>292.4</ele>
        <time>2021-10-21T12:37:17.000Z</time>
      </trkpt>
      <trkpt lat="43.93207" lon="2.37126">
        <ele>294.8</ele>
        <time>2021-10-21T12:37:28.000Z</time>
      </trkpt>
      <trkpt lat="43.93216" lon="2.37131">
        <ele>297.1</ele>
        <time>2021-10-21T12:37:39.000Z</time>
      </trkpt>
      <trkpt lat="43.93225" lon="2.37137">
        <ele>299</ele>
        <time>2021-10-21T12:37:47.000Z</time>
      </trkpt>
      <trkpt lat="43.93233" lon="2.37143">
        <ele>302.6</ele>
        <time>2021-10-21T12:37:59.000Z</time>
      </trkpt>
      <trkpt lat="43.93242" lon="2.37144">
        <ele>304.2</ele>
        <time>2021-10-21T12:38:08.000Z</time>
      </trkpt>
      <trkpt lat="43.93251" lon="2.37143">
        <ele>303.7</ele>
        <time>2021-10-21T12:38:15.000Z</time>
      </trkpt>
      <trkpt lat="43.93261" lon="2.37138">
        <ele>304.4</ele>
        <time>2021-10-21T12:38:31.000Z</time>
      </trkpt>
      <trkpt lat="43.9327" lon="2.37136">
        <ele>305.5</ele>
        <time>2021-10-21T12:38:40.000Z</time>
      </trkpt>
      <trkpt lat="43.93279" lon="2.37132">
        <ele>306.3</ele>
        <time>2021-10-21T12:38:52.000Z</time>
      </trkpt>
      <trkpt lat="43.93288" lon="2.37132">
        <ele>307</ele>
        <time>2021-10-21T12:39:03.000Z</time>
      </trkpt>
      <trkpt lat="43.93297" lon="2.3713">
        <ele>308.5</ele>
        <time>2021-10-21T12:39:14.000Z</time>
      </trkpt>
      <trkpt lat="43.93306" lon="2.37129">
        <ele>309.7</ele>
        <time>2021-10-21T12:39:25.000Z</time>
      </trkpt>
      <trkpt lat="43.93315" lon="2.37129">
        <ele>309.6</ele>
        <time>2021-10-21T12:39:33.000Z</time>
      </trkpt>
      <trkpt lat="43.93325" lon="2.37128">
        <ele>309.2</ele>
        <time>2021-10-21T12:39:40.000Z</time>
      </trkpt>
      <trkpt lat="43.93336" lon="2.37129">
        <ele>309.7</ele>
        <time>2021-10-21T12:39:48.000Z</time>
      </trkpt>
      <trkpt lat="43.93346" lon="2.37128">
        <ele>311.2</ele>
        <time>2021-10-21T12:39:57.000Z</time>
      </trkpt>
      <trkpt lat="43.93355" lon="2.37128">
        <ele>311.9</ele>
        <time>2021-10-21T12:40:08.000Z</time>
      </trkpt>
      <trkpt lat="43.93364" lon="2.37131">
        <ele>313.5</ele>
        <time>2021-10-21T12:40:19.000Z</time>
      </trkpt>
      <trkpt lat="43.93374" lon="2.37132">
        <ele>314.5</ele>
        <time>2021-10-21T12:40:29.000Z</time>
      </trkpt>
      <trkpt lat="43.93383" lon="2.37135">
        <ele>315.3</ele>
        <time>2021-10-21T12:40:40.000Z</time>
      </trkpt>
      <trkpt lat="43.93392" lon="2.3714">
        <ele>316</ele>
        <time>2021-10-21T12:40:50.000Z</time>
      </trkpt>
      <trkpt lat="43.934" lon="2.37143">
        <ele>317.2</ele>
        <time>2021-10-21T12:41:01.000Z</time>
      </trkpt>
      <trkpt lat="43.9341" lon="2.37145">
        <ele>317.9</ele>
        <time>2021-10-21T12:41:11.000Z</time>
      </trkpt>
      <trkpt lat="43.93419" lon="2.37149">
        <ele>319.5</ele>
        <time>2021-10-21T12:41:23.000Z</time>
      </trkpt>
      <trkpt lat="43.93427" lon="2.37155">
        <ele>320.2</ele>
        <time>2021-10-21T12:41:36.000Z</time>
      </trkpt>
      <trkpt lat="43.93436" lon="2.37161">
        <ele>321.3</ele>
        <time>2021-10-21T12:41:46.000Z</time>
      </trkpt>
      <trkpt lat="43.93445" lon="2.37163">
        <ele>322.3</ele>
        <time>2021-10-21T12:41:56.000Z</time>
      </trkpt>
      <trkpt lat="43.93455" lon="2.37162">
        <ele>323.6</ele>
        <time>2021-10-21T12:42:06.000Z</time>
      </trkpt>
      <trkpt lat="43.93464" lon="2.37164">
        <ele>324.3</ele>
        <time>2021-10-21T12:42:17.000Z</time>
      </trkpt>
      <trkpt lat="43.93474" lon="2.37168">
        <ele>327.8</ele>
        <time>2021-10-21T12:42:29.000Z</time>
      </trkpt>
      <trkpt lat="43.93481" lon="2.37175">
        <ele>329.3</ele>
        <time>2021-10-21T12:42:39.000Z</time>
      </trkpt>
      <trkpt lat="43.93489" lon="2.37182">
        <ele>331.2</ele>
        <time>2021-10-21T12:42:50.000Z</time>
      </trkpt>
      <trkpt lat="43.93498" lon="2.37188">
        <ele>332.6</ele>
        <time>2021-10-21T12:43:00.000Z</time>
      </trkpt>
      <trkpt lat="43.93507" lon="2.37192">
        <ele>333.6</ele>
        <time>2021-10-21T12:43:10.000Z</time>
      </trkpt>
      <trkpt lat="43.93514" lon="2.372">
        <ele>335.1</ele>
        <time>2021-10-21T12:43:20.000Z</time>
      </trkpt>
      <trkpt lat="43.93523" lon="2.37207">
        <ele>335.7</ele>
        <time>2021-10-21T12:43:32.000Z</time>
      </trkpt>
      <trkpt lat="43.93531" lon="2.37213">
        <ele>335.7</ele>
        <time>2021-10-21T12:43:42.000Z</time>
      </trkpt>
      <trkpt lat="43.9354" lon="2.37216">
        <ele>336.6</ele>
        <time>2021-10-21T12:43:52.000Z</time>
      </trkpt>
      <trkpt lat="43.93549" lon="2.37222">
        <ele>337.1</ele>
        <time>2021-10-21T12:44:04.000Z</time>
      </trkpt>
      <trkpt lat="43.93557" lon="2.3723">
        <ele>337.8</ele>
        <time>2021-10-21T12:44:18.000Z</time>
      </trkpt>
      <trkpt lat="43.93566" lon="2.37235">
        <ele>338.7</ele>
        <time>2021-10-21T12:44:27.000Z</time>
      </trkpt>
      <trkpt lat="43.93575" lon="2.3724">
        <ele>340.8</ele>
        <time>2021-10-21T12:44:38.000Z</time>
      </trkpt>
      <trkpt lat="43.93583" lon="2.37246">
        <ele>342.6</ele>
        <time>2021-10-21T12:44:51.000Z</time>
      </trkpt>
      <trkpt lat="43.93586" lon="2.37243">
        <ele>342.8</ele>
        <time>2021-10-21T12:44:58.000Z</time>
      </trkpt>
      <trkpt lat="43.93586" lon="2.37243">
        <ele>343.2</ele>
        <time>2021-10-21T12:44:59.000Z</time>
      </trkpt>
      <trkpt lat="43.93586" lon="2.37244">
        <ele>343.8</ele>
        <time>2021-10-21T12:45:01.000Z</time>
      </trkpt>
      <trkpt lat="43.93586" lon="2.37244">
        <ele>343.8</ele>
        <time>2021-10-21T12:45:02.000Z</time>
      </trkpt>
      <trkpt lat="43.93586" lon="2.37244">
        <ele>343.8</ele>
        <time>2021-10-21T12:45:03.000Z</time>
      </trkpt>
      <trkpt lat="43.93586" lon="2.37244">
        <ele>344</ele>
        <time>2021-10-21T12:45:06.000Z</time>
      </trkpt>
      <trkpt lat="43.93586" lon="2.37244">
        <ele>344.3</ele>
        <time>2021-10-21T12:45:07.000Z</time>
      </trkpt>
      <trkpt lat="43.93585" lon="2.37244">
        <ele>344.5</ele>
        <time>2021-10-21T12:45:08.000Z</time>
      </trkpt>
      <trkpt lat="43.93585" lon="2.37245">
        <ele>344.8</ele>
        <time>2021-10-21T12:45:12.000Z</time>
      </trkpt>
      <trkpt lat="43.93585" lon="2.37245">
        <ele>345.3</ele>
        <time>2021-10-21T12:45:16.000Z</time>
      </trkpt>
      <trkpt lat="43.93585" lon="2.37245">
        <ele>345.4</ele>
        <time>2021-10-21T12:45:18.000Z</time>
      </trkpt>
      <trkpt lat="43.93585" lon="2.37245">
        <ele>345.4</ele>
        <time>2021-10-21T12:45:19.000Z</time>
      </trkpt>
      <trkpt lat="43.93585" lon="2.37245">
        <ele>345.4</ele>
        <time>2021-10-21T12:45:20.000Z</time>
      </trkpt>
      <trkpt lat="43.93585" lon="2.37244">
        <ele>346.2</ele>
        <time>2021-10-21T12:45:41.000Z</time>
      </trkpt>
      <trkpt lat="43.93586" lon="2.37243">
        <ele>346.6</ele>
        <time>2021-10-21T12:45:47.000Z</time>
      </trkpt>
      <trkpt lat="43.93586" lon="2.37243">
        <ele>346.6</ele>
        <time>2021-10-21T12:45:54.000Z</time>
      </trkpt>
      <trkpt lat="43.93586" lon="2.37242">
        <ele>346.6</ele>
        <time>2021-10-21T12:45:58.000Z</time>
      </trkpt>
      <trkpt lat="43.93587" lon="2.37242">
        <ele>346.6</ele>
        <time>2021-10-21T12:46:23.000Z</time>
      </trkpt>
      <trkpt lat="43.93587" lon="2.37242">
        <ele>346.7</ele>
        <time>2021-10-21T12:46:24.000Z</time>
      </trkpt>
      <trkpt lat="43.93587" lon="2.37242">
        <ele>346.8</ele>
        <time>2021-10-21T12:46:25.000Z</time>
      </trkpt>
      <trkpt lat="43.93587" lon="2.37242">
        <ele>347</ele>
        <time>2021-10-21T12:46:27.000Z</time>
      </trkpt>
      <trkpt lat="43.93587" lon="2.37242">
        <ele>347.1</ele>
        <time>2021-10-21T12:46:28.000Z</time>
      </trkpt>
      <trkpt lat="43.93587" lon="2.37242">
        <ele>347.2</ele>
        <time>2021-10-21T12:46:30.000Z</time>
      </trkpt>
      <trkpt lat="43.93588" lon="2.37242">
        <ele>347.2</ele>
        <time>2021-10-21T12:46:35.000Z</time>
      </trkpt>
      <trkpt lat="43.93588" lon="2.37242">
        <ele>347.2</ele>
        <time>2021-10-21T12:46:36.000Z</time>
      </trkpt>
      <trkpt lat="43.93587" lon="2.37242">
        <ele>347.5</ele>
        <time>2021-10-21T12:46:40.000Z</time>
      </trkpt>
      <trkpt lat="43.93587" lon="2.37242">
        <ele>347.7</ele>
        <time>2021-10-21T12:46:42.000Z</time>
      </trkpt>
      <trkpt lat="43.93587" lon="2.37242">
        <ele>347.8</ele>
        <time>2021-10-21T12:46:44.000Z</time>
      </trkpt>
      <trkpt lat="43.93588" lon="2.37241">
        <ele>347.6</ele>
        <time>2021-10-21T12:46:48.000Z</time>
      </trkpt>
      <trkpt lat="43.93588" lon="2.37241">
        <ele>347.7</ele>
        <time>2021-10-21T12:46:49.000Z</time>
      </trkpt>
      <trkpt lat="43.93589" lon="2.37239">
        <ele>348.1</ele>
        <time>2021-10-21T12:46:54.000Z</time>
      </trkpt>
      <trkpt lat="43.93589" lon="2.37239">
        <ele>348</ele>
        <time>2021-10-21T12:46:55.000Z</time>
      </trkpt>
      <trkpt lat="43.93589" lon="2.37239">
        <ele>348</ele>
        <time>2021-10-21T12:46:56.000Z</time>
      </trkpt>
      <trkpt lat="43.93589" lon="2.3724">
        <ele>348</ele>
        <time>2021-10-21T12:46:58.000Z</time>
      </trkpt>
      <trkpt lat="43.93589" lon="2.3724">
        <ele>348</ele>
        <time>2021-10-21T12:46:59.000Z</time>
      </trkpt>
      <trkpt lat="43.93589" lon="2.3724">
        <ele>347.8</ele>
        <time>2021-10-21T12:47:09.000Z</time>
      </trkpt>
      <trkpt lat="43.93588" lon="2.37241">
        <ele>347.5</ele>
        <time>2021-10-21T12:47:12.000Z</time>
      </trkpt>
      <trkpt lat="43.93589" lon="2.37241">
        <ele>347.4</ele>
        <time>2021-10-21T12:47:13.000Z</time>
      </trkpt>
      <trkpt lat="43.93589" lon="2.37241">
        <ele>347.1</ele>
        <time>2021-10-21T12:47:24.000Z</time>
      </trkpt>
      <trkpt lat="43.93589" lon="2.37241">
        <ele>347.1</ele>
        <time>2021-10-21T12:47:28.000Z</time>
      </trkpt>
      <trkpt lat="43.93589" lon="2.37241">
        <ele>347.1</ele>
        <time>2021-10-21T12:47:29.000Z</time>
      </trkpt>
      <trkpt lat="43.93588" lon="2.37241">
        <ele>347.2</ele>
        <time>2021-10-21T12:47:30.000Z</time>
      </trkpt>
      <trkpt lat="43.93589" lon="2.37241">
        <ele>347.9</ele>
        <time>2021-10-21T12:47:35.000Z</time>
      </trkpt>
      <trkpt lat="43.93589" lon="2.37241">
        <ele>347.8</ele>
        <time>2021-10-21T12:47:36.000Z</time>
      </trkpt>
      <trkpt lat="43.93589" lon="2.37242">
        <ele>347.9</ele>
        <time>2021-10-21T12:47:39.000Z</time>
      </trkpt>
      <trkpt lat="43.93589" lon="2.37242">
        <ele>348</ele>
        <time>2021-10-21T12:47:41.000Z</time>
      </trkpt>
      <trkpt lat="43.93589" lon="2.37242">
        <ele>348</ele>
        <time>2021-10-21T12:47:42.000Z</time>
      </trkpt>
      <trkpt lat="43.93589" lon="2.37242">
        <ele>348.1</ele>
        <time>2021-10-21T12:47:45.000Z</time>
      </trkpt>
      <trkpt lat="43.93589" lon="2.37242">
        <ele>348.2</ele>
        <time>2021-10-21T12:47:46.000Z</time>
      </trkpt>
      <trkpt lat="43.93589" lon="2.37242">
        <ele>348.4</ele>
        <time>2021-10-21T12:48:02.000Z</time>
      </trkpt>
      <trkpt lat="43.93589" lon="2.37243">
        <ele>348.6</ele>
        <time>2021-10-21T12:48:04.000Z</time>
      </trkpt>
      <trkpt lat="43.93589" lon="2.37243">
        <ele>348.7</ele>
        <time>2021-10-21T12:48:05.000Z</time>
      </trkpt>
      <trkpt lat="43.93589" lon="2.37243">
        <ele>348.9</ele>
        <time>2021-10-21T12:48:06.000Z</time>
      </trkpt>
      <trkpt lat="43.93589" lon="2.37244">
        <ele>348.9</ele>
        <time>2021-10-21T12:48:07.000Z</time>
      </trkpt>
      <trkpt lat="43.93588" lon="2.37243">
        <ele>349</ele>
        <time>2021-10-21T12:48:11.000Z</time>
      </trkpt>
      <trkpt lat="43.93588" lon="2.37244">
        <ele>349</ele>
        <time>2021-10-21T12:48:12.000Z</time>
      </trkpt>
      <trkpt lat="43.93588" lon="2.37244">
        <ele>349</ele>
        <time>2021-10-21T12:48:13.000Z</time>
      </trkpt>
      <trkpt lat="43.93588" lon="2.37244">
        <ele>349.1</ele>
        <time>2021-10-21T12:48:19.000Z</time>
      </trkpt>
      <trkpt lat="43.93588" lon="2.37242">
        <ele>349.4</ele>
        <time>2021-10-21T12:48:25.000Z</time>
      </trkpt>
      <trkpt lat="43.93588" lon="2.37242">
        <ele>349.1</ele>
        <time>2021-10-21T12:48:37.000Z</time>
      </trkpt>
      <trkpt lat="43.93587" lon="2.37243">
        <ele>349.2</ele>
        <time>2021-10-21T12:48:40.000Z</time>
      </trkpt>
      <trkpt lat="43.93587" lon="2.37243">
        <ele>349.2</ele>
        <time>2021-10-21T12:48:41.000Z</time>
      </trkpt>
      <trkpt lat="43.93587" lon="2.37243">
        <ele>349.2</ele>
        <time>2021-10-21T12:48:43.000Z</time>
      </trkpt>
      <trkpt lat="43.93587" lon="2.37243">
        <ele>349.4</ele>
        <time>2021-10-21T12:48:47.000Z</time>
      </trkpt>
      <trkpt lat="43.93587" lon="2.37242">
        <ele>349.4</ele>
        <time>2021-10-21T12:48:55.000Z</time>
      </trkpt>
      <trkpt lat="43.93587" lon="2.37242">
        <ele>349.4</ele>
        <time>2021-10-21T12:48:57.000Z</time>
      </trkpt>
      <trkpt lat="43.93585" lon="2.37229">
        <ele>349.4</ele>
        <time>2021-10-21T12:49:13.000Z</time>
      </trkpt>
      <trkpt lat="43.93581" lon="2.37218">
        <ele>349.2</ele>
        <time>2021-10-21T12:49:24.000Z</time>
      </trkpt>
      <trkpt lat="43.93577" lon="2.37206">
        <ele>349.9</ele>
        <time>2021-10-21T12:49:35.000Z</time>
      </trkpt>
      <trkpt lat="43.93572" lon="2.37195">
        <ele>350.1</ele>
        <time>2021-10-21T12:49:46.000Z</time>
      </trkpt>
      <trkpt lat="43.93567" lon="2.37184">
        <ele>350.5</ele>
        <time>2021-10-21T12:49:57.000Z</time>
      </trkpt>
      <trkpt lat="43.93566" lon="2.37171">
        <ele>351.9</ele>
        <time>2021-10-21T12:50:11.000Z</time>
      </trkpt>
      <trkpt lat="43.93569" lon="2.37159">
        <ele>352.5</ele>
        <time>2021-10-21T12:50:23.000Z</time>
      </trkpt>
      <trkpt lat="43.93573" lon="2.37149">
        <ele>353.1</ele>
        <time>2021-10-21T12:50:34.000Z</time>
      </trkpt>
      <trkpt lat="43.93573" lon="2.37149">
        <ele>353.9</ele>
        <time>2021-10-21T12:50:38.000Z</time>
      </trkpt>
      <trkpt lat="43.93565" lon="2.37143">
        <ele>355.2</ele>
        <time>2021-10-21T12:50:50.000Z</time>
      </trkpt>
      <trkpt lat="43.93565" lon="2.37144">
        <ele>355.3</ele>
        <time>2021-10-21T12:50:51.000Z</time>
      </trkpt>
      <trkpt lat="43.93564" lon="2.37143">
        <ele>355.5</ele>
        <time>2021-10-21T12:51:02.000Z</time>
      </trkpt>
      <trkpt lat="43.93564" lon="2.37143">
        <ele>355.8</ele>
        <time>2021-10-21T12:51:06.000Z</time>
      </trkpt>
      <trkpt lat="43.93564" lon="2.37143">
        <ele>355.9</ele>
        <time>2021-10-21T12:51:08.000Z</time>
      </trkpt>
      <trkpt lat="43.93572" lon="2.3715">
        <ele>356</ele>
        <time>2021-10-21T12:51:19.000Z</time>
      </trkpt>
      <trkpt lat="43.93579" lon="2.37145">
        <ele>356.5</ele>
        <time>2021-10-21T12:51:35.000Z</time>
      </trkpt>
      <trkpt lat="43.93579" lon="2.37145">
        <ele>356.7</ele>
        <time>2021-10-21T12:51:36.000Z</time>
      </trkpt>
      <trkpt lat="43.93579" lon="2.37145">
        <ele>356.7</ele>
        <time>2021-10-21T12:51:37.000Z</time>
      </trkpt>
      <trkpt lat="43.93579" lon="2.37145">
        <ele>356.7</ele>
        <time>2021-10-21T12:51:42.000Z</time>
      </trkpt>
      <trkpt lat="43.93578" lon="2.37143">
        <ele>356.8</ele>
        <time>2021-10-21T12:51:48.000Z</time>
      </trkpt>
      <trkpt lat="43.93578" lon="2.37143">
        <ele>356.8</ele>
        <time>2021-10-21T12:51:52.000Z</time>
      </trkpt>
      <trkpt lat="43.93578" lon="2.37143">
        <ele>356.8</ele>
        <time>2021-10-21T12:51:53.000Z</time>
      </trkpt>
      <trkpt lat="43.93578" lon="2.37143">
        <ele>356.9</ele>
        <time>2021-10-21T12:52:00.000Z</time>
      </trkpt>
      <trkpt lat="43.93578" lon="2.37143">
        <ele>357</ele>
        <time>2021-10-21T12:52:03.000Z</time>
      </trkpt>
      <trkpt lat="43.93578" lon="2.37143">
        <ele>357</ele>
        <time>2021-10-21T12:52:14.000Z</time>
      </trkpt>
      <trkpt lat="43.93579" lon="2.37144">
        <ele>357</ele>
        <time>2021-10-21T12:52:18.000Z</time>
      </trkpt>
      <trkpt lat="43.93579" lon="2.37144">
        <ele>356.9</ele>
        <time>2021-10-21T12:52:19.000Z</time>
      </trkpt>
      <trkpt lat="43.9358" lon="2.37144">
        <ele>357</ele>
        <time>2021-10-21T12:52:23.000Z</time>
      </trkpt>
      <trkpt lat="43.9358" lon="2.37143">
        <ele>357.1</ele>
        <time>2021-10-21T12:52:29.000Z</time>
      </trkpt>
      <trkpt lat="43.9358" lon="2.37143">
        <ele>357.1</ele>
        <time>2021-10-21T12:52:31.000Z</time>
      </trkpt>
      <trkpt lat="43.9358" lon="2.37143">
        <ele>357.2</ele>
        <time>2021-10-21T12:52:33.000Z</time>
      </trkpt>
      <trkpt lat="43.9358" lon="2.37143">
        <ele>357.1</ele>
        <time>2021-10-21T12:52:36.000Z</time>
      </trkpt>
      <trkpt lat="43.9358" lon="2.37143">
        <ele>357.3</ele>
        <time>2021-10-21T12:52:40.000Z</time>
      </trkpt>
      <trkpt lat="43.9358" lon="2.37144">
        <ele>357.2</ele>
        <time>2021-10-21T12:52:45.000Z</time>
      </trkpt>
      <trkpt lat="43.9358" lon="2.37144">
        <ele>357.2</ele>
        <time>2021-10-21T12:52:48.000Z</time>
      </trkpt>
      <trkpt lat="43.93581" lon="2.37144">
        <ele>357.6</ele>
        <time>2021-10-21T12:52:54.000Z</time>
      </trkpt>
      <trkpt lat="43.93581" lon="2.37144">
        <ele>357.6</ele>
        <time>2021-10-21T12:53:00.000Z</time>
      </trkpt>
      <trkpt lat="43.93581" lon="2.37144">
        <ele>357.7</ele>
        <time>2021-10-21T12:53:01.000Z</time>
      </trkpt>
      <trkpt lat="43.93581" lon="2.37144">
        <ele>358.1</ele>
        <time>2021-10-21T12:53:03.000Z</time>
      </trkpt>
      <trkpt lat="43.93581" lon="2.37144">
        <ele>358.1</ele>
        <time>2021-10-21T12:53:04.000Z</time>
      </trkpt>
      <trkpt lat="43.93581" lon="2.37144">
        <ele>358.2</ele>
        <time>2021-10-21T12:53:14.000Z</time>
      </trkpt>
      <trkpt lat="43.93581" lon="2.37144">
        <ele>358.2</ele>
        <time>2021-10-21T12:53:15.000Z</time>
      </trkpt>
      <trkpt lat="43.93581" lon="2.37143">
        <ele>358.3</ele>
        <time>2021-10-21T12:53:16.000Z</time>
      </trkpt>
      <trkpt lat="43.93581" lon="2.37143">
        <ele>358.3</ele>
        <time>2021-10-21T12:53:19.000Z</time>
      </trkpt>
      <trkpt lat="43.93581" lon="2.37143">
        <ele>358.3</ele>
        <time>2021-10-21T12:53:26.000Z</time>
      </trkpt>
      <trkpt lat="43.93581" lon="2.37143">
        <ele>358.4</ele>
        <time>2021-10-21T12:53:27.000Z</time>
      </trkpt>
      <trkpt lat="43.93581" lon="2.37143">
        <ele>358.9</ele>
        <time>2021-10-21T12:53:52.000Z</time>
      </trkpt>
      <trkpt lat="43.93581" lon="2.37143">
        <ele>358.9</ele>
        <time>2021-10-21T12:53:53.000Z</time>
      </trkpt>
      <trkpt lat="43.93581" lon="2.37143">
        <ele>359.2</ele>
        <time>2021-10-21T12:54:06.000Z</time>
      </trkpt>
      <trkpt lat="43.93581" lon="2.37143">
        <ele>359.2</ele>
        <time>2021-10-21T12:54:07.000Z</time>
      </trkpt>
      <trkpt lat="43.93581" lon="2.37143">
        <ele>359.2</ele>
        <time>2021-10-21T12:54:18.000Z</time>
      </trkpt>
      <trkpt lat="43.93581" lon="2.37143">
        <ele>359.2</ele>
        <time>2021-10-21T12:54:19.000Z</time>
      </trkpt>
      <trkpt lat="43.93581" lon="2.37143">
        <ele>359.4</ele>
        <time>2021-10-21T12:54:26.000Z</time>
      </trkpt>
      <trkpt lat="43.93581" lon="2.37143">
        <ele>359.4</ele>
        <time>2021-10-21T12:54:27.000Z</time>
      </trkpt>
      <trkpt lat="43.93581" lon="2.37143">
        <ele>359.5</ele>
        <time>2021-10-21T12:54:28.000Z</time>
      </trkpt>
      <trkpt lat="43.93581" lon="2.37143">
        <ele>359.6</ele>
        <time>2021-10-21T12:54:30.000Z</time>
      </trkpt>
      <trkpt lat="43.93581" lon="2.37143">
        <ele>359.6</ele>
        <time>2021-10-21T12:54:33.000Z</time>
      </trkpt>
      <trkpt lat="43.93581" lon="2.37143">
        <ele>359.6</ele>
        <time>2021-10-21T12:54:34.000Z</time>
      </trkpt>
      <trkpt lat="43.93581" lon="2.37143">
        <ele>359.6</ele>
        <time>2021-10-21T12:54:38.000Z</time>
      </trkpt>
      <trkpt lat="43.93581" lon="2.37143">
        <ele>359.6</ele>
        <time>2021-10-21T12:54:40.000Z</time>
      </trkpt>
      <trkpt lat="43.9358" lon="2.37143">
        <ele>359.6</ele>
        <time>2021-10-21T12:54:56.000Z</time>
      </trkpt>
      <trkpt lat="43.9358" lon="2.37143">
        <ele>359.8</ele>
        <time>2021-10-21T12:54:58.000Z</time>
      </trkpt>
      <trkpt lat="43.9358" lon="2.37143">
        <ele>359.7</ele>
        <time>2021-10-21T12:54:59.000Z</time>
      </trkpt>
      <trkpt lat="43.9358" lon="2.37143">
        <ele>359.7</ele>
        <time>2021-10-21T12:55:00.000Z</time>
      </trkpt>
      <trkpt lat="43.9358" lon="2.37142">
        <ele>359.7</ele>
        <time>2021-10-21T12:55:20.000Z</time>
      </trkpt>
      <trkpt lat="43.9358" lon="2.37142">
        <ele>359.8</ele>
        <time>2021-10-21T12:55:21.000Z</time>
      </trkpt>
      <trkpt lat="43.9358" lon="2.37142">
        <ele>359.6</ele>
        <time>2021-10-21T12:56:02.000Z</time>
      </trkpt>
      <trkpt lat="43.9358" lon="2.37142">
        <ele>359.5</ele>
        <time>2021-10-21T12:56:04.000Z</time>
      </trkpt>
      <trkpt lat="43.9358" lon="2.37142">
        <ele>359.4</ele>
        <time>2021-10-21T12:56:09.000Z</time>
      </trkpt>
      <trkpt lat="43.9358" lon="2.37142">
        <ele>359.4</ele>
        <time>2021-10-21T12:56:10.000Z</time>
      </trkpt>
      <trkpt lat="43.9358" lon="2.37142">
        <ele>359.3</ele>
        <time>2021-10-21T12:56:11.000Z</time>
      </trkpt>
      <trkpt lat="43.9358" lon="2.37142">
        <ele>359.3</ele>
        <time>2021-10-21T12:56:12.000Z</time>
      </trkpt>
      <trkpt lat="43.9358" lon="2.37142">
        <ele>359</ele>
        <time>2021-10-21T12:56:30.000Z</time>
      </trkpt>
      <trkpt lat="43.9358" lon="2.37142">
        <ele>358.9</ele>
        <time>2021-10-21T12:56:31.000Z</time>
      </trkpt>
      <trkpt lat="43.93581" lon="2.37142">
        <ele>358.9</ele>
        <time>2021-10-21T12:57:14.000Z</time>
      </trkpt>
      <trkpt lat="43.9358" lon="2.37142">
        <ele>358.9</ele>
        <time>2021-10-21T12:57:16.000Z</time>
      </trkpt>
      <trkpt lat="43.93581" lon="2.37142">
        <ele>358.9</ele>
        <time>2021-10-21T12:57:34.000Z</time>
      </trkpt>
      <trkpt lat="43.93581" lon="2.37142">
        <ele>358.9</ele>
        <time>2021-10-21T12:57:35.000Z</time>
      </trkpt>
      <trkpt lat="43.93581" lon="2.37141">
        <ele>358.9</ele>
        <time>2021-10-21T12:57:48.000Z</time>
      </trkpt>
      <trkpt lat="43.93581" lon="2.37141">
        <ele>359</ele>
        <time>2021-10-21T12:57:49.000Z</time>
      </trkpt>
      <trkpt lat="43.93581" lon="2.37141">
        <ele>359.1</ele>
        <time>2021-10-21T12:57:50.000Z</time>
      </trkpt>
      <trkpt lat="43.93581" lon="2.37141">
        <ele>359.1</ele>
        <time>2021-10-21T12:57:51.000Z</time>
      </trkpt>
      <trkpt lat="43.9358" lon="2.3714">
        <ele>359.1</ele>
        <time>2021-10-21T12:57:54.000Z</time>
      </trkpt>
      <trkpt lat="43.9358" lon="2.3714">
        <ele>359.1</ele>
        <time>2021-10-21T12:57:55.000Z</time>
      </trkpt>
      <trkpt lat="43.9358" lon="2.3714">
        <ele>359</ele>
        <time>2021-10-21T12:58:20.000Z</time>
      </trkpt>
      <trkpt lat="43.9358" lon="2.3714">
        <ele>359</ele>
        <time>2021-10-21T12:58:21.000Z</time>
      </trkpt>
      <trkpt lat="43.9358" lon="2.3714">
        <ele>359</ele>
        <time>2021-10-21T12:58:24.000Z</time>
      </trkpt>
      <trkpt lat="43.9358" lon="2.3714">
        <ele>359</ele>
        <time>2021-10-21T12:58:25.000Z</time>
      </trkpt>
      <trkpt lat="43.93581" lon="2.3714">
        <ele>359.2</ele>
        <time>2021-10-21T12:58:30.000Z</time>
      </trkpt>
      <trkpt lat="43.93581" lon="2.3714">
        <ele>359.2</ele>
        <time>2021-10-21T12:58:31.000Z</time>
      </trkpt>
      <trkpt lat="43.93581" lon="2.3714">
        <ele>359.2</ele>
        <time>2021-10-21T12:58:46.000Z</time>
      </trkpt>
      <trkpt lat="43.93581" lon="2.3714">
        <ele>359.1</ele>
        <time>2021-10-21T12:58:48.000Z</time>
      </trkpt>
      <trkpt lat="43.93581" lon="2.3714">
        <ele>359.1</ele>
        <time>2021-10-21T12:58:52.000Z</time>
      </trkpt>
      <trkpt lat="43.93581" lon="2.3714">
        <ele>359.1</ele>
        <time>2021-10-21T12:58:53.000Z</time>
      </trkpt>
      <trkpt lat="43.93581" lon="2.3714">
        <ele>359.3</ele>
        <time>2021-10-21T12:59:23.000Z</time>
      </trkpt>
      <trkpt lat="43.93581" lon="2.3714">
        <ele>359.3</ele>
        <time>2021-10-21T12:59:24.000Z</time>
      </trkpt>
      <trkpt lat="43.93581" lon="2.3714">
        <ele>359.3</ele>
        <time>2021-10-21T12:59:33.000Z</time>
      </trkpt>
      <trkpt lat="43.93581" lon="2.3714">
        <ele>359.3</ele>
        <time>2021-10-21T12:59:34.000Z</time>
      </trkpt>
      <trkpt lat="43.93581" lon="2.3714">
        <ele>359.4</ele>
        <time>2021-10-21T12:59:50.000Z</time>
      </trkpt>
      <trkpt lat="43.93581" lon="2.3714">
        <ele>359.5</ele>
        <time>2021-10-21T12:59:53.000Z</time>
      </trkpt>
      <trkpt lat="43.93581" lon="2.3714">
        <ele>359.4</ele>
        <time>2021-10-21T12:59:57.000Z</time>
      </trkpt>
      <trkpt lat="43.93581" lon="2.3714">
        <ele>359.4</ele>
        <time>2021-10-21T12:59:58.000Z</time>
      </trkpt>
      <trkpt lat="43.93581" lon="2.3714">
        <ele>359.5</ele>
        <time>2021-10-21T13:00:04.000Z</time>
      </trkpt>
      <trkpt lat="43.93578" lon="2.37139">
        <ele>359.6</ele>
        <time>2021-10-21T13:00:17.000Z</time>
      </trkpt>
      <trkpt lat="43.93579" lon="2.37139">
        <ele>359.6</ele>
        <time>2021-10-21T13:00:20.000Z</time>
      </trkpt>
      <trkpt lat="43.93579" lon="2.3714">
        <ele>359.7</ele>
        <time>2021-10-21T13:00:22.000Z</time>
      </trkpt>
      <trkpt lat="43.93579" lon="2.3714">
        <ele>359.6</ele>
        <time>2021-10-21T13:00:38.000Z</time>
      </trkpt>
      <trkpt lat="43.9358" lon="2.3714">
        <ele>359.5</ele>
        <time>2021-10-21T13:00:41.000Z</time>
      </trkpt>
      <trkpt lat="43.9358" lon="2.37141">
        <ele>359.5</ele>
        <time>2021-10-21T13:01:55.000Z</time>
      </trkpt>
      <trkpt lat="43.9358" lon="2.37141">
        <ele>359.6</ele>
        <time>2021-10-21T13:01:59.000Z</time>
      </trkpt>
      <trkpt lat="43.9358" lon="2.37141">
        <ele>359.6</ele>
        <time>2021-10-21T13:02:22.000Z</time>
      </trkpt>
      <trkpt lat="43.9358" lon="2.37141">
        <ele>359.6</ele>
        <time>2021-10-21T13:02:23.000Z</time>
      </trkpt>
      <trkpt lat="43.9358" lon="2.37141">
        <ele>359.5</ele>
        <time>2021-10-21T13:02:39.000Z</time>
      </trkpt>
      <trkpt lat="43.93589" lon="2.37144">
        <ele>357.9</ele>
        <time>2021-10-21T13:02:57.000Z</time>
      </trkpt>
      <trkpt lat="43.93597" lon="2.37152">
        <ele>357.8</ele>
        <time>2021-10-21T13:03:09.000Z</time>
      </trkpt>
      <trkpt lat="43.93606" lon="2.37158">
        <ele>359.2</ele>
        <time>2021-10-21T13:03:20.000Z</time>
      </trkpt>
      <trkpt lat="43.93612" lon="2.37169">
        <ele>360</ele>
        <time>2021-10-21T13:03:30.000Z</time>
      </trkpt>
      <trkpt lat="43.93616" lon="2.37181">
        <ele>360.7</ele>
        <time>2021-10-21T13:03:40.000Z</time>
      </trkpt>
      <trkpt lat="43.93621" lon="2.37192">
        <ele>361.3</ele>
        <time>2021-10-21T13:03:50.000Z</time>
      </trkpt>
      <trkpt lat="43.93626" lon="2.37203">
        <ele>362.1</ele>
        <time>2021-10-21T13:04:00.000Z</time>
      </trkpt>
      <trkpt lat="43.93632" lon="2.37213">
        <ele>362.8</ele>
        <time>2021-10-21T13:04:10.000Z</time>
      </trkpt>
      <trkpt lat="43.93639" lon="2.37223">
        <ele>364.6</ele>
        <time>2021-10-21T13:04:20.000Z</time>
      </trkpt>
      <trkpt lat="43.93647" lon="2.37229">
        <ele>364.8</ele>
        <time>2021-10-21T13:04:29.000Z</time>
      </trkpt>
      <trkpt lat="43.93656" lon="2.37227">
        <ele>366.3</ele>
        <time>2021-10-21T13:04:38.000Z</time>
      </trkpt>
      <trkpt lat="43.93664" lon="2.37221">
        <ele>367.2</ele>
        <time>2021-10-21T13:04:48.000Z</time>
      </trkpt>
      <trkpt lat="43.93673" lon="2.37215">
        <ele>367.7</ele>
        <time>2021-10-21T13:04:58.000Z</time>
      </trkpt>
      <trkpt lat="43.93682" lon="2.37211">
        <ele>369.2</ele>
        <time>2021-10-21T13:05:07.000Z</time>
      </trkpt>
      <trkpt lat="43.93692" lon="2.37209">
        <ele>370.1</ele>
        <time>2021-10-21T13:05:16.000Z</time>
      </trkpt>
      <trkpt lat="43.93702" lon="2.3721">
        <ele>371.8</ele>
        <time>2021-10-21T13:05:26.000Z</time>
      </trkpt>
      <trkpt lat="43.93703" lon="2.3721">
        <ele>372.2</ele>
        <time>2021-10-21T13:05:30.000Z</time>
      </trkpt>
      <trkpt lat="43.93704" lon="2.3721">
        <ele>372.3</ele>
        <time>2021-10-21T13:05:31.000Z</time>
      </trkpt>
      <trkpt lat="43.93713" lon="2.37211">
        <ele>373.7</ele>
        <time>2021-10-21T13:05:40.000Z</time>
      </trkpt>
      <trkpt lat="43.93723" lon="2.37211">
        <ele>375.1</ele>
        <time>2021-10-21T13:05:49.000Z</time>
      </trkpt>
      <trkpt lat="43.93733" lon="2.37212">
        <ele>376</ele>
        <time>2021-10-21T13:05:58.000Z</time>
      </trkpt>
      <trkpt lat="43.93742" lon="2.37212">
        <ele>377.3</ele>
        <time>2021-10-21T13:06:06.000Z</time>
      </trkpt>
      <trkpt lat="43.93751" lon="2.37212">
        <ele>378.2</ele>
        <time>2021-10-21T13:06:16.000Z</time>
      </trkpt>
      <trkpt lat="43.93761" lon="2.37211">
        <ele>378.8</ele>
        <time>2021-10-21T13:06:25.000Z</time>
      </trkpt>
      <trkpt lat="43.93761" lon="2.37212">
        <ele>378.8</ele>
        <time>2021-10-21T13:06:26.000Z</time>
      </trkpt>
      <trkpt lat="43.93761" lon="2.37211">
        <ele>378.8</ele>
        <time>2021-10-21T13:06:27.000Z</time>
      </trkpt>
      <trkpt lat="43.93771" lon="2.3721">
        <ele>379.5</ele>
        <time>2021-10-21T13:06:37.000Z</time>
      </trkpt>
      <trkpt lat="43.9378" lon="2.3721">
        <ele>380.1</ele>
        <time>2021-10-21T13:06:45.000Z</time>
      </trkpt>
      <trkpt lat="43.9379" lon="2.37209">
        <ele>381.2</ele>
        <time>2021-10-21T13:06:54.000Z</time>
      </trkpt>
      <trkpt lat="43.93791" lon="2.3721">
        <ele>381.2</ele>
        <time>2021-10-21T13:06:57.000Z</time>
      </trkpt>
      <trkpt lat="43.93791" lon="2.3721">
        <ele>381.1</ele>
        <time>2021-10-21T13:06:58.000Z</time>
      </trkpt>
      <trkpt lat="43.93801" lon="2.37209">
        <ele>382.3</ele>
        <time>2021-10-21T13:07:07.000Z</time>
      </trkpt>
      <trkpt lat="43.9381" lon="2.37207">
        <ele>383.9</ele>
        <time>2021-10-21T13:07:14.000Z</time>
      </trkpt>
      <trkpt lat="43.9382" lon="2.37207">
        <ele>384.8</ele>
        <time>2021-10-21T13:07:21.000Z</time>
      </trkpt>
      <trkpt lat="43.9383" lon="2.37205">
        <ele>385.8</ele>
        <time>2021-10-21T13:07:30.000Z</time>
      </trkpt>
      <trkpt lat="43.93839" lon="2.37204">
        <ele>385.8</ele>
        <time>2021-10-21T13:07:40.000Z</time>
      </trkpt>
      <trkpt lat="43.93848" lon="2.37204">
        <ele>385.8</ele>
        <time>2021-10-21T13:07:49.000Z</time>
      </trkpt>
      <trkpt lat="43.93857" lon="2.37204">
        <ele>385.5</ele>
        <time>2021-10-21T13:07:58.000Z</time>
      </trkpt>
      <trkpt lat="43.9386" lon="2.37204">
        <ele>385</ele>
        <time>2021-10-21T13:08:04.000Z</time>
      </trkpt>
      <trkpt lat="43.9386" lon="2.37204">
        <ele>385</ele>
        <time>2021-10-21T13:08:05.000Z</time>
      </trkpt>
      <trkpt lat="43.93871" lon="2.37203">
        <ele>385.2</ele>
        <time>2021-10-21T13:08:13.000Z</time>
      </trkpt>
      <trkpt lat="43.9388" lon="2.37203">
        <ele>385.6</ele>
        <time>2021-10-21T13:08:20.000Z</time>
      </trkpt>
      <trkpt lat="43.93889" lon="2.37202">
        <ele>385.3</ele>
        <time>2021-10-21T13:08:28.000Z</time>
      </trkpt>
      <trkpt lat="43.93899" lon="2.37201">
        <ele>385.8</ele>
        <time>2021-10-21T13:08:36.000Z</time>
      </trkpt>
      <trkpt lat="43.93909" lon="2.372">
        <ele>386.1</ele>
        <time>2021-10-21T13:08:45.000Z</time>
      </trkpt>
      <trkpt lat="43.93919" lon="2.37199">
        <ele>386.2</ele>
        <time>2021-10-21T13:08:54.000Z</time>
      </trkpt>
      <trkpt lat="43.93929" lon="2.37197">
        <ele>386.5</ele>
        <time>2021-10-21T13:09:04.000Z</time>
      </trkpt>
      <trkpt lat="43.93938" lon="2.37195">
        <ele>387.1</ele>
        <time>2021-10-21T13:09:13.000Z</time>
      </trkpt>
      <trkpt lat="43.93948" lon="2.3719">
        <ele>388.1</ele>
        <time>2021-10-21T13:09:22.000Z</time>
      </trkpt>
      <trkpt lat="43.93957" lon="2.37185">
        <ele>389</ele>
        <time>2021-10-21T13:09:32.000Z</time>
      </trkpt>
      <trkpt lat="43.93966" lon="2.37181">
        <ele>390.3</ele>
        <time>2021-10-21T13:09:42.000Z</time>
      </trkpt>
      <trkpt lat="43.93975" lon="2.37178">
        <ele>390.7</ele>
        <time>2021-10-21T13:09:51.000Z</time>
      </trkpt>
      <trkpt lat="43.93984" lon="2.37179">
        <ele>390.6</ele>
        <time>2021-10-21T13:10:01.000Z</time>
      </trkpt>
      <trkpt lat="43.93994" lon="2.3718">
        <ele>391.9</ele>
        <time>2021-10-21T13:10:11.000Z</time>
      </trkpt>
      <trkpt lat="43.94003" lon="2.37178">
        <ele>392.6</ele>
        <time>2021-10-21T13:10:20.000Z</time>
      </trkpt>
      <trkpt lat="43.94012" lon="2.37177">
        <ele>393.2</ele>
        <time>2021-10-21T13:10:29.000Z</time>
      </trkpt>
      <trkpt lat="43.94021" lon="2.37177">
        <ele>393.7</ele>
        <time>2021-10-21T13:10:39.000Z</time>
      </trkpt>
      <trkpt lat="43.94031" lon="2.37179">
        <ele>393.8</ele>
        <time>2021-10-21T13:10:48.000Z</time>
      </trkpt>
      <trkpt lat="43.9404" lon="2.37182">
        <ele>396.3</ele>
        <time>2021-10-21T13:10:58.000Z</time>
      </trkpt>
      <trkpt lat="43.94049" lon="2.37189">
        <ele>397.8</ele>
        <time>2021-10-21T13:11:07.000Z</time>
      </trkpt>
      <trkpt lat="43.94055" lon="2.37199">
        <ele>398.8</ele>
        <time>2021-10-21T13:11:17.000Z</time>
      </trkpt>
      <trkpt lat="43.9406" lon="2.37209">
        <ele>399.6</ele>
        <time>2021-10-21T13:11:26.000Z</time>
      </trkpt>
      <trkpt lat="43.94067" lon="2.37219">
        <ele>400.8</ele>
        <time>2021-10-21T13:11:34.000Z</time>
      </trkpt>
      <trkpt lat="43.94074" lon="2.37228">
        <ele>401.3</ele>
        <time>2021-10-21T13:11:43.000Z</time>
      </trkpt>
      <trkpt lat="43.94081" lon="2.37238">
        <ele>401.6</ele>
        <time>2021-10-21T13:11:52.000Z</time>
      </trkpt>
      <trkpt lat="43.94085" lon="2.3725">
        <ele>402</ele>
        <time>2021-10-21T13:12:01.000Z</time>
      </trkpt>
      <trkpt lat="43.94088" lon="2.37263">
        <ele>402.7</ele>
        <time>2021-10-21T13:12:11.000Z</time>
      </trkpt>
      <trkpt lat="43.94089" lon="2.37276">
        <ele>403.2</ele>
        <time>2021-10-21T13:12:20.000Z</time>
      </trkpt>
      <trkpt lat="43.9409" lon="2.37289">
        <ele>404.5</ele>
        <time>2021-10-21T13:12:30.000Z</time>
      </trkpt>
      <trkpt lat="43.94091" lon="2.37303">
        <ele>405.8</ele>
        <time>2021-10-21T13:12:38.000Z</time>
      </trkpt>
      <trkpt lat="43.9409" lon="2.37317">
        <ele>406.9</ele>
        <time>2021-10-21T13:12:47.000Z</time>
      </trkpt>
      <trkpt lat="43.94089" lon="2.37329">
        <ele>408.2</ele>
        <time>2021-10-21T13:12:55.000Z</time>
      </trkpt>
      <trkpt lat="43.94088" lon="2.37343">
        <ele>409.4</ele>
        <time>2021-10-21T13:13:07.000Z</time>
      </trkpt>
      <trkpt lat="43.94086" lon="2.37356">
        <ele>410.2</ele>
        <time>2021-10-21T13:13:17.000Z</time>
      </trkpt>
      <trkpt lat="43.94084" lon="2.37368">
        <ele>410.7</ele>
        <time>2021-10-21T13:13:27.000Z</time>
      </trkpt>
      <trkpt lat="43.94085" lon="2.37373">
        <ele>411.6</ele>
        <time>2021-10-21T13:13:33.000Z</time>
      </trkpt>
      <trkpt lat="43.94085" lon="2.37373">
        <ele>411.6</ele>
        <time>2021-10-21T13:13:35.000Z</time>
      </trkpt>
      <trkpt lat="43.94083" lon="2.37376">
        <ele>413.4</ele>
        <time>2021-10-21T13:13:42.000Z</time>
      </trkpt>
      <trkpt lat="43.94083" lon="2.37377">
        <ele>413.7</ele>
        <time>2021-10-21T13:13:43.000Z</time>
      </trkpt>
      <trkpt lat="43.94083" lon="2.37377">
        <ele>413.8</ele>
        <time>2021-10-21T13:13:44.000Z</time>
      </trkpt>
      <trkpt lat="43.94083" lon="2.37378">
        <ele>414</ele>
        <time>2021-10-21T13:14:09.000Z</time>
      </trkpt>
      <trkpt lat="43.94083" lon="2.37378">
        <ele>414</ele>
        <time>2021-10-21T13:14:10.000Z</time>
      </trkpt>
      <trkpt lat="43.94083" lon="2.37378">
        <ele>414.7</ele>
        <time>2021-10-21T13:14:42.000Z</time>
      </trkpt>
      <trkpt lat="43.94083" lon="2.37378">
        <ele>414.8</ele>
        <time>2021-10-21T13:14:43.000Z</time>
      </trkpt>
      <trkpt lat="43.94083" lon="2.37378">
        <ele>416</ele>
        <time>2021-10-21T13:15:14.000Z</time>
      </trkpt>
      <trkpt lat="43.94083" lon="2.37378">
        <ele>416.1</ele>
        <time>2021-10-21T13:15:15.000Z</time>
      </trkpt>
      <trkpt lat="43.94082" lon="2.37379">
        <ele>416.1</ele>
        <time>2021-10-21T13:15:45.000Z</time>
      </trkpt>
      <trkpt lat="43.94082" lon="2.37379">
        <ele>416.1</ele>
        <time>2021-10-21T13:15:46.000Z</time>
      </trkpt>
      <trkpt lat="43.94083" lon="2.37379">
        <ele>416.3</ele>
        <time>2021-10-21T13:15:56.000Z</time>
      </trkpt>
      <trkpt lat="43.94083" lon="2.37379">
        <ele>416.4</ele>
        <time>2021-10-21T13:15:57.000Z</time>
      </trkpt>
      <trkpt lat="43.94083" lon="2.37379">
        <ele>416.6</ele>
        <time>2021-10-21T13:16:11.000Z</time>
      </trkpt>
      <trkpt lat="43.94083" lon="2.37379">
        <ele>416.6</ele>
        <time>2021-10-21T13:16:12.000Z</time>
      </trkpt>
      <trkpt lat="43.94083" lon="2.37379">
        <ele>416.6</ele>
        <time>2021-10-21T13:16:27.000Z</time>
      </trkpt>
      <trkpt lat="43.94083" lon="2.37379">
        <ele>416.6</ele>
        <time>2021-10-21T13:16:28.000Z</time>
      </trkpt>
      <trkpt lat="43.94083" lon="2.37379">
        <ele>416.7</ele>
        <time>2021-10-21T13:16:34.000Z</time>
      </trkpt>
      <trkpt lat="43.94077" lon="2.37389">
        <ele>416.4</ele>
        <time>2021-10-21T13:16:44.000Z</time>
      </trkpt>
      <trkpt lat="43.94069" lon="2.37397">
        <ele>416.3</ele>
        <time>2021-10-21T13:16:53.000Z</time>
      </trkpt>
      <trkpt lat="43.94059" lon="2.37403">
        <ele>416.1</ele>
        <time>2021-10-21T13:17:02.000Z</time>
      </trkpt>
      <trkpt lat="43.9405" lon="2.37409">
        <ele>416.4</ele>
        <time>2021-10-21T13:17:10.000Z</time>
      </trkpt>
      <trkpt lat="43.94042" lon="2.37413">
        <ele>416.4</ele>
        <time>2021-10-21T13:17:17.000Z</time>
      </trkpt>
      <trkpt lat="43.94032" lon="2.37414">
        <ele>418.8</ele>
        <time>2021-10-21T13:17:25.000Z</time>
      </trkpt>
      <trkpt lat="43.94041" lon="2.37412">
        <ele>419.4</ele>
        <time>2021-10-21T13:17:35.000Z</time>
      </trkpt>
      <trkpt lat="43.9405" lon="2.37408">
        <ele>419.8</ele>
        <time>2021-10-21T13:17:42.000Z</time>
      </trkpt>
      <trkpt lat="43.9406" lon="2.37403">
        <ele>420.2</ele>
        <time>2021-10-21T13:17:50.000Z</time>
      </trkpt>
      <trkpt lat="43.94068" lon="2.37397">
        <ele>420.5</ele>
        <time>2021-10-21T13:17:58.000Z</time>
      </trkpt>
      <trkpt lat="43.94076" lon="2.37389">
        <ele>420.7</ele>
        <time>2021-10-21T13:18:10.000Z</time>
      </trkpt>
      <trkpt lat="43.94083" lon="2.37378">
        <ele>420</ele>
        <time>2021-10-21T13:18:20.000Z</time>
      </trkpt>
      <trkpt lat="43.94083" lon="2.37376">
        <ele>419.9</ele>
        <time>2021-10-21T13:18:24.000Z</time>
      </trkpt>
      <trkpt lat="43.94084" lon="2.37376">
        <ele>419.9</ele>
        <time>2021-10-21T13:19:14.000Z</time>
      </trkpt>
      <trkpt lat="43.94084" lon="2.37374">
        <ele>419.7</ele>
        <time>2021-10-21T13:19:21.000Z</time>
      </trkpt>
      <trkpt lat="43.94084" lon="2.37374">
        <ele>419.7</ele>
        <time>2021-10-21T13:19:26.000Z</time>
      </trkpt>
      <trkpt lat="43.94084" lon="2.37374">
        <ele>419.7</ele>
        <time>2021-10-21T13:19:27.000Z</time>
      </trkpt>
      <trkpt lat="43.94084" lon="2.37373">
        <ele>419.8</ele>
        <time>2021-10-21T13:19:31.000Z</time>
      </trkpt>
      <trkpt lat="43.94086" lon="2.3736">
        <ele>419.4</ele>
        <time>2021-10-21T13:19:42.000Z</time>
      </trkpt>
      <trkpt lat="43.94095" lon="2.37367">
        <ele>419</ele>
        <time>2021-10-21T13:20:01.000Z</time>
      </trkpt>
      <trkpt lat="43.94098" lon="2.3738">
        <ele>417.5</ele>
        <time>2021-10-21T13:20:10.000Z</time>
      </trkpt>
      <trkpt lat="43.94101" lon="2.37392">
        <ele>416.1</ele>
        <time>2021-10-21T13:20:19.000Z</time>
      </trkpt>
      <trkpt lat="43.9411" lon="2.37387">
        <ele>410.6</ele>
        <time>2021-10-21T13:20:42.000Z</time>
      </trkpt>
      <trkpt lat="43.94112" lon="2.3738">
        <ele>409.5</ele>
        <time>2021-10-21T13:20:49.000Z</time>
      </trkpt>
      <trkpt lat="43.94112" lon="2.3738">
        <ele>409.5</ele>
        <time>2021-10-21T13:20:53.000Z</time>
      </trkpt>
      <trkpt lat="43.94114" lon="2.37367">
        <ele>408.1</ele>
        <time>2021-10-21T13:21:02.000Z</time>
      </trkpt>
      <trkpt lat="43.94116" lon="2.37355">
        <ele>407.1</ele>
        <time>2021-10-21T13:21:11.000Z</time>
      </trkpt>
      <trkpt lat="43.94124" lon="2.37359">
        <ele>403.7</ele>
        <time>2021-10-21T13:21:31.000Z</time>
      </trkpt>
      <trkpt lat="43.94128" lon="2.37372">
        <ele>401.6</ele>
        <time>2021-10-21T13:21:40.000Z</time>
      </trkpt>
      <trkpt lat="43.9413" lon="2.37385">
        <ele>399</ele>
        <time>2021-10-21T13:21:49.000Z</time>
      </trkpt>
      <trkpt lat="43.94136" lon="2.37396">
        <ele>397.3</ele>
        <time>2021-10-21T13:21:59.000Z</time>
      </trkpt>
      <trkpt lat="43.94142" lon="2.37406">
        <ele>395.7</ele>
        <time>2021-10-21T13:22:09.000Z</time>
      </trkpt>
      <trkpt lat="43.94149" lon="2.37415">
        <ele>393.9</ele>
        <time>2021-10-21T13:22:19.000Z</time>
      </trkpt>
      <trkpt lat="43.94155" lon="2.37425">
        <ele>391.9</ele>
        <time>2021-10-21T13:22:30.000Z</time>
      </trkpt>
      <trkpt lat="43.94159" lon="2.37436">
        <ele>390.1</ele>
        <time>2021-10-21T13:22:40.000Z</time>
      </trkpt>
      <trkpt lat="43.94164" lon="2.37447">
        <ele>386.7</ele>
        <time>2021-10-21T13:22:57.000Z</time>
      </trkpt>
      <trkpt lat="43.9417" lon="2.37438">
        <ele>383.7</ele>
        <time>2021-10-21T13:23:07.000Z</time>
      </trkpt>
      <trkpt lat="43.94177" lon="2.37448">
        <ele>380.9</ele>
        <time>2021-10-21T13:23:19.000Z</time>
      </trkpt>
      <trkpt lat="43.94182" lon="2.37459">
        <ele>379.9</ele>
        <time>2021-10-21T13:23:27.000Z</time>
      </trkpt>
      <trkpt lat="43.94188" lon="2.37468">
        <ele>379.1</ele>
        <time>2021-10-21T13:23:37.000Z</time>
      </trkpt>
      <trkpt lat="43.94195" lon="2.37478">
        <ele>375.1</ele>
        <time>2021-10-21T13:23:59.000Z</time>
      </trkpt>
      <trkpt lat="43.94203" lon="2.37483">
        <ele>373.2</ele>
        <time>2021-10-21T13:24:11.000Z</time>
      </trkpt>
      <trkpt lat="43.94203" lon="2.37482">
        <ele>373.1</ele>
        <time>2021-10-21T13:24:13.000Z</time>
      </trkpt>
      <trkpt lat="43.94203" lon="2.37483">
        <ele>372.9</ele>
        <time>2021-10-21T13:24:22.000Z</time>
      </trkpt>
      <trkpt lat="43.94204" lon="2.37483">
        <ele>372.9</ele>
        <time>2021-10-21T13:24:25.000Z</time>
      </trkpt>
      <trkpt lat="43.94204" lon="2.37483">
        <ele>372.9</ele>
        <time>2021-10-21T13:24:27.000Z</time>
      </trkpt>
      <trkpt lat="43.94204" lon="2.37483">
        <ele>372.9</ele>
        <time>2021-10-21T13:24:28.000Z</time>
      </trkpt>
      <trkpt lat="43.94204" lon="2.37483">
        <ele>372.7</ele>
        <time>2021-10-21T13:24:42.000Z</time>
      </trkpt>
      <trkpt lat="43.94204" lon="2.37483">
        <ele>372.8</ele>
        <time>2021-10-21T13:24:44.000Z</time>
      </trkpt>
      <trkpt lat="43.94204" lon="2.37483">
        <ele>372.8</ele>
        <time>2021-10-21T13:24:47.000Z</time>
      </trkpt>
      <trkpt lat="43.94204" lon="2.37483">
        <ele>372.7</ele>
        <time>2021-10-21T13:24:48.000Z</time>
      </trkpt>
      <trkpt lat="43.94204" lon="2.37483">
        <ele>372.6</ele>
        <time>2021-10-21T13:24:49.000Z</time>
      </trkpt>
      <trkpt lat="43.94204" lon="2.37483">
        <ele>372.5</ele>
        <time>2021-10-21T13:24:50.000Z</time>
      </trkpt>
      <trkpt lat="43.94204" lon="2.37483">
        <ele>372.5</ele>
        <time>2021-10-21T13:24:51.000Z</time>
      </trkpt>
      <trkpt lat="43.94205" lon="2.37483">
        <ele>372.3</ele>
        <time>2021-10-21T13:24:57.000Z</time>
      </trkpt>
      <trkpt lat="43.94205" lon="2.37483">
        <ele>372.3</ele>
        <time>2021-10-21T13:25:04.000Z</time>
      </trkpt>
      <trkpt lat="43.94205" lon="2.37483">
        <ele>372.3</ele>
        <time>2021-10-21T13:25:05.000Z</time>
      </trkpt>
      <trkpt lat="43.94205" lon="2.37483">
        <ele>372.3</ele>
        <time>2021-10-21T13:25:14.000Z</time>
      </trkpt>
      <trkpt lat="43.94205" lon="2.37483">
        <ele>372.3</ele>
        <time>2021-10-21T13:25:15.000Z</time>
      </trkpt>
      <trkpt lat="43.94205" lon="2.37483">
        <ele>372.3</ele>
        <time>2021-10-21T13:25:19.000Z</time>
      </trkpt>
      <trkpt lat="43.94214" lon="2.37483">
        <ele>368.8</ele>
        <time>2021-10-21T13:25:46.000Z</time>
      </trkpt>
      <trkpt lat="43.94215" lon="2.37484">
        <ele>368.4</ele>
        <time>2021-10-21T13:25:50.000Z</time>
      </trkpt>
      <trkpt lat="43.94215" lon="2.37485">
        <ele>368.3</ele>
        <time>2021-10-21T13:25:57.000Z</time>
      </trkpt>
      <trkpt lat="43.94215" lon="2.37485">
        <ele>368.3</ele>
        <time>2021-10-21T13:25:58.000Z</time>
      </trkpt>
      <trkpt lat="43.94215" lon="2.37485">
        <ele>368.2</ele>
        <time>2021-10-21T13:26:01.000Z</time>
      </trkpt>
      <trkpt lat="43.94216" lon="2.37486">
        <ele>367.8</ele>
        <time>2021-10-21T13:26:05.000Z</time>
      </trkpt>
      <trkpt lat="43.94216" lon="2.37486">
        <ele>367.8</ele>
        <time>2021-10-21T13:26:08.000Z</time>
      </trkpt>
      <trkpt lat="43.94216" lon="2.37486">
        <ele>367.8</ele>
        <time>2021-10-21T13:26:09.000Z</time>
      </trkpt>
      <trkpt lat="43.94216" lon="2.37486">
        <ele>367.6</ele>
        <time>2021-10-21T13:26:33.000Z</time>
      </trkpt>
      <trkpt lat="43.94216" lon="2.37486">
        <ele>367.5</ele>
        <time>2021-10-21T13:26:35.000Z</time>
      </trkpt>
      <trkpt lat="43.94216" lon="2.37486">
        <ele>367.4</ele>
        <time>2021-10-21T13:26:36.000Z</time>
      </trkpt>
      <trkpt lat="43.94216" lon="2.37486">
        <ele>367.3</ele>
        <time>2021-10-21T13:26:39.000Z</time>
      </trkpt>
      <trkpt lat="43.94216" lon="2.37486">
        <ele>366.9</ele>
        <time>2021-10-21T13:26:54.000Z</time>
      </trkpt>
      <trkpt lat="43.94217" lon="2.37487">
        <ele>366.9</ele>
        <time>2021-10-21T13:26:57.000Z</time>
      </trkpt>
      <trkpt lat="43.94217" lon="2.37487">
        <ele>366.8</ele>
        <time>2021-10-21T13:27:03.000Z</time>
      </trkpt>
      <trkpt lat="43.94215" lon="2.375">
        <ele>365.1</ele>
        <time>2021-10-21T13:27:19.000Z</time>
      </trkpt>
      <trkpt lat="43.94215" lon="2.37514">
        <ele>362.1</ele>
        <time>2021-10-21T13:27:38.000Z</time>
      </trkpt>
      <trkpt lat="43.94224" lon="2.37511">
        <ele>360.2</ele>
        <time>2021-10-21T13:27:50.000Z</time>
      </trkpt>
      <trkpt lat="43.94231" lon="2.37519">
        <ele>353.7</ele>
        <time>2021-10-21T13:28:18.000Z</time>
      </trkpt>
      <trkpt lat="43.94231" lon="2.3752">
        <ele>353</ele>
        <time>2021-10-21T13:28:22.000Z</time>
      </trkpt>
      <trkpt lat="43.94231" lon="2.3752">
        <ele>352.9</ele>
        <time>2021-10-21T13:28:23.000Z</time>
      </trkpt>
      <trkpt lat="43.94231" lon="2.3752">
        <ele>352.8</ele>
        <time>2021-10-21T13:28:24.000Z</time>
      </trkpt>
      <trkpt lat="43.94231" lon="2.3752">
        <ele>352.8</ele>
        <time>2021-10-21T13:28:26.000Z</time>
      </trkpt>
      <trkpt lat="43.94226" lon="2.37531">
        <ele>349.4</ele>
        <time>2021-10-21T13:28:54.000Z</time>
      </trkpt>
      <trkpt lat="43.94235" lon="2.37537">
        <ele>346.7</ele>
        <time>2021-10-21T13:29:08.000Z</time>
      </trkpt>
      <trkpt lat="43.94239" lon="2.37539">
        <ele>343.2</ele>
        <time>2021-10-21T13:29:24.000Z</time>
      </trkpt>
      <trkpt lat="43.94239" lon="2.3754">
        <ele>343.2</ele>
        <time>2021-10-21T13:29:25.000Z</time>
      </trkpt>
      <trkpt lat="43.9424" lon="2.37542">
        <ele>343.4</ele>
        <time>2021-10-21T13:29:31.000Z</time>
      </trkpt>
      <trkpt lat="43.94239" lon="2.37542">
        <ele>343.4</ele>
        <time>2021-10-21T13:29:42.000Z</time>
      </trkpt>
      <trkpt lat="43.94232" lon="2.3755">
        <ele>341.2</ele>
        <time>2021-10-21T13:29:56.000Z</time>
      </trkpt>
      <trkpt lat="43.94241" lon="2.37552">
        <ele>335</ele>
        <time>2021-10-21T13:30:29.000Z</time>
      </trkpt>
      <trkpt lat="43.94238" lon="2.37559">
        <ele>333</ele>
        <time>2021-10-21T13:30:41.000Z</time>
      </trkpt>
      <trkpt lat="43.94238" lon="2.37559">
        <ele>333</ele>
        <time>2021-10-21T13:30:42.000Z</time>
      </trkpt>
      <trkpt lat="43.94238" lon="2.37559">
        <ele>333</ele>
        <time>2021-10-21T13:30:44.000Z</time>
      </trkpt>
      <trkpt lat="43.94237" lon="2.37559">
        <ele>332.8</ele>
        <time>2021-10-21T13:30:46.000Z</time>
      </trkpt>
      <trkpt lat="43.94237" lon="2.37567">
        <ele>331</ele>
        <time>2021-10-21T13:31:12.000Z</time>
      </trkpt>
      <trkpt lat="43.94238" lon="2.37566">
        <ele>330.8</ele>
        <time>2021-10-21T13:31:13.000Z</time>
      </trkpt>
      <trkpt lat="43.94247" lon="2.37565">
        <ele>329</ele>
        <time>2021-10-21T13:31:33.000Z</time>
      </trkpt>
      <trkpt lat="43.9425" lon="2.37574">
        <ele>324.5</ele>
        <time>2021-10-21T13:32:15.000Z</time>
      </trkpt>
      <trkpt lat="43.9425" lon="2.37574">
        <ele>324.3</ele>
        <time>2021-10-21T13:32:18.000Z</time>
      </trkpt>
      <trkpt lat="43.94247" lon="2.37586">
        <ele>322.8</ele>
        <time>2021-10-21T13:32:31.000Z</time>
      </trkpt>
      <trkpt lat="43.94243" lon="2.37599">
        <ele>321.4</ele>
        <time>2021-10-21T13:32:40.000Z</time>
      </trkpt>
      <trkpt lat="43.94244" lon="2.37613">
        <ele>320.6</ele>
        <time>2021-10-21T13:32:47.000Z</time>
      </trkpt>
      <trkpt lat="43.94248" lon="2.37625">
        <ele>319.8</ele>
        <time>2021-10-21T13:32:55.000Z</time>
      </trkpt>
      <trkpt lat="43.94252" lon="2.37636">
        <ele>319.4</ele>
        <time>2021-10-21T13:33:04.000Z</time>
      </trkpt>
      <trkpt lat="43.94255" lon="2.3765">
        <ele>317.1</ele>
        <time>2021-10-21T13:33:15.000Z</time>
      </trkpt>
      <trkpt lat="43.94257" lon="2.37653">
        <ele>316.1</ele>
        <time>2021-10-21T13:33:21.000Z</time>
      </trkpt>
      <trkpt lat="43.94257" lon="2.37654">
        <ele>316.1</ele>
        <time>2021-10-21T13:33:24.000Z</time>
      </trkpt>
      <trkpt lat="43.94265" lon="2.3765">
        <ele>312.6</ele>
        <time>2021-10-21T13:33:51.000Z</time>
      </trkpt>
      <trkpt lat="43.94268" lon="2.37662">
        <ele>310.4</ele>
        <time>2021-10-21T13:34:05.000Z</time>
      </trkpt>
      <trkpt lat="43.94275" lon="2.3767">
        <ele>308.5</ele>
        <time>2021-10-21T13:34:16.000Z</time>
      </trkpt>
      <trkpt lat="43.94284" lon="2.37671">
        <ele>308</ele>
        <time>2021-10-21T13:34:31.000Z</time>
      </trkpt>
      <trkpt lat="43.94293" lon="2.37677">
        <ele>307.1</ele>
        <time>2021-10-21T13:34:43.000Z</time>
      </trkpt>
      <trkpt lat="43.94301" lon="2.37682">
        <ele>299.9</ele>
        <time>2021-10-21T13:35:24.000Z</time>
      </trkpt>
      <trkpt lat="43.9431" lon="2.37685">
        <ele>297.8</ele>
        <time>2021-10-21T13:35:39.000Z</time>
      </trkpt>
      <trkpt lat="43.94311" lon="2.37672">
        <ele>296.4</ele>
        <time>2021-10-21T13:35:51.000Z</time>
      </trkpt>
      <trkpt lat="43.94306" lon="2.37662">
        <ele>294.8</ele>
        <time>2021-10-21T13:36:03.000Z</time>
      </trkpt>
      <trkpt lat="43.94298" lon="2.37654">
        <ele>294.8</ele>
        <time>2021-10-21T13:36:12.000Z</time>
      </trkpt>
      <trkpt lat="43.94295" lon="2.37642">
        <ele>294.4</ele>
        <time>2021-10-21T13:36:23.000Z</time>
      </trkpt>
      <trkpt lat="43.94295" lon="2.37629">
        <ele>295.1</ele>
        <time>2021-10-21T13:36:39.000Z</time>
      </trkpt>
      <trkpt lat="43.94299" lon="2.37629">
        <ele>291.8</ele>
        <time>2021-10-21T13:36:49.000Z</time>
      </trkpt>
      <trkpt lat="43.94299" lon="2.37629">
        <ele>291.6</ele>
        <time>2021-10-21T13:36:51.000Z</time>
      </trkpt>
      <trkpt lat="43.94302" lon="2.37641">
        <ele>288.3</ele>
        <time>2021-10-21T13:37:14.000Z</time>
      </trkpt>
      <trkpt lat="43.94304" lon="2.37644">
        <ele>288.2</ele>
        <time>2021-10-21T13:37:22.000Z</time>
      </trkpt>
      <trkpt lat="43.94305" lon="2.37644">
        <ele>288</ele>
        <time>2021-10-21T13:37:24.000Z</time>
      </trkpt>
      <trkpt lat="43.94304" lon="2.37631">
        <ele>286.4</ele>
        <time>2021-10-21T13:37:47.000Z</time>
      </trkpt>
      <trkpt lat="43.9431" lon="2.37626">
        <ele>284</ele>
        <time>2021-10-21T13:38:08.000Z</time>
      </trkpt>
      <trkpt lat="43.9431" lon="2.37627">
        <ele>283.8</ele>
        <time>2021-10-21T13:38:10.000Z</time>
      </trkpt>
      <trkpt lat="43.94317" lon="2.37635">
        <ele>281.1</ele>
        <time>2021-10-21T13:38:28.000Z</time>
      </trkpt>
      <trkpt lat="43.94324" lon="2.37642">
        <ele>278.9</ele>
        <time>2021-10-21T13:38:50.000Z</time>
      </trkpt>
      <trkpt lat="43.94324" lon="2.37642">
        <ele>278.8</ele>
        <time>2021-10-21T13:38:51.000Z</time>
      </trkpt>
      <trkpt lat="43.94324" lon="2.37642">
        <ele>278.7</ele>
        <time>2021-10-21T13:38:52.000Z</time>
      </trkpt>
      <trkpt lat="43.94324" lon="2.37642">
        <ele>278.6</ele>
        <time>2021-10-21T13:38:53.000Z</time>
      </trkpt>
      <trkpt lat="43.94334" lon="2.37642">
        <ele>277.5</ele>
        <time>2021-10-21T13:39:05.000Z</time>
      </trkpt>
      <trkpt lat="43.94342" lon="2.37647">
        <ele>274.8</ele>
        <time>2021-10-21T13:39:19.000Z</time>
      </trkpt>
      <trkpt lat="43.94342" lon="2.37648">
        <ele>274.6</ele>
        <time>2021-10-21T13:39:20.000Z</time>
      </trkpt>
      <trkpt lat="43.94342" lon="2.37649">
        <ele>274.4</ele>
        <time>2021-10-21T13:39:22.000Z</time>
      </trkpt>
      <trkpt lat="43.94342" lon="2.3765">
        <ele>274.3</ele>
        <time>2021-10-21T13:39:23.000Z</time>
      </trkpt>
      <trkpt lat="43.94341" lon="2.37651">
        <ele>273.7</ele>
        <time>2021-10-21T13:39:27.000Z</time>
      </trkpt>
      <trkpt lat="43.94341" lon="2.37651">
        <ele>273.6</ele>
        <time>2021-10-21T13:39:28.000Z</time>
      </trkpt>
      <trkpt lat="43.94345" lon="2.37655">
        <ele>273.2</ele>
        <time>2021-10-21T13:39:38.000Z</time>
      </trkpt>
      <trkpt lat="43.94346" lon="2.37655">
        <ele>273</ele>
        <time>2021-10-21T13:39:39.000Z</time>
      </trkpt>
      <trkpt lat="43.94353" lon="2.37663">
        <ele>270.4</ele>
        <time>2021-10-21T13:39:49.000Z</time>
      </trkpt>
      <trkpt lat="43.94361" lon="2.37667">
        <ele>267</ele>
        <time>2021-10-21T13:40:02.000Z</time>
      </trkpt>
      <trkpt lat="43.94366" lon="2.37668">
        <ele>265.9</ele>
        <time>2021-10-21T13:40:16.000Z</time>
      </trkpt>
      <trkpt lat="43.94366" lon="2.37668">
        <ele>265.7</ele>
        <time>2021-10-21T13:40:17.000Z</time>
      </trkpt>
      <trkpt lat="43.94366" lon="2.3767">
        <ele>263.8</ele>
        <time>2021-10-21T13:40:22.000Z</time>
      </trkpt>
      <trkpt lat="43.94366" lon="2.3767">
        <ele>263.4</ele>
        <time>2021-10-21T13:40:24.000Z</time>
      </trkpt>
      <trkpt lat="43.94362" lon="2.37658">
        <ele>259.3</ele>
        <time>2021-10-21T13:40:44.000Z</time>
      </trkpt>
      <trkpt lat="43.9436" lon="2.37646">
        <ele>256.4</ele>
        <time>2021-10-21T13:41:03.000Z</time>
      </trkpt>
      <trkpt lat="43.94358" lon="2.37634">
        <ele>256.7</ele>
        <time>2021-10-21T13:41:15.000Z</time>
      </trkpt>
      <trkpt lat="43.94357" lon="2.37621">
        <ele>256.1</ele>
        <time>2021-10-21T13:41:26.000Z</time>
      </trkpt>
      <trkpt lat="43.94365" lon="2.37628">
        <ele>249.6</ele>
        <time>2021-10-21T13:42:00.000Z</time>
      </trkpt>
      <trkpt lat="43.94372" lon="2.37636">
        <ele>247.1</ele>
        <time>2021-10-21T13:42:11.000Z</time>
      </trkpt>
      <trkpt lat="43.9438" lon="2.37644">
        <ele>245.2</ele>
        <time>2021-10-21T13:42:27.000Z</time>
      </trkpt>
      <trkpt lat="43.94378" lon="2.37631">
        <ele>241.6</ele>
        <time>2021-10-21T13:42:42.000Z</time>
      </trkpt>
      <trkpt lat="43.94375" lon="2.37619">
        <ele>239.6</ele>
        <time>2021-10-21T13:42:56.000Z</time>
      </trkpt>
      <trkpt lat="43.9437" lon="2.37608">
        <ele>238.4</ele>
        <time>2021-10-21T13:43:08.000Z</time>
      </trkpt>
      <trkpt lat="43.9437" lon="2.37605">
        <ele>237.9</ele>
        <time>2021-10-21T13:43:12.000Z</time>
      </trkpt>
      <trkpt lat="43.9437" lon="2.37604">
        <ele>237.9</ele>
        <time>2021-10-21T13:43:13.000Z</time>
      </trkpt>
      <trkpt lat="43.94365" lon="2.37594">
        <ele>237.4</ele>
        <time>2021-10-21T13:43:27.000Z</time>
      </trkpt>
      <trkpt lat="43.94366" lon="2.37592">
        <ele>236.9</ele>
        <time>2021-10-21T13:43:34.000Z</time>
      </trkpt>
      <trkpt lat="43.94366" lon="2.37592">
        <ele>236.9</ele>
        <time>2021-10-21T13:43:37.000Z</time>
      </trkpt>
      <trkpt lat="43.94369" lon="2.37595">
        <ele>236</ele>
        <time>2021-10-21T13:43:43.000Z</time>
      </trkpt>
      <trkpt lat="43.9437" lon="2.37595">
        <ele>236.3</ele>
        <time>2021-10-21T13:43:45.000Z</time>
      </trkpt>
      <trkpt lat="43.9437" lon="2.37581">
        <ele>234.6</ele>
        <time>2021-10-21T13:43:58.000Z</time>
      </trkpt>
      <trkpt lat="43.94366" lon="2.37569">
        <ele>234.2</ele>
        <time>2021-10-21T13:44:07.000Z</time>
      </trkpt>
      <trkpt lat="43.94375" lon="2.37575">
        <ele>232.3</ele>
        <time>2021-10-21T13:44:33.000Z</time>
      </trkpt>
      <trkpt lat="43.94381" lon="2.37586">
        <ele>231.7</ele>
        <time>2021-10-21T13:44:48.000Z</time>
      </trkpt>
      <trkpt lat="43.94383" lon="2.37599">
        <ele>223.8</ele>
        <time>2021-10-21T13:45:35.000Z</time>
      </trkpt>
      <trkpt lat="43.94388" lon="2.3761">
        <ele>222.8</ele>
        <time>2021-10-21T13:45:47.000Z</time>
      </trkpt>
      <trkpt lat="43.94391" lon="2.37597">
        <ele>220.9</ele>
        <time>2021-10-21T13:46:09.000Z</time>
      </trkpt>
      <trkpt lat="43.94398" lon="2.37602">
        <ele>215.7</ele>
        <time>2021-10-21T13:46:50.000Z</time>
      </trkpt>
      <trkpt lat="43.94397" lon="2.37601">
        <ele>215.5</ele>
        <time>2021-10-21T13:46:52.000Z</time>
      </trkpt>
      <trkpt lat="43.94396" lon="2.37597">
        <ele>212.6</ele>
        <time>2021-10-21T13:47:00.000Z</time>
      </trkpt>
      <trkpt lat="43.94396" lon="2.37596">
        <ele>212.6</ele>
        <time>2021-10-21T13:47:01.000Z</time>
      </trkpt>
      <trkpt lat="43.94396" lon="2.37596">
        <ele>212.2</ele>
        <time>2021-10-21T13:47:04.000Z</time>
      </trkpt>
      <trkpt lat="43.94396" lon="2.37596">
        <ele>212</ele>
        <time>2021-10-21T13:47:05.000Z</time>
      </trkpt>
      <trkpt lat="43.94396" lon="2.37596">
        <ele>212</ele>
        <time>2021-10-21T13:47:06.000Z</time>
      </trkpt>
      <trkpt lat="43.94396" lon="2.37596">
        <ele>211.8</ele>
        <time>2021-10-21T13:47:08.000Z</time>
      </trkpt>
      <trkpt lat="43.94399" lon="2.37594">
        <ele>211.8</ele>
        <time>2021-10-21T13:47:15.000Z</time>
      </trkpt>
      <trkpt lat="43.94399" lon="2.37594">
        <ele>211.8</ele>
        <time>2021-10-21T13:47:19.000Z</time>
      </trkpt>
      <trkpt lat="43.94399" lon="2.37594">
        <ele>211.9</ele>
        <time>2021-10-21T13:47:21.000Z</time>
      </trkpt>
      <trkpt lat="43.94399" lon="2.37594">
        <ele>211.8</ele>
        <time>2021-10-21T13:47:22.000Z</time>
      </trkpt>
      <trkpt lat="43.94399" lon="2.37594">
        <ele>211.8</ele>
        <time>2021-10-21T13:47:23.000Z</time>
      </trkpt>
      <trkpt lat="43.94399" lon="2.37594">
        <ele>211.7</ele>
        <time>2021-10-21T13:47:27.000Z</time>
      </trkpt>
      <trkpt lat="43.94398" lon="2.37595">
        <ele>210.9</ele>
        <time>2021-10-21T13:47:34.000Z</time>
      </trkpt>
      <trkpt lat="43.94398" lon="2.37595">
        <ele>210.9</ele>
        <time>2021-10-21T13:47:39.000Z</time>
      </trkpt>
      <trkpt lat="43.94398" lon="2.37595">
        <ele>210.8</ele>
        <time>2021-10-21T13:47:42.000Z</time>
      </trkpt>
      <trkpt lat="43.94398" lon="2.37596">
        <ele>210.5</ele>
        <time>2021-10-21T13:47:47.000Z</time>
      </trkpt>
      <trkpt lat="43.94395" lon="2.37597">
        <ele>210.1</ele>
        <time>2021-10-21T13:47:58.000Z</time>
      </trkpt>
      <trkpt lat="43.94394" lon="2.37597">
        <ele>210.1</ele>
        <time>2021-10-21T13:47:59.000Z</time>
      </trkpt>
      <trkpt lat="43.94394" lon="2.37597">
        <ele>210</ele>
        <time>2021-10-21T13:48:01.000Z</time>
      </trkpt>
      <trkpt lat="43.94395" lon="2.37597">
        <ele>210</ele>
        <time>2021-10-21T13:48:05.000Z</time>
      </trkpt>
      <trkpt lat="43.94395" lon="2.37598">
        <ele>210.1</ele>
        <time>2021-10-21T13:48:06.000Z</time>
      </trkpt>
      <trkpt lat="43.94395" lon="2.37598">
        <ele>210.3</ele>
        <time>2021-10-21T13:48:07.000Z</time>
      </trkpt>
      <trkpt lat="43.94399" lon="2.37611">
        <ele>209.8</ele>
        <time>2021-10-21T13:48:18.000Z</time>
      </trkpt>
      <trkpt lat="43.94403" lon="2.37622">
        <ele>210</ele>
        <time>2021-10-21T13:48:26.000Z</time>
      </trkpt>
      <trkpt lat="43.9441" lon="2.37632">
        <ele>210.2</ele>
        <time>2021-10-21T13:48:35.000Z</time>
      </trkpt>
      <trkpt lat="43.94414" lon="2.37635">
        <ele>209.6</ele>
        <time>2021-10-21T13:48:46.000Z</time>
      </trkpt>
      <trkpt lat="43.94414" lon="2.37635">
        <ele>209.7</ele>
        <time>2021-10-21T13:48:49.000Z</time>
      </trkpt>
      <trkpt lat="43.94414" lon="2.37635">
        <ele>209.8</ele>
        <time>2021-10-21T13:48:50.000Z</time>
      </trkpt>
      <trkpt lat="43.94414" lon="2.37635">
        <ele>209.8</ele>
        <time>2021-10-21T13:48:59.000Z</time>
      </trkpt>
      <trkpt lat="43.94419" lon="2.37646">
        <ele>209.6</ele>
        <time>2021-10-21T13:49:10.000Z</time>
      </trkpt>
      <trkpt lat="43.94424" lon="2.37656">
        <ele>209.7</ele>
        <time>2021-10-21T13:49:19.000Z</time>
      </trkpt>
      <trkpt lat="43.94424" lon="2.37669">
        <ele>210.3</ele>
        <time>2021-10-21T13:49:31.000Z</time>
      </trkpt>
      <trkpt lat="43.94428" lon="2.37681">
        <ele>210.7</ele>
        <time>2021-10-21T13:49:41.000Z</time>
      </trkpt>
      <trkpt lat="43.94431" lon="2.37693">
        <ele>210.9</ele>
        <time>2021-10-21T13:49:50.000Z</time>
      </trkpt>
      <trkpt lat="43.94435" lon="2.37705">
        <ele>211.5</ele>
        <time>2021-10-21T13:50:00.000Z</time>
      </trkpt>
      <trkpt lat="43.9444" lon="2.37716">
        <ele>210.8</ele>
        <time>2021-10-21T13:50:11.000Z</time>
      </trkpt>
      <trkpt lat="43.94445" lon="2.37727">
        <ele>209.6</ele>
        <time>2021-10-21T13:50:22.000Z</time>
      </trkpt>
      <trkpt lat="43.94451" lon="2.37737">
        <ele>209.6</ele>
        <time>2021-10-21T13:50:32.000Z</time>
      </trkpt>
      <trkpt lat="43.94453" lon="2.37737">
        <ele>209.4</ele>
        <time>2021-10-21T13:50:37.000Z</time>
      </trkpt>
      <trkpt lat="43.94453" lon="2.37737">
        <ele>209.4</ele>
        <time>2021-10-21T13:50:39.000Z</time>
      </trkpt>
      <trkpt lat="43.94457" lon="2.37739">
        <ele>209.5</ele>
        <time>2021-10-21T13:50:48.000Z</time>
      </trkpt>
      <trkpt lat="43.94456" lon="2.37739">
        <ele>209.7</ele>
        <time>2021-10-21T13:50:49.000Z</time>
      </trkpt>
      <trkpt lat="43.94457" lon="2.37739">
        <ele>209.7</ele>
        <time>2021-10-21T13:50:51.000Z</time>
      </trkpt>
      <trkpt lat="43.94456" lon="2.37739">
        <ele>209.7</ele>
        <time>2021-10-21T13:50:59.000Z</time>
      </trkpt>
      <trkpt lat="43.94456" lon="2.37739">
        <ele>209.9</ele>
        <time>2021-10-21T13:51:01.000Z</time>
      </trkpt>
      <trkpt lat="43.94456" lon="2.3774">
        <ele>210.1</ele>
        <time>2021-10-21T13:51:04.000Z</time>
      </trkpt>
      <trkpt lat="43.94457" lon="2.37739">
        <ele>210.3</ele>
        <time>2021-10-21T13:51:07.000Z</time>
      </trkpt>
      <trkpt lat="43.94456" lon="2.37739">
        <ele>210.2</ele>
        <time>2021-10-21T13:51:08.000Z</time>
      </trkpt>
      <trkpt lat="43.94456" lon="2.37738">
        <ele>209.8</ele>
        <time>2021-10-21T13:51:18.000Z</time>
      </trkpt>
      <trkpt lat="43.94456" lon="2.37738">
        <ele>209.8</ele>
        <time>2021-10-21T13:51:29.000Z</time>
      </trkpt>
      <trkpt lat="43.94457" lon="2.37739">
        <ele>209.7</ele>
        <time>2021-10-21T13:51:38.000Z</time>
      </trkpt>
      <trkpt lat="43.94457" lon="2.37739">
        <ele>209.7</ele>
        <time>2021-10-21T13:51:40.000Z</time>
      </trkpt>
      <trkpt lat="43.94457" lon="2.37739">
        <ele>209.8</ele>
        <time>2021-10-21T13:51:41.000Z</time>
      </trkpt>
      <trkpt lat="43.94457" lon="2.37739">
        <ele>209.8</ele>
        <time>2021-10-21T13:51:45.000Z</time>
      </trkpt>
      <trkpt lat="43.94457" lon="2.37739">
        <ele>209.8</ele>
        <time>2021-10-21T13:51:45.000Z</time>
      </trkpt>
    </trkseg>
  </trk>
</gpx>